<?xml version='1.0' encoding='UTF-8'?><gpx version="1.1" creator="JPX - https://github.com/jenetics/jpx" xmlns="http://www.topografix.com/GPX/1/1"><trk><trkseg><trkpt lat="45.57661147270058" lon="10.754197620971068"><ele>210.0</ele><time>2026-03-28T11:29:27Z</time></trkpt><trkpt lat="45.57660092058421" lon="10.754301285049694"><ele>210.0</ele><time>2026-03-28T11:29:31Z</time></trkpt><trkpt lat="45.576659162662814" lon="10.754353836592973"><ele>210.0</ele><time>2026-03-28T11:29:37Z</time></trkpt><trkpt lat="45.576739724552816" lon="10.754327190792756"><ele>210.0</ele><time>2026-03-28T11:29:43Z</time></trkpt><trkpt lat="45.57680724767364" lon="10.754230433550182"><ele>210.0</ele><time>2026-03-28T11:29:45Z</time></trkpt><trkpt lat="45.576874493912015" lon="10.754158966851177"><ele>210.0</ele><time>2026-03-28T11:29:47Z</time></trkpt><trkpt lat="45.57693356668071" lon="10.754206981156468"><ele>210.0</ele><time>2026-03-28T11:29:50Z</time></trkpt><trkpt lat="45.577002018332095" lon="10.75431563587316"><ele>210.0</ele><time>2026-03-28T11:30:04Z</time></trkpt><trkpt lat="45.577043692833556" lon="10.754485271190264"><ele>210.0</ele><time>2026-03-28T11:30:06Z</time></trkpt><trkpt lat="45.57706628746303" lon="10.754587590261817"><ele>210.0</ele><time>2026-03-28T11:30:07Z</time></trkpt><trkpt lat="45.577085862299896" lon="10.754702863887069"><ele>210.0</ele><time>2026-03-28T11:30:08Z</time></trkpt><trkpt lat="45.577101245002076" lon="10.754822310195895"><ele>209.4</ele><time>2026-03-28T11:30:09Z</time></trkpt><trkpt lat="45.577136258276646" lon="10.754960092529332"><ele>208.8</ele><time>2026-03-28T11:30:10Z</time></trkpt><trkpt lat="45.57715604476952" lon="10.755097670000026"><ele>208.2</ele><time>2026-03-28T11:30:11Z</time></trkpt><trkpt lat="45.57717726175431" lon="10.755245194012334"><ele>207.6</ele><time>2026-03-28T11:30:12Z</time></trkpt><trkpt lat="45.57719693896579" lon="10.755382011708296"><ele>207.0</ele><time>2026-03-28T11:30:13Z</time></trkpt><trkpt lat="45.57719458386599" lon="10.755519472699731"><ele>206.83333333333334</ele><time>2026-03-28T11:30:14Z</time></trkpt><trkpt lat="45.57720962926436" lon="10.755657776973083"><ele>206.66666666666669</ele><time>2026-03-28T11:30:15Z</time></trkpt><trkpt lat="45.577218858866054" lon="10.75576931073559"><ele>206.5</ele><time>2026-03-28T11:30:16Z</time></trkpt><trkpt lat="45.5772190938576" lon="10.755892418005615"><ele>206.33333333333334</ele><time>2026-03-28T11:30:17Z</time></trkpt><trkpt lat="45.57721015074845" lon="10.755984936653896"><ele>206.16666666666669</ele><time>2026-03-28T11:30:18Z</time></trkpt><trkpt lat="45.577188099275325" lon="10.756093894866808"><ele>206.0</ele><time>2026-03-28T11:30:19Z</time></trkpt><trkpt lat="45.57716055848325" lon="10.756198387667553"><ele>206.00000000000003</ele><time>2026-03-28T11:30:20Z</time></trkpt><trkpt lat="45.577126096728236" lon="10.756292189093399"><ele>206.0</ele><time>2026-03-28T11:30:21Z</time></trkpt><trkpt lat="45.577086209035755" lon="10.75638230441755"><ele>206.0</ele><time>2026-03-28T11:30:22Z</time></trkpt><trkpt lat="45.57703644474648" lon="10.756458802997468"><ele>206.0</ele><time>2026-03-28T11:30:23Z</time></trkpt><trkpt lat="45.57697018761886" lon="10.756585339650565"><ele>206.00000000000003</ele><time>2026-03-28T11:30:25Z</time></trkpt><trkpt lat="45.576922378297695" lon="10.756705008890856"><ele>206.0</ele><time>2026-03-28T11:30:46Z</time></trkpt><trkpt lat="45.5770610361265" lon="10.756752325792146"><ele>206.0</ele><time>2026-03-28T11:30:48Z</time></trkpt><trkpt lat="45.577149423366144" lon="10.756709236004578"><ele>206.0</ele><time>2026-03-28T11:30:49Z</time></trkpt><trkpt lat="45.57725011532883" lon="10.756676325221946"><ele>206.0</ele><time>2026-03-28T11:30:50Z</time></trkpt><trkpt lat="45.57734947503493" lon="10.756649388474486"><ele>206.0</ele><time>2026-03-28T11:30:51Z</time></trkpt><trkpt lat="45.57746664057561" lon="10.756611733624604"><ele>206.0</ele><time>2026-03-28T11:30:52Z</time></trkpt><trkpt lat="45.577587919837626" lon="10.756570196954016"><ele>206.0</ele><time>2026-03-28T11:30:53Z</time></trkpt><trkpt lat="45.57771922224177" lon="10.756521474247899"><ele>206.0</ele><time>2026-03-28T11:30:54Z</time></trkpt><trkpt lat="45.57785882398419" lon="10.756467992204595"><ele>206.0</ele><time>2026-03-28T11:30:55Z</time></trkpt><trkpt lat="45.5780028147225" lon="10.756419082873139"><ele>206.0</ele><time>2026-03-28T11:30:56Z</time></trkpt><trkpt lat="45.57814546908319" lon="10.756375123686071"><ele>205.66666666666669</ele><time>2026-03-28T11:30:57Z</time></trkpt><trkpt lat="45.57829285398474" lon="10.756324408543541"><ele>205.33333333333331</ele><time>2026-03-28T11:30:58Z</time></trkpt><trkpt lat="45.578445539159304" lon="10.756266881637114"><ele>205.0</ele><time>2026-03-28T11:30:59Z</time></trkpt><trkpt lat="45.57860849527385" lon="10.756196434799437"><ele>205.33333333333331</ele><time>2026-03-28T11:31:00Z</time></trkpt><trkpt lat="45.57878278233712" lon="10.756105138722996"><ele>205.66666666666669</ele><time>2026-03-28T11:31:01Z</time></trkpt><trkpt lat="45.578950237598285" lon="10.756003043745698"><ele>206.0</ele><time>2026-03-28T11:31:02Z</time></trkpt><trkpt lat="45.57911564082536" lon="10.755890497309737"><ele>206.33333333333334</ele><time>2026-03-28T11:31:03Z</time></trkpt><trkpt lat="45.579272038083175" lon="10.755764823830368"><ele>206.66666666666669</ele><time>2026-03-28T11:31:04Z</time></trkpt><trkpt lat="45.579427235177825" lon="10.755630447055104"><ele>207.0</ele><time>2026-03-28T11:31:05Z</time></trkpt><trkpt lat="45.57959311618598" lon="10.75548094479042"><ele>207.0</ele><time>2026-03-28T11:31:06Z</time></trkpt><trkpt lat="45.579745890847725" lon="10.755343511875251"><ele>207.0</ele><time>2026-03-28T11:31:07Z</time></trkpt><trkpt lat="45.57991180627137" lon="10.755196563876659"><ele>207.0</ele><time>2026-03-28T11:31:08Z</time></trkpt><trkpt lat="45.58006422363727" lon="10.755054400459132"><ele>207.33333333333331</ele><time>2026-03-28T11:31:09Z</time></trkpt><trkpt lat="45.580227708814654" lon="10.75489652226445"><ele>207.66666666666666</ele><time>2026-03-28T11:31:10Z</time></trkpt><trkpt lat="45.58039148370562" lon="10.754740366799949"><ele>208.0</ele><time>2026-03-28T11:31:11Z</time></trkpt><trkpt lat="45.58055500492607" lon="10.754585060646653"><ele>208.0</ele><time>2026-03-28T11:31:12Z</time></trkpt><trkpt lat="45.58071588437371" lon="10.754436133257299"><ele>208.0</ele><time>2026-03-28T11:31:13Z</time></trkpt><trkpt lat="45.58087527421912" lon="10.754290709342794"><ele>208.0</ele><time>2026-03-28T11:31:14Z</time></trkpt><trkpt lat="45.581036297461296" lon="10.754141022421097"><ele>208.33333333333331</ele><time>2026-03-28T11:31:15Z</time></trkpt><trkpt lat="45.58119547429892" lon="10.75399800985452"><ele>208.66666666666669</ele><time>2026-03-28T11:31:16Z</time></trkpt><trkpt lat="45.58134878215613" lon="10.753859535788727"><ele>209.0</ele><time>2026-03-28T11:31:17Z</time></trkpt><trkpt lat="45.58149905188931" lon="10.75371894798301"><ele>209.0</ele><time>2026-03-28T11:31:18Z</time></trkpt><trkpt lat="45.581642124492085" lon="10.75359778257845"><ele>209.0</ele><time>2026-03-28T11:31:19Z</time></trkpt><trkpt lat="45.58178447392094" lon="10.753479732197231"><ele>209.0</ele><time>2026-03-28T11:31:20Z</time></trkpt><trkpt lat="45.58191290741094" lon="10.753374516770265"><ele>209.5</ele><time>2026-03-28T11:31:21Z</time></trkpt><trkpt lat="45.58202996280147" lon="10.75326017671277"><ele>210.0</ele><time>2026-03-28T11:31:22Z</time></trkpt><trkpt lat="45.58213532519109" lon="10.753158893055907"><ele>210.5</ele><time>2026-03-28T11:31:23Z</time></trkpt><trkpt lat="45.58223450701472" lon="10.7530638330174"><ele>211.0</ele><time>2026-03-28T11:31:24Z</time></trkpt><trkpt lat="45.58231688906636" lon="10.752985040012582"><ele>211.0</ele><time>2026-03-28T11:31:25Z</time></trkpt><trkpt lat="45.582391807131984" lon="10.752924991733632"><ele>211.0</ele><time>2026-03-28T11:31:26Z</time></trkpt><trkpt lat="45.582460424510295" lon="10.752931898601835"><ele>211.0</ele><time>2026-03-28T11:31:27Z</time></trkpt><trkpt lat="45.58257224302301" lon="10.753095055465307"><ele>211.0</ele><time>2026-03-28T11:31:29Z</time></trkpt><trkpt lat="45.582625716969616" lon="10.753223352299619"><ele>211.0</ele><time>2026-03-28T11:31:30Z</time></trkpt><trkpt lat="45.582693830708685" lon="10.753368473241776"><ele>211.0</ele><time>2026-03-28T11:31:31Z</time></trkpt><trkpt lat="45.582776383858246" lon="10.753514777585089"><ele>211.0</ele><time>2026-03-28T11:31:32Z</time></trkpt><trkpt lat="45.582871176944145" lon="10.75368316398964"><ele>211.0</ele><time>2026-03-28T11:31:33Z</time></trkpt><trkpt lat="45.582977294796436" lon="10.753875511640603"><ele>210.66666666666666</ele><time>2026-03-28T11:31:34Z</time></trkpt><trkpt lat="45.58309040894004" lon="10.754087464131457"><ele>210.33333333333331</ele><time>2026-03-28T11:31:35Z</time></trkpt><trkpt lat="45.58320466580349" lon="10.754293341257876"><ele>210.0</ele><time>2026-03-28T11:31:36Z</time></trkpt><trkpt lat="45.58331588584185" lon="10.754497767501155"><ele>210.0</ele><time>2026-03-28T11:31:37Z</time></trkpt><trkpt lat="45.583429621273055" lon="10.754697528751587"><ele>210.0</ele><time>2026-03-28T11:31:38Z</time></trkpt><trkpt lat="45.583529254165526" lon="10.754878024999401"><ele>210.0</ele><time>2026-03-28T11:31:39Z</time></trkpt><trkpt lat="45.58361341205326" lon="10.755039257648622"><ele>210.33333333333331</ele><time>2026-03-28T11:31:40Z</time></trkpt><trkpt lat="45.583685036853815" lon="10.755206122930913"><ele>210.66666666666666</ele><time>2026-03-28T11:31:41Z</time></trkpt><trkpt lat="45.583832237218594" lon="10.755236685870637"><ele>211.0</ele><time>2026-03-28T11:31:42Z</time></trkpt><trkpt lat="45.583810461030836" lon="10.755549984888404"><ele>211.0</ele><time>2026-03-28T11:31:43Z</time></trkpt><trkpt lat="45.58388192867527" lon="10.755712005545183"><ele>211.0</ele><time>2026-03-28T11:31:44Z</time></trkpt><trkpt lat="45.58396521038236" lon="10.75586562249745"><ele>211.0</ele><time>2026-03-28T11:31:45Z</time></trkpt><trkpt lat="45.58405867268715" lon="10.756030127711432"><ele>211.0</ele><time>2026-03-28T11:31:46Z</time></trkpt><trkpt lat="45.584156217363464" lon="10.75619167338176"><ele>210.75</ele><time>2026-03-28T11:31:47Z</time></trkpt><trkpt lat="45.58425426899777" lon="10.756354452168969"><ele>210.5</ele><time>2026-03-28T11:31:48Z</time></trkpt><trkpt lat="45.58434111581425" lon="10.756487402631672"><ele>210.25</ele><time>2026-03-28T11:31:49Z</time></trkpt><trkpt lat="45.58442639298238" lon="10.756614372184123"><ele>210.0</ele><time>2026-03-28T11:31:50Z</time></trkpt><trkpt lat="45.58450824401054" lon="10.756740477313883"><ele>209.83333333333334</ele><time>2026-03-28T11:31:51Z</time></trkpt><trkpt lat="45.58457799734953" lon="10.756853314440779"><ele>209.66666666666669</ele><time>2026-03-28T11:31:52Z</time></trkpt><trkpt lat="45.584639504499066" lon="10.756966341437357"><ele>209.5</ele><time>2026-03-28T11:31:53Z</time></trkpt><trkpt lat="45.584699124990316" lon="10.757054807075507"><ele>209.33333333333334</ele><time>2026-03-28T11:31:54Z</time></trkpt><trkpt lat="45.58475870866288" lon="10.757119075820484"><ele>209.16666666666669</ele><time>2026-03-28T11:31:55Z</time></trkpt><trkpt lat="45.584822077004866" lon="10.757189079119675"><ele>209.0</ele><time>2026-03-28T11:31:56Z</time></trkpt><trkpt lat="45.584898035086105" lon="10.757261118424246"><ele>209.00000000000003</ele><time>2026-03-28T11:31:57Z</time></trkpt><trkpt lat="45.584965951289455" lon="10.757327485887746"><ele>209.0</ele><time>2026-03-28T11:31:58Z</time></trkpt><trkpt lat="45.58504038671217" lon="10.757386956227093"><ele>209.0</ele><time>2026-03-28T11:31:59Z</time></trkpt><trkpt lat="45.585118138623045" lon="10.757438830872765"><ele>209.0</ele><time>2026-03-28T11:32:00Z</time></trkpt><trkpt lat="45.585187975795655" lon="10.757475332344965"><ele>209.00000000000003</ele><time>2026-03-28T11:32:01Z</time></trkpt><trkpt lat="45.58527457350763" lon="10.757486906710602"><ele>209.0</ele><time>2026-03-28T11:32:02Z</time></trkpt><trkpt lat="45.58534986955133" lon="10.757527371438192"><ele>209.2</ele><time>2026-03-28T11:32:03Z</time></trkpt><trkpt lat="45.58542645339092" lon="10.757589635478935"><ele>209.39999999999998</ele><time>2026-03-28T11:32:04Z</time></trkpt><trkpt lat="45.585516009040006" lon="10.757663008974347"><ele>209.6</ele><time>2026-03-28T11:32:05Z</time></trkpt><trkpt lat="45.58560024846599" lon="10.757728678988318"><ele>209.8</ele><time>2026-03-28T11:32:06Z</time></trkpt><trkpt lat="45.58568444545038" lon="10.757801581122733"><ele>210.0</ele><time>2026-03-28T11:32:07Z</time></trkpt><trkpt lat="45.58576882840048" lon="10.757869734203872"><ele>210.0</ele><time>2026-03-28T11:32:08Z</time></trkpt><trkpt lat="45.585843835397" lon="10.757924163145312"><ele>210.0</ele><time>2026-03-28T11:32:09Z</time></trkpt><trkpt lat="45.585931014872116" lon="10.757958048197182"><ele>210.0</ele><time>2026-03-28T11:32:10Z</time></trkpt><trkpt lat="45.586015090114046" lon="10.75797480195051"><ele>210.0</ele><time>2026-03-28T11:32:11Z</time></trkpt><trkpt lat="45.58611099889993" lon="10.75800008144191"><ele>210.0</ele><time>2026-03-28T11:32:12Z</time></trkpt><trkpt lat="45.58621306766442" lon="10.758030443679893"><ele>210.0</ele><time>2026-03-28T11:32:13Z</time></trkpt><trkpt lat="45.586325127033355" lon="10.758056615829737"><ele>210.0</ele><time>2026-03-28T11:32:14Z</time></trkpt><trkpt lat="45.58643723407846" lon="10.75808328551331"><ele>210.0</ele><time>2026-03-28T11:32:15Z</time></trkpt><trkpt lat="45.58656008319943" lon="10.758110828352649"><ele>210.0</ele><time>2026-03-28T11:32:16Z</time></trkpt><trkpt lat="45.586688092627426" lon="10.758146121069739"><ele>210.0</ele><time>2026-03-28T11:32:17Z</time></trkpt><trkpt lat="45.586816586547414" lon="10.758183299487433"><ele>210.0</ele><time>2026-03-28T11:32:18Z</time></trkpt><trkpt lat="45.58694688132488" lon="10.758218607416229"><ele>210.0</ele><time>2026-03-28T11:32:19Z</time></trkpt><trkpt lat="45.58706840667774" lon="10.758251146874786"><ele>210.0</ele><time>2026-03-28T11:32:20Z</time></trkpt><trkpt lat="45.587171215994" lon="10.758281180317956"><ele>210.0</ele><time>2026-03-28T11:32:21Z</time></trkpt><trkpt lat="45.58727249087231" lon="10.758307340082835"><ele>210.0</ele><time>2026-03-28T11:32:22Z</time></trkpt><trkpt lat="45.58736267145704" lon="10.758332720276753"><ele>210.0</ele><time>2026-03-28T11:32:23Z</time></trkpt><trkpt lat="45.587436402721586" lon="10.758379082322266"><ele>210.0</ele><time>2026-03-28T11:32:24Z</time></trkpt><trkpt lat="45.587500081275984" lon="10.758454056185348"><ele>210.0</ele><time>2026-03-28T11:32:25Z</time></trkpt><trkpt lat="45.58756394100538" lon="10.758586979269007"><ele>210.0</ele><time>2026-03-28T11:32:27Z</time></trkpt><trkpt lat="45.58756865475221" lon="10.758785623254651"><ele>210.0</ele><time>2026-03-28T11:32:29Z</time></trkpt><trkpt lat="45.58754371497215" lon="10.758902129303431"><ele>210.0</ele><time>2026-03-28T11:32:30Z</time></trkpt><trkpt lat="45.58752371161508" lon="10.759053331966134"><ele>210.0</ele><time>2026-03-28T11:32:31Z</time></trkpt><trkpt lat="45.58751331901415" lon="10.759233761140598"><ele>209.66666666666669</ele><time>2026-03-28T11:32:32Z</time></trkpt><trkpt lat="45.587513059557885" lon="10.759436503138224"><ele>209.33333333333334</ele><time>2026-03-28T11:32:33Z</time></trkpt><trkpt lat="45.5875127089854" lon="10.759669163771752"><ele>209.0</ele><time>2026-03-28T11:32:34Z</time></trkpt><trkpt lat="45.58751099247127" lon="10.759928275595925"><ele>209.0</ele><time>2026-03-28T11:32:35Z</time></trkpt><trkpt lat="45.58751427954317" lon="10.760197247502491"><ele>209.0</ele><time>2026-03-28T11:32:36Z</time></trkpt><trkpt lat="45.58751013016317" lon="10.760477860062025"><ele>209.0</ele><time>2026-03-28T11:32:37Z</time></trkpt><trkpt lat="45.587505215400476" lon="10.76076142021984"><ele>209.66666666666669</ele><time>2026-03-28T11:32:38Z</time></trkpt><trkpt lat="45.58750075205769" lon="10.76104934434587"><ele>210.33333333333331</ele><time>2026-03-28T11:32:39Z</time></trkpt><trkpt lat="45.58749196820235" lon="10.761320994605258"><ele>211.0</ele><time>2026-03-28T11:32:40Z</time></trkpt><trkpt lat="45.58747096898285" lon="10.761567967366952"><ele>211.0</ele><time>2026-03-28T11:32:41Z</time></trkpt><trkpt lat="45.58743831727426" lon="10.76180376877075"><ele>211.0</ele><time>2026-03-28T11:32:42Z</time></trkpt><trkpt lat="45.5873905519551" lon="10.762017352267675"><ele>211.0</ele><time>2026-03-28T11:32:43Z</time></trkpt><trkpt lat="45.587329447174895" lon="10.762227377542718"><ele>211.33333333333331</ele><time>2026-03-28T11:32:44Z</time></trkpt><trkpt lat="45.587255355945324" lon="10.762419597063786"><ele>211.66666666666669</ele><time>2026-03-28T11:32:45Z</time></trkpt><trkpt lat="45.58716794799145" lon="10.762593728050179"><ele>212.0</ele><time>2026-03-28T11:32:46Z</time></trkpt><trkpt lat="45.58707409756229" lon="10.762755674965177"><ele>211.8</ele><time>2026-03-28T11:32:47Z</time></trkpt><trkpt lat="45.5870011221198" lon="10.762868367379216"><ele>211.6</ele><time>2026-03-28T11:32:48Z</time></trkpt><trkpt lat="45.586947141666585" lon="10.762952674929023"><ele>211.4</ele><time>2026-03-28T11:32:49Z</time></trkpt><trkpt lat="45.58688372698326" lon="10.763053678639443"><ele>211.20000000000002</ele><time>2026-03-28T11:32:50Z</time></trkpt><trkpt lat="45.58680387618624" lon="10.763131073831605"><ele>211.0</ele><time>2026-03-28T11:32:51Z</time></trkpt><trkpt lat="45.58671068141903" lon="10.763218601964"><ele>211.0</ele><time>2026-03-28T11:32:52Z</time></trkpt><trkpt lat="45.58660419502879" lon="10.763316503861722"><ele>211.0</ele><time>2026-03-28T11:32:53Z</time></trkpt><trkpt lat="45.58648685909194" lon="10.763429528553981"><ele>211.0</ele><time>2026-03-28T11:32:54Z</time></trkpt><trkpt lat="45.586363280831215" lon="10.7635608741209"><ele>211.0</ele><time>2026-03-28T11:32:55Z</time></trkpt><trkpt lat="45.58623758408975" lon="10.763711083958361"><ele>211.33333333333331</ele><time>2026-03-28T11:32:56Z</time></trkpt><trkpt lat="45.586122030320375" lon="10.763877326460053"><ele>211.66666666666669</ele><time>2026-03-28T11:32:57Z</time></trkpt><trkpt lat="45.58600973851158" lon="10.764053761687316"><ele>212.0</ele><time>2026-03-28T11:32:58Z</time></trkpt><trkpt lat="45.58590927586416" lon="10.764214815448353"><ele>212.33333333333334</ele><time>2026-03-28T11:32:59Z</time></trkpt><trkpt lat="45.58580648612327" lon="10.764381435841408"><ele>212.66666666666669</ele><time>2026-03-28T11:33:00Z</time></trkpt><trkpt lat="45.58571546747708" lon="10.764556037862244"><ele>213.0</ele><time>2026-03-28T11:33:01Z</time></trkpt><trkpt lat="45.58563622423496" lon="10.764731506791357"><ele>213.0</ele><time>2026-03-28T11:33:02Z</time></trkpt><trkpt lat="45.58555406531125" lon="10.76493373405272"><ele>213.0</ele><time>2026-03-28T11:33:03Z</time></trkpt><trkpt lat="45.585468764810095" lon="10.765133668391154"><ele>213.0</ele><time>2026-03-28T11:33:04Z</time></trkpt><trkpt lat="45.5853657216544" lon="10.765317008436295"><ele>213.0</ele><time>2026-03-28T11:33:05Z</time></trkpt><trkpt lat="45.585259013745656" lon="10.765493687637827"><ele>213.0</ele><time>2026-03-28T11:33:06Z</time></trkpt><trkpt lat="45.58514645769461" lon="10.765682237033982"><ele>213.0</ele><time>2026-03-28T11:33:07Z</time></trkpt><trkpt lat="45.58503772111329" lon="10.765885380040258"><ele>213.33333333333331</ele><time>2026-03-28T11:33:08Z</time></trkpt><trkpt lat="45.58493979111028" lon="10.766064147753319"><ele>213.66666666666666</ele><time>2026-03-28T11:33:09Z</time></trkpt><trkpt lat="45.58483255014946" lon="10.76626328298148"><ele>214.0</ele><time>2026-03-28T11:33:10Z</time></trkpt><trkpt lat="45.58473005257467" lon="10.76644883975999"><ele>214.0</ele><time>2026-03-28T11:33:11Z</time></trkpt><trkpt lat="45.5846371338065" lon="10.766607927641495"><ele>214.0</ele><time>2026-03-28T11:33:12Z</time></trkpt><trkpt lat="45.58454035833641" lon="10.766758806978693"><ele>214.0</ele><time>2026-03-28T11:33:13Z</time></trkpt><trkpt lat="45.58445157893866" lon="10.766888275722142"><ele>214.0</ele><time>2026-03-28T11:33:14Z</time></trkpt><trkpt lat="45.58435425072577" lon="10.767002161219038"><ele>214.0</ele><time>2026-03-28T11:33:15Z</time></trkpt><trkpt lat="45.58426583117289" lon="10.767090521182107"><ele>213.99999999999997</ele><time>2026-03-28T11:33:16Z</time></trkpt><trkpt lat="45.584187353593784" lon="10.767174043531858"><ele>213.99999999999997</ele><time>2026-03-28T11:33:17Z</time></trkpt><trkpt lat="45.58411618264673" lon="10.767262586390558"><ele>214.0</ele><time>2026-03-28T11:33:18Z</time></trkpt><trkpt lat="45.58404968944781" lon="10.76739304423662"><ele>214.0</ele><time>2026-03-28T11:33:19Z</time></trkpt><trkpt lat="45.58400509585502" lon="10.767551174076596"><ele>213.75</ele><time>2026-03-28T11:33:20Z</time></trkpt><trkpt lat="45.58396904648257" lon="10.767730049559422"><ele>213.5</ele><time>2026-03-28T11:33:21Z</time></trkpt><trkpt lat="45.58393069698965" lon="10.767933120418967"><ele>213.25</ele><time>2026-03-28T11:33:22Z</time></trkpt><trkpt lat="45.58389771552124" lon="10.76814613194276"><ele>213.0</ele><time>2026-03-28T11:33:23Z</time></trkpt><trkpt lat="45.583866978052505" lon="10.76838598213339"><ele>214.0</ele><time>2026-03-28T11:33:24Z</time></trkpt><trkpt lat="45.583845284057965" lon="10.768648714486474"><ele>215.0</ele><time>2026-03-28T11:33:25Z</time></trkpt><trkpt lat="45.58383295109802" lon="10.76891536118638"><ele>216.0</ele><time>2026-03-28T11:33:26Z</time></trkpt><trkpt lat="45.58381188801564" lon="10.76918666468705"><ele>217.0</ele><time>2026-03-28T11:33:27Z</time></trkpt><trkpt lat="45.583779551873384" lon="10.76948188988053"><ele>218.0</ele><time>2026-03-28T11:33:28Z</time></trkpt><trkpt lat="45.583738235710214" lon="10.76978182017502"><ele>219.0</ele><time>2026-03-28T11:33:29Z</time></trkpt><trkpt lat="45.58369030320589" lon="10.770077709400802"><ele>218.66666666666669</ele><time>2026-03-28T11:33:30Z</time></trkpt><trkpt lat="45.58365018264809" lon="10.770377557669846"><ele>218.33333333333334</ele><time>2026-03-28T11:33:31Z</time></trkpt><trkpt lat="45.583627287526845" lon="10.770674421544419"><ele>218.0</ele><time>2026-03-28T11:33:32Z</time></trkpt><trkpt lat="45.58360929444967" lon="10.770974525723709"><ele>218.66666666666669</ele><time>2026-03-28T11:33:33Z</time></trkpt><trkpt lat="45.583592635359885" lon="10.771271562421596"><ele>219.33333333333331</ele><time>2026-03-28T11:33:34Z</time></trkpt><trkpt lat="45.583576866965025" lon="10.771558383195282"><ele>220.0</ele><time>2026-03-28T11:33:35Z</time></trkpt><trkpt lat="45.58355748270231" lon="10.771836279009895"><ele>221.0</ele><time>2026-03-28T11:33:36Z</time></trkpt><trkpt lat="45.583524300507186" lon="10.772098781636076"><ele>222.0</ele><time>2026-03-28T11:33:37Z</time></trkpt><trkpt lat="45.583483226617744" lon="10.772334842330338"><ele>223.0</ele><time>2026-03-28T11:33:38Z</time></trkpt><trkpt lat="45.58341551215279" lon="10.772552570147973"><ele>223.66666666666666</ele><time>2026-03-28T11:33:39Z</time></trkpt><trkpt lat="45.58332351625729" lon="10.772750620763812"><ele>224.33333333333331</ele><time>2026-03-28T11:33:40Z</time></trkpt><trkpt lat="45.5832099814171" lon="10.772951642310872"><ele>225.0</ele><time>2026-03-28T11:33:41Z</time></trkpt><trkpt lat="45.58308569302717" lon="10.77313899233188"><ele>225.0</ele><time>2026-03-28T11:33:42Z</time></trkpt><trkpt lat="45.58294728559184" lon="10.773320886296963"><ele>225.0</ele><time>2026-03-28T11:33:43Z</time></trkpt><trkpt lat="45.582811621927746" lon="10.773498102623705"><ele>225.0</ele><time>2026-03-28T11:33:44Z</time></trkpt><trkpt lat="45.58268686670377" lon="10.773678847152803"><ele>225.66666666666669</ele><time>2026-03-28T11:33:45Z</time></trkpt><trkpt lat="45.58258881701425" lon="10.773864976502844"><ele>226.33333333333334</ele><time>2026-03-28T11:33:46Z</time></trkpt><trkpt lat="45.5825190908528" lon="10.774067364815254"><ele>227.0</ele><time>2026-03-28T11:33:47Z</time></trkpt><trkpt lat="45.58246803344492" lon="10.774302789344041"><ele>227.33333333333334</ele><time>2026-03-28T11:33:48Z</time></trkpt><trkpt lat="45.582442479292936" lon="10.77454696698519"><ele>227.66666666666669</ele><time>2026-03-28T11:33:49Z</time></trkpt><trkpt lat="45.582424102023026" lon="10.774793335591378"><ele>228.0</ele><time>2026-03-28T11:33:50Z</time></trkpt><trkpt lat="45.58240406861247" lon="10.775008249266154"><ele>228.4</ele><time>2026-03-28T11:33:51Z</time></trkpt><trkpt lat="45.5823831495505" lon="10.775195996634823"><ele>228.8</ele><time>2026-03-28T11:33:52Z</time></trkpt><trkpt lat="45.582364713134965" lon="10.7753630823572"><ele>229.2</ele><time>2026-03-28T11:33:53Z</time></trkpt><trkpt lat="45.58234277233119" lon="10.775507657448143"><ele>229.6</ele><time>2026-03-28T11:33:54Z</time></trkpt><trkpt lat="45.58234042409437" lon="10.775619569005773"><ele>230.0</ele><time>2026-03-28T11:33:55Z</time></trkpt><trkpt lat="45.582316285185264" lon="10.775774658681236"><ele>230.0</ele><time>2026-03-28T11:33:57Z</time></trkpt><trkpt lat="45.58232034188958" lon="10.775896567141588"><ele>230.0</ele><time>2026-03-28T11:33:59Z</time></trkpt><trkpt lat="45.582367194245585" lon="10.776005839833251"><ele>230.0</ele><time>2026-03-28T11:34:00Z</time></trkpt><trkpt lat="45.582433727334134" lon="10.776125868780715"><ele>230.0</ele><time>2026-03-28T11:34:01Z</time></trkpt><trkpt lat="45.58252280406814" lon="10.776260654631848"><ele>230.0</ele><time>2026-03-28T11:34:02Z</time></trkpt><trkpt lat="45.58261424042639" lon="10.776407147572623"><ele>230.0</ele><time>2026-03-28T11:34:03Z</time></trkpt><trkpt lat="45.58270016134775" lon="10.776578028624227"><ele>230.0</ele><time>2026-03-28T11:34:04Z</time></trkpt><trkpt lat="45.582790967716406" lon="10.776770507956146"><ele>230.0</ele><time>2026-03-28T11:34:05Z</time></trkpt><trkpt lat="45.58287827347346" lon="10.776968145962044"><ele>231.66666666666669</ele><time>2026-03-28T11:34:06Z</time></trkpt><trkpt lat="45.582973123767594" lon="10.777177127981439"><ele>233.33333333333331</ele><time>2026-03-28T11:34:07Z</time></trkpt><trkpt lat="45.583080981355295" lon="10.777402843129348"><ele>235.0</ele><time>2026-03-28T11:34:08Z</time></trkpt><trkpt lat="45.583192664714055" lon="10.77763006038112"><ele>234.66666666666666</ele><time>2026-03-28T11:34:09Z</time></trkpt><trkpt lat="45.58330615156738" lon="10.77784816811323"><ele>234.33333333333331</ele><time>2026-03-28T11:34:10Z</time></trkpt><trkpt lat="45.583417277199544" lon="10.77806391732269"><ele>234.0</ele><time>2026-03-28T11:34:11Z</time></trkpt><trkpt lat="45.58353384163204" lon="10.77827728030809"><ele>234.0</ele><time>2026-03-28T11:34:12Z</time></trkpt><trkpt lat="45.583667227211194" lon="10.778469115665283"><ele>234.0</ele><time>2026-03-28T11:34:13Z</time></trkpt><trkpt lat="45.58381559744412" lon="10.778638707380505"><ele>234.0</ele><time>2026-03-28T11:34:14Z</time></trkpt><trkpt lat="45.58398411222566" lon="10.778807185361373"><ele>237.0</ele><time>2026-03-28T11:34:15Z</time></trkpt><trkpt lat="45.58416154555883" lon="10.778948532934894"><ele>240.0</ele><time>2026-03-28T11:34:16Z</time></trkpt><trkpt lat="45.58435588463232" lon="10.779087166909257"><ele>243.0</ele><time>2026-03-28T11:34:17Z</time></trkpt><trkpt lat="45.58455172077391" lon="10.779213452076549"><ele>244.0</ele><time>2026-03-28T11:34:18Z</time></trkpt><trkpt lat="45.58474792381474" lon="10.779355743456032"><ele>245.0</ele><time>2026-03-28T11:34:19Z</time></trkpt><trkpt lat="45.58494690133137" lon="10.779501548694478"><ele>246.0</ele><time>2026-03-28T11:34:20Z</time></trkpt><trkpt lat="45.585141694309975" lon="10.779636917379385"><ele>246.0</ele><time>2026-03-28T11:34:21Z</time></trkpt><trkpt lat="45.585336879396415" lon="10.779772232175715"><ele>246.0</ele><time>2026-03-28T11:34:22Z</time></trkpt><trkpt lat="45.58553050266785" lon="10.779907084908732"><ele>246.0</ele><time>2026-03-28T11:34:23Z</time></trkpt><trkpt lat="45.58572596166043" lon="10.780041887439445"><ele>245.66666666666669</ele><time>2026-03-28T11:34:24Z</time></trkpt><trkpt lat="45.58592164412172" lon="10.780173551695722"><ele>245.33333333333334</ele><time>2026-03-28T11:34:25Z</time></trkpt><trkpt lat="45.586113831279086" lon="10.780304866891147"><ele>245.0</ele><time>2026-03-28T11:34:26Z</time></trkpt><trkpt lat="45.58630911463887" lon="10.780435909019785"><ele>246.0</ele><time>2026-03-28T11:34:27Z</time></trkpt><trkpt lat="45.58650338360108" lon="10.780568252070342"><ele>247.0</ele><time>2026-03-28T11:34:28Z</time></trkpt><trkpt lat="45.586696720921964" lon="10.78070733993292"><ele>248.0</ele><time>2026-03-28T11:34:29Z</time></trkpt><trkpt lat="45.58688530336921" lon="10.780846103140572"><ele>246.66666666666669</ele><time>2026-03-28T11:34:30Z</time></trkpt><trkpt lat="45.58707890041986" lon="10.780990455540831"><ele>245.33333333333331</ele><time>2026-03-28T11:34:31Z</time></trkpt><trkpt lat="45.58726240375853" lon="10.781130160976884"><ele>244.0</ele><time>2026-03-28T11:34:32Z</time></trkpt><trkpt lat="45.58745069585251" lon="10.78126330705932"><ele>244.33333333333331</ele><time>2026-03-28T11:34:33Z</time></trkpt><trkpt lat="45.58763909818684" lon="10.781404507753647"><ele>244.66666666666669</ele><time>2026-03-28T11:34:34Z</time></trkpt><trkpt lat="45.58782097118035" lon="10.78154253977444"><ele>245.0</ele><time>2026-03-28T11:34:35Z</time></trkpt><trkpt lat="45.588005749847504" lon="10.78168515535133"><ele>245.0</ele><time>2026-03-28T11:34:36Z</time></trkpt><trkpt lat="45.588179738145584" lon="10.781823735406139"><ele>245.0</ele><time>2026-03-28T11:34:37Z</time></trkpt><trkpt lat="45.5883447230458" lon="10.781954653024474"><ele>245.0</ele><time>2026-03-28T11:34:38Z</time></trkpt><trkpt lat="45.588501652508924" lon="10.782071913401916"><ele>246.33333333333334</ele><time>2026-03-28T11:34:39Z</time></trkpt><trkpt lat="45.588652145725206" lon="10.782182975060891"><ele>247.66666666666669</ele><time>2026-03-28T11:34:40Z</time></trkpt><trkpt lat="45.58879116130369" lon="10.78227454583878"><ele>249.0</ele><time>2026-03-28T11:34:41Z</time></trkpt><trkpt lat="45.58892618426377" lon="10.78237348011283"><ele>249.0</ele><time>2026-03-28T11:34:42Z</time></trkpt><trkpt lat="45.58905259744747" lon="10.782468327356654"><ele>248.99999999999997</ele><time>2026-03-28T11:34:43Z</time></trkpt><trkpt lat="45.589162976226966" lon="10.782550809117117"><ele>248.99999999999997</ele><time>2026-03-28T11:34:44Z</time></trkpt><trkpt lat="45.58924695368384" lon="10.782624855361785"><ele>249.0</ele><time>2026-03-28T11:34:45Z</time></trkpt><trkpt lat="45.58929782786067" lon="10.782696358561688"><ele>249.0</ele><time>2026-03-28T11:34:46Z</time></trkpt><trkpt lat="45.58934188936278" lon="10.78277544346763"><ele>250.75</ele><time>2026-03-28T11:34:48Z</time></trkpt><trkpt lat="45.58927514414691" lon="10.78297342235307"><ele>252.5</ele><time>2026-03-28T11:34:49Z</time></trkpt><trkpt lat="45.58921916692246" lon="10.783073417042806"><ele>254.25</ele><time>2026-03-28T11:34:50Z</time></trkpt><trkpt lat="45.58917161434139" lon="10.783134535780029"><ele>256.0</ele><time>2026-03-28T11:34:51Z</time></trkpt><trkpt lat="45.589077908562025" lon="10.783292318624127"><ele>256.0</ele><time>2026-03-28T11:34:53Z</time></trkpt><trkpt lat="45.58901919103774" lon="10.783420070544983"><ele>256.0</ele><time>2026-03-28T11:34:54Z</time></trkpt><trkpt lat="45.588945501308686" lon="10.783564455218766"><ele>256.0</ele><time>2026-03-28T11:34:55Z</time></trkpt><trkpt lat="45.58885624914833" lon="10.783724124594334"><ele>256.0</ele><time>2026-03-28T11:34:56Z</time></trkpt><trkpt lat="45.58876711981456" lon="10.783883940207968"><ele>256.40000000000003</ele><time>2026-03-28T11:34:57Z</time></trkpt><trkpt lat="45.58868344553657" lon="10.784031020437052"><ele>256.8</ele><time>2026-03-28T11:34:58Z</time></trkpt><trkpt lat="45.58861384623386" lon="10.784158454389631"><ele>257.20000000000005</ele><time>2026-03-28T11:34:59Z</time></trkpt><trkpt lat="45.588552030320095" lon="10.784265727516045"><ele>257.6</ele><time>2026-03-28T11:35:00Z</time></trkpt><trkpt lat="45.58850339741973" lon="10.784344138952417"><ele>258.0</ele><time>2026-03-28T11:35:01Z</time></trkpt><trkpt lat="45.588457745549256" lon="10.784430372864044"><ele>258.5</ele><time>2026-03-28T11:35:03Z</time></trkpt><trkpt lat="45.588517572567994" lon="10.784498873326386"><ele>259.0</ele><time>2026-03-28T11:35:04Z</time></trkpt><trkpt lat="45.58857468073147" lon="10.784553394998795"><ele>259.5</ele><time>2026-03-28T11:35:05Z</time></trkpt><trkpt lat="45.58863399772568" lon="10.784607654112687"><ele>260.0</ele><time>2026-03-28T11:35:06Z</time></trkpt><trkpt lat="45.58870581760611" lon="10.784656189465545"><ele>260.5</ele><time>2026-03-28T11:35:07Z</time></trkpt><trkpt lat="45.58879760926262" lon="10.78470993341889"><ele>261.0</ele><time>2026-03-28T11:35:08Z</time></trkpt><trkpt lat="45.58889881213166" lon="10.78478194493621"><ele>261.0</ele><time>2026-03-28T11:35:09Z</time></trkpt><trkpt lat="45.58899806758536" lon="10.784876156443143"><ele>261.0</ele><time>2026-03-28T11:35:10Z</time></trkpt><trkpt lat="45.5890895442546" lon="10.784977344333884"><ele>261.0</ele><time>2026-03-28T11:35:11Z</time></trkpt><trkpt lat="45.589189278354354" lon="10.78510263086273"><ele>261.0</ele><time>2026-03-28T11:35:12Z</time></trkpt><trkpt lat="45.5892914342061" lon="10.785243097890582"><ele>262.0</ele><time>2026-03-28T11:35:13Z</time></trkpt><trkpt lat="45.58939589462476" lon="10.785376044474729"><ele>263.0</ele><time>2026-03-28T11:35:14Z</time></trkpt><trkpt lat="45.58950227404239" lon="10.785509181568921"><ele>264.0</ele><time>2026-03-28T11:35:15Z</time></trkpt><trkpt lat="45.589605960949385" lon="10.785640486538464"><ele>265.0</ele><time>2026-03-28T11:35:16Z</time></trkpt><trkpt lat="45.58969072959265" lon="10.78576158018"><ele>265.0</ele><time>2026-03-28T11:35:17Z</time></trkpt><trkpt lat="45.58978785054777" lon="10.785861084783937"><ele>265.0</ele><time>2026-03-28T11:35:18Z</time></trkpt><trkpt lat="45.58989198085441" lon="10.785955317968833"><ele>265.0</ele><time>2026-03-28T11:35:19Z</time></trkpt><trkpt lat="45.58999441118764" lon="10.786044716130483"><ele>265.0</ele><time>2026-03-28T11:35:20Z</time></trkpt><trkpt lat="45.59009779022132" lon="10.78614394004792"><ele>265.5</ele><time>2026-03-28T11:35:21Z</time></trkpt><trkpt lat="45.59021894075575" lon="10.7862645468673"><ele>266.0</ele><time>2026-03-28T11:35:22Z</time></trkpt><trkpt lat="45.59033068164802" lon="10.786392864779035"><ele>266.5</ele><time>2026-03-28T11:35:23Z</time></trkpt><trkpt lat="45.59044802162194" lon="10.786527385356324"><ele>267.0</ele><time>2026-03-28T11:35:24Z</time></trkpt><trkpt lat="45.590555098725105" lon="10.786667786112623"><ele>267.0</ele><time>2026-03-28T11:35:25Z</time></trkpt><trkpt lat="45.590666206720705" lon="10.7868006883887"><ele>267.0</ele><time>2026-03-28T11:35:26Z</time></trkpt><trkpt lat="45.590765622856885" lon="10.786920975257761"><ele>267.0</ele><time>2026-03-28T11:35:27Z</time></trkpt><trkpt lat="45.590860269098044" lon="10.787031705962201"><ele>267.0</ele><time>2026-03-28T11:35:28Z</time></trkpt><trkpt lat="45.590953941380846" lon="10.78715687978196"><ele>268.0</ele><time>2026-03-28T11:35:29Z</time></trkpt><trkpt lat="45.5910483631315" lon="10.787291503825527"><ele>269.0</ele><time>2026-03-28T11:35:30Z</time></trkpt><trkpt lat="45.59115436236456" lon="10.787427169274096"><ele>270.0</ele><time>2026-03-28T11:35:31Z</time></trkpt><trkpt lat="45.59127097616055" lon="10.787567113166393"><ele>271.0</ele><time>2026-03-28T11:35:32Z</time></trkpt><trkpt lat="45.591399944275295" lon="10.787716640349853"><ele>271.3333333333333</ele><time>2026-03-28T11:35:33Z</time></trkpt><trkpt lat="45.591520393840426" lon="10.78786605425167"><ele>271.6666666666667</ele><time>2026-03-28T11:35:34Z</time></trkpt><trkpt lat="45.591644311620875" lon="10.788008686159325"><ele>272.0</ele><time>2026-03-28T11:35:35Z</time></trkpt><trkpt lat="45.59176366614055" lon="10.788147214160396"><ele>272.0</ele><time>2026-03-28T11:35:36Z</time></trkpt><trkpt lat="45.59187601963264" lon="10.788271739877725"><ele>272.0</ele><time>2026-03-28T11:35:37Z</time></trkpt><trkpt lat="45.59199011974581" lon="10.788388657391511"><ele>272.0</ele><time>2026-03-28T11:35:38Z</time></trkpt><trkpt lat="45.592091812531734" lon="10.788502100212913"><ele>272.0</ele><time>2026-03-28T11:35:39Z</time></trkpt><trkpt lat="45.592187022176056" lon="10.788630465881402"><ele>272.1666666666667</ele><time>2026-03-28T11:35:40Z</time></trkpt><trkpt lat="45.592255583853735" lon="10.788750059642407"><ele>272.33333333333337</ele><time>2026-03-28T11:35:41Z</time></trkpt><trkpt lat="45.59231345156219" lon="10.788836516360778"><ele>272.5</ele><time>2026-03-28T11:35:42Z</time></trkpt><trkpt lat="45.592376203654865" lon="10.788896236229643"><ele>272.6666666666667</ele><time>2026-03-28T11:35:43Z</time></trkpt><trkpt lat="45.59245861331784" lon="10.788917062945188"><ele>272.8333333333333</ele><time>2026-03-28T11:35:44Z</time></trkpt><trkpt lat="45.59253082945395" lon="10.788947244858722"><ele>273.0</ele><time>2026-03-28T11:35:45Z</time></trkpt><trkpt lat="45.59258023892402" lon="10.789010493497418"><ele>273.0</ele><time>2026-03-28T11:35:46Z</time></trkpt><trkpt lat="45.59262749557809" lon="10.789089760279714"><ele>273.0</ele><time>2026-03-28T11:35:47Z</time></trkpt><trkpt lat="45.592701897668235" lon="10.789146118965697"><ele>273.0</ele><time>2026-03-28T11:35:48Z</time></trkpt><trkpt lat="45.592762063403676" lon="10.789241013352315"><ele>273.0</ele><time>2026-03-28T11:35:49Z</time></trkpt><trkpt lat="45.5928272444859" lon="10.789311550578073"><ele>273.0</ele><time>2026-03-28T11:35:50Z</time></trkpt><trkpt lat="45.59291020688821" lon="10.789404320797454"><ele>273.0</ele><time>2026-03-28T11:35:51Z</time></trkpt><trkpt lat="45.59296681792417" lon="10.789507343921919"><ele>273.8</ele><time>2026-03-28T11:35:52Z</time></trkpt><trkpt lat="45.59301467750561" lon="10.78956867726793"><ele>274.6</ele><time>2026-03-28T11:35:53Z</time></trkpt><trkpt lat="45.59305797416319" lon="10.789678636695742"><ele>275.4</ele><time>2026-03-28T11:35:55Z</time></trkpt><trkpt lat="45.59299591472963" lon="10.789815044039063"><ele>276.2</ele><time>2026-03-28T11:35:57Z</time></trkpt><trkpt lat="45.59291442776438" lon="10.789900115752333"><ele>277.0</ele><time>2026-03-28T11:35:59Z</time></trkpt><trkpt lat="45.592856132499506" lon="10.789983683105774"><ele>276.66666666666663</ele><time>2026-03-28T11:36:01Z</time></trkpt><trkpt lat="45.59280867757868" lon="10.790062688579164"><ele>276.3333333333333</ele><time>2026-03-28T11:36:04Z</time></trkpt><trkpt lat="45.592881063195435" lon="10.790183487483231"><ele>276.0</ele><time>2026-03-28T11:36:05Z</time></trkpt><trkpt lat="45.5929322229453" lon="10.790245317919842"><ele>275.6666666666667</ele><time>2026-03-28T11:36:06Z</time></trkpt><trkpt lat="45.59298748348613" lon="10.790311970843934"><ele>275.33333333333337</ele><time>2026-03-28T11:36:07Z</time></trkpt><trkpt lat="45.59305091608985" lon="10.790391219158682"><ele>275.0</ele><time>2026-03-28T11:36:08Z</time></trkpt><trkpt lat="45.593120696091766" lon="10.790478513942741"><ele>275.6666666666667</ele><time>2026-03-28T11:36:09Z</time></trkpt><trkpt lat="45.593182837379004" lon="10.790560884325387"><ele>276.33333333333337</ele><time>2026-03-28T11:36:10Z</time></trkpt><trkpt lat="45.59324183068724" lon="10.790640636968165"><ele>277.0</ele><time>2026-03-28T11:36:11Z</time></trkpt><trkpt lat="45.593291932988734" lon="10.790707017273307"><ele>277.6666666666667</ele><time>2026-03-28T11:36:12Z</time></trkpt><trkpt lat="45.59335790111972" lon="10.79078251603095"><ele>278.3333333333333</ele><time>2026-03-28T11:36:13Z</time></trkpt><trkpt lat="45.59341222207813" lon="10.790892863929033"><ele>279.0</ele><time>2026-03-28T11:36:14Z</time></trkpt><trkpt lat="45.593498670384314" lon="10.790912799952281"><ele>279.5</ele><time>2026-03-28T11:36:15Z</time></trkpt><trkpt lat="45.59349362673676" lon="10.791112125042094"><ele>280.0</ele><time>2026-03-28T11:36:16Z</time></trkpt><trkpt lat="45.593540155044245" lon="10.791177669915562"><ele>280.5</ele><time>2026-03-28T11:36:17Z</time></trkpt><trkpt lat="45.59359593210707" lon="10.791236442145406"><ele>281.0</ele><time>2026-03-28T11:36:18Z</time></trkpt><trkpt lat="45.593659678588395" lon="10.791310775106128"><ele>281.5</ele><time>2026-03-28T11:36:19Z</time></trkpt><trkpt lat="45.593727098954965" lon="10.79139086052067"><ele>282.0</ele><time>2026-03-28T11:36:20Z</time></trkpt><trkpt lat="45.593785762048945" lon="10.79146947169625"><ele>282.0</ele><time>2026-03-28T11:36:21Z</time></trkpt><trkpt lat="45.59384005994482" lon="10.791543362910405"><ele>282.0</ele><time>2026-03-28T11:36:22Z</time></trkpt><trkpt lat="45.59388460991595" lon="10.791619293032985"><ele>282.0</ele><time>2026-03-28T11:36:23Z</time></trkpt><trkpt lat="45.593925825887496" lon="10.791714479103057"><ele>282.0</ele><time>2026-03-28T11:36:24Z</time></trkpt><trkpt lat="45.593963731177205" lon="10.791834661806273"><ele>282.0</ele><time>2026-03-28T11:36:25Z</time></trkpt><trkpt lat="45.59400920362856" lon="10.791981704860762"><ele>282.0</ele><time>2026-03-28T11:36:26Z</time></trkpt><trkpt lat="45.594046940570415" lon="10.79210119160417"><ele>282.6666666666667</ele><time>2026-03-28T11:36:27Z</time></trkpt><trkpt lat="45.5940974331348" lon="10.792214592815823"><ele>283.3333333333333</ele><time>2026-03-28T11:36:28Z</time></trkpt><trkpt lat="45.59417184528778" lon="10.792292009767637"><ele>284.0</ele><time>2026-03-28T11:36:29Z</time></trkpt><trkpt lat="45.59424773555573" lon="10.792348279474055"><ele>284.66666666666663</ele><time>2026-03-28T11:36:30Z</time></trkpt><trkpt lat="45.59430996638021" lon="10.792415896937168"><ele>285.3333333333333</ele><time>2026-03-28T11:36:31Z</time></trkpt><trkpt lat="45.594357237830906" lon="10.792494638688767"><ele>286.0</ele><time>2026-03-28T11:36:32Z</time></trkpt><trkpt lat="45.59440670275068" lon="10.792585503193276"><ele>285.8</ele><time>2026-03-28T11:36:33Z</time></trkpt><trkpt lat="45.59446013910587" lon="10.79267729935591"><ele>285.6</ele><time>2026-03-28T11:36:34Z</time></trkpt><trkpt lat="45.594537269856254" lon="10.792792244764952"><ele>285.4</ele><time>2026-03-28T11:36:35Z</time></trkpt><trkpt lat="45.5946061144979" lon="10.792919996706402"><ele>285.2</ele><time>2026-03-28T11:36:36Z</time></trkpt><trkpt lat="45.59467690398312" lon="10.793031113993523"><ele>285.0</ele><time>2026-03-28T11:36:37Z</time></trkpt><trkpt lat="45.59473380374845" lon="10.79315853090682"><ele>285.0</ele><time>2026-03-28T11:36:38Z</time></trkpt><trkpt lat="45.59479649010512" lon="10.793279944742546"><ele>285.0</ele><time>2026-03-28T11:36:39Z</time></trkpt><trkpt lat="45.59484733805995" lon="10.793394661389529"><ele>285.0</ele><time>2026-03-28T11:36:40Z</time></trkpt><trkpt lat="45.594911185104266" lon="10.793497279060654"><ele>285.0</ele><time>2026-03-28T11:36:41Z</time></trkpt><trkpt lat="45.59498483022122" lon="10.79360503470655"><ele>285.0</ele><time>2026-03-28T11:36:42Z</time></trkpt><trkpt lat="45.59506383431001" lon="10.793690449194393"><ele>284.4</ele><time>2026-03-28T11:36:43Z</time></trkpt><trkpt lat="45.595127593683536" lon="10.793764537624517"><ele>283.8</ele><time>2026-03-28T11:36:44Z</time></trkpt><trkpt lat="45.595207864516624" lon="10.793861834947881"><ele>283.2</ele><time>2026-03-28T11:36:45Z</time></trkpt><trkpt lat="45.59528134443383" lon="10.793961729462692"><ele>282.6</ele><time>2026-03-28T11:36:46Z</time></trkpt><trkpt lat="45.59534113578598" lon="10.794056765492565"><ele>282.0</ele><time>2026-03-28T11:36:47Z</time></trkpt><trkpt lat="45.59539788179125" lon="10.79414971715061"><ele>282.0</ele><time>2026-03-28T11:36:48Z</time></trkpt><trkpt lat="45.59545062817857" lon="10.794232219809603"><ele>282.0</ele><time>2026-03-28T11:36:49Z</time></trkpt><trkpt lat="45.59550095234942" lon="10.79432697344677"><ele>282.0</ele><time>2026-03-28T11:36:50Z</time></trkpt><trkpt lat="45.59555523524219" lon="10.794415464409678"><ele>282.0</ele><time>2026-03-28T11:36:51Z</time></trkpt><trkpt lat="45.59560744745597" lon="10.794511808858543"><ele>282.0</ele><time>2026-03-28T11:36:53Z</time></trkpt><trkpt lat="45.5956773905815" lon="10.79454565158831"><ele>282.0</ele><time>2026-03-28T11:36:55Z</time></trkpt><trkpt lat="45.59575563013316" lon="10.794515671927055"><ele>282.4</ele><time>2026-03-28T11:36:56Z</time></trkpt><trkpt lat="45.59584922116469" lon="10.794485885844495"><ele>282.79999999999995</ele><time>2026-03-28T11:36:57Z</time></trkpt><trkpt lat="45.595968121678325" lon="10.794459554683751"><ele>283.2</ele><time>2026-03-28T11:36:58Z</time></trkpt><trkpt lat="45.59608240019538" lon="10.794446105389978"><ele>283.59999999999997</ele><time>2026-03-28T11:36:59Z</time></trkpt><trkpt lat="45.596187092656" lon="10.794432161003284"><ele>284.0</ele><time>2026-03-28T11:37:00Z</time></trkpt><trkpt lat="45.59628752134333" lon="10.794410561780255"><ele>282.59999999999997</ele><time>2026-03-28T11:37:01Z</time></trkpt><trkpt lat="45.5963823100416" lon="10.794376525219578"><ele>281.2</ele><time>2026-03-28T11:37:02Z</time></trkpt><trkpt lat="45.59646245514513" lon="10.794344431777064"><ele>279.79999999999995</ele><time>2026-03-28T11:37:03Z</time></trkpt><trkpt lat="45.59656725872918" lon="10.794321314661621"><ele>278.4</ele><time>2026-03-28T11:37:04Z</time></trkpt><trkpt lat="45.59667577933037" lon="10.794315965587886"><ele>277.0</ele><time>2026-03-28T11:37:05Z</time></trkpt><trkpt lat="45.59678777302574" lon="10.794285527922135"><ele>276.5</ele><time>2026-03-28T11:37:06Z</time></trkpt><trkpt lat="45.59689166334622" lon="10.79428877421709"><ele>276.0</ele><time>2026-03-28T11:37:07Z</time></trkpt><trkpt lat="45.596992913956946" lon="10.79428394243322"><ele>275.5</ele><time>2026-03-28T11:37:08Z</time></trkpt><trkpt lat="45.59707535033044" lon="10.794294690890029"><ele>275.0</ele><time>2026-03-28T11:37:09Z</time></trkpt><trkpt lat="45.59714527685269" lon="10.794300087757296"><ele>274.5</ele><time>2026-03-28T11:37:10Z</time></trkpt><trkpt lat="45.59722395971995" lon="10.794319386593205"><ele>274.0</ele><time>2026-03-28T11:37:11Z</time></trkpt><trkpt lat="45.59729723400968" lon="10.794372052473191"><ele>272.0</ele><time>2026-03-28T11:37:12Z</time></trkpt><trkpt lat="45.59739521233926" lon="10.794450968448258"><ele>270.0</ele><time>2026-03-28T11:37:13Z</time></trkpt><trkpt lat="45.59750875956366" lon="10.794544690877759"><ele>268.0</ele><time>2026-03-28T11:37:14Z</time></trkpt><trkpt lat="45.5976373055651" lon="10.794633394138769"><ele>266.0</ele><time>2026-03-28T11:37:15Z</time></trkpt><trkpt lat="45.59776433617785" lon="10.794705379739954"><ele>264.1666666666667</ele><time>2026-03-28T11:37:16Z</time></trkpt><trkpt lat="45.59787253379259" lon="10.794771119813912"><ele>262.33333333333337</ele><time>2026-03-28T11:37:17Z</time></trkpt><trkpt lat="45.597967471228046" lon="10.794827594275189"><ele>260.5</ele><time>2026-03-28T11:37:18Z</time></trkpt><trkpt lat="45.598040879446266" lon="10.794874191292713"><ele>258.6666666666667</ele><time>2026-03-28T11:37:19Z</time></trkpt><trkpt lat="45.59810041320199" lon="10.794930800481731"><ele>256.8333333333333</ele><time>2026-03-28T11:37:20Z</time></trkpt><trkpt lat="45.598151593010165" lon="10.795006681355508"><ele>255.0</ele><time>2026-03-28T11:37:21Z</time></trkpt><trkpt lat="45.59818730018932" lon="10.795081439045225"><ele>255.0</ele><time>2026-03-28T11:37:22Z</time></trkpt><trkpt lat="45.598226739932514" lon="10.795151877686692"><ele>255.0</ele><time>2026-03-28T11:37:24Z</time></trkpt><trkpt lat="45.59815231670805" lon="10.79525818281533"><ele>255.0</ele><time>2026-03-28T11:37:27Z</time></trkpt><trkpt lat="45.59809660756256" lon="10.795337598801707"><ele>255.0</ele><time>2026-03-28T11:37:28Z</time></trkpt><trkpt lat="45.59800313429299" lon="10.79537764502498"><ele>255.0</ele><time>2026-03-28T11:37:29Z</time></trkpt><trkpt lat="45.59791086779006" lon="10.795339990412234"><ele>255.0</ele><time>2026-03-28T11:37:30Z</time></trkpt><trkpt lat="45.59779755169087" lon="10.795343983530294"><ele>258.8</ele><time>2026-03-28T11:37:31Z</time></trkpt><trkpt lat="45.59767742075677" lon="10.79537445087157"><ele>262.6</ele><time>2026-03-28T11:37:32Z</time></trkpt><trkpt lat="45.59757422029418" lon="10.795406630517183"><ele>266.4</ele><time>2026-03-28T11:37:33Z</time></trkpt><trkpt lat="45.597471573109054" lon="10.795442110633243"><ele>270.2</ele><time>2026-03-28T11:37:34Z</time></trkpt><trkpt lat="45.597399599920145" lon="10.79552220757432"><ele>274.0</ele><time>2026-03-28T11:37:35Z</time></trkpt><trkpt lat="45.59734294010565" lon="10.79559832851041"><ele>274.0</ele><time>2026-03-28T11:37:36Z</time></trkpt><trkpt lat="45.59724315113942" lon="10.795726959793358"><ele>274.0</ele><time>2026-03-28T11:37:38Z</time></trkpt><trkpt lat="45.59719235825617" lon="10.795839109372135"><ele>274.0</ele><time>2026-03-28T11:37:39Z</time></trkpt><trkpt lat="45.59711937042515" lon="10.795961278072614"><ele>274.0</ele><time>2026-03-28T11:37:40Z</time></trkpt><trkpt lat="45.59706148272511" lon="10.79611091326279"><ele>275.25</ele><time>2026-03-28T11:37:41Z</time></trkpt><trkpt lat="45.59699352627621" lon="10.796265919463778"><ele>276.5</ele><time>2026-03-28T11:37:42Z</time></trkpt><trkpt lat="45.59692446708859" lon="10.796429188025009"><ele>277.75</ele><time>2026-03-28T11:37:43Z</time></trkpt><trkpt lat="45.596871104806766" lon="10.796560576354063"><ele>279.0</ele><time>2026-03-28T11:37:44Z</time></trkpt><trkpt lat="45.59683189379038" lon="10.796679280875802"><ele>279.0</ele><time>2026-03-28T11:37:45Z</time></trkpt><trkpt lat="45.59678150183972" lon="10.796771244763775"><ele>279.0</ele><time>2026-03-28T11:37:46Z</time></trkpt><trkpt lat="45.5967446454283" lon="10.796865965755046"><ele>279.0</ele><time>2026-03-28T11:37:47Z</time></trkpt><trkpt lat="45.5967047809431" lon="10.79696841749574"><ele>279.0</ele><time>2026-03-28T11:37:48Z</time></trkpt><trkpt lat="45.5966705338731" lon="10.797056432479211"><ele>279.0</ele><time>2026-03-28T11:37:49Z</time></trkpt><trkpt lat="45.59679579288963" lon="10.797253413761513"><ele>280.3333333333333</ele><time>2026-03-28T11:37:50Z</time></trkpt><trkpt lat="45.596807911591895" lon="10.797371677522404"><ele>281.6666666666667</ele><time>2026-03-28T11:37:51Z</time></trkpt><trkpt lat="45.59679974644637" lon="10.79748818588803"><ele>283.0</ele><time>2026-03-28T11:37:52Z</time></trkpt><trkpt lat="45.59683258165276" lon="10.797597285311644"><ele>284.33333333333337</ele><time>2026-03-28T11:37:53Z</time></trkpt><trkpt lat="45.59685171944473" lon="10.7976915055398"><ele>285.6666666666667</ele><time>2026-03-28T11:37:54Z</time></trkpt><trkpt lat="45.596847178712174" lon="10.797862612597505"><ele>287.0</ele><time>2026-03-28T11:37:56Z</time></trkpt><trkpt lat="45.596832016926584" lon="10.797962733711808"><ele>287.33333333333337</ele><time>2026-03-28T11:37:57Z</time></trkpt><trkpt lat="45.59682709082598" lon="10.798075661624376"><ele>287.6666666666667</ele><time>2026-03-28T11:37:58Z</time></trkpt><trkpt lat="45.59681985302155" lon="10.798181291457537"><ele>288.0</ele><time>2026-03-28T11:37:59Z</time></trkpt><trkpt lat="45.59679702309286" lon="10.798272028723233"><ele>288.3333333333333</ele><time>2026-03-28T11:38:00Z</time></trkpt><trkpt lat="45.59676032702729" lon="10.798384591721764"><ele>288.66666666666663</ele><time>2026-03-28T11:38:01Z</time></trkpt><trkpt lat="45.59672636634367" lon="10.79848114053309"><ele>289.0</ele><time>2026-03-28T11:38:02Z</time></trkpt><trkpt lat="45.59669672722889" lon="10.79857548340621"><ele>289.5</ele><time>2026-03-28T11:38:03Z</time></trkpt><trkpt lat="45.5966584220349" lon="10.798679431589605"><ele>290.0</ele><time>2026-03-28T11:38:04Z</time></trkpt><trkpt lat="45.596621439772015" lon="10.798810374496327"><ele>290.5</ele><time>2026-03-28T11:38:06Z</time></trkpt><trkpt lat="45.59658679449552" lon="10.798906844213803"><ele>291.0</ele><time>2026-03-28T11:38:07Z</time></trkpt><trkpt lat="45.596540987498706" lon="10.79906240873593"><ele>291.5</ele><time>2026-03-28T11:38:09Z</time></trkpt><trkpt lat="45.596512604522204" lon="10.799146877504716"><ele>292.0</ele><time>2026-03-28T11:38:10Z</time></trkpt><trkpt lat="45.59644010656908" lon="10.79928213057586"><ele>293.0</ele><time>2026-03-28T11:38:12Z</time></trkpt><trkpt lat="45.59637540643049" lon="10.799368853764102"><ele>294.0</ele><time>2026-03-28T11:38:13Z</time></trkpt><trkpt lat="45.59630477343929" lon="10.799468473020783"><ele>295.0</ele><time>2026-03-28T11:38:14Z</time></trkpt><trkpt lat="45.59624407887347" lon="10.799605908355748"><ele>296.0</ele><time>2026-03-28T11:38:15Z</time></trkpt><trkpt lat="45.59618996273581" lon="10.79970662441239"><ele>297.0</ele><time>2026-03-28T11:38:16Z</time></trkpt><trkpt lat="45.59612554764137" lon="10.799775555402075"><ele>299.25</ele><time>2026-03-28T11:38:17Z</time></trkpt><trkpt lat="45.596051051792216" lon="10.799862584989555"><ele>301.5</ele><time>2026-03-28T11:38:18Z</time></trkpt><trkpt lat="45.59593883241727" lon="10.799915460749046"><ele>303.75</ele><time>2026-03-28T11:38:19Z</time></trkpt><trkpt lat="45.59583459751612" lon="10.800005488538025"><ele>306.0</ele><time>2026-03-28T11:38:20Z</time></trkpt><trkpt lat="45.59570796365533" lon="10.800082709997378"><ele>306.0</ele><time>2026-03-28T11:38:21Z</time></trkpt><trkpt lat="45.59560229739999" lon="10.80015566124591"><ele>306.0</ele><time>2026-03-28T11:38:22Z</time></trkpt><trkpt lat="45.59550958930628" lon="10.800211459729708"><ele>306.0</ele><time>2026-03-28T11:38:23Z</time></trkpt><trkpt lat="45.595424480779826" lon="10.800266354394111"><ele>306.0</ele><time>2026-03-28T11:38:24Z</time></trkpt><trkpt lat="45.59534868198335" lon="10.800277725271293"><ele>306.0</ele><time>2026-03-28T11:38:25Z</time></trkpt><trkpt lat="45.59528319033832" lon="10.800303900891421"><ele>304.0</ele><time>2026-03-28T11:38:26Z</time></trkpt><trkpt lat="45.59525520434807" lon="10.800481063029045"><ele>302.0</ele><time>2026-03-28T11:38:27Z</time></trkpt><trkpt lat="45.59520989429141" lon="10.800546540713958"><ele>300.0</ele><time>2026-03-28T11:38:28Z</time></trkpt><trkpt lat="45.59520440045881" lon="10.800663286073947"><ele>298.0</ele><time>2026-03-28T11:38:29Z</time></trkpt><trkpt lat="45.595207476876915" lon="10.800760629406994"><ele>296.0</ele><time>2026-03-28T11:38:30Z</time></trkpt><trkpt lat="45.59522057619657" lon="10.80088161344187"><ele>294.0</ele><time>2026-03-28T11:38:31Z</time></trkpt><trkpt lat="45.59525548414733" lon="10.80101931933987"><ele>293.59999999999997</ele><time>2026-03-28T11:38:32Z</time></trkpt><trkpt lat="45.5952971681089" lon="10.80119408538747"><ele>293.2</ele><time>2026-03-28T11:38:33Z</time></trkpt><trkpt lat="45.595329161633344" lon="10.801346910897063"><ele>292.79999999999995</ele><time>2026-03-28T11:38:34Z</time></trkpt><trkpt lat="45.595349449582145" lon="10.80145738922341"><ele>292.4</ele><time>2026-03-28T11:38:35Z</time></trkpt><trkpt lat="45.595354040094" lon="10.801553520755386"><ele>292.0</ele><time>2026-03-28T11:38:36Z</time></trkpt><trkpt lat="45.59533048145448" lon="10.801655472372191"><ele>292.0</ele><time>2026-03-28T11:38:37Z</time></trkpt><trkpt lat="45.59527263875963" lon="10.80176655207653"><ele>292.0</ele><time>2026-03-28T11:38:38Z</time></trkpt><trkpt lat="45.59526416347464" lon="10.801882665967987"><ele>292.0</ele><time>2026-03-28T11:38:39Z</time></trkpt><trkpt lat="45.595256679095336" lon="10.801980531692902"><ele>292.0</ele><time>2026-03-28T11:38:40Z</time></trkpt><trkpt lat="45.595273499830824" lon="10.802074781259266"><ele>292.0</ele><time>2026-03-28T11:38:41Z</time></trkpt><trkpt lat="45.59531299874433" lon="10.802154001658929"><ele>292.0</ele><time>2026-03-28T11:38:42Z</time></trkpt><trkpt lat="45.59538991183856" lon="10.802230060167357"><ele>295.0</ele><time>2026-03-28T11:38:44Z</time></trkpt><trkpt lat="45.5954762584141" lon="10.80218100733044"><ele>298.0</ele><time>2026-03-28T11:38:46Z</time></trkpt><trkpt lat="45.59555963282515" lon="10.802163735142562"><ele>301.0</ele><time>2026-03-28T11:38:47Z</time></trkpt><trkpt lat="45.5956558527044" lon="10.80209249058927"><ele>304.0</ele><time>2026-03-28T11:38:48Z</time></trkpt><trkpt lat="45.5957547663854" lon="10.802087364968427"><ele>307.0</ele><time>2026-03-28T11:38:49Z</time></trkpt><trkpt lat="45.59583724285258" lon="10.80208117590723"><ele>307.0</ele><time>2026-03-28T11:38:50Z</time></trkpt><trkpt lat="45.595909073328116" lon="10.802105642174295"><ele>307.0</ele><time>2026-03-28T11:38:51Z</time></trkpt><trkpt lat="45.59597023557834" lon="10.802133936207616"><ele>307.0</ele><time>2026-03-28T11:38:52Z</time></trkpt><trkpt lat="45.596088956236606" lon="10.802237896609617"><ele>307.0</ele><time>2026-03-28T11:38:54Z</time></trkpt><trkpt lat="45.59614106829739" lon="10.802331855438396"><ele>307.0</ele><time>2026-03-28T11:38:55Z</time></trkpt><trkpt lat="45.59619578841415" lon="10.802447212377903"><ele>306.25</ele><time>2026-03-28T11:38:56Z</time></trkpt><trkpt lat="45.59625021212035" lon="10.802599180148988"><ele>305.5</ele><time>2026-03-28T11:38:57Z</time></trkpt><trkpt lat="45.59629338598489" lon="10.802756492405345"><ele>304.75</ele><time>2026-03-28T11:38:58Z</time></trkpt><trkpt lat="45.596334152124115" lon="10.802915973635821"><ele>304.0</ele><time>2026-03-28T11:38:59Z</time></trkpt><trkpt lat="45.5963776963836" lon="10.80305443004654"><ele>303.59999999999997</ele><time>2026-03-28T11:39:00Z</time></trkpt><trkpt lat="45.59641161104866" lon="10.803203064218854"><ele>303.2</ele><time>2026-03-28T11:39:01Z</time></trkpt><trkpt lat="45.59644178967087" lon="10.803348579971802"><ele>302.79999999999995</ele><time>2026-03-28T11:39:02Z</time></trkpt><trkpt lat="45.59645093317304" lon="10.803485050757596"><ele>302.4</ele><time>2026-03-28T11:39:03Z</time></trkpt><trkpt lat="45.596475392120134" lon="10.80361407696917"><ele>302.0</ele><time>2026-03-28T11:39:04Z</time></trkpt><trkpt lat="45.59649968365569" lon="10.80374486203518"><ele>301.83333333333337</ele><time>2026-03-28T11:39:05Z</time></trkpt><trkpt lat="45.59652304343999" lon="10.803873980462011"><ele>301.6666666666667</ele><time>2026-03-28T11:39:06Z</time></trkpt><trkpt lat="45.596556199773524" lon="10.80399004967733"><ele>301.5</ele><time>2026-03-28T11:39:07Z</time></trkpt><trkpt lat="45.59657718239412" lon="10.804089926212988"><ele>301.3333333333333</ele><time>2026-03-28T11:39:08Z</time></trkpt><trkpt lat="45.5965828857611" lon="10.804214384751635"><ele>301.16666666666663</ele><time>2026-03-28T11:39:09Z</time></trkpt><trkpt lat="45.59660088908697" lon="10.804328002139071"><ele>301.0</ele><time>2026-03-28T11:39:10Z</time></trkpt><trkpt lat="45.59663151728311" lon="10.804428920033345"><ele>300.0</ele><time>2026-03-28T11:39:11Z</time></trkpt><trkpt lat="45.59663161964869" lon="10.804533512785834"><ele>299.0</ele><time>2026-03-28T11:39:12Z</time></trkpt><trkpt lat="45.596646713962606" lon="10.804634456041283"><ele>298.0</ele><time>2026-03-28T11:39:13Z</time></trkpt><trkpt lat="45.59667246677175" lon="10.80472676931402"><ele>297.0</ele><time>2026-03-28T11:39:14Z</time></trkpt><trkpt lat="45.596670779968605" lon="10.804824459007818"><ele>296.0</ele><time>2026-03-28T11:39:15Z</time></trkpt><trkpt lat="45.596705924255225" lon="10.804942577991397"><ele>295.0</ele><time>2026-03-28T11:39:17Z</time></trkpt><trkpt lat="45.596831419151385" lon="10.80494764966492"><ele>295.0</ele><time>2026-03-28T11:39:20Z</time></trkpt><trkpt lat="45.59690452854584" lon="10.804911647453187"><ele>295.0</ele><time>2026-03-28T11:39:21Z</time></trkpt><trkpt lat="45.59700930463769" lon="10.804894505726997"><ele>295.0</ele><time>2026-03-28T11:39:22Z</time></trkpt><trkpt lat="45.597097735370674" lon="10.804839483263793"><ele>295.0</ele><time>2026-03-28T11:39:23Z</time></trkpt><trkpt lat="45.597176597655675" lon="10.804785301157686"><ele>295.0</ele><time>2026-03-28T11:39:24Z</time></trkpt><trkpt lat="45.59723391901953" lon="10.804705109240041"><ele>295.0</ele><time>2026-03-28T11:39:25Z</time></trkpt><trkpt lat="45.59728369358098" lon="10.804608650285765"><ele>293.0</ele><time>2026-03-28T11:39:26Z</time></trkpt><trkpt lat="45.597331781206776" lon="10.804475320925626"><ele>291.0</ele><time>2026-03-28T11:39:27Z</time></trkpt><trkpt lat="45.59740636337037" lon="10.804325246413105"><ele>289.0</ele><time>2026-03-28T11:39:28Z</time></trkpt><trkpt lat="45.59746595319877" lon="10.804169723887242"><ele>287.0</ele><time>2026-03-28T11:39:29Z</time></trkpt><trkpt lat="45.59753473628399" lon="10.804009071351604"><ele>287.0</ele><time>2026-03-28T11:39:30Z</time></trkpt><trkpt lat="45.597590603066166" lon="10.803864991811777"><ele>287.0</ele><time>2026-03-28T11:39:31Z</time></trkpt><trkpt lat="45.597657664026215" lon="10.803748025887632"><ele>287.0</ele><time>2026-03-28T11:39:32Z</time></trkpt><trkpt lat="45.59771969553061" lon="10.80366451055907"><ele>287.0</ele><time>2026-03-28T11:39:33Z</time></trkpt><trkpt lat="45.59778350419426" lon="10.803587863314316"><ele>287.0</ele><time>2026-03-28T11:39:34Z</time></trkpt><trkpt lat="45.597865139154756" lon="10.803527374878774"><ele>285.25</ele><time>2026-03-28T11:39:35Z</time></trkpt><trkpt lat="45.597964622581294" lon="10.803501016198743"><ele>283.5</ele><time>2026-03-28T11:39:36Z</time></trkpt><trkpt lat="45.598097536036505" lon="10.80349721238399"><ele>281.75</ele><time>2026-03-28T11:39:37Z</time></trkpt><trkpt lat="45.59824232508778" lon="10.80350122387506"><ele>280.0</ele><time>2026-03-28T11:39:38Z</time></trkpt><trkpt lat="45.59836173144572" lon="10.803516724316061"><ele>280.0</ele><time>2026-03-28T11:39:39Z</time></trkpt><trkpt lat="45.59847674706175" lon="10.803541707718296"><ele>280.0</ele><time>2026-03-28T11:39:40Z</time></trkpt><trkpt lat="45.59858430211904" lon="10.803563226229329"><ele>280.0</ele><time>2026-03-28T11:39:41Z</time></trkpt><trkpt lat="45.598694518562795" lon="10.803561036699138"><ele>280.0</ele><time>2026-03-28T11:39:42Z</time></trkpt><trkpt lat="45.59880582384126" lon="10.803546550813515"><ele>280.0</ele><time>2026-03-28T11:39:43Z</time></trkpt><trkpt lat="45.59891376849505" lon="10.8035361844449"><ele>278.66666666666663</ele><time>2026-03-28T11:39:44Z</time></trkpt><trkpt lat="45.59900459164291" lon="10.803530661071283"><ele>277.3333333333333</ele><time>2026-03-28T11:39:45Z</time></trkpt><trkpt lat="45.599078890107094" lon="10.803518670888305"><ele>276.0</ele><time>2026-03-28T11:39:46Z</time></trkpt><trkpt lat="45.59914516192568" lon="10.803495147143702"><ele>274.6666666666667</ele><time>2026-03-28T11:39:47Z</time></trkpt><trkpt lat="45.59921920935288" lon="10.803384525644468"><ele>273.33333333333337</ele><time>2026-03-28T11:39:48Z</time></trkpt><trkpt lat="45.59928568443363" lon="10.803262472586457"><ele>272.0</ele><time>2026-03-28T11:39:49Z</time></trkpt><trkpt lat="45.59934544138627" lon="10.803233281973135"><ele>271.4</ele><time>2026-03-28T11:39:50Z</time></trkpt><trkpt lat="45.599468759207866" lon="10.80317949004338"><ele>270.79999999999995</ele><time>2026-03-28T11:39:52Z</time></trkpt><trkpt lat="45.59956147789451" lon="10.803136625874552"><ele>270.2</ele><time>2026-03-28T11:39:53Z</time></trkpt><trkpt lat="45.59966639440943" lon="10.803108402179971"><ele>269.59999999999997</ele><time>2026-03-28T11:39:54Z</time></trkpt><trkpt lat="45.59975841962884" lon="10.803073852708808"><ele>269.0</ele><time>2026-03-28T11:39:55Z</time></trkpt><trkpt lat="45.5998460180051" lon="10.803052035639839"><ele>268.0</ele><time>2026-03-28T11:39:56Z</time></trkpt><trkpt lat="45.599926318061655" lon="10.803031745856435"><ele>267.0</ele><time>2026-03-28T11:39:57Z</time></trkpt><trkpt lat="45.600002297580495" lon="10.803031660924349"><ele>266.0</ele><time>2026-03-28T11:39:58Z</time></trkpt><trkpt lat="45.60008654358486" lon="10.803064366715121"><ele>265.0</ele><time>2026-03-28T11:39:59Z</time></trkpt><trkpt lat="45.60019247467268" lon="10.803121386813622"><ele>264.0</ele><time>2026-03-28T11:40:00Z</time></trkpt><trkpt lat="45.60032039333121" lon="10.803167167132088"><ele>262.8</ele><time>2026-03-28T11:40:01Z</time></trkpt><trkpt lat="45.60044489105521" lon="10.803182469104286"><ele>261.59999999999997</ele><time>2026-03-28T11:40:02Z</time></trkpt><trkpt lat="45.600548730728526" lon="10.803176571919696"><ele>260.4</ele><time>2026-03-28T11:40:03Z</time></trkpt><trkpt lat="45.60062218996603" lon="10.803182607454952"><ele>259.2</ele><time>2026-03-28T11:40:04Z</time></trkpt><trkpt lat="45.60072171192024" lon="10.803170821373701"><ele>258.0</ele><time>2026-03-28T11:40:06Z</time></trkpt><trkpt lat="45.600800976781116" lon="10.803177566144054"><ele>258.0</ele><time>2026-03-28T11:40:09Z</time></trkpt><trkpt lat="45.60081776492928" lon="10.802959324205142"><ele>258.0</ele><time>2026-03-28T11:40:10Z</time></trkpt><trkpt lat="45.60077688200574" lon="10.802821857564878"><ele>258.0</ele><time>2026-03-28T11:40:11Z</time></trkpt><trkpt lat="45.600743568727864" lon="10.802664943117136"><ele>258.0</ele><time>2026-03-28T11:40:12Z</time></trkpt><trkpt lat="45.600694474672814" lon="10.802485975618806"><ele>257.0</ele><time>2026-03-28T11:40:13Z</time></trkpt><trkpt lat="45.60064334137281" lon="10.80229701638956"><ele>256.0</ele><time>2026-03-28T11:40:14Z</time></trkpt><trkpt lat="45.600594765376435" lon="10.802086806879288"><ele>255.0</ele><time>2026-03-28T11:40:15Z</time></trkpt><trkpt lat="45.60053421601413" lon="10.801856443329683"><ele>254.66666666666669</ele><time>2026-03-28T11:40:16Z</time></trkpt><trkpt lat="45.600473652266686" lon="10.801615267938747"><ele>254.33333333333334</ele><time>2026-03-28T11:40:17Z</time></trkpt><trkpt lat="45.600415695037455" lon="10.801375638007201"><ele>254.0</ele><time>2026-03-28T11:40:18Z</time></trkpt><trkpt lat="45.60035489005627" lon="10.80112654644618"><ele>256.0</ele><time>2026-03-28T11:40:19Z</time></trkpt><trkpt lat="45.60029214182118" lon="10.800874239917912"><ele>258.0</ele><time>2026-03-28T11:40:20Z</time></trkpt><trkpt lat="45.600235579653216" lon="10.800632895399277"><ele>260.0</ele><time>2026-03-28T11:40:21Z</time></trkpt><trkpt lat="45.60017504081356" lon="10.800378391944307"><ele>259.33333333333337</ele><time>2026-03-28T11:40:22Z</time></trkpt><trkpt lat="45.6001099490451" lon="10.800119444379593"><ele>258.6666666666667</ele><time>2026-03-28T11:40:23Z</time></trkpt><trkpt lat="45.600048924525034" lon="10.79984842736435"><ele>258.0</ele><time>2026-03-28T11:40:24Z</time></trkpt><trkpt lat="45.6000199461632" lon="10.799565831353124"><ele>257.0</ele><time>2026-03-28T11:40:25Z</time></trkpt><trkpt lat="45.599978994432846" lon="10.799283214663667"><ele>256.0</ele><time>2026-03-28T11:40:26Z</time></trkpt><trkpt lat="45.59993999529456" lon="10.799000349039977"><ele>255.0</ele><time>2026-03-28T11:40:27Z</time></trkpt><trkpt lat="45.599902022470324" lon="10.79870907680014"><ele>254.0</ele><time>2026-03-28T11:40:28Z</time></trkpt><trkpt lat="45.5998558502325" lon="10.798431324130686"><ele>253.0</ele><time>2026-03-28T11:40:29Z</time></trkpt><trkpt lat="45.599824604076694" lon="10.79814591135494"><ele>252.0</ele><time>2026-03-28T11:40:30Z</time></trkpt><trkpt lat="45.59979777850016" lon="10.797867645293511"><ele>252.0</ele><time>2026-03-28T11:40:31Z</time></trkpt><trkpt lat="45.59977237788068" lon="10.797608073570908"><ele>252.0</ele><time>2026-03-28T11:40:32Z</time></trkpt><trkpt lat="45.599743880948196" lon="10.797353557375379"><ele>252.0</ele><time>2026-03-28T11:40:33Z</time></trkpt><trkpt lat="45.59973971814007" lon="10.79711135333761"><ele>252.0</ele><time>2026-03-28T11:40:34Z</time></trkpt><trkpt lat="45.59974822425437" lon="10.796864418081451"><ele>252.0</ele><time>2026-03-28T11:40:35Z</time></trkpt><trkpt lat="45.59976236555501" lon="10.796613111408812"><ele>252.0</ele><time>2026-03-28T11:40:36Z</time></trkpt><trkpt lat="45.599781859003045" lon="10.79636051087763"><ele>251.66666666666669</ele><time>2026-03-28T11:40:37Z</time></trkpt><trkpt lat="45.599795258981004" lon="10.79610439762318"><ele>251.33333333333334</ele><time>2026-03-28T11:40:38Z</time></trkpt><trkpt lat="45.599806302853935" lon="10.79584631727149"><ele>251.0</ele><time>2026-03-28T11:40:39Z</time></trkpt><trkpt lat="45.59981409712269" lon="10.795607953375312"><ele>250.75</ele><time>2026-03-28T11:40:40Z</time></trkpt><trkpt lat="45.599819765702975" lon="10.79539936415772"><ele>250.5</ele><time>2026-03-28T11:40:41Z</time></trkpt><trkpt lat="45.59982058171567" lon="10.79520416134562"><ele>250.25</ele><time>2026-03-28T11:40:42Z</time></trkpt><trkpt lat="45.59982278252179" lon="10.795038379450201"><ele>250.0</ele><time>2026-03-28T11:40:43Z</time></trkpt><trkpt lat="45.599831044902835" lon="10.794915251670375"><ele>249.8</ele><time>2026-03-28T11:40:44Z</time></trkpt><trkpt lat="45.599836706820334" lon="10.79480971722014"><ele>249.6</ele><time>2026-03-28T11:40:45Z</time></trkpt><trkpt lat="45.59985720820658" lon="10.79472333398211"><ele>249.39999999999998</ele><time>2026-03-28T11:40:46Z</time></trkpt><trkpt lat="45.59989081903131" lon="10.794635071253284"><ele>249.2</ele><time>2026-03-28T11:40:48Z</time></trkpt><trkpt lat="45.600101299032204" lon="10.794623093197528"><ele>249.0</ele><time>2026-03-28T11:40:49Z</time></trkpt><trkpt lat="45.60023532501638" lon="10.794601592627597"><ele>249.0</ele><time>2026-03-28T11:40:50Z</time></trkpt><trkpt lat="45.60035915115176" lon="10.794582967750731"><ele>248.99999999999997</ele><time>2026-03-28T11:40:51Z</time></trkpt><trkpt lat="45.6004833053081" lon="10.794558469261995"><ele>248.99999999999997</ele><time>2026-03-28T11:40:52Z</time></trkpt><trkpt lat="45.60058311084309" lon="10.79453104211763"><ele>249.0</ele><time>2026-03-28T11:40:53Z</time></trkpt><trkpt lat="45.60065148910044" lon="10.794510791406516"><ele>249.0</ele><time>2026-03-28T11:40:54Z</time></trkpt><trkpt lat="45.60072029390074" lon="10.79447896577508"><ele>249.0</ele><time>2026-03-28T11:40:56Z</time></trkpt><trkpt lat="45.60075585040312" lon="10.794399242850961"><ele>249.0</ele><time>2026-03-28T11:40:58Z</time></trkpt><trkpt lat="45.600902669080035" lon="10.794620574247789"><ele>249.0</ele><time>2026-03-28T11:40:59Z</time></trkpt><trkpt lat="45.60098411238331" lon="10.794738911905588"><ele>249.0</ele><time>2026-03-28T11:41:00Z</time></trkpt><trkpt lat="45.60108367827686" lon="10.794866746394163"><ele>248.75</ele><time>2026-03-28T11:41:01Z</time></trkpt><trkpt lat="45.601196507283284" lon="10.794983369144362"><ele>248.5</ele><time>2026-03-28T11:41:02Z</time></trkpt><trkpt lat="45.601309453808625" lon="10.795080648610137"><ele>248.25</ele><time>2026-03-28T11:41:03Z</time></trkpt><trkpt lat="45.60141902183388" lon="10.795146514648563"><ele>248.0</ele><time>2026-03-28T11:41:04Z</time></trkpt><trkpt lat="45.601535666834316" lon="10.79518025858733"><ele>248.4</ele><time>2026-03-28T11:41:05Z</time></trkpt><trkpt lat="45.60164622916728" lon="10.79518651139075"><ele>248.8</ele><time>2026-03-28T11:41:06Z</time></trkpt><trkpt lat="45.60175607446806" lon="10.795182247913948"><ele>249.2</ele><time>2026-03-28T11:41:07Z</time></trkpt><trkpt lat="45.601867228762515" lon="10.795183580388038"><ele>249.6</ele><time>2026-03-28T11:41:08Z</time></trkpt><trkpt lat="45.60197336552091" lon="10.795178636696072"><ele>250.0</ele><time>2026-03-28T11:41:09Z</time></trkpt><trkpt lat="45.602078576832994" lon="10.795178223700796"><ele>250.16666666666666</ele><time>2026-03-28T11:41:10Z</time></trkpt><trkpt lat="45.602179588283555" lon="10.79517580991215"><ele>250.33333333333331</ele><time>2026-03-28T11:41:11Z</time></trkpt><trkpt lat="45.6022717040169" lon="10.795179537406531"><ele>250.5</ele><time>2026-03-28T11:41:12Z</time></trkpt><trkpt lat="45.602351525206124" lon="10.79519128583205"><ele>250.66666666666669</ele><time>2026-03-28T11:41:13Z</time></trkpt><trkpt lat="45.602421607414925" lon="10.795206162400877"><ele>250.83333333333334</ele><time>2026-03-28T11:41:14Z</time></trkpt><trkpt lat="45.60248463867131" lon="10.795229568297204"><ele>251.0</ele><time>2026-03-28T11:41:15Z</time></trkpt><trkpt lat="45.6025454578547" lon="10.795274400885152"><ele>251.00000000000003</ele><time>2026-03-28T11:41:16Z</time></trkpt><trkpt lat="45.602601419112695" lon="10.795356419382946"><ele>251.0</ele><time>2026-03-28T11:41:17Z</time></trkpt><trkpt lat="45.60265131750736" lon="10.795437548114743"><ele>251.0</ele><time>2026-03-28T11:41:18Z</time></trkpt><trkpt lat="45.60271404299163" lon="10.795506731498435"><ele>251.0</ele><time>2026-03-28T11:41:19Z</time></trkpt><trkpt lat="45.602713950514676" lon="10.795649607952576"><ele>251.00000000000003</ele><time>2026-03-28T11:41:20Z</time></trkpt><trkpt lat="45.602714969698596" lon="10.795785898919446"><ele>251.0</ele><time>2026-03-28T11:41:21Z</time></trkpt><trkpt lat="45.60270891573829" lon="10.795934615819077"><ele>251.0</ele><time>2026-03-28T11:41:22Z</time></trkpt><trkpt lat="45.60270920179698" lon="10.796094450855584"><ele>251.00000000000003</ele><time>2026-03-28T11:41:23Z</time></trkpt><trkpt lat="45.6027115417449" lon="10.796237021509357"><ele>251.00000000000003</ele><time>2026-03-28T11:41:24Z</time></trkpt><trkpt lat="45.60271408561832" lon="10.79636339653274"><ele>251.0</ele><time>2026-03-28T11:41:25Z</time></trkpt><trkpt lat="45.60271902381327" lon="10.796479025239531"><ele>251.0</ele><time>2026-03-28T11:41:26Z</time></trkpt><trkpt lat="45.602728521838614" lon="10.796592718349759"><ele>251.00000000000003</ele><time>2026-03-28T11:41:27Z</time></trkpt><trkpt lat="45.60273901988177" lon="10.796718797039107"><ele>251.0</ele><time>2026-03-28T11:41:28Z</time></trkpt><trkpt lat="45.60274696869772" lon="10.79684816762649"><ele>251.0</ele><time>2026-03-28T11:41:29Z</time></trkpt><trkpt lat="45.60275373526949" lon="10.796960503651237"><ele>251.0</ele><time>2026-03-28T11:41:30Z</time></trkpt><trkpt lat="45.602761456457834" lon="10.797052865932752"><ele>251.00000000000003</ele><time>2026-03-28T11:41:31Z</time></trkpt><trkpt lat="45.60280965467557" lon="10.797207460914295"><ele>251.0</ele><time>2026-03-28T11:41:33Z</time></trkpt><trkpt lat="45.60287290810558" lon="10.797261110997383"><ele>250.83333333333334</ele><time>2026-03-28T11:41:34Z</time></trkpt><trkpt lat="45.6029595648606" lon="10.797301148365683"><ele>250.66666666666669</ele><time>2026-03-28T11:41:35Z</time></trkpt><trkpt lat="45.60303635676034" lon="10.797326239124324"><ele>250.5</ele><time>2026-03-28T11:41:36Z</time></trkpt><trkpt lat="45.60310058068174" lon="10.797361716012002"><ele>250.33333333333331</ele><time>2026-03-28T11:41:37Z</time></trkpt><trkpt lat="45.60315593562599" lon="10.797414301801735"><ele>250.16666666666666</ele><time>2026-03-28T11:41:38Z</time></trkpt><trkpt lat="45.60319269714485" lon="10.79749613098116"><ele>250.0</ele><time>2026-03-28T11:41:39Z</time></trkpt><trkpt lat="45.60320443964087" lon="10.797607026313276"><ele>250.16666666666666</ele><time>2026-03-28T11:41:40Z</time></trkpt><trkpt lat="45.60319027712456" lon="10.797740334357265"><ele>250.33333333333331</ele><time>2026-03-28T11:41:41Z</time></trkpt><trkpt lat="45.603175078436365" lon="10.797874639593296"><ele>250.5</ele><time>2026-03-28T11:41:42Z</time></trkpt><trkpt lat="45.603174771384694" lon="10.797989863072349"><ele>250.66666666666669</ele><time>2026-03-28T11:41:43Z</time></trkpt><trkpt lat="45.60320252306181" lon="10.798086420320075"><ele>250.83333333333334</ele><time>2026-03-28T11:41:44Z</time></trkpt><trkpt lat="45.6032592014704" lon="10.798157925002094"><ele>251.0</ele><time>2026-03-28T11:41:45Z</time></trkpt><trkpt lat="45.60333910268259" lon="10.798208889211717"><ele>251.0</ele><time>2026-03-28T11:41:46Z</time></trkpt><trkpt lat="45.603432489145646" lon="10.7982438352305"><ele>251.00000000000003</ele><time>2026-03-28T11:41:47Z</time></trkpt><trkpt lat="45.60352483061541" lon="10.798281897925465"><ele>251.00000000000003</ele><time>2026-03-28T11:41:48Z</time></trkpt><trkpt lat="45.60361822820041" lon="10.798327515016863"><ele>251.0</ele><time>2026-03-28T11:41:49Z</time></trkpt><trkpt lat="45.60371268626739" lon="10.798373249961845"><ele>251.0</ele><time>2026-03-28T11:41:50Z</time></trkpt><trkpt lat="45.603801761280835" lon="10.798424003182625"><ele>251.20000000000002</ele><time>2026-03-28T11:41:51Z</time></trkpt><trkpt lat="45.603893385762625" lon="10.798478957984"><ele>251.40000000000003</ele><time>2026-03-28T11:41:52Z</time></trkpt><trkpt lat="45.60399117417842" lon="10.798532381372649"><ele>251.6</ele><time>2026-03-28T11:41:53Z</time></trkpt><trkpt lat="45.6040804908396" lon="10.798580543749638"><ele>251.8</ele><time>2026-03-28T11:41:54Z</time></trkpt><trkpt lat="45.60416134935719" lon="10.79862657687405"><ele>252.0</ele><time>2026-03-28T11:41:55Z</time></trkpt><trkpt lat="45.60423755346618" lon="10.798670068355309"><ele>252.0</ele><time>2026-03-28T11:41:56Z</time></trkpt><trkpt lat="45.604310585185615" lon="10.798713098716112"><ele>252.0</ele><time>2026-03-28T11:41:57Z</time></trkpt><trkpt lat="45.604386985085576" lon="10.798757036126005"><ele>252.0</ele><time>2026-03-28T11:41:58Z</time></trkpt><trkpt lat="45.604463586750406" lon="10.798802931598676"><ele>252.0</ele><time>2026-03-28T11:41:59Z</time></trkpt><trkpt lat="45.60453991784453" lon="10.798845946650085"><ele>252.0</ele><time>2026-03-28T11:42:00Z</time></trkpt><trkpt lat="45.60462562036476" lon="10.798891454921879"><ele>252.0</ele><time>2026-03-28T11:42:01Z</time></trkpt><trkpt lat="45.604720221513354" lon="10.798939593902121"><ele>252.0</ele><time>2026-03-28T11:42:02Z</time></trkpt><trkpt lat="45.60483210854051" lon="10.79899129205247"><ele>252.0</ele><time>2026-03-28T11:42:03Z</time></trkpt><trkpt lat="45.604966638800676" lon="10.799063475622134"><ele>252.0</ele><time>2026-03-28T11:42:04Z</time></trkpt><trkpt lat="45.60510824413382" lon="10.799157161981976"><ele>252.0</ele><time>2026-03-28T11:42:05Z</time></trkpt><trkpt lat="45.60524310961631" lon="10.799256682505936"><ele>254.25</ele><time>2026-03-28T11:42:06Z</time></trkpt><trkpt lat="45.60535471279708" lon="10.799337471981897"><ele>256.5</ele><time>2026-03-28T11:42:07Z</time></trkpt><trkpt lat="45.60544424458992" lon="10.799358747197592"><ele>258.75</ele><time>2026-03-28T11:42:08Z</time></trkpt><trkpt lat="45.60550517269898" lon="10.799616849266439"><ele>261.0</ele><time>2026-03-28T11:42:10Z</time></trkpt><trkpt lat="45.60551666140953" lon="10.799777648106298"><ele>261.0</ele><time>2026-03-28T11:42:11Z</time></trkpt><trkpt lat="45.60551440915373" lon="10.799973603330502"><ele>261.0</ele><time>2026-03-28T11:42:12Z</time></trkpt><trkpt lat="45.60549520373072" lon="10.800208259623211"><ele>261.0</ele><time>2026-03-28T11:42:13Z</time></trkpt><trkpt lat="45.605461753897124" lon="10.800456070051075"><ele>261.6666666666667</ele><time>2026-03-28T11:42:14Z</time></trkpt><trkpt lat="45.60542107074578" lon="10.800712063454768"><ele>262.33333333333337</ele><time>2026-03-28T11:42:15Z</time></trkpt><trkpt lat="45.60538709644524" lon="10.800997791398903"><ele>263.0</ele><time>2026-03-28T11:42:16Z</time></trkpt><trkpt lat="45.6053569665411" lon="10.801279570669513"><ele>261.0</ele><time>2026-03-28T11:42:17Z</time></trkpt><trkpt lat="45.60532875555739" lon="10.801568892057425"><ele>259.0</ele><time>2026-03-28T11:42:18Z</time></trkpt><trkpt lat="45.605301486098035" lon="10.801836369644123"><ele>257.0</ele><time>2026-03-28T11:42:19Z</time></trkpt><trkpt lat="45.605279071106885" lon="10.80208731020945"><ele>257.0</ele><time>2026-03-28T11:42:20Z</time></trkpt><trkpt lat="45.60524490696548" lon="10.80230482881115"><ele>257.0</ele><time>2026-03-28T11:42:21Z</time></trkpt><trkpt lat="45.60523792742538" lon="10.802489620175306"><ele>257.0</ele><time>2026-03-28T11:42:22Z</time></trkpt><trkpt lat="45.605225495641804" lon="10.80263855423618"><ele>257.0</ele><time>2026-03-28T11:42:23Z</time></trkpt><trkpt lat="45.60521528469836" lon="10.802778448752687"><ele>257.0</ele><time>2026-03-28T11:42:24Z</time></trkpt><trkpt lat="45.60520868948181" lon="10.80289649537391"><ele>257.0</ele><time>2026-03-28T11:42:25Z</time></trkpt><trkpt lat="45.60520828836147" lon="10.803015592023534"><ele>257.0</ele><time>2026-03-28T11:42:26Z</time></trkpt><trkpt lat="45.60520164223181" lon="10.803148094850748"><ele>257.0</ele><time>2026-03-28T11:42:27Z</time></trkpt><trkpt lat="45.605222293535604" lon="10.803296053363312"><ele>257.0</ele><time>2026-03-28T11:42:28Z</time></trkpt><trkpt lat="45.60521528978687" lon="10.803471937295509"><ele>258.0</ele><time>2026-03-28T11:42:29Z</time></trkpt><trkpt lat="45.6051926657952" lon="10.803660244537848"><ele>259.0</ele><time>2026-03-28T11:42:30Z</time></trkpt><trkpt lat="45.60516835530834" lon="10.803882280301677"><ele>260.0</ele><time>2026-03-28T11:42:31Z</time></trkpt><trkpt lat="45.60514538655767" lon="10.804138192614623"><ele>260.6666666666667</ele><time>2026-03-28T11:42:32Z</time></trkpt><trkpt lat="45.60512270762676" lon="10.804394997922673"><ele>261.3333333333333</ele><time>2026-03-28T11:42:33Z</time></trkpt><trkpt lat="45.60511044065805" lon="10.804622336609794"><ele>262.0</ele><time>2026-03-28T11:42:34Z</time></trkpt><trkpt lat="45.60510367658766" lon="10.804787738106436"><ele>262.0</ele><time>2026-03-28T11:42:35Z</time></trkpt><trkpt lat="45.60510043054359" lon="10.804906824425336"><ele>262.0</ele><time>2026-03-28T11:42:36Z</time></trkpt><trkpt lat="45.6051066740059" lon="10.805019471433008"><ele>262.0</ele><time>2026-03-28T11:42:37Z</time></trkpt><trkpt lat="45.60511860784194" lon="10.805125946571845"><ele>262.0</ele><time>2026-03-28T11:42:38Z</time></trkpt><trkpt lat="45.60513433939175" lon="10.805222862350242"><ele>262.0</ele><time>2026-03-28T11:42:39Z</time></trkpt><trkpt lat="45.605213564320216" lon="10.805370607067458"><ele>262.0</ele><time>2026-03-28T11:42:41Z</time></trkpt><trkpt lat="45.605298390078396" lon="10.805444010611653"><ele>262.6</ele><time>2026-03-28T11:42:42Z</time></trkpt><trkpt lat="45.60538104223417" lon="10.805556799170954"><ele>263.2</ele><time>2026-03-28T11:42:43Z</time></trkpt><trkpt lat="45.60546976925167" lon="10.805670594152442"><ele>263.8</ele><time>2026-03-28T11:42:44Z</time></trkpt><trkpt lat="45.60551703367107" lon="10.805785542144806"><ele>264.4</ele><time>2026-03-28T11:42:45Z</time></trkpt><trkpt lat="45.60557367421816" lon="10.805907389941023"><ele>265.0</ele><time>2026-03-28T11:42:46Z</time></trkpt><trkpt lat="45.60561549311761" lon="10.806073982923744"><ele>265.0</ele><time>2026-03-28T11:42:47Z</time></trkpt><trkpt lat="45.60566639342555" lon="10.806263987569517"><ele>265.0</ele><time>2026-03-28T11:42:48Z</time></trkpt><trkpt lat="45.605720799264525" lon="10.80647257189545"><ele>265.0</ele><time>2026-03-28T11:42:49Z</time></trkpt><trkpt lat="45.60577778960247" lon="10.806690562725413"><ele>264.66666666666663</ele><time>2026-03-28T11:42:50Z</time></trkpt><trkpt lat="45.60583647546839" lon="10.806920720425484"><ele>264.3333333333333</ele><time>2026-03-28T11:42:51Z</time></trkpt><trkpt lat="45.60589174485463" lon="10.807143577934275"><ele>264.0</ele><time>2026-03-28T11:42:52Z</time></trkpt><trkpt lat="45.60594794971127" lon="10.807367053888358"><ele>264.0</ele><time>2026-03-28T11:42:53Z</time></trkpt><trkpt lat="45.60599870460201" lon="10.807559361358377"><ele>264.0</ele><time>2026-03-28T11:42:54Z</time></trkpt><trkpt lat="45.60605347378786" lon="10.807763917834917"><ele>264.0</ele><time>2026-03-28T11:42:55Z</time></trkpt><trkpt lat="45.6061078268283" lon="10.807944533679663"><ele>264.0</ele><time>2026-03-28T11:42:56Z</time></trkpt><trkpt lat="45.60615354486507" lon="10.80813165368458"><ele>264.59999999999997</ele><time>2026-03-28T11:42:57Z</time></trkpt><trkpt lat="45.606186042719905" lon="10.808304321113317"><ele>265.2</ele><time>2026-03-28T11:42:58Z</time></trkpt><trkpt lat="45.606211114561184" lon="10.808454131871692"><ele>265.79999999999995</ele><time>2026-03-28T11:42:59Z</time></trkpt><trkpt lat="45.60624398153932" lon="10.808575480850076"><ele>266.4</ele><time>2026-03-28T11:43:00Z</time></trkpt><trkpt lat="45.606302010509054" lon="10.808694225175163"><ele>267.0</ele><time>2026-03-28T11:43:01Z</time></trkpt><trkpt lat="45.60639093868963" lon="10.808818485314811"><ele>267.0</ele><time>2026-03-28T11:43:02Z</time></trkpt><trkpt lat="45.606487306330784" lon="10.80894339319367"><ele>267.0</ele><time>2026-03-28T11:43:03Z</time></trkpt><trkpt lat="45.606591562495055" lon="10.809077565388078"><ele>267.0</ele><time>2026-03-28T11:43:04Z</time></trkpt><trkpt lat="45.60668428359786" lon="10.809189920894124"><ele>267.0</ele><time>2026-03-28T11:43:05Z</time></trkpt><trkpt lat="45.60676716115215" lon="10.809284120647723"><ele>267.0</ele><time>2026-03-28T11:43:06Z</time></trkpt><trkpt lat="45.60683688604653" lon="10.809371765830056"><ele>267.0</ele><time>2026-03-28T11:43:07Z</time></trkpt><trkpt lat="45.606884650157475" lon="10.809466551104206"><ele>267.0</ele><time>2026-03-28T11:43:08Z</time></trkpt><trkpt lat="45.60692804949208" lon="10.809541238470999"><ele>267.0</ele><time>2026-03-28T11:43:09Z</time></trkpt><trkpt lat="45.60697818915706" lon="10.80959614139918"><ele>267.0</ele><time>2026-03-28T11:43:10Z</time></trkpt><trkpt lat="45.6070224054481" lon="10.809686330211077"><ele>267.0</ele><time>2026-03-28T11:43:13Z</time></trkpt><trkpt lat="45.60701528471531" lon="10.80981033403705"><ele>267.0</ele><time>2026-03-28T11:43:17Z</time></trkpt><trkpt lat="45.606880607674384" lon="10.809925361195507"><ele>267.0</ele><time>2026-03-28T11:43:20Z</time></trkpt><trkpt lat="45.606820070355305" lon="10.809951904850301"><ele>267.0</ele><time>2026-03-28T11:43:21Z</time></trkpt><trkpt lat="45.606751505755064" lon="10.809980068505734"><ele>267.0</ele><time>2026-03-28T11:43:22Z</time></trkpt><trkpt lat="45.60667915591065" lon="10.810019236116634"><ele>267.0</ele><time>2026-03-28T11:43:23Z</time></trkpt><trkpt lat="45.606621074159996" lon="10.810065094947158"><ele>267.0</ele><time>2026-03-28T11:43:24Z</time></trkpt><trkpt lat="45.60656596773931" lon="10.8101147845856"><ele>267.2</ele><time>2026-03-28T11:43:25Z</time></trkpt><trkpt lat="45.606497907244986" lon="10.810206872927584"><ele>267.4</ele><time>2026-03-28T11:43:27Z</time></trkpt><trkpt lat="45.60646521171488" lon="10.810307599511082"><ele>267.6</ele><time>2026-03-28T11:43:29Z</time></trkpt><trkpt lat="45.606417268245174" lon="10.810421298104325"><ele>267.8</ele><time>2026-03-28T11:43:31Z</time></trkpt><trkpt lat="45.60634076080542" lon="10.8105672190906"><ele>268.0</ele><time>2026-03-28T11:43:33Z</time></trkpt><trkpt lat="45.606289379482654" lon="10.81066529689125"><ele>268.0</ele><time>2026-03-28T11:43:34Z</time></trkpt><trkpt lat="45.60622714560556" lon="10.810788896201244"><ele>268.0</ele><time>2026-03-28T11:43:35Z</time></trkpt><trkpt lat="45.60616419719284" lon="10.810906843774758"><ele>268.0</ele><time>2026-03-28T11:43:36Z</time></trkpt><trkpt lat="45.60609649846691" lon="10.811027470204024"><ele>268.0</ele><time>2026-03-28T11:43:37Z</time></trkpt><trkpt lat="45.60602182872227" lon="10.811154876984652"><ele>268.0</ele><time>2026-03-28T11:43:38Z</time></trkpt><trkpt lat="45.60595555370672" lon="10.811266282333374"><ele>268.16666666666663</ele><time>2026-03-28T11:43:39Z</time></trkpt><trkpt lat="45.60587975404009" lon="10.811369673757378"><ele>268.3333333333333</ele><time>2026-03-28T11:43:40Z</time></trkpt><trkpt lat="45.60581675956331" lon="10.811464703688909"><ele>268.5</ele><time>2026-03-28T11:43:41Z</time></trkpt><trkpt lat="45.60575985274928" lon="10.811556896820301"><ele>268.6666666666667</ele><time>2026-03-28T11:43:42Z</time></trkpt><trkpt lat="45.60570367224566" lon="10.81164824414379"><ele>268.83333333333337</ele><time>2026-03-28T11:43:43Z</time></trkpt><trkpt lat="45.605663219616744" lon="10.81174647420243"><ele>269.0</ele><time>2026-03-28T11:43:44Z</time></trkpt><trkpt lat="45.605633612930276" lon="10.811853612374579"><ele>269.1666666666667</ele><time>2026-03-28T11:43:45Z</time></trkpt><trkpt lat="45.60561250144197" lon="10.811970773593629"><ele>269.33333333333337</ele><time>2026-03-28T11:43:46Z</time></trkpt><trkpt lat="45.60560189609241" lon="10.812077896310047"><ele>269.5</ele><time>2026-03-28T11:43:47Z</time></trkpt><trkpt lat="45.60558513356763" lon="10.812176529387067"><ele>269.6666666666667</ele><time>2026-03-28T11:43:48Z</time></trkpt><trkpt lat="45.605561349412895" lon="10.812265327248786"><ele>269.8333333333333</ele><time>2026-03-28T11:43:49Z</time></trkpt><trkpt lat="45.6055388731484" lon="10.812373427180818"><ele>270.0</ele><time>2026-03-28T11:43:51Z</time></trkpt><trkpt lat="45.60548351404834" lon="10.812522725171538"><ele>270.0</ele><time>2026-03-28T11:43:54Z</time></trkpt><trkpt lat="45.605397341981764" lon="10.812609703634969"><ele>270.0</ele><time>2026-03-28T11:43:56Z</time></trkpt><trkpt lat="45.60531456801363" lon="10.812722146694123"><ele>270.0</ele><time>2026-03-28T11:43:58Z</time></trkpt><trkpt lat="45.605270234607495" lon="10.812830882103707"><ele>270.0</ele><time>2026-03-28T11:43:59Z</time></trkpt><trkpt lat="45.605231173892626" lon="10.81296154610296"><ele>270.0</ele><time>2026-03-28T11:44:00Z</time></trkpt><trkpt lat="45.60517054057848" lon="10.813122861959531"><ele>269.5</ele><time>2026-03-28T11:44:01Z</time></trkpt><trkpt lat="45.605119216616565" lon="10.813280203023503"><ele>269.0</ele><time>2026-03-28T11:44:02Z</time></trkpt><trkpt lat="45.60506470525481" lon="10.813454057447826"><ele>268.5</ele><time>2026-03-28T11:44:03Z</time></trkpt><trkpt lat="45.605016445525095" lon="10.813630684304034"><ele>268.0</ele><time>2026-03-28T11:44:04Z</time></trkpt><trkpt lat="45.60497138099027" lon="10.813813432332045"><ele>268.0</ele><time>2026-03-28T11:44:05Z</time></trkpt><trkpt lat="45.60492970824604" lon="10.813983815870635"><ele>268.0</ele><time>2026-03-28T11:44:06Z</time></trkpt><trkpt lat="45.60488864160272" lon="10.814140680003385"><ele>268.0</ele><time>2026-03-28T11:44:07Z</time></trkpt><trkpt lat="45.60484701711264" lon="10.814312587002279"><ele>268.0</ele><time>2026-03-28T11:44:08Z</time></trkpt><trkpt lat="45.60480220405416" lon="10.814501476630289"><ele>268.25</ele><time>2026-03-28T11:44:09Z</time></trkpt><trkpt lat="45.604762734359916" lon="10.814681780124905"><ele>268.5</ele><time>2026-03-28T11:44:10Z</time></trkpt><trkpt lat="45.604737497420494" lon="10.814851465584033"><ele>268.75</ele><time>2026-03-28T11:44:11Z</time></trkpt><trkpt lat="45.60469910243805" lon="10.815025759538807"><ele>269.0</ele><time>2026-03-28T11:44:12Z</time></trkpt><trkpt lat="45.604666457979" lon="10.815187141814889"><ele>269.1666666666667</ele><time>2026-03-28T11:44:13Z</time></trkpt><trkpt lat="45.60463896230487" lon="10.815341335240047"><ele>269.33333333333337</ele><time>2026-03-28T11:44:14Z</time></trkpt><trkpt lat="45.60462119693911" lon="10.815488701184622"><ele>269.5</ele><time>2026-03-28T11:44:15Z</time></trkpt><trkpt lat="45.60461687690377" lon="10.81559146997338"><ele>269.6666666666667</ele><time>2026-03-28T11:44:16Z</time></trkpt><trkpt lat="45.60461659302822" lon="10.815693325706949"><ele>269.8333333333333</ele><time>2026-03-28T11:44:17Z</time></trkpt><trkpt lat="45.604615750424756" lon="10.81580930127872"><ele>270.0</ele><time>2026-03-28T11:44:19Z</time></trkpt><trkpt lat="45.60468853736647" lon="10.815909949941133"><ele>269.8333333333333</ele><time>2026-03-28T11:44:21Z</time></trkpt><trkpt lat="45.60467291512841" lon="10.816036270805078"><ele>269.6666666666667</ele><time>2026-03-28T11:44:25Z</time></trkpt><trkpt lat="45.604650556850736" lon="10.816153739956789"><ele>269.5</ele><time>2026-03-28T11:44:27Z</time></trkpt><trkpt lat="45.604637921965036" lon="10.816268822057227"><ele>269.33333333333337</ele><time>2026-03-28T11:44:28Z</time></trkpt><trkpt lat="45.60462836138218" lon="10.81640452904942"><ele>269.1666666666667</ele><time>2026-03-28T11:44:29Z</time></trkpt><trkpt lat="45.60462693224135" lon="10.816542709276836"><ele>269.0</ele><time>2026-03-28T11:44:30Z</time></trkpt><trkpt lat="45.60463072715085" lon="10.816692114082075"><ele>269.0</ele><time>2026-03-28T11:44:31Z</time></trkpt><trkpt lat="45.60463744999123" lon="10.816796317050807"><ele>269.0</ele><time>2026-03-28T11:44:32Z</time></trkpt><trkpt lat="45.604648208161045" lon="10.816899136001934"><ele>269.0</ele><time>2026-03-28T11:44:33Z</time></trkpt><trkpt lat="45.604663814052465" lon="10.816990662194394"><ele>269.0</ele><time>2026-03-28T11:44:34Z</time></trkpt><trkpt lat="45.604690564339116" lon="10.817116596641249"><ele>269.0</ele><time>2026-03-28T11:44:36Z</time></trkpt><trkpt lat="45.60471870851169" lon="10.817225576882999"><ele>269.0</ele><time>2026-03-28T11:44:38Z</time></trkpt><trkpt lat="45.60474782334499" lon="10.81733544983209"><ele>269.8</ele><time>2026-03-28T11:44:40Z</time></trkpt><trkpt lat="45.60477529995544" lon="10.817459694898531"><ele>270.59999999999997</ele><time>2026-03-28T11:44:42Z</time></trkpt><trkpt lat="45.604791938384075" lon="10.817572204717115"><ele>271.4</ele><time>2026-03-28T11:44:45Z</time></trkpt><trkpt lat="45.60474860166993" lon="10.817797018864834"><ele>272.2</ele><time>2026-03-28T11:45:11Z</time></trkpt><trkpt lat="45.60471667181943" lon="10.81789510490939"><ele>273.0</ele><time>2026-03-28T11:45:12Z</time></trkpt><trkpt lat="45.60466701579814" lon="10.818019701283966"><ele>273.2</ele><time>2026-03-28T11:45:13Z</time></trkpt><trkpt lat="45.60461603036171" lon="10.818141622645696"><ele>273.4</ele><time>2026-03-28T11:45:14Z</time></trkpt><trkpt lat="45.60456542318198" lon="10.818269425308408"><ele>273.59999999999997</ele><time>2026-03-28T11:45:15Z</time></trkpt><trkpt lat="45.60452093394741" lon="10.818386305002042"><ele>273.8</ele><time>2026-03-28T11:45:16Z</time></trkpt><trkpt lat="45.60448322990169" lon="10.818490880051273"><ele>274.0</ele><time>2026-03-28T11:45:17Z</time></trkpt><trkpt lat="45.604450827039294" lon="10.818586538503212"><ele>273.8571428571429</ele><time>2026-03-28T11:45:18Z</time></trkpt><trkpt lat="45.60442446491112" lon="10.818694610677097"><ele>273.7142857142857</ele><time>2026-03-28T11:45:19Z</time></trkpt><trkpt lat="45.60440651262544" lon="10.818800436907075"><ele>273.57142857142856</ele><time>2026-03-28T11:45:20Z</time></trkpt><trkpt lat="45.6043980489422" lon="10.818893452683014"><ele>273.42857142857144</ele><time>2026-03-28T11:45:21Z</time></trkpt><trkpt lat="45.60439387202057" lon="10.818989622417744"><ele>273.2857142857143</ele><time>2026-03-28T11:45:22Z</time></trkpt><trkpt lat="45.60438949380004" lon="10.819097470010343"><ele>273.14285714285717</ele><time>2026-03-28T11:45:24Z</time></trkpt><trkpt lat="45.604394557304744" lon="10.819187524209712"><ele>273.0</ele><time>2026-03-28T11:45:33Z</time></trkpt><trkpt lat="45.60441761782592" lon="10.819346294916281"><ele>273.0</ele><time>2026-03-28T11:45:35Z</time></trkpt><trkpt lat="45.60445540248245" lon="10.81948737483524"><ele>273.0</ele><time>2026-03-28T11:45:37Z</time></trkpt><trkpt lat="45.60448818406903" lon="10.819600850620267"><ele>273.0</ele><time>2026-03-28T11:45:39Z</time></trkpt><trkpt lat="45.604505964120754" lon="10.819720854188308"><ele>273.0</ele><time>2026-03-28T11:45:41Z</time></trkpt><trkpt lat="45.60451101550432" lon="10.819877550187217"><ele>273.0</ele><time>2026-03-28T11:45:43Z</time></trkpt><trkpt lat="45.60449369725852" lon="10.820049966364309"><ele>273.6666666666667</ele><time>2026-03-28T11:45:45Z</time></trkpt><trkpt lat="45.60447522350741" lon="10.820157946083848"><ele>274.3333333333333</ele><time>2026-03-28T11:45:46Z</time></trkpt><trkpt lat="45.60445361758669" lon="10.820276473841385"><ele>275.0</ele><time>2026-03-28T11:45:47Z</time></trkpt><trkpt lat="45.604429580957685" lon="10.820408336216612"><ele>275.66666666666663</ele><time>2026-03-28T11:45:48Z</time></trkpt><trkpt lat="45.60440666991311" lon="10.820530673913341"><ele>276.3333333333333</ele><time>2026-03-28T11:45:49Z</time></trkpt><trkpt lat="45.60438717783246" lon="10.820633534557384"><ele>277.0</ele><time>2026-03-28T11:45:50Z</time></trkpt><trkpt lat="45.604360366406475" lon="10.820775863905812"><ele>277.0</ele><time>2026-03-28T11:45:52Z</time></trkpt><trkpt lat="45.60434119330111" lon="10.820889458842858"><ele>277.0</ele><time>2026-03-28T11:45:54Z</time></trkpt><trkpt lat="45.60432501314237" lon="10.820985321203292"><ele>277.0</ele><time>2026-03-28T11:45:57Z</time></trkpt><trkpt lat="45.60440903262063" lon="10.820990572632171"><ele>277.0</ele><time>2026-03-28T11:46:12Z</time></trkpt><trkpt lat="45.604428310149295" lon="10.820861686804776"><ele>277.0</ele><time>2026-03-28T11:46:15Z</time></trkpt><trkpt lat="45.60443584781462" lon="10.820766732067124"><ele>277.0</ele><time>2026-03-28T11:46:16Z</time></trkpt><trkpt lat="45.60446681588093" lon="10.820610839143242"><ele>278.6</ele><time>2026-03-28T11:46:18Z</time></trkpt><trkpt lat="45.60450771268936" lon="10.820440069464395"><ele>280.2</ele><time>2026-03-28T11:46:20Z</time></trkpt><trkpt lat="45.604550977026996" lon="10.820268441711868"><ele>281.8</ele><time>2026-03-28T11:46:22Z</time></trkpt><trkpt lat="45.604571640209286" lon="10.820169016839444"><ele>283.4</ele><time>2026-03-28T11:46:23Z</time></trkpt><trkpt lat="45.60458975953976" lon="10.820066729676896"><ele>285.0</ele><time>2026-03-28T11:46:24Z</time></trkpt><trkpt lat="45.604599009695804" lon="10.819965140216668"><ele>285.0</ele><time>2026-03-28T11:46:25Z</time></trkpt><trkpt lat="45.60454451353606" lon="10.819779461929308"><ele>285.0</ele><time>2026-03-28T11:46:27Z</time></trkpt><trkpt lat="45.604530721006" lon="10.819648012487892"><ele>285.0</ele><time>2026-03-28T11:46:29Z</time></trkpt><trkpt lat="45.60451067897262" lon="10.81955319099493"><ele>285.0</ele><time>2026-03-28T11:46:31Z</time></trkpt><trkpt lat="45.604479688318186" lon="10.819446832053037"><ele>285.0</ele><time>2026-03-28T11:46:33Z</time></trkpt><trkpt lat="45.60444742846391" lon="10.819324313237749"><ele>282.6666666666667</ele><time>2026-03-28T11:46:35Z</time></trkpt><trkpt lat="45.604428535482484" lon="10.819227760778897"><ele>280.3333333333333</ele><time>2026-03-28T11:46:37Z</time></trkpt><trkpt lat="45.60441966150153" lon="10.819131363804553"><ele>278.0</ele><time>2026-03-28T11:46:40Z</time></trkpt><trkpt lat="45.60442646755256" lon="10.818991964823212"><ele>275.66666666666663</ele><time>2026-03-28T11:46:47Z</time></trkpt><trkpt lat="45.60442780825827" lon="10.81889320963469"><ele>273.3333333333333</ele><time>2026-03-28T11:46:48Z</time></trkpt><trkpt lat="45.60441507012388" lon="10.818994157953396"><ele>271.0</ele><time>2026-03-28T11:46:53Z</time></trkpt><trkpt lat="45.60426055412786" lon="10.819114726254284"><ele>271.0</ele><time>2026-03-28T11:46:54Z</time></trkpt><trkpt lat="45.604207315690545" lon="10.819203216643436"><ele>271.0</ele><time>2026-03-28T11:46:55Z</time></trkpt><trkpt lat="45.60410003543363" lon="10.819222541518224"><ele>271.0</ele><time>2026-03-28T11:46:57Z</time></trkpt><trkpt lat="45.604036808268276" lon="10.819191731148567"><ele>271.0</ele><time>2026-03-28T11:46:58Z</time></trkpt><trkpt lat="45.60396168677188" lon="10.81913168601518"><ele>271.0</ele><time>2026-03-28T11:46:59Z</time></trkpt><trkpt lat="45.603896170343596" lon="10.819077238873644"><ele>271.0</ele><time>2026-03-28T11:47:00Z</time></trkpt><trkpt lat="45.603830894284165" lon="10.819121414223405"><ele>271.0</ele><time>2026-03-28T11:47:02Z</time></trkpt><trkpt lat="45.60377594687854" lon="10.81918910984493"><ele>271.0</ele><time>2026-03-28T11:47:03Z</time></trkpt><trkpt lat="45.603713051386734" lon="10.819277709690239"><ele>271.0</ele><time>2026-03-28T11:47:04Z</time></trkpt><trkpt lat="45.603629650851914" lon="10.819383379414807"><ele>271.0</ele><time>2026-03-28T11:47:05Z</time></trkpt><trkpt lat="45.60352973963616" lon="10.819501243778324"><ele>271.0</ele><time>2026-03-28T11:47:06Z</time></trkpt><trkpt lat="45.60342070412377" lon="10.819630913885042"><ele>270.66666666666663</ele><time>2026-03-28T11:47:07Z</time></trkpt><trkpt lat="45.60329609371717" lon="10.819780653982601"><ele>270.3333333333333</ele><time>2026-03-28T11:47:08Z</time></trkpt><trkpt lat="45.603170042140206" lon="10.819925735114992"><ele>270.0</ele><time>2026-03-28T11:47:09Z</time></trkpt><trkpt lat="45.60303995374704" lon="10.820078989523406"><ele>270.0</ele><time>2026-03-28T11:47:10Z</time></trkpt><trkpt lat="45.60291822493431" lon="10.820219571612983"><ele>270.0</ele><time>2026-03-28T11:47:11Z</time></trkpt><trkpt lat="45.60281009683561" lon="10.820349947904328"><ele>270.0</ele><time>2026-03-28T11:47:12Z</time></trkpt><trkpt lat="45.60270553578558" lon="10.820479678669127"><ele>270.0</ele><time>2026-03-28T11:47:13Z</time></trkpt><trkpt lat="45.602596938440556" lon="10.820606516079035"><ele>270.0</ele><time>2026-03-28T11:47:14Z</time></trkpt><trkpt lat="45.602482227338065" lon="10.820745352335567"><ele>270.0</ele><time>2026-03-28T11:47:15Z</time></trkpt><trkpt lat="45.60237172145899" lon="10.820876250841826"><ele>270.0</ele><time>2026-03-28T11:47:16Z</time></trkpt><trkpt lat="45.60225808271735" lon="10.821011741412534"><ele>270.0</ele><time>2026-03-28T11:47:17Z</time></trkpt><trkpt lat="45.6021424285485" lon="10.821144754208872"><ele>269.75</ele><time>2026-03-28T11:47:18Z</time></trkpt><trkpt lat="45.60202362805988" lon="10.8212836497528"><ele>269.5</ele><time>2026-03-28T11:47:19Z</time></trkpt><trkpt lat="45.60191627676889" lon="10.821415989338199"><ele>269.25</ele><time>2026-03-28T11:47:20Z</time></trkpt><trkpt lat="45.601814543385714" lon="10.82153762283846"><ele>269.0</ele><time>2026-03-28T11:47:21Z</time></trkpt><trkpt lat="45.60172600007108" lon="10.821638300631152"><ele>269.0</ele><time>2026-03-28T11:47:22Z</time></trkpt><trkpt lat="45.601656110988095" lon="10.821721614536349"><ele>269.0</ele><time>2026-03-28T11:47:23Z</time></trkpt><trkpt lat="45.6015956132721" lon="10.821804287966252"><ele>269.0</ele><time>2026-03-28T11:47:24Z</time></trkpt><trkpt lat="45.60154787771943" lon="10.821866734945157"><ele>269.0</ele><time>2026-03-28T11:47:25Z</time></trkpt><trkpt lat="45.60146544714988" lon="10.821967543186874"><ele>269.0</ele><time>2026-03-28T11:47:27Z</time></trkpt><trkpt lat="45.6014478328432" lon="10.822072433418029"><ele>269.0</ele><time>2026-03-28T11:47:29Z</time></trkpt><trkpt lat="45.60153367832282" lon="10.822212298712296"><ele>270.0</ele><time>2026-03-28T11:47:31Z</time></trkpt><trkpt lat="45.60159543433959" lon="10.822302463379872"><ele>271.0</ele><time>2026-03-28T11:47:32Z</time></trkpt><trkpt lat="45.601664583729786" lon="10.822421123695328"><ele>272.0</ele><time>2026-03-28T11:47:33Z</time></trkpt><trkpt lat="45.60172860978948" lon="10.822542569919332"><ele>273.0</ele><time>2026-03-28T11:47:34Z</time></trkpt><trkpt lat="45.60178597713891" lon="10.822653846321641"><ele>274.0</ele><time>2026-03-28T11:47:35Z</time></trkpt><trkpt lat="45.601833401447074" lon="10.822764480897957"><ele>275.0</ele><time>2026-03-28T11:47:36Z</time></trkpt><trkpt lat="45.60187767214654" lon="10.82285558475305"><ele>276.0</ele><time>2026-03-28T11:47:37Z</time></trkpt><trkpt lat="45.60195376306654" lon="10.822959254784227"><ele>277.0</ele><time>2026-03-28T11:47:39Z</time></trkpt><trkpt lat="45.60205377900125" lon="10.822945603850437"><ele>278.0</ele><time>2026-03-28T11:47:41Z</time></trkpt><trkpt lat="45.60211752771633" lon="10.822910481919543"><ele>279.0</ele><time>2026-03-28T11:47:42Z</time></trkpt><trkpt lat="45.602177952029265" lon="10.822866385314118"><ele>280.0</ele><time>2026-03-28T11:47:43Z</time></trkpt><trkpt lat="45.60226544652242" lon="10.822798191155194"><ele>280.25</ele><time>2026-03-28T11:47:44Z</time></trkpt><trkpt lat="45.60236249880249" lon="10.82272086103381"><ele>280.5</ele><time>2026-03-28T11:47:45Z</time></trkpt><trkpt lat="45.602469218360824" lon="10.822644402742164"><ele>280.75</ele><time>2026-03-28T11:47:46Z</time></trkpt><trkpt lat="45.60257948245459" lon="10.822571628059613"><ele>281.0</ele><time>2026-03-28T11:47:47Z</time></trkpt><trkpt lat="45.60269276146547" lon="10.822504893116122"><ele>280.40000000000003</ele><time>2026-03-28T11:47:48Z</time></trkpt><trkpt lat="45.602799786039256" lon="10.822453385050473"><ele>279.8</ele><time>2026-03-28T11:47:49Z</time></trkpt><trkpt lat="45.602903723527156" lon="10.822409073168805"><ele>279.20000000000005</ele><time>2026-03-28T11:47:50Z</time></trkpt><trkpt lat="45.60298703650729" lon="10.822359391197361"><ele>278.6</ele><time>2026-03-28T11:47:51Z</time></trkpt><trkpt lat="45.60306923041802" lon="10.822305010944728"><ele>278.0</ele><time>2026-03-28T11:47:52Z</time></trkpt><trkpt lat="45.60316353332629" lon="10.822259104842201"><ele>278.0</ele><time>2026-03-28T11:47:53Z</time></trkpt><trkpt lat="45.60326983140337" lon="10.822223610197176"><ele>278.0</ele><time>2026-03-28T11:47:54Z</time></trkpt><trkpt lat="45.60337241907396" lon="10.822193103172127"><ele>278.0</ele><time>2026-03-28T11:47:55Z</time></trkpt><trkpt lat="45.603483075524345" lon="10.82215745923987"><ele>278.0</ele><time>2026-03-28T11:47:56Z</time></trkpt><trkpt lat="45.603581899681586" lon="10.822133960265592"><ele>278.0</ele><time>2026-03-28T11:47:57Z</time></trkpt><trkpt lat="45.60366922159426" lon="10.82211467783367"><ele>279.0</ele><time>2026-03-28T11:47:58Z</time></trkpt><trkpt lat="45.60374995318335" lon="10.822100342736418"><ele>280.0</ele><time>2026-03-28T11:47:59Z</time></trkpt><trkpt lat="45.603826328518885" lon="10.822070175073884"><ele>281.0</ele><time>2026-03-28T11:48:00Z</time></trkpt><trkpt lat="45.60391104324743" lon="10.822057889478527"><ele>282.0</ele><time>2026-03-28T11:48:01Z</time></trkpt><trkpt lat="45.60400229981014" lon="10.822048036364826"><ele>283.0</ele><time>2026-03-28T11:48:02Z</time></trkpt><trkpt lat="45.60408594440489" lon="10.822055218017137"><ele>284.0</ele><time>2026-03-28T11:48:03Z</time></trkpt><trkpt lat="45.60416425148148" lon="10.822052924653761"><ele>284.0</ele><time>2026-03-28T11:48:04Z</time></trkpt><trkpt lat="45.60423950243848" lon="10.822046275305746"><ele>284.0</ele><time>2026-03-28T11:48:05Z</time></trkpt><trkpt lat="45.60433678527959" lon="10.821962832964587"><ele>284.0</ele><time>2026-03-28T11:48:07Z</time></trkpt><trkpt lat="45.60429546185737" lon="10.821766888044346"><ele>284.0</ele><time>2026-03-28T11:48:09Z</time></trkpt><trkpt lat="45.60436030379805" lon="10.82174736849297"><ele>284.0</ele><time>2026-03-28T11:48:10Z</time></trkpt><trkpt lat="45.60447314736993" lon="10.821808737355267"><ele>286.0</ele><time>2026-03-28T11:48:12Z</time></trkpt><trkpt lat="45.60450855597789" lon="10.821706976260288"><ele>288.0</ele><time>2026-03-28T11:48:13Z</time></trkpt><trkpt lat="45.6045740899134" lon="10.821670024344986"><ele>290.0</ele><time>2026-03-28T11:48:14Z</time></trkpt><trkpt lat="45.60467397398565" lon="10.821765817510345"><ele>292.0</ele><time>2026-03-28T11:48:15Z</time></trkpt><trkpt lat="45.60473786152914" lon="10.821750894025694"><ele>294.0</ele><time>2026-03-28T11:48:16Z</time></trkpt><trkpt lat="45.604805395742645" lon="10.821736453279627"><ele>296.0</ele><time>2026-03-28T11:48:17Z</time></trkpt><trkpt lat="45.60488377420685" lon="10.8217445174367"><ele>296.0</ele><time>2026-03-28T11:48:18Z</time></trkpt><trkpt lat="45.60495061177653" lon="10.821763272000297"><ele>296.0</ele><time>2026-03-28T11:48:19Z</time></trkpt><trkpt lat="45.60505335575843" lon="10.82177130238218"><ele>296.0</ele><time>2026-03-28T11:48:21Z</time></trkpt><trkpt lat="45.605121930254306" lon="10.821744829941421"><ele>296.0</ele><time>2026-03-28T11:48:22Z</time></trkpt><trkpt lat="45.605195012885716" lon="10.821712893207366"><ele>296.0</ele><time>2026-03-28T11:48:23Z</time></trkpt><trkpt lat="45.60524920979791" lon="10.821600803982347"><ele>296.0</ele><time>2026-03-28T11:48:24Z</time></trkpt><trkpt lat="45.60529091076422" lon="10.821496670395618"><ele>296.0</ele><time>2026-03-28T11:48:25Z</time></trkpt><trkpt lat="45.60533869075325" lon="10.821433392963275"><ele>296.0</ele><time>2026-03-28T11:48:29Z</time></trkpt><trkpt lat="45.60529314105773" lon="10.82161067520862"><ele>296.0</ele><time>2026-03-28T11:48:31Z</time></trkpt><trkpt lat="45.60528844239323" lon="10.82175905525297"><ele>296.0</ele><time>2026-03-28T11:48:32Z</time></trkpt><trkpt lat="45.605306373758516" lon="10.821920045525829"><ele>296.0</ele><time>2026-03-28T11:48:33Z</time></trkpt><trkpt lat="45.60531058253129" lon="10.822106378986755"><ele>296.0</ele><time>2026-03-28T11:48:34Z</time></trkpt><trkpt lat="45.60532142483243" lon="10.822315587508783"><ele>296.0</ele><time>2026-03-28T11:48:35Z</time></trkpt><trkpt lat="45.605335041762075" lon="10.822548175402384"><ele>296.0</ele><time>2026-03-28T11:48:36Z</time></trkpt><trkpt lat="45.605349052917745" lon="10.822788977822615"><ele>300.0</ele><time>2026-03-28T11:48:37Z</time></trkpt><trkpt lat="45.60535816226477" lon="10.823047933086967"><ele>304.0</ele><time>2026-03-28T11:48:38Z</time></trkpt><trkpt lat="45.60537382846469" lon="10.823330614776639"><ele>308.0</ele><time>2026-03-28T11:48:39Z</time></trkpt><trkpt lat="45.605388485042326" lon="10.82361044140783"><ele>308.0</ele><time>2026-03-28T11:48:40Z</time></trkpt><trkpt lat="45.60540010584976" lon="10.823848537161687"><ele>308.0</ele><time>2026-03-28T11:48:41Z</time></trkpt><trkpt lat="45.60540716493499" lon="10.82406443305078"><ele>308.0</ele><time>2026-03-28T11:48:42Z</time></trkpt><trkpt lat="45.60540506345018" lon="10.824241505722648"><ele>308.0</ele><time>2026-03-28T11:48:43Z</time></trkpt><trkpt lat="45.60538770309401" lon="10.82438893300428"><ele>307.8</ele><time>2026-03-28T11:48:44Z</time></trkpt><trkpt lat="45.60535117629482" lon="10.824516293653643"><ele>307.6</ele><time>2026-03-28T11:48:45Z</time></trkpt><trkpt lat="45.605262636465326" lon="10.824593724983297"><ele>307.4</ele><time>2026-03-28T11:48:46Z</time></trkpt><trkpt lat="45.60517776523961" lon="10.824706802359971"><ele>307.2</ele><time>2026-03-28T11:48:47Z</time></trkpt><trkpt lat="45.60505978866464" lon="10.824792967681091"><ele>307.0</ele><time>2026-03-28T11:48:48Z</time></trkpt><trkpt lat="45.604944688588354" lon="10.824863852777879"><ele>306.6</ele><time>2026-03-28T11:48:49Z</time></trkpt><trkpt lat="45.60483046299311" lon="10.824870512739032"><ele>306.2</ele><time>2026-03-28T11:48:50Z</time></trkpt><trkpt lat="45.604737143243646" lon="10.824916631927554"><ele>305.8</ele><time>2026-03-28T11:48:51Z</time></trkpt><trkpt lat="45.60464585892745" lon="10.824971059583593"><ele>305.4</ele><time>2026-03-28T11:48:52Z</time></trkpt><trkpt lat="45.60456918464692" lon="10.825075758080155"><ele>305.0</ele><time>2026-03-28T11:48:53Z</time></trkpt><trkpt lat="45.604514662855244" lon="10.82524360432126"><ele>303.75</ele><time>2026-03-28T11:48:54Z</time></trkpt><trkpt lat="45.604476742521754" lon="10.825431891546843"><ele>302.5</ele><time>2026-03-28T11:48:55Z</time></trkpt><trkpt lat="45.60443438288309" lon="10.825622782340544"><ele>301.25</ele><time>2026-03-28T11:48:56Z</time></trkpt><trkpt lat="45.60436626300371" lon="10.825785076909305"><ele>300.0</ele><time>2026-03-28T11:48:57Z</time></trkpt><trkpt lat="45.604261929576495" lon="10.82590427959338"><ele>301.0</ele><time>2026-03-28T11:48:58Z</time></trkpt><trkpt lat="45.60414788679623" lon="10.825991636518363"><ele>302.0</ele><time>2026-03-28T11:48:59Z</time></trkpt><trkpt lat="45.604020023332424" lon="10.82609364475534"><ele>303.0</ele><time>2026-03-28T11:49:00Z</time></trkpt><trkpt lat="45.60388232238605" lon="10.826197767763405"><ele>304.0</ele><time>2026-03-28T11:49:01Z</time></trkpt><trkpt lat="45.60374570314727" lon="10.82628685835033"><ele>303.75</ele><time>2026-03-28T11:49:02Z</time></trkpt><trkpt lat="45.603602134921516" lon="10.826378451976147"><ele>303.5</ele><time>2026-03-28T11:49:03Z</time></trkpt><trkpt lat="45.603471011669654" lon="10.826473447993543"><ele>303.25</ele><time>2026-03-28T11:49:04Z</time></trkpt><trkpt lat="45.60334067895093" lon="10.826535035346794"><ele>303.0</ele><time>2026-03-28T11:49:05Z</time></trkpt><trkpt lat="45.603234780363856" lon="10.82658154265912"><ele>303.0</ele><time>2026-03-28T11:49:06Z</time></trkpt><trkpt lat="45.603142563081995" lon="10.826611127087972"><ele>303.0</ele><time>2026-03-28T11:49:07Z</time></trkpt><trkpt lat="45.60307913587865" lon="10.826618558934326"><ele>303.0</ele><time>2026-03-28T11:49:08Z</time></trkpt><trkpt lat="45.603003633156504" lon="10.826617741614829"><ele>303.0</ele><time>2026-03-28T11:49:10Z</time></trkpt><trkpt lat="45.60303945288068" lon="10.826840668872281"><ele>303.0</ele><time>2026-03-28T11:49:13Z</time></trkpt><trkpt lat="45.60310508551542" lon="10.826912547166184"><ele>305.6</ele><time>2026-03-28T11:49:14Z</time></trkpt><trkpt lat="45.60318577472041" lon="10.826980264512432"><ele>308.20000000000005</ele><time>2026-03-28T11:49:15Z</time></trkpt><trkpt lat="45.60328555712476" lon="10.827022495395974"><ele>310.8</ele><time>2026-03-28T11:49:16Z</time></trkpt><trkpt lat="45.60339402416568" lon="10.827074706719399"><ele>313.40000000000003</ele><time>2026-03-28T11:49:17Z</time></trkpt><trkpt lat="45.6035026987304" lon="10.827155101008243"><ele>316.0</ele><time>2026-03-28T11:49:18Z</time></trkpt><trkpt lat="45.60361957810526" lon="10.827197975720482"><ele>315.75</ele><time>2026-03-28T11:49:19Z</time></trkpt><trkpt lat="45.6037359063564" lon="10.827256683260481"><ele>315.5</ele><time>2026-03-28T11:49:20Z</time></trkpt><trkpt lat="45.60385684957142" lon="10.827280140121946"><ele>315.25</ele><time>2026-03-28T11:49:21Z</time></trkpt><trkpt lat="45.60397503036414" lon="10.827267782378692"><ele>315.0</ele><time>2026-03-28T11:49:22Z</time></trkpt><trkpt lat="45.60408237982961" lon="10.827224426860909"><ele>315.0</ele><time>2026-03-28T11:49:23Z</time></trkpt><trkpt lat="45.604152741478174" lon="10.827195799424013"><ele>315.0</ele><time>2026-03-28T11:49:24Z</time></trkpt><trkpt lat="45.60422813214109" lon="10.82719716195194"><ele>315.0</ele><time>2026-03-28T11:49:25Z</time></trkpt><trkpt lat="45.60429476661289" lon="10.82711434050231"><ele>315.0</ele><time>2026-03-28T11:49:26Z</time></trkpt><trkpt lat="45.60438249061278" lon="10.827024692556105"><ele>315.0</ele><time>2026-03-28T11:49:27Z</time></trkpt><trkpt lat="45.60447206782837" lon="10.826906035041638"><ele>314.25</ele><time>2026-03-28T11:49:28Z</time></trkpt><trkpt lat="45.60456004256377" lon="10.826768325771436"><ele>313.5</ele><time>2026-03-28T11:49:29Z</time></trkpt><trkpt lat="45.604638790911274" lon="10.826652150896424"><ele>312.75</ele><time>2026-03-28T11:49:30Z</time></trkpt><trkpt lat="45.60468765362269" lon="10.82656411987994"><ele>312.0</ele><time>2026-03-28T11:49:31Z</time></trkpt><trkpt lat="45.604810956228896" lon="10.826496730316535"><ele>312.0</ele><time>2026-03-28T11:49:33Z</time></trkpt><trkpt lat="45.60489233250677" lon="10.826488504852527"><ele>312.0</ele><time>2026-03-28T11:49:34Z</time></trkpt><trkpt lat="45.604978645281264" lon="10.8264857119682"><ele>312.0</ele><time>2026-03-28T11:49:35Z</time></trkpt><trkpt lat="45.605048585101216" lon="10.826455497762021"><ele>312.0</ele><time>2026-03-28T11:49:36Z</time></trkpt><trkpt lat="45.60511568228094" lon="10.826446824890036"><ele>312.0</ele><time>2026-03-28T11:49:37Z</time></trkpt><trkpt lat="45.60516899063134" lon="10.826327202452019"><ele>312.0</ele><time>2026-03-28T11:49:38Z</time></trkpt><trkpt lat="45.60523845598612" lon="10.826184992462501"><ele>312.0</ele><time>2026-03-28T11:49:39Z</time></trkpt><trkpt lat="45.60532360781099" lon="10.826097077682764"><ele>312.0</ele><time>2026-03-28T11:49:40Z</time></trkpt><trkpt lat="45.605398406337855" lon="10.82603815342008"><ele>312.0</ele><time>2026-03-28T11:49:41Z</time></trkpt><trkpt lat="45.605484851203094" lon="10.826036714534634"><ele>312.0</ele><time>2026-03-28T11:49:42Z</time></trkpt><trkpt lat="45.60557622631871" lon="10.826028896584132"><ele>312.0</ele><time>2026-03-28T11:49:43Z</time></trkpt><trkpt lat="45.60565391643332" lon="10.825999110754664"><ele>312.0</ele><time>2026-03-28T11:49:44Z</time></trkpt><trkpt lat="45.605715919933495" lon="10.826017108648843"><ele>314.25</ele><time>2026-03-28T11:49:45Z</time></trkpt><trkpt lat="45.60577089839947" lon="10.826099714258842"><ele>316.5</ele><time>2026-03-28T11:49:46Z</time></trkpt><trkpt lat="45.6058753422992" lon="10.826167920310162"><ele>318.75</ele><time>2026-03-28T11:49:47Z</time></trkpt><trkpt lat="45.60598771362537" lon="10.826252574619385"><ele>321.0</ele><time>2026-03-28T11:49:48Z</time></trkpt><trkpt lat="45.606124182939155" lon="10.826314889422086"><ele>322.3333333333333</ele><time>2026-03-28T11:49:49Z</time></trkpt><trkpt lat="45.60627538304934" lon="10.826378963233942"><ele>323.66666666666663</ele><time>2026-03-28T11:49:50Z</time></trkpt><trkpt lat="45.60642629956549" lon="10.826453749684646"><ele>325.0</ele><time>2026-03-28T11:49:51Z</time></trkpt><trkpt lat="45.60658979708022" lon="10.8265465528636"><ele>325.0</ele><time>2026-03-28T11:49:52Z</time></trkpt><trkpt lat="45.606749434749084" lon="10.826660695639653"><ele>325.0</ele><time>2026-03-28T11:49:53Z</time></trkpt><trkpt lat="45.60691844171463" lon="10.826758638298887"><ele>325.0</ele><time>2026-03-28T11:49:54Z</time></trkpt><trkpt lat="45.60708618558806" lon="10.826839159999189"><ele>328.0</ele><time>2026-03-28T11:49:55Z</time></trkpt><trkpt lat="45.6072277671806" lon="10.826919211859728"><ele>331.0</ele><time>2026-03-28T11:49:56Z</time></trkpt><trkpt lat="45.60735327335499" lon="10.82698164772018"><ele>334.0</ele><time>2026-03-28T11:49:57Z</time></trkpt><trkpt lat="45.60747374559451" lon="10.827011509973138"><ele>337.0</ele><time>2026-03-28T11:49:58Z</time></trkpt><trkpt lat="45.60758465030385" lon="10.827037502796507"><ele>337.0</ele><time>2026-03-28T11:49:59Z</time></trkpt><trkpt lat="45.607685850977745" lon="10.8270399273407"><ele>337.0</ele><time>2026-03-28T11:50:00Z</time></trkpt><trkpt lat="45.60778788204077" lon="10.827047566731379"><ele>337.0</ele><time>2026-03-28T11:50:01Z</time></trkpt><trkpt lat="45.60789119360122" lon="10.827096928252518"><ele>337.0</ele><time>2026-03-28T11:50:02Z</time></trkpt><trkpt lat="45.60799411762756" lon="10.827113075476607"><ele>337.0</ele><time>2026-03-28T11:50:03Z</time></trkpt><trkpt lat="45.60809435302711" lon="10.827147821754231"><ele>336.66666666666663</ele><time>2026-03-28T11:50:04Z</time></trkpt><trkpt lat="45.60816389563177" lon="10.827179030552141"><ele>336.3333333333333</ele><time>2026-03-28T11:50:05Z</time></trkpt><trkpt lat="45.608253319235025" lon="10.827190096426822"><ele>336.0</ele><time>2026-03-28T11:50:07Z</time></trkpt><trkpt lat="45.6083135727208" lon="10.82715638270246"><ele>335.6666666666667</ele><time>2026-03-28T11:50:08Z</time></trkpt><trkpt lat="45.60838032007034" lon="10.827078443499293"><ele>335.33333333333337</ele><time>2026-03-28T11:50:09Z</time></trkpt><trkpt lat="45.60843959009226" lon="10.826956459217106"><ele>335.0</ele><time>2026-03-28T11:50:10Z</time></trkpt><trkpt lat="45.60849340975196" lon="10.8267902400716"><ele>333.5</ele><time>2026-03-28T11:50:11Z</time></trkpt><trkpt lat="45.60853454161452" lon="10.826629252936453"><ele>332.0</ele><time>2026-03-28T11:50:12Z</time></trkpt><trkpt lat="45.608548218371716" lon="10.826455127534624"><ele>330.5</ele><time>2026-03-28T11:50:13Z</time></trkpt><trkpt lat="45.60853346103745" lon="10.826255251853325"><ele>329.0</ele><time>2026-03-28T11:50:14Z</time></trkpt><trkpt lat="45.608528566504035" lon="10.826036841186054"><ele>329.0</ele><time>2026-03-28T11:50:15Z</time></trkpt><trkpt lat="45.608526093499464" lon="10.825859943500655"><ele>329.0</ele><time>2026-03-28T11:50:16Z</time></trkpt><trkpt lat="45.60852989368643" lon="10.825706931712636"><ele>329.0</ele><time>2026-03-28T11:50:17Z</time></trkpt><trkpt lat="45.6085470800087" lon="10.825539093365506"><ele>329.0</ele><time>2026-03-28T11:50:18Z</time></trkpt><trkpt lat="45.60856726072656" lon="10.825355060803345"><ele>329.0</ele><time>2026-03-28T11:50:19Z</time></trkpt><trkpt lat="45.608588736684354" lon="10.825159219106279"><ele>329.0</ele><time>2026-03-28T11:50:20Z</time></trkpt><trkpt lat="45.60861180726712" lon="10.824971805785317"><ele>329.0</ele><time>2026-03-28T11:50:21Z</time></trkpt><trkpt lat="45.60860985246875" lon="10.82479815994442"><ele>329.0</ele><time>2026-03-28T11:50:22Z</time></trkpt><trkpt lat="45.608615156908655" lon="10.824641668462972"><ele>328.5</ele><time>2026-03-28T11:50:23Z</time></trkpt><trkpt lat="45.608589558254465" lon="10.824498016236982"><ele>328.0</ele><time>2026-03-28T11:50:24Z</time></trkpt><trkpt lat="45.60854099898664" lon="10.824355179297186"><ele>327.5</ele><time>2026-03-28T11:50:25Z</time></trkpt><trkpt lat="45.608472121750474" lon="10.82421004924475"><ele>327.0</ele><time>2026-03-28T11:50:26Z</time></trkpt><trkpt lat="45.60838921021943" lon="10.824057196095843"><ele>326.3333333333333</ele><time>2026-03-28T11:50:27Z</time></trkpt><trkpt lat="45.60829582648881" lon="10.823884374920317"><ele>325.66666666666663</ele><time>2026-03-28T11:50:28Z</time></trkpt><trkpt lat="45.608204667754244" lon="10.82370356008851"><ele>325.0</ele><time>2026-03-28T11:50:29Z</time></trkpt><trkpt lat="45.6081085147093" lon="10.823513381498515"><ele>324.66666666666663</ele><time>2026-03-28T11:50:30Z</time></trkpt><trkpt lat="45.60801357231024" lon="10.823328077761284"><ele>324.3333333333333</ele><time>2026-03-28T11:50:31Z</time></trkpt><trkpt lat="45.60791628297518" lon="10.8231277318814"><ele>324.0</ele><time>2026-03-28T11:50:32Z</time></trkpt><trkpt lat="45.60782141104648" lon="10.822908921711768"><ele>324.0</ele><time>2026-03-28T11:50:33Z</time></trkpt><trkpt lat="45.60771702793316" lon="10.822663129061253"><ele>324.0</ele><time>2026-03-28T11:50:34Z</time></trkpt><trkpt lat="45.60761726589637" lon="10.822420211520038"><ele>324.0</ele><time>2026-03-28T11:50:35Z</time></trkpt><trkpt lat="45.60752273351295" lon="10.822168894891657"><ele>322.0</ele><time>2026-03-28T11:50:36Z</time></trkpt><trkpt lat="45.60744350269" lon="10.821915181728697"><ele>320.0</ele><time>2026-03-28T11:50:37Z</time></trkpt><trkpt lat="45.60738510821254" lon="10.821669241093637"><ele>318.0</ele><time>2026-03-28T11:50:38Z</time></trkpt><trkpt lat="45.60733681208714" lon="10.821439656663813"><ele>315.0</ele><time>2026-03-28T11:50:39Z</time></trkpt><trkpt lat="45.6072856643452" lon="10.821228318945353"><ele>312.0</ele><time>2026-03-28T11:50:40Z</time></trkpt><trkpt lat="45.60722227839384" lon="10.821011031077926"><ele>309.0</ele><time>2026-03-28T11:50:41Z</time></trkpt><trkpt lat="45.607165860072506" lon="10.820820204536233"><ele>307.75</ele><time>2026-03-28T11:50:42Z</time></trkpt><trkpt lat="45.60712056667164" lon="10.82063621106235"><ele>306.5</ele><time>2026-03-28T11:50:43Z</time></trkpt><trkpt lat="45.60708575551805" lon="10.820451917113092"><ele>305.25</ele><time>2026-03-28T11:50:44Z</time></trkpt><trkpt lat="45.607069292972824" lon="10.820271507520161"><ele>304.0</ele><time>2026-03-28T11:50:45Z</time></trkpt><trkpt lat="45.607104287546534" lon="10.820107651239047"><ele>302.75</ele><time>2026-03-28T11:50:46Z</time></trkpt><trkpt lat="45.60715573336244" lon="10.819935533596587"><ele>301.5</ele><time>2026-03-28T11:50:47Z</time></trkpt><trkpt lat="45.6072234714119" lon="10.819732989681562"><ele>300.25</ele><time>2026-03-28T11:50:48Z</time></trkpt><trkpt lat="45.60728137932247" lon="10.819540838178813"><ele>299.0</ele><time>2026-03-28T11:50:49Z</time></trkpt><trkpt lat="45.607348406344904" lon="10.819412146599948"><ele>298.0</ele><time>2026-03-28T11:50:50Z</time></trkpt><trkpt lat="45.60737255531295" lon="10.819280343487677"><ele>297.0</ele><time>2026-03-28T11:50:51Z</time></trkpt><trkpt lat="45.60740693471241" lon="10.819143156462273"><ele>296.0</ele><time>2026-03-28T11:50:52Z</time></trkpt><trkpt lat="45.607456553506886" lon="10.818980099427751"><ele>295.0</ele><time>2026-03-28T11:50:53Z</time></trkpt><trkpt lat="45.607517209696425" lon="10.81879723083916"><ele>295.0</ele><time>2026-03-28T11:50:54Z</time></trkpt><trkpt lat="45.60757448303113" lon="10.818574991643532"><ele>295.0</ele><time>2026-03-28T11:50:55Z</time></trkpt><trkpt lat="45.607630577700455" lon="10.818329858907449"><ele>295.0</ele><time>2026-03-28T11:50:56Z</time></trkpt><trkpt lat="45.60768401485928" lon="10.818064441786762"><ele>294.0</ele><time>2026-03-28T11:50:57Z</time></trkpt><trkpt lat="45.60772885656952" lon="10.817801704595759"><ele>293.0</ele><time>2026-03-28T11:50:58Z</time></trkpt><trkpt lat="45.60777558208035" lon="10.817564624732228"><ele>292.0</ele><time>2026-03-28T11:50:59Z</time></trkpt><trkpt lat="45.60782445330768" lon="10.81734593888706"><ele>290.6</ele><time>2026-03-28T11:51:00Z</time></trkpt><trkpt lat="45.607871327308025" lon="10.817167317099111"><ele>289.2</ele><time>2026-03-28T11:51:01Z</time></trkpt><trkpt lat="45.6079159369135" lon="10.81701717406864"><ele>287.8</ele><time>2026-03-28T11:51:02Z</time></trkpt><trkpt lat="45.60796075240598" lon="10.81689291061285"><ele>286.4</ele><time>2026-03-28T11:51:03Z</time></trkpt><trkpt lat="45.60801235835835" lon="10.816785686299347"><ele>285.0</ele><time>2026-03-28T11:51:04Z</time></trkpt><trkpt lat="45.60806701729792" lon="10.816692510889641"><ele>284.4</ele><time>2026-03-28T11:51:05Z</time></trkpt><trkpt lat="45.60811168331113" lon="10.81660966894369"><ele>283.8</ele><time>2026-03-28T11:51:06Z</time></trkpt><trkpt lat="45.60820437979228" lon="10.816456808395278"><ele>283.2</ele><time>2026-03-28T11:51:08Z</time></trkpt><trkpt lat="45.608248570570964" lon="10.8163445745797"><ele>282.6</ele><time>2026-03-28T11:51:09Z</time></trkpt><trkpt lat="45.6082922386159" lon="10.816230211562747"><ele>282.0</ele><time>2026-03-28T11:51:10Z</time></trkpt><trkpt lat="45.608332219377175" lon="10.816129926443441"><ele>282.0</ele><time>2026-03-28T11:51:11Z</time></trkpt><trkpt lat="45.608366920120595" lon="10.816020804251625"><ele>282.0</ele><time>2026-03-28T11:51:12Z</time></trkpt><trkpt lat="45.608403163331" lon="10.815923925715003"><ele>282.0</ele><time>2026-03-28T11:51:13Z</time></trkpt><trkpt lat="45.60845221705767" lon="10.815823065647198"><ele>282.0</ele><time>2026-03-28T11:51:15Z</time></trkpt><trkpt lat="45.60848142757965" lon="10.815708707526198"><ele>282.0</ele><time>2026-03-28T11:51:18Z</time></trkpt><trkpt lat="45.60856341952357" lon="10.815602904037025"><ele>282.0</ele><time>2026-03-28T11:51:20Z</time></trkpt><trkpt lat="45.60866696350357" lon="10.815481711636657"><ele>282.0</ele><time>2026-03-28T11:51:22Z</time></trkpt><trkpt lat="45.60873853391824" lon="10.815380151459012"><ele>282.0</ele><time>2026-03-28T11:51:23Z</time></trkpt><trkpt lat="45.608800206426366" lon="10.815254986712024"><ele>282.0</ele><time>2026-03-28T11:51:24Z</time></trkpt><trkpt lat="45.608822874537026" lon="10.815103075008208"><ele>282.0</ele><time>2026-03-28T11:51:25Z</time></trkpt><trkpt lat="45.608851930124544" lon="10.814929734540298"><ele>282.0</ele><time>2026-03-28T11:51:26Z</time></trkpt><trkpt lat="45.60886656186568" lon="10.814743505701836"><ele>282.0</ele><time>2026-03-28T11:51:27Z</time></trkpt><trkpt lat="45.60887668296755" lon="10.81452718559888"><ele>282.0</ele><time>2026-03-28T11:51:28Z</time></trkpt><trkpt lat="45.60889850575724" lon="10.814305268468809"><ele>282.0</ele><time>2026-03-28T11:51:29Z</time></trkpt><trkpt lat="45.60892804302063" lon="10.814074287262828"><ele>281.6666666666667</ele><time>2026-03-28T11:51:30Z</time></trkpt><trkpt lat="45.60896870479447" lon="10.813833002548234"><ele>281.33333333333337</ele><time>2026-03-28T11:51:31Z</time></trkpt><trkpt lat="45.609015423025355" lon="10.813578831097876"><ele>281.0</ele><time>2026-03-28T11:51:32Z</time></trkpt><trkpt lat="45.6090647893649" lon="10.813330075109821"><ele>280.75</ele><time>2026-03-28T11:51:33Z</time></trkpt><trkpt lat="45.60911021631018" lon="10.813102376171427"><ele>280.5</ele><time>2026-03-28T11:51:34Z</time></trkpt><trkpt lat="45.609148077713684" lon="10.812908126115147"><ele>280.25</ele><time>2026-03-28T11:51:35Z</time></trkpt><trkpt lat="45.60917384774354" lon="10.812714924469132"><ele>280.0</ele><time>2026-03-28T11:51:36Z</time></trkpt><trkpt lat="45.60918433410936" lon="10.81254287080642"><ele>281.0</ele><time>2026-03-28T11:51:37Z</time></trkpt><trkpt lat="45.60919188251745" lon="10.812371870455296"><ele>282.0</ele><time>2026-03-28T11:51:38Z</time></trkpt><trkpt lat="45.60919659299285" lon="10.812223377847296"><ele>283.0</ele><time>2026-03-28T11:51:39Z</time></trkpt><trkpt lat="45.609205492003966" lon="10.812077672130664"><ele>284.0</ele><time>2026-03-28T11:51:40Z</time></trkpt><trkpt lat="45.609248972990635" lon="10.811961824747877"><ele>285.0</ele><time>2026-03-28T11:51:41Z</time></trkpt><trkpt lat="45.609276715657806" lon="10.811848664063076"><ele>284.8333333333333</ele><time>2026-03-28T11:51:42Z</time></trkpt><trkpt lat="45.60933528127869" lon="10.811766709509783"><ele>284.6666666666667</ele><time>2026-03-28T11:51:43Z</time></trkpt><trkpt lat="45.609407452459635" lon="10.811699324089348"><ele>284.5</ele><time>2026-03-28T11:51:44Z</time></trkpt><trkpt lat="45.60949131608386" lon="10.811641133487537"><ele>284.33333333333337</ele><time>2026-03-28T11:51:45Z</time></trkpt><trkpt lat="45.60957253554426" lon="10.811586230251924"><ele>284.1666666666667</ele><time>2026-03-28T11:51:46Z</time></trkpt><trkpt lat="45.60965174626698" lon="10.811525551355794"><ele>284.0</ele><time>2026-03-28T11:51:47Z</time></trkpt><trkpt lat="45.60972635493151" lon="10.811457261047867"><ele>284.8</ele><time>2026-03-28T11:51:48Z</time></trkpt><trkpt lat="45.609787901034636" lon="10.811379346364253"><ele>285.59999999999997</ele><time>2026-03-28T11:51:49Z</time></trkpt><trkpt lat="45.6098394721642" lon="10.811280238215435"><ele>286.4</ele><time>2026-03-28T11:51:50Z</time></trkpt><trkpt lat="45.609887655270505" lon="10.811205135156907"><ele>287.2</ele><time>2026-03-28T11:51:51Z</time></trkpt><trkpt lat="45.6099367694432" lon="10.811123592842886"><ele>288.0</ele><time>2026-03-28T11:51:53Z</time></trkpt><trkpt lat="45.61011568883173" lon="10.811222400511207"><ele>288.0</ele><time>2026-03-28T11:51:56Z</time></trkpt><trkpt lat="45.61022773621473" lon="10.811255233492759"><ele>288.0</ele><time>2026-03-28T11:51:57Z</time></trkpt><trkpt lat="45.610333242024026" lon="10.811301419742344"><ele>288.0</ele><time>2026-03-28T11:51:58Z</time></trkpt><trkpt lat="45.61045690572635" lon="10.811338590514255"><ele>288.0</ele><time>2026-03-28T11:51:59Z</time></trkpt><trkpt lat="45.61057919781115" lon="10.811357476605789"><ele>288.8</ele><time>2026-03-28T11:52:00Z</time></trkpt><trkpt lat="45.61069773477336" lon="10.811374348516086"><ele>289.6</ele><time>2026-03-28T11:52:01Z</time></trkpt><trkpt lat="45.61080814906677" lon="10.811394636715546"><ele>290.4</ele><time>2026-03-28T11:52:02Z</time></trkpt><trkpt lat="45.61091127390033" lon="10.811415168111022"><ele>291.2</ele><time>2026-03-28T11:52:03Z</time></trkpt><trkpt lat="45.611010721253535" lon="10.811437156172222"><ele>292.0</ele><time>2026-03-28T11:52:04Z</time></trkpt><trkpt lat="45.61111185784004" lon="10.81144871470878"><ele>294.6</ele><time>2026-03-28T11:52:05Z</time></trkpt><trkpt lat="45.611203988741494" lon="10.811473907726114"><ele>297.2</ele><time>2026-03-28T11:52:06Z</time></trkpt><trkpt lat="45.61127884346864" lon="10.81149815308533"><ele>299.8</ele><time>2026-03-28T11:52:07Z</time></trkpt><trkpt lat="45.611337346196805" lon="10.811540921659992"><ele>302.4</ele><time>2026-03-28T11:52:08Z</time></trkpt><trkpt lat="45.6114378846452" lon="10.811320293236653"><ele>305.0</ele><time>2026-03-28T11:52:11Z</time></trkpt><trkpt lat="45.611364730734586" lon="10.81120303051533"><ele>305.0</ele><time>2026-03-28T11:52:12Z</time></trkpt><trkpt lat="45.611311004693675" lon="10.811091681034483"><ele>305.0</ele><time>2026-03-28T11:52:13Z</time></trkpt><trkpt lat="45.61129609558229" lon="10.810939094039968"><ele>305.0</ele><time>2026-03-28T11:52:14Z</time></trkpt><trkpt lat="45.61126990008905" lon="10.810768079249634"><ele>305.0</ele><time>2026-03-28T11:52:15Z</time></trkpt><trkpt lat="45.61123079589196" lon="10.81060041905814"><ele>305.0</ele><time>2026-03-28T11:52:16Z</time></trkpt><trkpt lat="45.611216615568146" lon="10.810424089974143"><ele>308.0</ele><time>2026-03-28T11:52:17Z</time></trkpt><trkpt lat="45.61122264082132" lon="10.810266660377524"><ele>311.0</ele><time>2026-03-28T11:52:18Z</time></trkpt><trkpt lat="45.6112391808095" lon="10.810107910896235"><ele>314.0</ele><time>2026-03-28T11:52:19Z</time></trkpt><trkpt lat="45.61125685399093" lon="10.809931856475023"><ele>317.0</ele><time>2026-03-28T11:52:20Z</time></trkpt><trkpt lat="45.61127460911637" lon="10.809744692434197"><ele>319.0</ele><time>2026-03-28T11:52:21Z</time></trkpt><trkpt lat="45.611298878477236" lon="10.809566053008911"><ele>321.0</ele><time>2026-03-28T11:52:22Z</time></trkpt><trkpt lat="45.611348053885465" lon="10.809415034297816"><ele>323.0</ele><time>2026-03-28T11:52:23Z</time></trkpt><trkpt lat="45.61139145428901" lon="10.809259843557191"><ele>325.0</ele><time>2026-03-28T11:52:24Z</time></trkpt><trkpt lat="45.61144310273495" lon="10.809080843110307"><ele>325.0</ele><time>2026-03-28T11:52:25Z</time></trkpt><trkpt lat="45.61149603396965" lon="10.80889877050468"><ele>325.0</ele><time>2026-03-28T11:52:26Z</time></trkpt><trkpt lat="45.61152317093044" lon="10.808717779992122"><ele>325.0</ele><time>2026-03-28T11:52:27Z</time></trkpt><trkpt lat="45.61155763108401" lon="10.80855741416894"><ele>325.0</ele><time>2026-03-28T11:52:28Z</time></trkpt><trkpt lat="45.611585764150085" lon="10.808407705968344"><ele>323.6</ele><time>2026-03-28T11:52:29Z</time></trkpt><trkpt lat="45.61160111557883" lon="10.808248802936806"><ele>322.2</ele><time>2026-03-28T11:52:30Z</time></trkpt><trkpt lat="45.61162147933831" lon="10.808114798236927"><ele>320.8</ele><time>2026-03-28T11:52:31Z</time></trkpt><trkpt lat="45.611646648373224" lon="10.808011498835961"><ele>319.4</ele><time>2026-03-28T11:52:32Z</time></trkpt><trkpt lat="45.611775696028936" lon="10.807936325448841"><ele>318.0</ele><time>2026-03-28T11:52:34Z</time></trkpt><trkpt lat="45.61185332019328" lon="10.807875504109242"><ele>318.0</ele><time>2026-03-28T11:52:36Z</time></trkpt><trkpt lat="45.61186820413602" lon="10.807773909276506"><ele>318.0</ele><time>2026-03-28T11:52:37Z</time></trkpt><trkpt lat="45.6119175750582" lon="10.80763427440664"><ele>318.0</ele><time>2026-03-28T11:52:39Z</time></trkpt><trkpt lat="45.612051593814165" lon="10.807623835593917"><ele>318.0</ele><time>2026-03-28T11:52:41Z</time></trkpt><trkpt lat="45.61214696305573" lon="10.807602691523634"><ele>318.0</ele><time>2026-03-28T11:52:42Z</time></trkpt><trkpt lat="45.612263162137154" lon="10.807575860790783"><ele>318.2</ele><time>2026-03-28T11:52:43Z</time></trkpt><trkpt lat="45.61237683722458" lon="10.807557654596238"><ele>318.4</ele><time>2026-03-28T11:52:44Z</time></trkpt><trkpt lat="45.61247999806578" lon="10.80754758094585"><ele>318.59999999999997</ele><time>2026-03-28T11:52:45Z</time></trkpt><trkpt lat="45.612579872436086" lon="10.807537828229663"><ele>318.8</ele><time>2026-03-28T11:52:46Z</time></trkpt><trkpt lat="45.6126838464839" lon="10.807530440526426"><ele>319.0</ele><time>2026-03-28T11:52:47Z</time></trkpt><trkpt lat="45.612792138253134" lon="10.807525508015907"><ele>321.0</ele><time>2026-03-28T11:52:48Z</time></trkpt><trkpt lat="45.61289824504767" lon="10.807493209775247"><ele>323.0</ele><time>2026-03-28T11:52:49Z</time></trkpt><trkpt lat="45.613013228311445" lon="10.807471010646413"><ele>325.0</ele><time>2026-03-28T11:52:50Z</time></trkpt><trkpt lat="45.613128710481334" lon="10.807445910964216"><ele>327.0</ele><time>2026-03-28T11:52:51Z</time></trkpt><trkpt lat="45.61324757503138" lon="10.807425152381043"><ele>327.0</ele><time>2026-03-28T11:52:52Z</time></trkpt><trkpt lat="45.61336297216077" lon="10.80741816459202"><ele>327.0</ele><time>2026-03-28T11:52:53Z</time></trkpt><trkpt lat="45.613476941977716" lon="10.807429426254698"><ele>327.0</ele><time>2026-03-28T11:52:54Z</time></trkpt><trkpt lat="45.613586913044024" lon="10.807459439166074"><ele>327.0</ele><time>2026-03-28T11:52:55Z</time></trkpt><trkpt lat="45.613691125198145" lon="10.807509617645184"><ele>327.5</ele><time>2026-03-28T11:52:56Z</time></trkpt><trkpt lat="45.6137734631958" lon="10.80757698881877"><ele>328.0</ele><time>2026-03-28T11:52:57Z</time></trkpt><trkpt lat="45.61384632723443" lon="10.807630290193392"><ele>328.5</ele><time>2026-03-28T11:52:58Z</time></trkpt><trkpt lat="45.61391595777404" lon="10.807667002308973"><ele>329.0</ele><time>2026-03-28T11:52:59Z</time></trkpt><trkpt lat="45.61398399287799" lon="10.80768757064905"><ele>329.5</ele><time>2026-03-28T11:53:00Z</time></trkpt><trkpt lat="45.614050007213315" lon="10.807710283211765"><ele>330.0</ele><time>2026-03-28T11:53:01Z</time></trkpt><trkpt lat="45.61411728843878" lon="10.807612840933112"><ele>330.0</ele><time>2026-03-28T11:53:02Z</time></trkpt><trkpt lat="45.614184412861405" lon="10.807513670319242"><ele>330.0</ele><time>2026-03-28T11:53:03Z</time></trkpt><trkpt lat="45.614254749217245" lon="10.807405091946292"><ele>330.0</ele><time>2026-03-28T11:53:04Z</time></trkpt><trkpt lat="45.614333540270806" lon="10.807319161421043"><ele>330.0</ele><time>2026-03-28T11:53:05Z</time></trkpt><trkpt lat="45.614412297223645" lon="10.807280467790694"><ele>330.0</ele><time>2026-03-28T11:53:06Z</time></trkpt><trkpt lat="45.61449989081973" lon="10.807294808977408"><ele>333.0</ele><time>2026-03-28T11:53:07Z</time></trkpt><trkpt lat="45.614595450725105" lon="10.807343770679282"><ele>336.0</ele><time>2026-03-28T11:53:08Z</time></trkpt><trkpt lat="45.61470097151093" lon="10.80740306081734"><ele>339.0</ele><time>2026-03-28T11:53:09Z</time></trkpt><trkpt lat="45.61482970365294" lon="10.807448367063262"><ele>342.0</ele><time>2026-03-28T11:53:10Z</time></trkpt><trkpt lat="45.61496689452457" lon="10.807504102715924"><ele>342.0</ele><time>2026-03-28T11:53:11Z</time></trkpt><trkpt lat="45.615107760193" lon="10.807590560158747"><ele>342.0</ele><time>2026-03-28T11:53:12Z</time></trkpt><trkpt lat="45.615241323317846" lon="10.807693840947595"><ele>342.0</ele><time>2026-03-28T11:53:13Z</time></trkpt><trkpt lat="45.61536053345485" lon="10.807820585849305"><ele>344.5</ele><time>2026-03-28T11:53:14Z</time></trkpt><trkpt lat="45.615481732658246" lon="10.80792099688475"><ele>347.0</ele><time>2026-03-28T11:53:15Z</time></trkpt><trkpt lat="45.61561184629182" lon="10.807968542990396"><ele>349.5</ele><time>2026-03-28T11:53:16Z</time></trkpt><trkpt lat="45.61575515530432" lon="10.808009463895893"><ele>352.0</ele><time>2026-03-28T11:53:17Z</time></trkpt><trkpt lat="45.615908701682386" lon="10.808030539501173"><ele>352.0</ele><time>2026-03-28T11:53:18Z</time></trkpt><trkpt lat="45.61605735233862" lon="10.808048454399323"><ele>352.0</ele><time>2026-03-28T11:53:19Z</time></trkpt><trkpt lat="45.61619322626932" lon="10.808112769604486"><ele>352.0</ele><time>2026-03-28T11:53:20Z</time></trkpt><trkpt lat="45.616323074170154" lon="10.808218485922565"><ele>352.0</ele><time>2026-03-28T11:53:21Z</time></trkpt><trkpt lat="45.61646309030054" lon="10.808347760199775"><ele>355.66666666666663</ele><time>2026-03-28T11:53:22Z</time></trkpt><trkpt lat="45.61660935719031" lon="10.808490361519857"><ele>359.3333333333333</ele><time>2026-03-28T11:53:23Z</time></trkpt><trkpt lat="45.61674665685828" lon="10.808638222209746"><ele>363.0</ele><time>2026-03-28T11:53:24Z</time></trkpt><trkpt lat="45.61686085403518" lon="10.808770764383226"><ele>364.75</ele><time>2026-03-28T11:53:25Z</time></trkpt><trkpt lat="45.61695935858567" lon="10.808899281235238"><ele>366.5</ele><time>2026-03-28T11:53:26Z</time></trkpt><trkpt lat="45.617044310116434" lon="10.80899326245601"><ele>368.25</ele><time>2026-03-28T11:53:27Z</time></trkpt><trkpt lat="45.617128570166805" lon="10.80905843838405"><ele>370.0</ele><time>2026-03-28T11:53:28Z</time></trkpt><trkpt lat="45.617236351662356" lon="10.809113028302464"><ele>370.75</ele><time>2026-03-28T11:53:29Z</time></trkpt><trkpt lat="45.61735810401825" lon="10.809166918828254"><ele>371.5</ele><time>2026-03-28T11:53:30Z</time></trkpt><trkpt lat="45.617481848784635" lon="10.809242018798603"><ele>372.25</ele><time>2026-03-28T11:53:31Z</time></trkpt><trkpt lat="45.617598944067986" lon="10.809347599301418"><ele>373.0</ele><time>2026-03-28T11:53:32Z</time></trkpt><trkpt lat="45.6177135143178" lon="10.809474232742119"><ele>376.5</ele><time>2026-03-28T11:53:33Z</time></trkpt><trkpt lat="45.617833494678386" lon="10.80958561604698"><ele>380.0</ele><time>2026-03-28T11:53:34Z</time></trkpt><trkpt lat="45.61795329610086" lon="10.809675027358749"><ele>383.5</ele><time>2026-03-28T11:53:35Z</time></trkpt><trkpt lat="45.618063404024966" lon="10.809778835345057"><ele>387.0</ele><time>2026-03-28T11:53:36Z</time></trkpt><trkpt lat="45.61815145949945" lon="10.80990143318379"><ele>387.0</ele><time>2026-03-28T11:53:37Z</time></trkpt><trkpt lat="45.61822266432728" lon="10.810041822468856"><ele>387.0</ele><time>2026-03-28T11:53:38Z</time></trkpt><trkpt lat="45.61828340476975" lon="10.81019691657485"><ele>387.0</ele><time>2026-03-28T11:53:39Z</time></trkpt><trkpt lat="45.61834120012493" lon="10.810341945992757"><ele>387.0</ele><time>2026-03-28T11:53:40Z</time></trkpt><trkpt lat="45.618420647019995" lon="10.810455329227311"><ele>385.75</ele><time>2026-03-28T11:53:41Z</time></trkpt><trkpt lat="45.61853484760119" lon="10.810550795516146"><ele>384.5</ele><time>2026-03-28T11:53:42Z</time></trkpt><trkpt lat="45.61867302395387" lon="10.810643586730007"><ele>383.25</ele><time>2026-03-28T11:53:43Z</time></trkpt><trkpt lat="45.618814016944114" lon="10.810753997749929"><ele>382.0</ele><time>2026-03-28T11:53:44Z</time></trkpt><trkpt lat="45.618950827750986" lon="10.810881264365745"><ele>386.3333333333333</ele><time>2026-03-28T11:53:45Z</time></trkpt><trkpt lat="45.61908148931878" lon="10.81103131572218"><ele>390.66666666666663</ele><time>2026-03-28T11:53:46Z</time></trkpt><trkpt lat="45.61919516257625" lon="10.811182415273782"><ele>395.0</ele><time>2026-03-28T11:53:47Z</time></trkpt><trkpt lat="45.619303173841836" lon="10.81131648310805"><ele>395.0</ele><time>2026-03-28T11:53:48Z</time></trkpt><trkpt lat="45.61939866253575" lon="10.811448352962024"><ele>395.0</ele><time>2026-03-28T11:53:49Z</time></trkpt><trkpt lat="45.619462196737324" lon="10.8116136234919"><ele>395.0</ele><time>2026-03-28T11:53:50Z</time></trkpt><trkpt lat="45.619540047429396" lon="10.81175390973076"><ele>395.0</ele><time>2026-03-28T11:53:51Z</time></trkpt><trkpt lat="45.61958401454831" lon="10.811905610501732"><ele>399.25</ele><time>2026-03-28T11:53:52Z</time></trkpt><trkpt lat="45.61965859673061" lon="10.812031875265225"><ele>403.5</ele><time>2026-03-28T11:53:53Z</time></trkpt><trkpt lat="45.6197278088026" lon="10.812168758340569"><ele>407.75</ele><time>2026-03-28T11:53:54Z</time></trkpt><trkpt lat="45.6198276154475" lon="10.81232375529701"><ele>412.0</ele><time>2026-03-28T11:53:55Z</time></trkpt><trkpt lat="45.61994269553277" lon="10.812482936195119"><ele>412.0</ele><time>2026-03-28T11:53:56Z</time></trkpt><trkpt lat="45.62006084211963" lon="10.812652248152128"><ele>412.0</ele><time>2026-03-28T11:53:57Z</time></trkpt><trkpt lat="45.620165440042314" lon="10.812842054311782"><ele>412.0</ele><time>2026-03-28T11:53:58Z</time></trkpt><trkpt lat="45.620256575150144" lon="10.813036460264968"><ele>415.25</ele><time>2026-03-28T11:53:59Z</time></trkpt><trkpt lat="45.6203302346436" lon="10.813208294079415"><ele>418.5</ele><time>2026-03-28T11:54:00Z</time></trkpt><trkpt lat="45.62039622783011" lon="10.813360647081906"><ele>421.75</ele><time>2026-03-28T11:54:01Z</time></trkpt><trkpt lat="45.620466903652" lon="10.813484910924808"><ele>425.0</ele><time>2026-03-28T11:54:02Z</time></trkpt><trkpt lat="45.62055003043079" lon="10.813589983082828"><ele>425.75</ele><time>2026-03-28T11:54:03Z</time></trkpt><trkpt lat="45.62065680700182" lon="10.813676107031508"><ele>426.5</ele><time>2026-03-28T11:54:04Z</time></trkpt><trkpt lat="45.620776814815756" lon="10.813744845827959"><ele>427.25</ele><time>2026-03-28T11:54:05Z</time></trkpt><trkpt lat="45.62090736624081" lon="10.813788601619203"><ele>428.0</ele><time>2026-03-28T11:54:06Z</time></trkpt><trkpt lat="45.62105163357764" lon="10.813819034695303"><ele>429.59999999999997</ele><time>2026-03-28T11:54:07Z</time></trkpt><trkpt lat="45.6211712826697" lon="10.81388413845725"><ele>431.19999999999993</ele><time>2026-03-28T11:54:08Z</time></trkpt><trkpt lat="45.6212768496229" lon="10.813924419157955"><ele>432.8</ele><time>2026-03-28T11:54:09Z</time></trkpt><trkpt lat="45.621364864514504" lon="10.813981491113454"><ele>434.4</ele><time>2026-03-28T11:54:10Z</time></trkpt><trkpt lat="45.6214279330244" lon="10.814058727481848"><ele>436.0</ele><time>2026-03-28T11:54:11Z</time></trkpt><trkpt lat="45.62145468216649" lon="10.814164004598528"><ele>436.0</ele><time>2026-03-28T11:54:12Z</time></trkpt><trkpt lat="45.62141044794169" lon="10.814285819072104"><ele>436.0</ele><time>2026-03-28T11:54:13Z</time></trkpt><trkpt lat="45.62139786486272" lon="10.814443048498225"><ele>436.0</ele><time>2026-03-28T11:54:14Z</time></trkpt><trkpt lat="45.62138676976094" lon="10.814625968388782"><ele>436.0</ele><time>2026-03-28T11:54:15Z</time></trkpt><trkpt lat="45.62140315144228" lon="10.814824170912601"><ele>436.0</ele><time>2026-03-28T11:54:16Z</time></trkpt><trkpt lat="45.621429476024126" lon="10.815029354946885"><ele>436.0</ele><time>2026-03-28T11:54:17Z</time></trkpt><trkpt lat="45.62148247043695" lon="10.815221298627334"><ele>436.0</ele><time>2026-03-28T11:54:18Z</time></trkpt><trkpt lat="45.62152742094424" lon="10.815407659418243"><ele>436.0</ele><time>2026-03-28T11:54:19Z</time></trkpt><trkpt lat="45.621563174505624" lon="10.81557894320507"><ele>437.0</ele><time>2026-03-28T11:54:20Z</time></trkpt><trkpt lat="45.62159426388191" lon="10.815741777276402"><ele>438.0</ele><time>2026-03-28T11:54:21Z</time></trkpt><trkpt lat="45.62163223721765" lon="10.81588096331128"><ele>439.0</ele><time>2026-03-28T11:54:22Z</time></trkpt><trkpt lat="45.621671453688776" lon="10.816004061155958"><ele>440.0</ele><time>2026-03-28T11:54:23Z</time></trkpt><trkpt lat="45.62170682654286" lon="10.816126862666804"><ele>441.0</ele><time>2026-03-28T11:54:24Z</time></trkpt><trkpt lat="45.62174815847249" lon="10.816248524150325"><ele>442.4</ele><time>2026-03-28T11:54:25Z</time></trkpt><trkpt lat="45.62180412139542" lon="10.816362415380224"><ele>443.8</ele><time>2026-03-28T11:54:26Z</time></trkpt><trkpt lat="45.621866832740444" lon="10.816474262480384"><ele>445.19999999999993</ele><time>2026-03-28T11:54:27Z</time></trkpt><trkpt lat="45.62193287738416" lon="10.816582808090041"><ele>446.59999999999997</ele><time>2026-03-28T11:54:28Z</time></trkpt><trkpt lat="45.621988252418895" lon="10.816669866920714"><ele>448.0</ele><time>2026-03-28T11:54:29Z</time></trkpt><trkpt lat="45.622055643245055" lon="10.816762195966268"><ele>447.79999999999995</ele><time>2026-03-28T11:54:30Z</time></trkpt><trkpt lat="45.62214310192222" lon="10.816824400698836"><ele>447.59999999999997</ele><time>2026-03-28T11:54:31Z</time></trkpt><trkpt lat="45.62221797910356" lon="10.816857850010951"><ele>447.40000000000003</ele><time>2026-03-28T11:54:32Z</time></trkpt><trkpt lat="45.62231202838961" lon="10.816920500196554"><ele>447.20000000000005</ele><time>2026-03-28T11:54:34Z</time></trkpt><trkpt lat="45.622373807134146" lon="10.816991887527438"><ele>447.0</ele><time>2026-03-28T11:54:36Z</time></trkpt><trkpt lat="45.622486683048734" lon="10.816839594999331"><ele>448.0</ele><time>2026-03-28T11:54:40Z</time></trkpt><trkpt lat="45.62249253819921" lon="10.816723884425366"><ele>449.00000000000006</ele><time>2026-03-28T11:54:41Z</time></trkpt><trkpt lat="45.62250416221536" lon="10.816574496476653"><ele>450.00000000000006</ele><time>2026-03-28T11:54:42Z</time></trkpt><trkpt lat="45.622521672764755" lon="10.81641117709514"><ele>451.0</ele><time>2026-03-28T11:54:43Z</time></trkpt><trkpt lat="45.6225330544673" lon="10.81627149940048"><ele>452.0</ele><time>2026-03-28T11:54:44Z</time></trkpt><trkpt lat="45.62251504301549" lon="10.816138363949308"><ele>452.0</ele><time>2026-03-28T11:54:45Z</time></trkpt><trkpt lat="45.62251828780685" lon="10.815997649588972"><ele>452.00000000000006</ele><time>2026-03-28T11:54:46Z</time></trkpt><trkpt lat="45.622483233975515" lon="10.81585035819719"><ele>452.00000000000006</ele><time>2026-03-28T11:54:47Z</time></trkpt><trkpt lat="45.62246759148901" lon="10.815705147633281"><ele>452.0</ele><time>2026-03-28T11:54:48Z</time></trkpt><trkpt lat="45.62242458511836" lon="10.815577933095067"><ele>452.0</ele><time>2026-03-28T11:54:49Z</time></trkpt><trkpt lat="45.622382660385234" lon="10.815458176216238"><ele>451.8571428571429</ele><time>2026-03-28T11:54:50Z</time></trkpt><trkpt lat="45.62237137514617" lon="10.8153385743984"><ele>451.71428571428567</ele><time>2026-03-28T11:54:51Z</time></trkpt><trkpt lat="45.62236167556467" lon="10.815236543663932"><ele>451.57142857142856</ele><time>2026-03-28T11:54:52Z</time></trkpt><trkpt lat="45.6223674346936" lon="10.815143492645035"><ele>451.42857142857144</ele><time>2026-03-28T11:54:53Z</time></trkpt><trkpt lat="45.62238119964688" lon="10.815035267989854"><ele>451.28571428571433</ele><time>2026-03-28T11:54:54Z</time></trkpt><trkpt lat="45.622377418338644" lon="10.81494423017106"><ele>451.1428571428571</ele><time>2026-03-28T11:54:55Z</time></trkpt><trkpt lat="45.62236322593606" lon="10.814836244334547"><ele>451.0</ele><time>2026-03-28T11:54:56Z</time></trkpt><trkpt lat="45.622349697463704" lon="10.814685436336692"><ele>451.6</ele><time>2026-03-28T11:54:57Z</time></trkpt><trkpt lat="45.622370092937366" lon="10.814560861993566"><ele>452.20000000000005</ele><time>2026-03-28T11:54:58Z</time></trkpt><trkpt lat="45.622372712717656" lon="10.814465002841235"><ele>452.79999999999995</ele><time>2026-03-28T11:54:59Z</time></trkpt><trkpt lat="45.622376967774414" lon="10.814309306698366"><ele>453.4</ele><time>2026-03-28T11:55:01Z</time></trkpt><trkpt lat="45.622381818139736" lon="10.814170148831806"><ele>454.0</ele><time>2026-03-28T11:55:03Z</time></trkpt><trkpt lat="45.62248738341388" lon="10.81405957390947"><ele>454.2</ele><time>2026-03-28T11:55:05Z</time></trkpt><trkpt lat="45.62253163517185" lon="10.813983939620993"><ele>454.4</ele><time>2026-03-28T11:55:06Z</time></trkpt><trkpt lat="45.62257173246754" lon="10.813840462247516"><ele>454.6</ele><time>2026-03-28T11:55:08Z</time></trkpt><trkpt lat="45.622488601486104" lon="10.813688936474405"><ele>454.8</ele><time>2026-03-28T11:55:10Z</time></trkpt><trkpt lat="45.62236982044999" lon="10.813611866024296"><ele>455.0</ele><time>2026-03-28T11:55:12Z</time></trkpt><trkpt lat="45.622304157981986" lon="10.813571785534277"><ele>455.99999999999994</ele><time>2026-03-28T11:55:13Z</time></trkpt><trkpt lat="45.62226727754272" lon="10.81345913767972"><ele>457.0</ele><time>2026-03-28T11:55:15Z</time></trkpt><trkpt lat="45.62228812917578" lon="10.81336243404891"><ele>458.0</ele><time>2026-03-28T11:55:16Z</time></trkpt><trkpt lat="45.62229053493479" lon="10.81327044177864"><ele>459.0</ele><time>2026-03-28T11:55:17Z</time></trkpt><trkpt lat="45.62230710089898" lon="10.813077185095407"><ele>459.99999999999994</ele><time>2026-03-28T11:55:19Z</time></trkpt><trkpt lat="45.6223028494185" lon="10.812960619447727"><ele>461.0</ele><time>2026-03-28T11:55:21Z</time></trkpt><trkpt lat="45.622391072542484" lon="10.812892047894406"><ele>460.99999999999994</ele><time>2026-03-28T11:55:23Z</time></trkpt><trkpt lat="45.622442191776784" lon="10.812836993541437"><ele>461.0</ele><time>2026-03-28T11:55:24Z</time></trkpt><trkpt lat="45.62246240198472" lon="10.812702353613599"><ele>461.0</ele><time>2026-03-28T11:55:26Z</time></trkpt><trkpt lat="45.622405110585895" lon="10.812560042661701"><ele>461.0</ele><time>2026-03-28T11:55:28Z</time></trkpt><trkpt lat="45.62235842540412" lon="10.812458377250328"><ele>460.99999999999994</ele><time>2026-03-28T11:55:30Z</time></trkpt><trkpt lat="45.62238527716069" lon="10.812546835247193"><ele>461.0</ele><time>2026-03-28T11:56:24Z</time></trkpt><trkpt lat="45.6224266225296" lon="10.812663058879469"><ele>461.0</ele><time>2026-03-28T11:56:31Z</time></trkpt><trkpt lat="45.62243572762725" lon="10.812783546604317"><ele>461.00000000000006</ele><time>2026-03-28T11:56:33Z</time></trkpt><trkpt lat="45.62240993446967" lon="10.812866904404183"><ele>461.0</ele><time>2026-03-28T11:56:35Z</time></trkpt><trkpt lat="45.62234264933655" lon="10.812910560074846"><ele>461.0</ele><time>2026-03-28T11:56:37Z</time></trkpt><trkpt lat="45.62228137347454" lon="10.812973884449786"><ele>461.00000000000006</ele><time>2026-03-28T11:56:39Z</time></trkpt><trkpt lat="45.62226578787288" lon="10.813076925373867"><ele>461.0</ele><time>2026-03-28T11:56:41Z</time></trkpt><trkpt lat="45.622292008915075" lon="10.813163167224882"><ele>461.0</ele><time>2026-03-28T11:56:44Z</time></trkpt><trkpt lat="45.622206380751855" lon="10.813120348702231"><ele>461.0</ele><time>2026-03-28T11:57:35Z</time></trkpt><trkpt lat="45.622118225637664" lon="10.813013916068194"><ele>461.0</ele><time>2026-03-28T11:57:37Z</time></trkpt><trkpt lat="45.6220735914982" lon="10.812855284802653"><ele>461.0</ele><time>2026-03-28T11:57:39Z</time></trkpt><trkpt lat="45.62204965666734" lon="10.812747149238833"><ele>461.0</ele><time>2026-03-28T11:57:40Z</time></trkpt><trkpt lat="45.62201553775762" lon="10.812649103257922"><ele>461.0</ele><time>2026-03-28T11:57:41Z</time></trkpt><trkpt lat="45.62197593815547" lon="10.81255813756041"><ele>459.16666666666663</ele><time>2026-03-28T11:57:42Z</time></trkpt><trkpt lat="45.62193201127145" lon="10.812469669833186"><ele>457.3333333333333</ele><time>2026-03-28T11:57:43Z</time></trkpt><trkpt lat="45.621895696176075" lon="10.812378070762064"><ele>455.5</ele><time>2026-03-28T11:57:44Z</time></trkpt><trkpt lat="45.62185853100138" lon="10.812279629288756"><ele>453.66666666666663</ele><time>2026-03-28T11:57:45Z</time></trkpt><trkpt lat="45.62182408452516" lon="10.81217915901448"><ele>451.8333333333333</ele><time>2026-03-28T11:57:46Z</time></trkpt><trkpt lat="45.62184366682068" lon="10.812050690577227"><ele>450.0</ele><time>2026-03-28T11:57:47Z</time></trkpt><trkpt lat="45.621809171011606" lon="10.81194300795963"><ele>450.8</ele><time>2026-03-28T11:57:48Z</time></trkpt><trkpt lat="45.621752892004885" lon="10.811770538078475"><ele>451.6</ele><time>2026-03-28T11:57:50Z</time></trkpt><trkpt lat="45.6217162501175" lon="10.811661581698024"><ele>452.4</ele><time>2026-03-28T11:57:51Z</time></trkpt><trkpt lat="45.621677691027145" lon="10.811549697009301"><ele>453.2</ele><time>2026-03-28T11:57:52Z</time></trkpt><trkpt lat="45.62163358949643" lon="10.811433043093858"><ele>454.0</ele><time>2026-03-28T11:57:53Z</time></trkpt><trkpt lat="45.62158594144213" lon="10.811304000476829"><ele>454.0</ele><time>2026-03-28T11:57:54Z</time></trkpt><trkpt lat="45.62154466602925" lon="10.811169304671688"><ele>454.0</ele><time>2026-03-28T11:57:55Z</time></trkpt><trkpt lat="45.62150657496697" lon="10.81104364172328"><ele>454.0</ele><time>2026-03-28T11:57:56Z</time></trkpt><trkpt lat="45.62145332052957" lon="10.810922520263258"><ele>454.0</ele><time>2026-03-28T11:57:58Z</time></trkpt><trkpt lat="45.62143436875768" lon="10.810790411072608"><ele>454.0</ele><time>2026-03-28T11:58:00Z</time></trkpt><trkpt lat="45.621391496030995" lon="10.810640167514077"><ele>453.50000000000006</ele><time>2026-03-28T11:58:02Z</time></trkpt><trkpt lat="45.62139830500633" lon="10.810539011610167"><ele>453.0</ele><time>2026-03-28T11:58:03Z</time></trkpt><trkpt lat="45.621388495699094" lon="10.810435245191185"><ele>452.5</ele><time>2026-03-28T11:58:04Z</time></trkpt><trkpt lat="45.62127561111335" lon="10.810344773285124"><ele>452.0</ele><time>2026-03-28T11:58:05Z</time></trkpt><trkpt lat="45.62122578076873" lon="10.810248663669926"><ele>451.50000000000006</ele><time>2026-03-28T11:58:06Z</time></trkpt><trkpt lat="45.62117859451724" lon="10.810180752793029"><ele>451.0</ele><time>2026-03-28T11:58:07Z</time></trkpt><trkpt lat="45.62107936343499" lon="10.81008385310137"><ele>451.00000000000006</ele><time>2026-03-28T11:58:09Z</time></trkpt><trkpt lat="45.62101181821121" lon="10.810023670314406"><ele>451.0</ele><time>2026-03-28T11:58:10Z</time></trkpt><trkpt lat="45.62093617105752" lon="10.80995621209841"><ele>451.0</ele><time>2026-03-28T11:58:11Z</time></trkpt><trkpt lat="45.620857121298535" lon="10.809880521425795"><ele>451.0</ele><time>2026-03-28T11:58:12Z</time></trkpt><trkpt lat="45.620786074475" lon="10.809813878761915"><ele>451.00000000000006</ele><time>2026-03-28T11:58:13Z</time></trkpt><trkpt lat="45.62070111261155" lon="10.80975675341026"><ele>451.0</ele><time>2026-03-28T11:58:14Z</time></trkpt><trkpt lat="45.62064413998504" lon="10.809672154435091"><ele>451.0</ele><time>2026-03-28T11:58:15Z</time></trkpt><trkpt lat="45.62058218165556" lon="10.809576601695367"><ele>451.0</ele><time>2026-03-28T11:58:16Z</time></trkpt><trkpt lat="45.6205181612234" lon="10.809508797429423"><ele>451.0</ele><time>2026-03-28T11:58:17Z</time></trkpt><trkpt lat="45.62043775240672" lon="10.809450446590848"><ele>451.0</ele><time>2026-03-28T11:58:18Z</time></trkpt><trkpt lat="45.62033035652566" lon="10.809374099729244"><ele>451.0</ele><time>2026-03-28T11:58:19Z</time></trkpt><trkpt lat="45.62021689278302" lon="10.809311380977178"><ele>450.8</ele><time>2026-03-28T11:58:20Z</time></trkpt><trkpt lat="45.62011005951126" lon="10.809256713632669"><ele>450.6</ele><time>2026-03-28T11:58:21Z</time></trkpt><trkpt lat="45.62002291587175" lon="10.80920797854234"><ele>450.4</ele><time>2026-03-28T11:58:22Z</time></trkpt><trkpt lat="45.61993092019185" lon="10.809121506497084"><ele>450.2</ele><time>2026-03-28T11:58:23Z</time></trkpt><trkpt lat="45.619828240083535" lon="10.809028644801112"><ele>450.0</ele><time>2026-03-28T11:58:24Z</time></trkpt><trkpt lat="45.619736569871094" lon="10.808940852066202"><ele>450.0</ele><time>2026-03-28T11:58:25Z</time></trkpt><trkpt lat="45.61965073593777" lon="10.808827930858838"><ele>450.0</ele><time>2026-03-28T11:58:26Z</time></trkpt><trkpt lat="45.61956847110606" lon="10.80870904968495"><ele>450.0</ele><time>2026-03-28T11:58:27Z</time></trkpt><trkpt lat="45.619495822746146" lon="10.808596587759455"><ele>450.0</ele><time>2026-03-28T11:58:28Z</time></trkpt><trkpt lat="45.61944239070374" lon="10.808489412566482"><ele>450.0</ele><time>2026-03-28T11:58:29Z</time></trkpt><trkpt lat="45.619403226724074" lon="10.808365876992005"><ele>449.6</ele><time>2026-03-28T11:58:30Z</time></trkpt><trkpt lat="45.61935487094796" lon="10.808228379555109"><ele>449.2</ele><time>2026-03-28T11:58:31Z</time></trkpt><trkpt lat="45.61929841425269" lon="10.80811495088309"><ele>448.79999999999995</ele><time>2026-03-28T11:58:32Z</time></trkpt><trkpt lat="45.619219563631304" lon="10.808002207923533"><ele>448.4</ele><time>2026-03-28T11:58:33Z</time></trkpt><trkpt lat="45.619143553118334" lon="10.807895209554488"><ele>448.0</ele><time>2026-03-28T11:58:34Z</time></trkpt><trkpt lat="45.6190936565458" lon="10.807795168564597"><ele>448.00000000000006</ele><time>2026-03-28T11:58:35Z</time></trkpt><trkpt lat="45.61903856473179" lon="10.807742207320125"><ele>448.0</ele><time>2026-03-28T11:58:36Z</time></trkpt><trkpt lat="45.61895560897831" lon="10.807674623374412"><ele>448.0</ele><time>2026-03-28T11:58:37Z</time></trkpt><trkpt lat="45.61886637749698" lon="10.807598343678578"><ele>448.0</ele><time>2026-03-28T11:58:38Z</time></trkpt><trkpt lat="45.61880253841733" lon="10.807501369845903"><ele>448.00000000000006</ele><time>2026-03-28T11:58:39Z</time></trkpt><trkpt lat="45.618760784257944" lon="10.80740639506299"><ele>448.0</ele><time>2026-03-28T11:58:41Z</time></trkpt><trkpt lat="45.618687497784464" lon="10.80722221340857"><ele>446.59999999999997</ele><time>2026-03-28T11:58:43Z</time></trkpt><trkpt lat="45.61864236335731" lon="10.807121664022791"><ele>445.19999999999993</ele><time>2026-03-28T11:58:44Z</time></trkpt><trkpt lat="45.61858641857531" lon="10.807011211230135"><ele>443.8</ele><time>2026-03-28T11:58:45Z</time></trkpt><trkpt lat="45.61853004042757" lon="10.806895416454537"><ele>442.4</ele><time>2026-03-28T11:58:46Z</time></trkpt><trkpt lat="45.61848363551135" lon="10.806770022489784"><ele>441.0</ele><time>2026-03-28T11:58:47Z</time></trkpt><trkpt lat="45.618442109417344" lon="10.806642928515483"><ele>441.0</ele><time>2026-03-28T11:58:48Z</time></trkpt><trkpt lat="45.61839630358216" lon="10.806498844190896"><ele>441.0</ele><time>2026-03-28T11:58:49Z</time></trkpt><trkpt lat="45.61835982618763" lon="10.806367617439738"><ele>441.0</ele><time>2026-03-28T11:58:50Z</time></trkpt><trkpt lat="45.61831437622986" lon="10.806236870599964"><ele>441.0</ele><time>2026-03-28T11:58:51Z</time></trkpt><trkpt lat="45.618262764409266" lon="10.806100304027868"><ele>441.0</ele><time>2026-03-28T11:58:52Z</time></trkpt><trkpt lat="45.61821117970548" lon="10.805963983093644"><ele>443.0</ele><time>2026-03-28T11:58:53Z</time></trkpt><trkpt lat="45.61815124338503" lon="10.805813106070216"><ele>445.0</ele><time>2026-03-28T11:58:54Z</time></trkpt><trkpt lat="45.618094844456955" lon="10.805691410699902"><ele>447.0</ele><time>2026-03-28T11:58:55Z</time></trkpt><trkpt lat="45.618065210559166" lon="10.805589495250173"><ele>449.0</ele><time>2026-03-28T11:58:56Z</time></trkpt><trkpt lat="45.6180429955755" lon="10.805478484973976"><ele>451.0</ele><time>2026-03-28T11:58:58Z</time></trkpt><trkpt lat="45.61805647361469" lon="10.805323555423918"><ele>451.00000000000006</ele><time>2026-03-28T11:59:00Z</time></trkpt><trkpt lat="45.61801661814134" lon="10.805186316726703"><ele>451.0</ele><time>2026-03-28T11:59:02Z</time></trkpt><trkpt lat="45.61799066587006" lon="10.80509271885228"><ele>451.0</ele><time>2026-03-28T11:59:05Z</time></trkpt><trkpt lat="45.617978222730365" lon="10.804989252173002"><ele>451.0</ele><time>2026-03-28T11:59:16Z</time></trkpt><trkpt lat="45.61791461856371" lon="10.804965332152626"><ele>451.00000000000006</ele><time>2026-03-28T11:59:32Z</time></trkpt><trkpt lat="45.61783939154976" lon="10.804898231317257"><ele>451.0</ele><time>2026-03-28T11:59:36Z</time></trkpt><trkpt lat="45.61778782461928" lon="10.804820978011517"><ele>448.0</ele><time>2026-03-28T11:59:37Z</time></trkpt><trkpt lat="45.61772983054566" lon="10.804735282515558"><ele>445.0</ele><time>2026-03-28T11:59:38Z</time></trkpt><trkpt lat="45.617660468708166" lon="10.804646659878214"><ele>442.0</ele><time>2026-03-28T11:59:39Z</time></trkpt><trkpt lat="45.617585015949224" lon="10.804559621809181"><ele>439.0</ele><time>2026-03-28T11:59:40Z</time></trkpt><trkpt lat="45.61749097087304" lon="10.804486212060077"><ele>436.0</ele><time>2026-03-28T11:59:41Z</time></trkpt><trkpt lat="45.61739382504834" lon="10.804415191857727"><ele>436.00000000000006</ele><time>2026-03-28T11:59:42Z</time></trkpt><trkpt lat="45.61731196958153" lon="10.804336723969621"><ele>436.0</ele><time>2026-03-28T11:59:43Z</time></trkpt><trkpt lat="45.6172400513947" lon="10.804251790868932"><ele>436.0</ele><time>2026-03-28T11:59:44Z</time></trkpt><trkpt lat="45.61715517853508" lon="10.80417085834659"><ele>436.0</ele><time>2026-03-28T11:59:45Z</time></trkpt><trkpt lat="45.61708814758674" lon="10.804137399880382"><ele>436.00000000000006</ele><time>2026-03-28T11:59:46Z</time></trkpt><trkpt lat="45.617024377945846" lon="10.80410249999689"><ele>436.0</ele><time>2026-03-28T11:59:47Z</time></trkpt><trkpt lat="45.61693836456787" lon="10.804030885189709"><ele>437.50000000000006</ele><time>2026-03-28T11:59:48Z</time></trkpt><trkpt lat="45.61685981995557" lon="10.803935292403589"><ele>439.0</ele><time>2026-03-28T11:59:49Z</time></trkpt><trkpt lat="45.61677891109392" lon="10.803838209308278"><ele>440.5</ele><time>2026-03-28T11:59:50Z</time></trkpt><trkpt lat="45.616705279812116" lon="10.803766115952047"><ele>442.0</ele><time>2026-03-28T11:59:51Z</time></trkpt><trkpt lat="45.616645724257125" lon="10.803712310523238"><ele>443.50000000000006</ele><time>2026-03-28T11:59:52Z</time></trkpt><trkpt lat="45.61658097483031" lon="10.803661274483353"><ele>445.0</ele><time>2026-03-28T11:59:53Z</time></trkpt><trkpt lat="45.61650820163272" lon="10.803607477282524"><ele>445.00000000000006</ele><time>2026-03-28T11:59:54Z</time></trkpt><trkpt lat="45.61644413910574" lon="10.80356420471791"><ele>445.0</ele><time>2026-03-28T11:59:55Z</time></trkpt><trkpt lat="45.61637511617703" lon="10.80348489523019"><ele>445.0</ele><time>2026-03-28T11:59:56Z</time></trkpt><trkpt lat="45.61631618482729" lon="10.803384886910962"><ele>445.0</ele><time>2026-03-28T11:59:57Z</time></trkpt><trkpt lat="45.61626125646266" lon="10.803273084758656"><ele>445.00000000000006</ele><time>2026-03-28T11:59:58Z</time></trkpt><trkpt lat="45.616209694995575" lon="10.803205346527504"><ele>445.0</ele><time>2026-03-28T11:59:59Z</time></trkpt><trkpt lat="45.616141721037906" lon="10.803127294597347"><ele>445.4</ele><time>2026-03-28T12:00:00Z</time></trkpt><trkpt lat="45.616034219531656" lon="10.803049612537166"><ele>445.8</ele><time>2026-03-28T12:00:01Z</time></trkpt><trkpt lat="45.6159604256655" lon="10.802961015948727"><ele>446.20000000000005</ele><time>2026-03-28T12:00:02Z</time></trkpt><trkpt lat="45.61589999167247" lon="10.802890009410621"><ele>446.6</ele><time>2026-03-28T12:00:03Z</time></trkpt><trkpt lat="45.61579374348592" lon="10.802788156113508"><ele>447.0</ele><time>2026-03-28T12:00:05Z</time></trkpt><trkpt lat="45.615739402535795" lon="10.802710951239945"><ele>445.8333333333333</ele><time>2026-03-28T12:00:06Z</time></trkpt><trkpt lat="45.61570509462444" lon="10.802617363267771"><ele>444.66666666666663</ele><time>2026-03-28T12:00:07Z</time></trkpt><trkpt lat="45.61566911513037" lon="10.802507047644344"><ele>443.5</ele><time>2026-03-28T12:00:08Z</time></trkpt><trkpt lat="45.61563111114303" lon="10.8023819051004"><ele>442.3333333333333</ele><time>2026-03-28T12:00:09Z</time></trkpt><trkpt lat="45.61560474284584" lon="10.802265488283592"><ele>441.16666666666663</ele><time>2026-03-28T12:00:10Z</time></trkpt><trkpt lat="45.61558077966536" lon="10.802131230930856"><ele>440.0</ele><time>2026-03-28T12:00:11Z</time></trkpt><trkpt lat="45.61554538282563" lon="10.80200105770093"><ele>439.99999999999994</ele><time>2026-03-28T12:00:12Z</time></trkpt><trkpt lat="45.61550541778762" lon="10.801876063321616"><ele>440.0</ele><time>2026-03-28T12:00:13Z</time></trkpt><trkpt lat="45.61547068766253" lon="10.80177531254921"><ele>440.0</ele><time>2026-03-28T12:00:14Z</time></trkpt><trkpt lat="45.615426674680954" lon="10.801695797300862"><ele>440.0</ele><time>2026-03-28T12:00:15Z</time></trkpt><trkpt lat="45.615361785906025" lon="10.801597852038668"><ele>439.99999999999994</ele><time>2026-03-28T12:00:16Z</time></trkpt><trkpt lat="45.61531489983282" lon="10.801533023902168"><ele>440.0</ele><time>2026-03-28T12:00:17Z</time></trkpt><trkpt lat="45.615268615103794" lon="10.801470676539308"><ele>438.0</ele><time>2026-03-28T12:00:18Z</time></trkpt><trkpt lat="45.61522617759719" lon="10.801325402505759"><ele>436.0</ele><time>2026-03-28T12:00:20Z</time></trkpt><trkpt lat="45.61522811690981" lon="10.80120626104554"><ele>434.0</ele><time>2026-03-28T12:00:21Z</time></trkpt><trkpt lat="45.615230478394245" lon="10.801085673058152"><ele>432.0</ele><time>2026-03-28T12:00:22Z</time></trkpt><trkpt lat="45.61521869738316" lon="10.800935030570123"><ele>430.0</ele><time>2026-03-28T12:00:23Z</time></trkpt><trkpt lat="45.61520909600847" lon="10.800793882047394"><ele>428.85714285714283</ele><time>2026-03-28T12:00:24Z</time></trkpt><trkpt lat="45.615197326273126" lon="10.800702988828087"><ele>427.7142857142857</ele><time>2026-03-28T12:00:25Z</time></trkpt><trkpt lat="45.615169963892995" lon="10.800612746866175"><ele>426.57142857142856</ele><time>2026-03-28T12:00:26Z</time></trkpt><trkpt lat="45.61517966094471" lon="10.800513689883045"><ele>425.42857142857144</ele><time>2026-03-28T12:00:27Z</time></trkpt><trkpt lat="45.61517514587226" lon="10.800415142000137"><ele>424.28571428571433</ele><time>2026-03-28T12:00:28Z</time></trkpt><trkpt lat="45.61516469010214" lon="10.800326008884111"><ele>423.14285714285717</ele><time>2026-03-28T12:00:29Z</time></trkpt><trkpt lat="45.61520597638306" lon="10.800188013063462"><ele>422.0</ele><time>2026-03-28T12:00:31Z</time></trkpt><trkpt lat="45.61522598768866" lon="10.800102441606777"><ele>420.0</ele><time>2026-03-28T12:00:32Z</time></trkpt><trkpt lat="45.615280162624856" lon="10.799936206407338"><ele>418.0</ele><time>2026-03-28T12:00:34Z</time></trkpt><trkpt lat="45.61532921419088" lon="10.799834821837194"><ele>416.0</ele><time>2026-03-28T12:00:35Z</time></trkpt><trkpt lat="45.61535159364076" lon="10.799742701499394"><ele>414.0</ele><time>2026-03-28T12:00:36Z</time></trkpt><trkpt lat="45.615376360924266" lon="10.799593835885236"><ele>412.0</ele><time>2026-03-28T12:00:38Z</time></trkpt><trkpt lat="45.61537769188865" lon="10.799488260840173"><ele>410.8</ele><time>2026-03-28T12:00:39Z</time></trkpt><trkpt lat="45.61536335242797" lon="10.799351702252338"><ele>409.6</ele><time>2026-03-28T12:00:40Z</time></trkpt><trkpt lat="45.615340639635434" lon="10.799202739489917"><ele>408.40000000000003</ele><time>2026-03-28T12:00:41Z</time></trkpt><trkpt lat="45.61530723156858" lon="10.799060128730686"><ele>407.20000000000005</ele><time>2026-03-28T12:00:42Z</time></trkpt><trkpt lat="45.61526804088852" lon="10.798920475577098"><ele>406.0</ele><time>2026-03-28T12:00:43Z</time></trkpt><trkpt lat="45.61525178675512" lon="10.79879576243618"><ele>406.0</ele><time>2026-03-28T12:00:44Z</time></trkpt><trkpt lat="45.61522293682413" lon="10.798685900978516"><ele>406.0</ele><time>2026-03-28T12:00:45Z</time></trkpt><trkpt lat="45.61517400702606" lon="10.79855997840806"><ele>406.0</ele><time>2026-03-28T12:00:46Z</time></trkpt><trkpt lat="45.615131325106745" lon="10.798408387361581"><ele>406.0</ele><time>2026-03-28T12:00:47Z</time></trkpt><trkpt lat="45.61511259950609" lon="10.798283415993787"><ele>406.0</ele><time>2026-03-28T12:00:48Z</time></trkpt><trkpt lat="45.615077119800084" lon="10.798163582347929"><ele>406.33333333333337</ele><time>2026-03-28T12:00:49Z</time></trkpt><trkpt lat="45.61502927467203" lon="10.79806321348732"><ele>406.6666666666667</ele><time>2026-03-28T12:00:50Z</time></trkpt><trkpt lat="45.61499087468423" lon="10.797951991800222"><ele>407.0</ele><time>2026-03-28T12:00:51Z</time></trkpt><trkpt lat="45.61498204188327" lon="10.79784622366091"><ele>407.33333333333337</ele><time>2026-03-28T12:00:52Z</time></trkpt><trkpt lat="45.61495786145373" lon="10.79771767218297"><ele>407.6666666666667</ele><time>2026-03-28T12:00:53Z</time></trkpt><trkpt lat="45.61493015636246" lon="10.797594279191639"><ele>408.0</ele><time>2026-03-28T12:00:54Z</time></trkpt><trkpt lat="45.6148933967278" lon="10.797461557498073"><ele>408.0</ele><time>2026-03-28T12:00:55Z</time></trkpt><trkpt lat="45.61486788009703" lon="10.797336421436222"><ele>408.0</ele><time>2026-03-28T12:00:56Z</time></trkpt><trkpt lat="45.61485233365751" lon="10.79722511982456"><ele>408.0</ele><time>2026-03-28T12:00:57Z</time></trkpt><trkpt lat="45.6148433502629" lon="10.797112993904552"><ele>408.0</ele><time>2026-03-28T12:00:58Z</time></trkpt><trkpt lat="45.61483790808632" lon="10.796991987425924"><ele>408.0</ele><time>2026-03-28T12:00:59Z</time></trkpt><trkpt lat="45.614848982489455" lon="10.796882488401533"><ele>408.0</ele><time>2026-03-28T12:01:00Z</time></trkpt><trkpt lat="45.614855397768245" lon="10.796779521052864"><ele>407.6666666666667</ele><time>2026-03-28T12:01:01Z</time></trkpt><trkpt lat="45.61484295565683" lon="10.796674608166708"><ele>407.33333333333337</ele><time>2026-03-28T12:01:02Z</time></trkpt><trkpt lat="45.614837497540016" lon="10.796578074741253"><ele>407.0</ele><time>2026-03-28T12:01:03Z</time></trkpt><trkpt lat="45.614816139478854" lon="10.796491861225132"><ele>406.6666666666667</ele><time>2026-03-28T12:01:04Z</time></trkpt><trkpt lat="45.61478244422094" lon="10.79640944236495"><ele>406.33333333333337</ele><time>2026-03-28T12:01:05Z</time></trkpt><trkpt lat="45.614745147822106" lon="10.796264939709346"><ele>406.0</ele><time>2026-03-28T12:01:07Z</time></trkpt><trkpt lat="45.614688005277095" lon="10.796144380515496"><ele>406.00000000000006</ele><time>2026-03-28T12:01:09Z</time></trkpt><trkpt lat="45.61460998568613" lon="10.79613603815338"><ele>406.0</ele><time>2026-03-28T12:01:10Z</time></trkpt><trkpt lat="45.61451675214935" lon="10.796114013675457"><ele>406.0</ele><time>2026-03-28T12:01:11Z</time></trkpt><trkpt lat="45.614407904260396" lon="10.796086472312084"><ele>406.0</ele><time>2026-03-28T12:01:12Z</time></trkpt><trkpt lat="45.614327686297884" lon="10.796080452103993"><ele>406.00000000000006</ele><time>2026-03-28T12:01:13Z</time></trkpt><trkpt lat="45.61425039313393" lon="10.796070580148339"><ele>406.0</ele><time>2026-03-28T12:01:14Z</time></trkpt><trkpt lat="45.61412179387109" lon="10.796032651009842"><ele>402.33333333333337</ele><time>2026-03-28T12:01:16Z</time></trkpt><trkpt lat="45.61406131762081" lon="10.795948822273596"><ele>398.6666666666667</ele><time>2026-03-28T12:01:17Z</time></trkpt><trkpt lat="45.61399284555664" lon="10.795927507245246"><ele>395.0</ele><time>2026-03-28T12:01:18Z</time></trkpt><trkpt lat="45.61392402619313" lon="10.795880613826846"><ele>391.33333333333337</ele><time>2026-03-28T12:01:20Z</time></trkpt><trkpt lat="45.61387803631168" lon="10.795805963955932"><ele>387.6666666666667</ele><time>2026-03-28T12:01:23Z</time></trkpt><trkpt lat="45.613859273043886" lon="10.795701992236173"><ele>384.0</ele><time>2026-03-28T12:01:25Z</time></trkpt><trkpt lat="45.61383476485923" lon="10.795584694815346"><ele>384.0</ele><time>2026-03-28T12:01:26Z</time></trkpt><trkpt lat="45.61380166042172" lon="10.795441217702278"><ele>384.0</ele><time>2026-03-28T12:01:27Z</time></trkpt><trkpt lat="45.613752209028924" lon="10.795298154995384"><ele>384.0</ele><time>2026-03-28T12:01:28Z</time></trkpt><trkpt lat="45.61373244529894" lon="10.795146382944948"><ele>384.0</ele><time>2026-03-28T12:01:29Z</time></trkpt><trkpt lat="45.61368458881285" lon="10.795024281167978"><ele>384.0</ele><time>2026-03-28T12:01:30Z</time></trkpt><trkpt lat="45.61362375921982" lon="10.794882500360634"><ele>383.5</ele><time>2026-03-28T12:01:31Z</time></trkpt><trkpt lat="45.61360838749251" lon="10.79474671000123"><ele>383.0</ele><time>2026-03-28T12:01:32Z</time></trkpt><trkpt lat="45.61358687065898" lon="10.794629216994085"><ele>382.5</ele><time>2026-03-28T12:01:33Z</time></trkpt><trkpt lat="45.613550538101926" lon="10.794523937440143"><ele>382.0</ele><time>2026-03-28T12:01:34Z</time></trkpt><trkpt lat="45.61354247752926" lon="10.794393036471867"><ele>381.5</ele><time>2026-03-28T12:01:35Z</time></trkpt><trkpt lat="45.613515331225365" lon="10.794267650497714"><ele>381.0</ele><time>2026-03-28T12:01:36Z</time></trkpt><trkpt lat="45.6134667758766" lon="10.79413072353301"><ele>381.0</ele><time>2026-03-28T12:01:37Z</time></trkpt><trkpt lat="45.61343351033333" lon="10.793984341301798"><ele>381.0</ele><time>2026-03-28T12:01:38Z</time></trkpt><trkpt lat="45.61337721530474" lon="10.793857650628954"><ele>381.0</ele><time>2026-03-28T12:01:39Z</time></trkpt><trkpt lat="45.613314354502776" lon="10.793729751637903"><ele>381.0</ele><time>2026-03-28T12:01:40Z</time></trkpt><trkpt lat="45.61324529312808" lon="10.793604779108195"><ele>381.0</ele><time>2026-03-28T12:01:41Z</time></trkpt><trkpt lat="45.61319018026359" lon="10.793515207635581"><ele>383.4</ele><time>2026-03-28T12:01:42Z</time></trkpt><trkpt lat="45.61312951830199" lon="10.793415648435298"><ele>385.8</ele><time>2026-03-28T12:01:43Z</time></trkpt><trkpt lat="45.613064944487824" lon="10.793356383669904"><ele>388.2</ele><time>2026-03-28T12:01:44Z</time></trkpt><trkpt lat="45.61295569534262" lon="10.793288377382508"><ele>390.59999999999997</ele><time>2026-03-28T12:01:45Z</time></trkpt><trkpt lat="45.612878330656144" lon="10.793204828874797"><ele>393.0</ele><time>2026-03-28T12:01:46Z</time></trkpt><trkpt lat="45.61280993752434" lon="10.79310598001029"><ele>389.59999999999997</ele><time>2026-03-28T12:01:47Z</time></trkpt><trkpt lat="45.61273965911891" lon="10.792995464553627"><ele>386.2</ele><time>2026-03-28T12:01:48Z</time></trkpt><trkpt lat="45.612675956355176" lon="10.792877322223559"><ele>382.8</ele><time>2026-03-28T12:01:49Z</time></trkpt><trkpt lat="45.61262181223854" lon="10.79275596515546"><ele>379.4</ele><time>2026-03-28T12:01:50Z</time></trkpt><trkpt lat="45.61258947047742" lon="10.792641234114486"><ele>376.0</ele><time>2026-03-28T12:01:51Z</time></trkpt><trkpt lat="45.61257268052265" lon="10.792545860108802"><ele>376.0</ele><time>2026-03-28T12:01:52Z</time></trkpt><trkpt lat="45.612558137533476" lon="10.792426126313826"><ele>376.0</ele><time>2026-03-28T12:01:53Z</time></trkpt><trkpt lat="45.61255296112516" lon="10.792315714552482"><ele>376.0</ele><time>2026-03-28T12:01:54Z</time></trkpt><trkpt lat="45.61255905032134" lon="10.792191321836071"><ele>376.0</ele><time>2026-03-28T12:01:55Z</time></trkpt><trkpt lat="45.612576442441245" lon="10.792083870486659"><ele>376.0</ele><time>2026-03-28T12:01:56Z</time></trkpt><trkpt lat="45.61262551387026" lon="10.791994969635986"><ele>376.0</ele><time>2026-03-28T12:01:57Z</time></trkpt><trkpt lat="45.612678599644816" lon="10.791909806707553"><ele>375.25</ele><time>2026-03-28T12:01:58Z</time></trkpt><trkpt lat="45.612690001341925" lon="10.791820104662337"><ele>374.5</ele><time>2026-03-28T12:01:59Z</time></trkpt><trkpt lat="45.612670836074585" lon="10.791606752397794"><ele>373.75</ele><time>2026-03-28T12:02:01Z</time></trkpt><trkpt lat="45.61265931723251" lon="10.791447593294997"><ele>373.0</ele><time>2026-03-28T12:02:02Z</time></trkpt><trkpt lat="45.61264418985449" lon="10.791264072547655"><ele>373.0</ele><time>2026-03-28T12:02:03Z</time></trkpt><trkpt lat="45.612634117048565" lon="10.791092233866618"><ele>373.0</ele><time>2026-03-28T12:02:04Z</time></trkpt><trkpt lat="45.61262610347151" lon="10.790915952536913"><ele>373.0</ele><time>2026-03-28T12:02:05Z</time></trkpt><trkpt lat="45.61260803143849" lon="10.790749761337716"><ele>373.0</ele><time>2026-03-28T12:02:06Z</time></trkpt><trkpt lat="45.61259630370744" lon="10.790584343545149"><ele>372.5</ele><time>2026-03-28T12:02:07Z</time></trkpt><trkpt lat="45.612581028231006" lon="10.790427170800502"><ele>372.0</ele><time>2026-03-28T12:02:08Z</time></trkpt><trkpt lat="45.61254496486231" lon="10.7902868221976"><ele>371.5</ele><time>2026-03-28T12:02:09Z</time></trkpt><trkpt lat="45.6124805064246" lon="10.790134592864383"><ele>371.0</ele><time>2026-03-28T12:02:10Z</time></trkpt><trkpt lat="45.61242204952114" lon="10.789995530485955"><ele>371.0</ele><time>2026-03-28T12:02:11Z</time></trkpt><trkpt lat="45.61236004810714" lon="10.789857107793082"><ele>371.0</ele><time>2026-03-28T12:02:12Z</time></trkpt><trkpt lat="45.6122749984935" lon="10.789711210825855"><ele>371.0</ele><time>2026-03-28T12:02:13Z</time></trkpt><trkpt lat="45.612166464401916" lon="10.789567056721907"><ele>371.0</ele><time>2026-03-28T12:02:14Z</time></trkpt><trkpt lat="45.61204961516659" lon="10.789438784259756"><ele>368.20000000000005</ele><time>2026-03-28T12:02:15Z</time></trkpt><trkpt lat="45.611955795389676" lon="10.789310323832572"><ele>365.40000000000003</ele><time>2026-03-28T12:02:16Z</time></trkpt><trkpt lat="45.61186657649305" lon="10.78918255846409"><ele>362.6</ele><time>2026-03-28T12:02:17Z</time></trkpt><trkpt lat="45.6117901407035" lon="10.789078494149502"><ele>359.8</ele><time>2026-03-28T12:02:18Z</time></trkpt><trkpt lat="45.611732665911944" lon="10.788995958216196"><ele>357.0</ele><time>2026-03-28T12:02:19Z</time></trkpt><trkpt lat="45.61171175786347" lon="10.788869934328865"><ele>357.0</ele><time>2026-03-28T12:02:20Z</time></trkpt><trkpt lat="45.611670545294864" lon="10.788747159124943"><ele>357.0</ele><time>2026-03-28T12:02:21Z</time></trkpt><trkpt lat="45.611662361541924" lon="10.788621845284315"><ele>357.0</ele><time>2026-03-28T12:02:22Z</time></trkpt><trkpt lat="45.611667782772656" lon="10.788523546703738"><ele>357.0</ele><time>2026-03-28T12:02:23Z</time></trkpt><trkpt lat="45.61168584947176" lon="10.78840737585929"><ele>357.0</ele><time>2026-03-28T12:02:24Z</time></trkpt><trkpt lat="45.61170295609828" lon="10.788259680391523"><ele>357.0</ele><time>2026-03-28T12:02:25Z</time></trkpt><trkpt lat="45.61171124125467" lon="10.788125552482835"><ele>357.0</ele><time>2026-03-28T12:02:26Z</time></trkpt><trkpt lat="45.61173740435904" lon="10.7879994757638"><ele>357.0</ele><time>2026-03-28T12:02:27Z</time></trkpt><trkpt lat="45.6117897437934" lon="10.787889855787256"><ele>357.0</ele><time>2026-03-28T12:02:28Z</time></trkpt><trkpt lat="45.61186554678898" lon="10.787781704363637"><ele>357.0</ele><time>2026-03-28T12:02:29Z</time></trkpt><trkpt lat="45.611938770146516" lon="10.787675040629836"><ele>357.0</ele><time>2026-03-28T12:02:30Z</time></trkpt><trkpt lat="45.61197961537513" lon="10.78755026990338"><ele>355.8</ele><time>2026-03-28T12:02:31Z</time></trkpt><trkpt lat="45.61199438188509" lon="10.787409619061512"><ele>354.6</ele><time>2026-03-28T12:02:32Z</time></trkpt><trkpt lat="45.61198491389268" lon="10.787252370743612"><ele>353.40000000000003</ele><time>2026-03-28T12:02:33Z</time></trkpt><trkpt lat="45.61196214128535" lon="10.787109227298615"><ele>352.20000000000005</ele><time>2026-03-28T12:02:34Z</time></trkpt><trkpt lat="45.61193779061781" lon="10.786992709896635"><ele>351.0</ele><time>2026-03-28T12:02:35Z</time></trkpt><trkpt lat="45.61191224355587" lon="10.786871714959757"><ele>351.25</ele><time>2026-03-28T12:02:36Z</time></trkpt><trkpt lat="45.611826152128536" lon="10.78679150891546"><ele>351.5</ele><time>2026-03-28T12:02:37Z</time></trkpt><trkpt lat="45.6117354510347" lon="10.786731717586061"><ele>351.75</ele><time>2026-03-28T12:02:38Z</time></trkpt><trkpt lat="45.61162529494513" lon="10.78664977416124"><ele>352.0</ele><time>2026-03-28T12:02:39Z</time></trkpt><trkpt lat="45.611520000743155" lon="10.786540972889359"><ele>352.0</ele><time>2026-03-28T12:02:40Z</time></trkpt><trkpt lat="45.61141831372179" lon="10.786407825781595"><ele>352.0</ele><time>2026-03-28T12:02:41Z</time></trkpt><trkpt lat="45.61132491019361" lon="10.786275424604435"><ele>352.0</ele><time>2026-03-28T12:02:42Z</time></trkpt><trkpt lat="45.61123907936107" lon="10.786148296605889"><ele>352.0</ele><time>2026-03-28T12:02:43Z</time></trkpt><trkpt lat="45.61116994797801" lon="10.786036984419367"><ele>349.8</ele><time>2026-03-28T12:02:44Z</time></trkpt><trkpt lat="45.61112821869187" lon="10.78592328334825"><ele>347.6</ele><time>2026-03-28T12:02:45Z</time></trkpt><trkpt lat="45.61110434019565" lon="10.785783281931838"><ele>345.40000000000003</ele><time>2026-03-28T12:02:46Z</time></trkpt><trkpt lat="45.61105848839745" lon="10.785659481012784"><ele>343.20000000000005</ele><time>2026-03-28T12:02:47Z</time></trkpt><trkpt lat="45.61102196780216" lon="10.78555581877861"><ele>341.0</ele><time>2026-03-28T12:02:48Z</time></trkpt><trkpt lat="45.610991049693624" lon="10.785435599149398"><ele>341.0</ele><time>2026-03-28T12:02:50Z</time></trkpt><trkpt lat="45.611130011483475" lon="10.78543339935335"><ele>341.0</ele><time>2026-03-28T12:02:55Z</time></trkpt><trkpt lat="45.611219803729064" lon="10.78547775260045"><ele>341.0</ele><time>2026-03-28T12:02:56Z</time></trkpt><trkpt lat="45.61131882015341" lon="10.785476161854962"><ele>341.0</ele><time>2026-03-28T12:02:57Z</time></trkpt><trkpt lat="45.6114309739185" lon="10.785442889942248"><ele>341.0</ele><time>2026-03-28T12:02:58Z</time></trkpt><trkpt lat="45.6115487894589" lon="10.78537053613872"><ele>345.25</ele><time>2026-03-28T12:02:59Z</time></trkpt><trkpt lat="45.611651572230436" lon="10.785262431810114"><ele>349.5</ele><time>2026-03-28T12:03:00Z</time></trkpt><trkpt lat="45.611724125817304" lon="10.785119758891703"><ele>353.75</ele><time>2026-03-28T12:03:01Z</time></trkpt><trkpt lat="45.61176061767372" lon="10.784951351862885"><ele>358.0</ele><time>2026-03-28T12:03:02Z</time></trkpt><trkpt lat="45.61176406797741" lon="10.784762996062062"><ele>358.3333333333333</ele><time>2026-03-28T12:03:03Z</time></trkpt><trkpt lat="45.61175019534968" lon="10.78454804336919"><ele>358.6666666666667</ele><time>2026-03-28T12:03:04Z</time></trkpt><trkpt lat="45.61173713525805" lon="10.784307391027989"><ele>359.0</ele><time>2026-03-28T12:03:05Z</time></trkpt><trkpt lat="45.611716001378554" lon="10.784063970550113"><ele>359.6666666666667</ele><time>2026-03-28T12:03:06Z</time></trkpt><trkpt lat="45.61168563902983" lon="10.783803188108495"><ele>360.3333333333333</ele><time>2026-03-28T12:03:07Z</time></trkpt><trkpt lat="45.61165804630297" lon="10.783530160443823"><ele>361.0</ele><time>2026-03-28T12:03:08Z</time></trkpt><trkpt lat="45.611635792863225" lon="10.783255833853282"><ele>362.0</ele><time>2026-03-28T12:03:09Z</time></trkpt><trkpt lat="45.61161214231035" lon="10.782971365015792"><ele>363.0</ele><time>2026-03-28T12:03:10Z</time></trkpt><trkpt lat="45.61159503306329" lon="10.78268566494464"><ele>364.0</ele><time>2026-03-28T12:03:11Z</time></trkpt><trkpt lat="45.61158410859291" lon="10.782397340764156"><ele>366.0</ele><time>2026-03-28T12:03:12Z</time></trkpt><trkpt lat="45.61157807488979" lon="10.782109978300314"><ele>368.0</ele><time>2026-03-28T12:03:13Z</time></trkpt><trkpt lat="45.6115780107318" lon="10.781830591492989"><ele>370.0</ele><time>2026-03-28T12:03:14Z</time></trkpt><trkpt lat="45.61158091599317" lon="10.781540297140427"><ele>370.66666666666663</ele><time>2026-03-28T12:03:15Z</time></trkpt><trkpt lat="45.61157727154608" lon="10.781263221881938"><ele>371.3333333333333</ele><time>2026-03-28T12:03:16Z</time></trkpt><trkpt lat="45.61156690453735" lon="10.781000958597433"><ele>372.0</ele><time>2026-03-28T12:03:17Z</time></trkpt><trkpt lat="45.61154003691046" lon="10.780777453479839"><ele>373.3333333333333</ele><time>2026-03-28T12:03:18Z</time></trkpt><trkpt lat="45.61148170161885" lon="10.780555583075156"><ele>374.66666666666663</ele><time>2026-03-28T12:03:19Z</time></trkpt><trkpt lat="45.61139318756603" lon="10.780337287804901"><ele>376.0</ele><time>2026-03-28T12:03:20Z</time></trkpt><trkpt lat="45.611319566043356" lon="10.78017330235724"><ele>377.16666666666663</ele><time>2026-03-28T12:03:21Z</time></trkpt><trkpt lat="45.611275202673" lon="10.780051747464725"><ele>378.3333333333333</ele><time>2026-03-28T12:03:22Z</time></trkpt><trkpt lat="45.6112549719626" lon="10.779939127668607"><ele>379.5</ele><time>2026-03-28T12:03:23Z</time></trkpt><trkpt lat="45.611252455197594" lon="10.779819028193609"><ele>380.6666666666667</ele><time>2026-03-28T12:03:24Z</time></trkpt><trkpt lat="45.61125911023769" lon="10.779720337041176"><ele>381.83333333333337</ele><time>2026-03-28T12:03:25Z</time></trkpt><trkpt lat="45.61126927411092" lon="10.7796190832136"><ele>383.0</ele><time>2026-03-28T12:03:26Z</time></trkpt><trkpt lat="45.61127248615905" lon="10.779511013259793"><ele>383.0</ele><time>2026-03-28T12:03:27Z</time></trkpt><trkpt lat="45.611281108954365" lon="10.779406374805026"><ele>383.0</ele><time>2026-03-28T12:03:28Z</time></trkpt><trkpt lat="45.61129594895518" lon="10.779263532749786"><ele>383.0</ele><time>2026-03-28T12:03:30Z</time></trkpt><trkpt lat="45.61127966654529" lon="10.779397982093862"><ele>383.0</ele><time>2026-03-28T12:03:37Z</time></trkpt><trkpt lat="45.61167082497838" lon="10.778895228002703"><ele>383.0</ele><time>2026-03-28T12:03:38Z</time></trkpt><trkpt lat="45.611690249603946" lon="10.77949783730802"><ele>383.0</ele><time>2026-03-28T12:03:39Z</time></trkpt><trkpt lat="45.611517146879166" lon="10.779930927241102"><ele>383.0</ele><time>2026-03-28T12:03:40Z</time></trkpt><trkpt lat="45.61120334665972" lon="10.780178707740589"><ele>383.0</ele><time>2026-03-28T12:03:45Z</time></trkpt><trkpt lat="45.61112618741364" lon="10.780192372122617"><ele>383.0</ele><time>2026-03-28T12:03:46Z</time></trkpt><trkpt lat="45.61101642814108" lon="10.780198690733078"><ele>380.83333333333337</ele><time>2026-03-28T12:03:47Z</time></trkpt><trkpt lat="45.61092699481095" lon="10.780204122072526"><ele>378.6666666666667</ele><time>2026-03-28T12:03:48Z</time></trkpt><trkpt lat="45.61085983875174" lon="10.780194256243163"><ele>376.5</ele><time>2026-03-28T12:03:49Z</time></trkpt><trkpt lat="45.61077988854729" lon="10.780118670174764"><ele>374.3333333333333</ele><time>2026-03-28T12:03:51Z</time></trkpt><trkpt lat="45.61071914740682" lon="10.780071320034986"><ele>372.16666666666663</ele><time>2026-03-28T12:03:53Z</time></trkpt><trkpt lat="45.6106415097451" lon="10.780018967784887"><ele>370.0</ele><time>2026-03-28T12:03:54Z</time></trkpt><trkpt lat="45.61053461477494" lon="10.779956513115382"><ele>370.0</ele><time>2026-03-28T12:03:55Z</time></trkpt><trkpt lat="45.610427840440146" lon="10.77992092192627"><ele>370.0</ele><time>2026-03-28T12:03:56Z</time></trkpt><trkpt lat="45.61033234652644" lon="10.77988831625516"><ele>370.0</ele><time>2026-03-28T12:03:57Z</time></trkpt><trkpt lat="45.61023764590725" lon="10.77986614329218"><ele>370.0</ele><time>2026-03-28T12:03:58Z</time></trkpt><trkpt lat="45.61014656924986" lon="10.77983594180715"><ele>370.0</ele><time>2026-03-28T12:03:59Z</time></trkpt><trkpt lat="45.610055424345624" lon="10.779802274431766"><ele>367.2</ele><time>2026-03-28T12:04:00Z</time></trkpt><trkpt lat="45.60997062738173" lon="10.779760369686057"><ele>364.4</ele><time>2026-03-28T12:04:01Z</time></trkpt><trkpt lat="45.60986853081935" lon="10.779732654763233"><ele>361.6</ele><time>2026-03-28T12:04:02Z</time></trkpt><trkpt lat="45.60978954999977" lon="10.779718913809015"><ele>358.8</ele><time>2026-03-28T12:04:03Z</time></trkpt><trkpt lat="45.609700782863754" lon="10.77973970425341"><ele>356.0</ele><time>2026-03-28T12:04:04Z</time></trkpt><trkpt lat="45.60960433197757" lon="10.779752138249712"><ele>356.0</ele><time>2026-03-28T12:04:05Z</time></trkpt><trkpt lat="45.609514685622194" lon="10.779779310519736"><ele>356.0</ele><time>2026-03-28T12:04:06Z</time></trkpt><trkpt lat="45.6094185943438" lon="10.779804983108788"><ele>356.0</ele><time>2026-03-28T12:04:07Z</time></trkpt><trkpt lat="45.609326871422084" lon="10.779814059908048"><ele>356.0</ele><time>2026-03-28T12:04:08Z</time></trkpt><trkpt lat="45.60923832107865" lon="10.779775448151833"><ele>356.0</ele><time>2026-03-28T12:04:09Z</time></trkpt><trkpt lat="45.60913481914143" lon="10.779751247056293"><ele>352.4</ele><time>2026-03-28T12:04:10Z</time></trkpt><trkpt lat="45.6090167980033" lon="10.779753414846677"><ele>348.8</ele><time>2026-03-28T12:04:11Z</time></trkpt><trkpt lat="45.60891780232378" lon="10.779722675269962"><ele>345.2</ele><time>2026-03-28T12:04:12Z</time></trkpt><trkpt lat="45.608825305434245" lon="10.779693414563603"><ele>341.59999999999997</ele><time>2026-03-28T12:04:13Z</time></trkpt><trkpt lat="45.60873854022716" lon="10.779611857055752"><ele>338.0</ele><time>2026-03-28T12:04:14Z</time></trkpt><trkpt lat="45.60862994185177" lon="10.77955762644451"><ele>336.4</ele><time>2026-03-28T12:04:15Z</time></trkpt><trkpt lat="45.60853114746747" lon="10.779475405969414"><ele>334.79999999999995</ele><time>2026-03-28T12:04:16Z</time></trkpt><trkpt lat="45.608424120345596" lon="10.779416756488954"><ele>333.2</ele><time>2026-03-28T12:04:17Z</time></trkpt><trkpt lat="45.60832192150163" lon="10.779367387185433"><ele>331.6</ele><time>2026-03-28T12:04:18Z</time></trkpt><trkpt lat="45.6082272855633" lon="10.779327855138966"><ele>330.0</ele><time>2026-03-28T12:04:19Z</time></trkpt><trkpt lat="45.60813528442429" lon="10.779293207695108"><ele>330.0</ele><time>2026-03-28T12:04:20Z</time></trkpt><trkpt lat="45.608048542154314" lon="10.779255412563908"><ele>330.0</ele><time>2026-03-28T12:04:21Z</time></trkpt><trkpt lat="45.60796892674302" lon="10.779207231210062"><ele>330.0</ele><time>2026-03-28T12:04:22Z</time></trkpt><trkpt lat="45.607892687737156" lon="10.779169828490678"><ele>330.0</ele><time>2026-03-28T12:04:23Z</time></trkpt><trkpt lat="45.607787835357506" lon="10.779110923954125"><ele>330.0</ele><time>2026-03-28T12:04:25Z</time></trkpt><trkpt lat="45.60768880096952" lon="10.779049914682794"><ele>329.0</ele><time>2026-03-28T12:04:27Z</time></trkpt><trkpt lat="45.60762841656877" lon="10.779007691633723"><ele>328.0</ele><time>2026-03-28T12:04:28Z</time></trkpt><trkpt lat="45.607560969714015" lon="10.778969790543378"><ele>327.0</ele><time>2026-03-28T12:04:29Z</time></trkpt><trkpt lat="45.60746705129303" lon="10.778917988903014"><ele>326.0</ele><time>2026-03-28T12:04:30Z</time></trkpt><trkpt lat="45.60737504229676" lon="10.778876264032561"><ele>325.0</ele><time>2026-03-28T12:04:31Z</time></trkpt><trkpt lat="45.60728067470989" lon="10.77884388094251"><ele>324.0</ele><time>2026-03-28T12:04:32Z</time></trkpt><trkpt lat="45.607188389492244" lon="10.778816750411742"><ele>324.0</ele><time>2026-03-28T12:04:33Z</time></trkpt><trkpt lat="45.60708812007684" lon="10.77880568560939"><ele>324.0</ele><time>2026-03-28T12:04:34Z</time></trkpt><trkpt lat="45.606970419479794" lon="10.778803321234685"><ele>324.0</ele><time>2026-03-28T12:04:35Z</time></trkpt><trkpt lat="45.60686128256682" lon="10.778787926506"><ele>324.0</ele><time>2026-03-28T12:04:36Z</time></trkpt><trkpt lat="45.60675416678533" lon="10.778774012499833"><ele>324.0</ele><time>2026-03-28T12:04:37Z</time></trkpt><trkpt lat="45.60665840433506" lon="10.778745122007287"><ele>322.0</ele><time>2026-03-28T12:04:38Z</time></trkpt><trkpt lat="45.60656395196591" lon="10.778705835309765"><ele>320.0</ele><time>2026-03-28T12:04:39Z</time></trkpt><trkpt lat="45.606485715506885" lon="10.778672563624184"><ele>318.0</ele><time>2026-03-28T12:04:40Z</time></trkpt><trkpt lat="45.60641420850935" lon="10.778606669483436"><ele>316.0</ele><time>2026-03-28T12:04:41Z</time></trkpt><trkpt lat="45.60634047584819" lon="10.778582200175963"><ele>314.0</ele><time>2026-03-28T12:04:42Z</time></trkpt><trkpt lat="45.60624645638161" lon="10.778545646869672"><ele>312.0</ele><time>2026-03-28T12:04:43Z</time></trkpt><trkpt lat="45.60616556801788" lon="10.778521023903933"><ele>308.3333333333333</ele><time>2026-03-28T12:04:44Z</time></trkpt><trkpt lat="45.60609693167605" lon="10.778499493815122"><ele>304.6666666666667</ele><time>2026-03-28T12:04:45Z</time></trkpt><trkpt lat="45.606023950081315" lon="10.77847575636918"><ele>301.0</ele><time>2026-03-28T12:04:47Z</time></trkpt><trkpt lat="45.60594458246808" lon="10.778449941843766"><ele>297.33333333333337</ele><time>2026-03-28T12:04:49Z</time></trkpt><trkpt lat="45.60587430609462" lon="10.778429716679149"><ele>293.6666666666667</ele><time>2026-03-28T12:04:51Z</time></trkpt><trkpt lat="45.60578327018388" lon="10.778407723727838"><ele>290.0</ele><time>2026-03-28T12:04:54Z</time></trkpt><trkpt lat="45.60570260443434" lon="10.77839541132816"><ele>290.0</ele><time>2026-03-28T12:04:56Z</time></trkpt><trkpt lat="45.60558480425015" lon="10.778381421731675"><ele>290.0</ele><time>2026-03-28T12:04:58Z</time></trkpt><trkpt lat="45.60548289760332" lon="10.778370842520633"><ele>290.0</ele><time>2026-03-28T12:05:00Z</time></trkpt><trkpt lat="45.605390468008885" lon="10.778365830182755"><ele>290.0</ele><time>2026-03-28T12:05:02Z</time></trkpt><trkpt lat="45.60528749915036" lon="10.778369912843063"><ele>290.0</ele><time>2026-03-28T12:05:04Z</time></trkpt><trkpt lat="45.605191392566645" lon="10.778402352286687"><ele>286.8</ele><time>2026-03-28T12:05:06Z</time></trkpt><trkpt lat="45.60512717034606" lon="10.778398449019154"><ele>283.6</ele><time>2026-03-28T12:05:07Z</time></trkpt><trkpt lat="45.605060489494896" lon="10.778396251322594"><ele>280.4</ele><time>2026-03-28T12:05:08Z</time></trkpt><trkpt lat="45.604947944128135" lon="10.778337095704543"><ele>277.2</ele><time>2026-03-28T12:05:10Z</time></trkpt><trkpt lat="45.604820975052995" lon="10.778295432755296"><ele>274.0</ele><time>2026-03-28T12:05:12Z</time></trkpt><trkpt lat="45.604714601970095" lon="10.778266852527135"><ele>274.0</ele><time>2026-03-28T12:05:14Z</time></trkpt><trkpt lat="45.60464395028415" lon="10.77824771911695"><ele>274.0</ele><time>2026-03-28T12:05:16Z</time></trkpt><trkpt lat="45.60456038661736" lon="10.778237884586558"><ele>274.0</ele><time>2026-03-28T12:05:19Z</time></trkpt><trkpt lat="45.60450879058647" lon="10.77818015247279"><ele>274.0</ele><time>2026-03-28T12:05:21Z</time></trkpt><trkpt lat="45.6044143355703" lon="10.778174993857284"><ele>274.0</ele><time>2026-03-28T12:05:24Z</time></trkpt><trkpt lat="45.604334924353566" lon="10.778161688854166"><ele>274.0</ele><time>2026-03-28T12:05:26Z</time></trkpt><trkpt lat="45.604244920538896" lon="10.778162583909166"><ele>271.59999999999997</ele><time>2026-03-28T12:05:28Z</time></trkpt><trkpt lat="45.604140613078606" lon="10.778135350314447"><ele>269.2</ele><time>2026-03-28T12:05:30Z</time></trkpt><trkpt lat="45.60403796292181" lon="10.778140900500642"><ele>266.79999999999995</ele><time>2026-03-28T12:05:32Z</time></trkpt><trkpt lat="45.60389128954302" lon="10.778126094371446"><ele>264.4</ele><time>2026-03-28T12:05:34Z</time></trkpt><trkpt lat="45.60381812332331" lon="10.778103485268497"><ele>262.0</ele><time>2026-03-28T12:05:35Z</time></trkpt><trkpt lat="45.60373208718093" lon="10.778079417645488"><ele>259.8</ele><time>2026-03-28T12:05:36Z</time></trkpt><trkpt lat="45.60362418463691" lon="10.778056560833312"><ele>257.6</ele><time>2026-03-28T12:05:37Z</time></trkpt><trkpt lat="45.60351535571613" lon="10.778027769583296"><ele>255.40000000000003</ele><time>2026-03-28T12:05:38Z</time></trkpt><trkpt lat="45.60342493220615" lon="10.778040784360622"><ele>253.20000000000002</ele><time>2026-03-28T12:05:39Z</time></trkpt><trkpt lat="45.603341298511644" lon="10.77805475271043"><ele>251.0</ele><time>2026-03-28T12:05:40Z</time></trkpt><trkpt lat="45.603250132747654" lon="10.778043977670077"><ele>251.0</ele><time>2026-03-28T12:05:42Z</time></trkpt><trkpt lat="45.60317398102831" lon="10.778065753596028"><ele>251.00000000000003</ele><time>2026-03-28T12:05:45Z</time></trkpt><trkpt lat="45.603101649071974" lon="10.778089207420475"><ele>251.00000000000003</ele><time>2026-03-28T12:05:51Z</time></trkpt><trkpt lat="45.60314405599753" lon="10.778274358433901"><ele>251.0</ele><time>2026-03-28T12:05:52Z</time></trkpt><trkpt lat="45.603200488947955" lon="10.778413719820925"><ele>251.0</ele><time>2026-03-28T12:05:53Z</time></trkpt><trkpt lat="45.60325277502916" lon="10.778552139564768"><ele>250.25</ele><time>2026-03-28T12:05:54Z</time></trkpt><trkpt lat="45.60330156578084" lon="10.778709243592166"><ele>249.5</ele><time>2026-03-28T12:05:55Z</time></trkpt><trkpt lat="45.603348978937724" lon="10.778891584942906"><ele>248.75</ele><time>2026-03-28T12:05:56Z</time></trkpt><trkpt lat="45.603394748409926" lon="10.779074295262804"><ele>248.0</ele><time>2026-03-28T12:05:57Z</time></trkpt><trkpt lat="45.60344041279258" lon="10.779268359052413"><ele>247.0</ele><time>2026-03-28T12:05:58Z</time></trkpt><trkpt lat="45.603466555691206" lon="10.7794848225008"><ele>246.0</ele><time>2026-03-28T12:05:59Z</time></trkpt><trkpt lat="45.603502567786045" lon="10.77971289853977"><ele>245.0</ele><time>2026-03-28T12:06:00Z</time></trkpt><trkpt lat="45.60355293907487" lon="10.779951339838778"><ele>245.0</ele><time>2026-03-28T12:06:01Z</time></trkpt><trkpt lat="45.603588502983705" lon="10.780175717231085"><ele>245.0</ele><time>2026-03-28T12:06:02Z</time></trkpt><trkpt lat="45.60360965456058" lon="10.780416158559154"><ele>245.0</ele><time>2026-03-28T12:06:03Z</time></trkpt><trkpt lat="45.60364940719157" lon="10.780677222107526"><ele>248.0</ele><time>2026-03-28T12:06:04Z</time></trkpt><trkpt lat="45.60369342781466" lon="10.780955809569965"><ele>251.0</ele><time>2026-03-28T12:06:05Z</time></trkpt><trkpt lat="45.60374750246497" lon="10.781202643650264"><ele>254.0</ele><time>2026-03-28T12:06:06Z</time></trkpt><trkpt lat="45.60378061737002" lon="10.78141639666467"><ele>254.25</ele><time>2026-03-28T12:06:07Z</time></trkpt><trkpt lat="45.603801817013306" lon="10.781571781567251"><ele>254.5</ele><time>2026-03-28T12:06:08Z</time></trkpt><trkpt lat="45.60381344303153" lon="10.781673648274289"><ele>254.75</ele><time>2026-03-28T12:06:09Z</time></trkpt><trkpt lat="45.60380259120882" lon="10.781773475457646"><ele>255.0</ele><time>2026-03-28T12:06:11Z</time></trkpt><trkpt lat="45.604064527545205" lon="10.782252072044713"><ele>255.0</ele><time>2026-03-28T12:06:18Z</time></trkpt><trkpt lat="45.60432225582417" lon="10.781241598742888"><ele>255.0</ele><time>2026-03-28T12:06:19Z</time></trkpt><trkpt lat="45.60430634977714" lon="10.78114579586796"><ele>255.0</ele><time>2026-03-28T12:06:20Z</time></trkpt><trkpt lat="45.60428210744953" lon="10.78099973924228"><ele>255.0</ele><time>2026-03-28T12:06:22Z</time></trkpt><trkpt lat="45.60355915548735" lon="10.780740269566802"><ele>252.33333333333331</ele><time>2026-03-28T12:06:24Z</time></trkpt><trkpt lat="45.603603798415534" lon="10.781287528199053"><ele>249.66666666666666</ele><time>2026-03-28T12:06:26Z</time></trkpt><trkpt lat="45.60354584181525" lon="10.781325634479138"><ele>247.0</ele><time>2026-03-28T12:06:28Z</time></trkpt><trkpt lat="45.603406511565005" lon="10.781335291099277"><ele>247.0</ele><time>2026-03-28T12:06:30Z</time></trkpt><trkpt lat="45.60329043402413" lon="10.781353936559814"><ele>247.0</ele><time>2026-03-28T12:06:31Z</time></trkpt><trkpt lat="45.60320021546656" lon="10.781380255759354"><ele>247.0</ele><time>2026-03-28T12:06:32Z</time></trkpt><trkpt lat="45.60311172927307" lon="10.78140575540945"><ele>247.0</ele><time>2026-03-28T12:06:33Z</time></trkpt><trkpt lat="45.60299745499299" lon="10.781431841315829"><ele>247.0</ele><time>2026-03-28T12:06:34Z</time></trkpt><trkpt lat="45.602885551627885" lon="10.781463191376591"><ele>245.99999999999997</ele><time>2026-03-28T12:06:35Z</time></trkpt><trkpt lat="45.60279139505743" lon="10.781475221367455"><ele>245.0</ele><time>2026-03-28T12:06:36Z</time></trkpt><trkpt lat="45.60271399492357" lon="10.781487138819543"><ele>244.0</ele><time>2026-03-28T12:06:37Z</time></trkpt><trkpt lat="45.602646650101676" lon="10.781494679855912"><ele>243.0</ele><time>2026-03-28T12:06:38Z</time></trkpt><trkpt lat="45.602524553182064" lon="10.781537221896254"><ele>241.99999999999997</ele><time>2026-03-28T12:06:40Z</time></trkpt><trkpt lat="45.60245914882255" lon="10.781557985463254"><ele>241.0</ele><time>2026-03-28T12:06:41Z</time></trkpt><trkpt lat="45.60238451353104" lon="10.78158772836383"><ele>240.99999999999997</ele><time>2026-03-28T12:06:42Z</time></trkpt><trkpt lat="45.60231651155471" lon="10.78161492537408"><ele>241.0</ele><time>2026-03-28T12:06:43Z</time></trkpt><trkpt lat="45.60225494208541" lon="10.781643633161208"><ele>241.0</ele><time>2026-03-28T12:06:44Z</time></trkpt><trkpt lat="45.60217508999053" lon="10.781690513620065"><ele>241.0</ele><time>2026-03-28T12:06:46Z</time></trkpt><trkpt lat="45.6021567892932" lon="10.781839883327613"><ele>240.99999999999997</ele><time>2026-03-28T12:06:48Z</time></trkpt><trkpt lat="45.60218405656783" lon="10.781947793840974"><ele>241.0</ele><time>2026-03-28T12:06:49Z</time></trkpt><trkpt lat="45.60222270548414" lon="10.782081756761212"><ele>241.4</ele><time>2026-03-28T12:06:50Z</time></trkpt><trkpt lat="45.6022646177821" lon="10.782241407389018"><ele>241.8</ele><time>2026-03-28T12:06:51Z</time></trkpt><trkpt lat="45.60229927364509" lon="10.782372102541148"><ele>242.20000000000002</ele><time>2026-03-28T12:06:52Z</time></trkpt><trkpt lat="45.60232584990064" lon="10.782483455122895"><ele>242.60000000000002</ele><time>2026-03-28T12:06:53Z</time></trkpt><trkpt lat="45.60232342261374" lon="10.782604190318173"><ele>243.0</ele><time>2026-03-28T12:06:55Z</time></trkpt><trkpt lat="45.602214846638866" lon="10.782654094418188"><ele>243.0</ele><time>2026-03-28T12:06:57Z</time></trkpt><trkpt lat="45.60210967560525" lon="10.782691984469485"><ele>243.0</ele><time>2026-03-28T12:06:58Z</time></trkpt><trkpt lat="45.60199285201243" lon="10.782750658130741"><ele>243.0</ele><time>2026-03-28T12:06:59Z</time></trkpt><trkpt lat="45.60184549552949" lon="10.782824799451962"><ele>243.0</ele><time>2026-03-28T12:07:00Z</time></trkpt><trkpt lat="45.60168422587829" lon="10.782908400868273"><ele>241.75</ele><time>2026-03-28T12:07:01Z</time></trkpt><trkpt lat="45.60153010830971" lon="10.782992502741067"><ele>240.5</ele><time>2026-03-28T12:07:02Z</time></trkpt><trkpt lat="45.60140227798965" lon="10.783056053129876"><ele>239.25</ele><time>2026-03-28T12:07:03Z</time></trkpt><trkpt lat="45.60129916374859" lon="10.783107535211055"><ele>238.0</ele><time>2026-03-28T12:07:04Z</time></trkpt><trkpt lat="45.60121498711683" lon="10.783151279934533"><ele>237.4</ele><time>2026-03-28T12:07:05Z</time></trkpt><trkpt lat="45.60114656055147" lon="10.783189395681777"><ele>236.8</ele><time>2026-03-28T12:07:06Z</time></trkpt><trkpt lat="45.60105007765271" lon="10.78322672854785"><ele>236.2</ele><time>2026-03-28T12:07:08Z</time></trkpt><trkpt lat="45.60097461398782" lon="10.783314532974913"><ele>235.6</ele><time>2026-03-28T12:07:15Z</time></trkpt><trkpt lat="45.60085756802852" lon="10.783389172073148"><ele>235.0</ele><time>2026-03-28T12:07:17Z</time></trkpt><trkpt lat="45.60078939063259" lon="10.783417542496334"><ele>234.99999999999997</ele><time>2026-03-28T12:07:18Z</time></trkpt><trkpt lat="45.60072329444927" lon="10.783462101113145"><ele>235.0</ele><time>2026-03-28T12:07:19Z</time></trkpt><trkpt lat="45.600646649373836" lon="10.7835012051611"><ele>235.0</ele><time>2026-03-28T12:07:21Z</time></trkpt><trkpt lat="45.60059193917434" lon="10.783444846342237"><ele>235.0</ele><time>2026-03-28T12:07:23Z</time></trkpt><trkpt lat="45.60054907812681" lon="10.783348448899034"><ele>234.99999999999997</ele><time>2026-03-28T12:07:24Z</time></trkpt><trkpt lat="45.60051241035598" lon="10.783200785113152"><ele>235.0</ele><time>2026-03-28T12:07:25Z</time></trkpt><trkpt lat="45.60047814598332" lon="10.783047696984164"><ele>235.0</ele><time>2026-03-28T12:07:26Z</time></trkpt><trkpt lat="45.600424480422504" lon="10.782878809939932"><ele>235.0</ele><time>2026-03-28T12:07:27Z</time></trkpt><trkpt lat="45.60036090410085" lon="10.782708580638523"><ele>235.0</ele><time>2026-03-28T12:07:28Z</time></trkpt><trkpt lat="45.60028678863432" lon="10.782513503946388"><ele>235.0</ele><time>2026-03-28T12:07:29Z</time></trkpt><trkpt lat="45.60020670888509" lon="10.782305084974617"><ele>234.0</ele><time>2026-03-28T12:07:30Z</time></trkpt><trkpt lat="45.60011946084931" lon="10.782084895526898"><ele>233.0</ele><time>2026-03-28T12:07:31Z</time></trkpt><trkpt lat="45.60003574591838" lon="10.781858504452082"><ele>232.0</ele><time>2026-03-28T12:07:32Z</time></trkpt><trkpt lat="45.59995140014214" lon="10.78163067869211"><ele>231.66666666666666</ele><time>2026-03-28T12:07:33Z</time></trkpt><trkpt lat="45.59986567192975" lon="10.781408904743964"><ele>231.33333333333331</ele><time>2026-03-28T12:07:34Z</time></trkpt><trkpt lat="45.59976647265172" lon="10.781154654592005"><ele>231.0</ele><time>2026-03-28T12:07:35Z</time></trkpt><trkpt lat="45.599666843800726" lon="10.780892018594065"><ele>231.0</ele><time>2026-03-28T12:07:36Z</time></trkpt><trkpt lat="45.59956931035547" lon="10.7806305734884"><ele>231.0</ele><time>2026-03-28T12:07:37Z</time></trkpt><trkpt lat="45.59947807019615" lon="10.780377994572703"><ele>231.0</ele><time>2026-03-28T12:07:38Z</time></trkpt><trkpt lat="45.59938566058777" lon="10.780124899883702"><ele>231.0</ele><time>2026-03-28T12:07:39Z</time></trkpt><trkpt lat="45.599290407375015" lon="10.779860137874174"><ele>231.0</ele><time>2026-03-28T12:07:40Z</time></trkpt><trkpt lat="45.59919357861098" lon="10.779602629497036"><ele>231.0</ele><time>2026-03-28T12:07:41Z</time></trkpt><trkpt lat="45.5990805617846" lon="10.779346179088279"><ele>231.33333333333331</ele><time>2026-03-28T12:07:42Z</time></trkpt><trkpt lat="45.59895940255547" lon="10.779105379410707"><ele>231.66666666666666</ele><time>2026-03-28T12:07:43Z</time></trkpt><trkpt lat="45.598832681233326" lon="10.77885854859281"><ele>232.0</ele><time>2026-03-28T12:07:44Z</time></trkpt><trkpt lat="45.59870920295863" lon="10.778625766523685"><ele>231.0</ele><time>2026-03-28T12:07:45Z</time></trkpt><trkpt lat="45.59858526318857" lon="10.778385143450938"><ele>230.0</ele><time>2026-03-28T12:07:46Z</time></trkpt><trkpt lat="45.59846643276041" lon="10.778141369250644"><ele>229.0</ele><time>2026-03-28T12:07:47Z</time></trkpt><trkpt lat="45.59834775157901" lon="10.777884895127617"><ele>230.0</ele><time>2026-03-28T12:07:48Z</time></trkpt><trkpt lat="45.59823596432849" lon="10.777623395977113"><ele>231.0</ele><time>2026-03-28T12:07:49Z</time></trkpt><trkpt lat="45.598131114347666" lon="10.777353260208889"><ele>232.0</ele><time>2026-03-28T12:07:50Z</time></trkpt><trkpt lat="45.598033933120526" lon="10.777083034140578"><ele>232.33333333333331</ele><time>2026-03-28T12:07:51Z</time></trkpt><trkpt lat="45.5979321775009" lon="10.776811883408882"><ele>232.66666666666669</ele><time>2026-03-28T12:07:52Z</time></trkpt><trkpt lat="45.59784978832058" lon="10.776542130556692"><ele>233.0</ele><time>2026-03-28T12:07:53Z</time></trkpt><trkpt lat="45.59776567778003" lon="10.776281571096913"><ele>232.33333333333334</ele><time>2026-03-28T12:07:54Z</time></trkpt><trkpt lat="45.597685263737816" lon="10.776021563782225"><ele>231.66666666666669</ele><time>2026-03-28T12:07:55Z</time></trkpt><trkpt lat="45.5976053167467" lon="10.775762898414323"><ele>231.0</ele><time>2026-03-28T12:07:56Z</time></trkpt><trkpt lat="45.597527189750444" lon="10.775514162140333"><ele>230.0</ele><time>2026-03-28T12:07:57Z</time></trkpt><trkpt lat="45.59745379231711" lon="10.775269160157459"><ele>229.0</ele><time>2026-03-28T12:07:58Z</time></trkpt><trkpt lat="45.59738294483462" lon="10.775042152554809"><ele>228.0</ele><time>2026-03-28T12:07:59Z</time></trkpt><trkpt lat="45.597319851892685" lon="10.774836006379239"><ele>228.0</ele><time>2026-03-28T12:08:00Z</time></trkpt><trkpt lat="45.59726329682274" lon="10.77465802527379"><ele>228.0</ele><time>2026-03-28T12:08:01Z</time></trkpt><trkpt lat="45.597221087687814" lon="10.774508328835843"><ele>228.0</ele><time>2026-03-28T12:08:02Z</time></trkpt><trkpt lat="45.59718426581534" lon="10.774375197736148"><ele>228.0</ele><time>2026-03-28T12:08:03Z</time></trkpt><trkpt lat="45.597161467789526" lon="10.774235197835466"><ele>228.0</ele><time>2026-03-28T12:08:04Z</time></trkpt><trkpt lat="45.59714133776636" lon="10.774118180715467"><ele>228.0</ele><time>2026-03-28T12:08:05Z</time></trkpt><trkpt lat="45.59710863445523" lon="10.774019662862402"><ele>228.0</ele><time>2026-03-28T12:08:06Z</time></trkpt><trkpt lat="45.597078481462276" lon="10.773933533624843"><ele>228.0</ele><time>2026-03-28T12:08:07Z</time></trkpt><trkpt lat="45.597002877763146" lon="10.773825268563334"><ele>228.0</ele><time>2026-03-28T12:08:09Z</time></trkpt><trkpt lat="45.596928638309414" lon="10.773904858845645"><ele>228.0</ele><time>2026-03-28T12:08:10Z</time></trkpt><trkpt lat="45.5968628873614" lon="10.773949159975684"><ele>227.0</ele><time>2026-03-28T12:08:11Z</time></trkpt><trkpt lat="45.596753863403784" lon="10.773931766414021"><ele>226.0</ele><time>2026-03-28T12:08:12Z</time></trkpt><trkpt lat="45.59664025045125" lon="10.774004840279241"><ele>225.0</ele><time>2026-03-28T12:08:13Z</time></trkpt><trkpt lat="45.59652964595315" lon="10.774107588231146"><ele>224.0</ele><time>2026-03-28T12:08:14Z</time></trkpt><trkpt lat="45.596419328818655" lon="10.774242234400978"><ele>224.0</ele><time>2026-03-28T12:08:15Z</time></trkpt><trkpt lat="45.5963230474118" lon="10.77439520994099"><ele>224.0</ele><time>2026-03-28T12:08:16Z</time></trkpt><trkpt lat="45.59622922366679" lon="10.774525976571589"><ele>224.0</ele><time>2026-03-28T12:08:17Z</time></trkpt><trkpt lat="45.59615648867803" lon="10.77464761838334"><ele>224.0</ele><time>2026-03-28T12:08:18Z</time></trkpt><trkpt lat="45.5960963287101" lon="10.774760536031048"><ele>223.75</ele><time>2026-03-28T12:08:19Z</time></trkpt><trkpt lat="45.59602470792668" lon="10.774895835890362"><ele>223.5</ele><time>2026-03-28T12:08:20Z</time></trkpt><trkpt lat="45.59592190800843" lon="10.775023492590332"><ele>223.25</ele><time>2026-03-28T12:08:21Z</time></trkpt><trkpt lat="45.59579549949445" lon="10.775141194439245"><ele>223.0</ele><time>2026-03-28T12:08:22Z</time></trkpt><trkpt lat="45.59564415416037" lon="10.775258532658816"><ele>224.0</ele><time>2026-03-28T12:08:23Z</time></trkpt><trkpt lat="45.595481006516295" lon="10.77538150287053"><ele>225.0</ele><time>2026-03-28T12:08:24Z</time></trkpt><trkpt lat="45.595319633522365" lon="10.775527920357606"><ele>226.0</ele><time>2026-03-28T12:08:25Z</time></trkpt><trkpt lat="45.59515508055429" lon="10.775672891146032"><ele>226.0</ele><time>2026-03-28T12:08:26Z</time></trkpt><trkpt lat="45.595005562480814" lon="10.775822741714613"><ele>226.0</ele><time>2026-03-28T12:08:27Z</time></trkpt><trkpt lat="45.59486728571184" lon="10.775969151301465"><ele>226.0</ele><time>2026-03-28T12:08:28Z</time></trkpt><trkpt lat="45.594764190745224" lon="10.776084996318021"><ele>226.25</ele><time>2026-03-28T12:08:29Z</time></trkpt><trkpt lat="45.59469310849529" lon="10.77616589402902"><ele>226.5</ele><time>2026-03-28T12:08:30Z</time></trkpt><trkpt lat="45.594636488054356" lon="10.77621619860076"><ele>226.75</ele><time>2026-03-28T12:08:32Z</time></trkpt><trkpt lat="45.594479232451754" lon="10.776009347779821"><ele>227.0</ele><time>2026-03-28T12:08:37Z</time></trkpt><trkpt lat="45.5944059728155" lon="10.775895730168566"><ele>226.5</ele><time>2026-03-28T12:08:38Z</time></trkpt><trkpt lat="45.59430870051013" lon="10.775771973938806"><ele>226.0</ele><time>2026-03-28T12:08:39Z</time></trkpt><trkpt lat="45.594202020958" lon="10.775635472605032"><ele>225.5</ele><time>2026-03-28T12:08:40Z</time></trkpt><trkpt lat="45.59408598513046" lon="10.775481471560148"><ele>225.0</ele><time>2026-03-28T12:08:41Z</time></trkpt><trkpt lat="45.59397017177715" lon="10.775322759533628"><ele>224.75</ele><time>2026-03-28T12:08:42Z</time></trkpt><trkpt lat="45.59385599072156" lon="10.775166371677201"><ele>224.5</ele><time>2026-03-28T12:08:43Z</time></trkpt><trkpt lat="45.59374900459396" lon="10.775025321360893"><ele>224.25</ele><time>2026-03-28T12:08:44Z</time></trkpt><trkpt lat="45.593648050464175" lon="10.774890423984063"><ele>224.0</ele><time>2026-03-28T12:08:45Z</time></trkpt><trkpt lat="45.59355451468445" lon="10.77478763533015"><ele>224.0</ele><time>2026-03-28T12:08:46Z</time></trkpt><trkpt lat="45.593443744222675" lon="10.774683201939178"><ele>224.0</ele><time>2026-03-28T12:08:47Z</time></trkpt><trkpt lat="45.59332267582617" lon="10.774610664384184"><ele>224.0</ele><time>2026-03-28T12:08:48Z</time></trkpt><trkpt lat="45.5931754033931" lon="10.774540681216994"><ele>224.0</ele><time>2026-03-28T12:08:49Z</time></trkpt><trkpt lat="45.593010082379074" lon="10.77446278878831"><ele>224.0</ele><time>2026-03-28T12:08:50Z</time></trkpt><trkpt lat="45.5928299326768" lon="10.774374307266052"><ele>224.0</ele><time>2026-03-28T12:08:51Z</time></trkpt><trkpt lat="45.59266876952995" lon="10.774286424775752"><ele>224.0</ele><time>2026-03-28T12:08:52Z</time></trkpt><trkpt lat="45.59250846476299" lon="10.7741976079451"><ele>224.33333333333334</ele><time>2026-03-28T12:08:53Z</time></trkpt><trkpt lat="45.59235650022166" lon="10.774104895302491"><ele>224.66666666666669</ele><time>2026-03-28T12:08:54Z</time></trkpt><trkpt lat="45.592215311525564" lon="10.774016285826237"><ele>225.0</ele><time>2026-03-28T12:08:55Z</time></trkpt><trkpt lat="45.59208120597879" lon="10.77394279904148"><ele>224.5</ele><time>2026-03-28T12:08:56Z</time></trkpt><trkpt lat="45.59195105471648" lon="10.773881231852904"><ele>224.0</ele><time>2026-03-28T12:08:57Z</time></trkpt><trkpt lat="45.5918135691492" lon="10.773815067419706"><ele>223.5</ele><time>2026-03-28T12:08:58Z</time></trkpt><trkpt lat="45.591660528367846" lon="10.773737603027099"><ele>223.0</ele><time>2026-03-28T12:08:59Z</time></trkpt><trkpt lat="45.591504089074604" lon="10.773656895940489"><ele>223.0</ele><time>2026-03-28T12:09:00Z</time></trkpt><trkpt lat="45.59136021542868" lon="10.773579822620801"><ele>223.0</ele><time>2026-03-28T12:09:01Z</time></trkpt><trkpt lat="45.591220736846225" lon="10.773504254082114"><ele>223.0</ele><time>2026-03-28T12:09:02Z</time></trkpt><trkpt lat="45.591085288704235" lon="10.77342940140013"><ele>223.0</ele><time>2026-03-28T12:09:03Z</time></trkpt><trkpt lat="45.590972130082264" lon="10.773363475561274"><ele>222.5</ele><time>2026-03-28T12:09:04Z</time></trkpt><trkpt lat="45.590862537708794" lon="10.773290430481575"><ele>222.0</ele><time>2026-03-28T12:09:05Z</time></trkpt><trkpt lat="45.59075579271296" lon="10.773192118492773"><ele>221.5</ele><time>2026-03-28T12:09:06Z</time></trkpt><trkpt lat="45.59065686263328" lon="10.773082833282356"><ele>221.0</ele><time>2026-03-28T12:09:07Z</time></trkpt><trkpt lat="45.590581051737125" lon="10.772985143944615"><ele>221.0</ele><time>2026-03-28T12:09:08Z</time></trkpt><trkpt lat="45.59052657380038" lon="10.772905196346201"><ele>221.00000000000003</ele><time>2026-03-28T12:09:09Z</time></trkpt><trkpt lat="45.5904763388095" lon="10.772827903146174"><ele>221.00000000000003</ele><time>2026-03-28T12:09:10Z</time></trkpt><trkpt lat="45.59041436465725" lon="10.772705637034216"><ele>221.0</ele><time>2026-03-28T12:09:12Z</time></trkpt><trkpt lat="45.59044731650683" lon="10.772521309246946"><ele>221.0</ele><time>2026-03-28T12:09:14Z</time></trkpt><trkpt lat="45.590491993391566" lon="10.772411878620622"><ele>221.0</ele><time>2026-03-28T12:09:15Z</time></trkpt><trkpt lat="45.590559063408875" lon="10.772288807096839"><ele>221.0</ele><time>2026-03-28T12:09:16Z</time></trkpt><trkpt lat="45.59063190405202" lon="10.772163759987635"><ele>221.0</ele><time>2026-03-28T12:09:17Z</time></trkpt><trkpt lat="45.59070995187277" lon="10.772049296554934"><ele>221.0</ele><time>2026-03-28T12:09:18Z</time></trkpt><trkpt lat="45.59079279281282" lon="10.771935201298122"><ele>220.60000000000002</ele><time>2026-03-28T12:09:19Z</time></trkpt><trkpt lat="45.59084446616997" lon="10.771815103552383"><ele>220.20000000000002</ele><time>2026-03-28T12:09:20Z</time></trkpt><trkpt lat="45.590881393145324" lon="10.771685565828118"><ele>219.79999999999998</ele><time>2026-03-28T12:09:21Z</time></trkpt><trkpt lat="45.59092493756198" lon="10.771548020906183"><ele>219.39999999999998</ele><time>2026-03-28T12:09:22Z</time></trkpt><trkpt lat="45.59098197909689" lon="10.771417864040814"><ele>219.0</ele><time>2026-03-28T12:09:23Z</time></trkpt><trkpt lat="45.5910426893502" lon="10.77130882463953"><ele>219.0</ele><time>2026-03-28T12:09:24Z</time></trkpt><trkpt lat="45.59108781512674" lon="10.771211692004067"><ele>219.0</ele><time>2026-03-28T12:09:25Z</time></trkpt><trkpt lat="45.591092308636" lon="10.771115955207335"><ele>219.0</ele><time>2026-03-28T12:09:26Z</time></trkpt><trkpt lat="45.59108570301844" lon="10.770993207925535"><ele>219.0</ele><time>2026-03-28T12:09:27Z</time></trkpt><trkpt lat="45.591072296161904" lon="10.770863922262741"><ele>219.0</ele><time>2026-03-28T12:09:28Z</time></trkpt><trkpt lat="45.591051988882064" lon="10.770721530895646"><ele>219.0</ele><time>2026-03-28T12:09:29Z</time></trkpt><trkpt lat="45.59103940968595" lon="10.770562071055211"><ele>219.0</ele><time>2026-03-28T12:09:30Z</time></trkpt><trkpt lat="45.59103323960406" lon="10.770420638112004"><ele>218.99999999999997</ele><time>2026-03-28T12:09:31Z</time></trkpt><trkpt lat="45.5910482870591" lon="10.770309225910587"><ele>218.99999999999997</ele><time>2026-03-28T12:09:32Z</time></trkpt><trkpt lat="45.59106241804288" lon="10.770176489983418"><ele>219.0</ele><time>2026-03-28T12:09:33Z</time></trkpt><trkpt lat="45.591095691322124" lon="10.770027739585622"><ele>219.0</ele><time>2026-03-28T12:09:34Z</time></trkpt><trkpt lat="45.591130860818886" lon="10.76986451156565"><ele>219.0</ele><time>2026-03-28T12:09:35Z</time></trkpt><trkpt lat="45.59117607591692" lon="10.769707126509392"><ele>219.0</ele><time>2026-03-28T12:09:36Z</time></trkpt><trkpt lat="45.591221183766685" lon="10.769546587653544"><ele>219.0</ele><time>2026-03-28T12:09:37Z</time></trkpt><trkpt lat="45.591281056356415" lon="10.76938222350626"><ele>219.0</ele><time>2026-03-28T12:09:38Z</time></trkpt><trkpt lat="45.59134504160018" lon="10.769221813393456"><ele>218.5</ele><time>2026-03-28T12:09:39Z</time></trkpt><trkpt lat="45.59139264671023" lon="10.7690629809047"><ele>218.0</ele><time>2026-03-28T12:09:40Z</time></trkpt><trkpt lat="45.59143401135307" lon="10.768923006858595"><ele>217.5</ele><time>2026-03-28T12:09:41Z</time></trkpt><trkpt lat="45.591473267843114" lon="10.768767546088771"><ele>217.0</ele><time>2026-03-28T12:09:42Z</time></trkpt><trkpt lat="45.591505153177884" lon="10.768608978004387"><ele>217.0</ele><time>2026-03-28T12:09:43Z</time></trkpt><trkpt lat="45.591521788538365" lon="10.76848896537731"><ele>217.0</ele><time>2026-03-28T12:09:44Z</time></trkpt><trkpt lat="45.59153637204593" lon="10.768380180305748"><ele>217.0</ele><time>2026-03-28T12:09:45Z</time></trkpt><trkpt lat="45.591544302164785" lon="10.768180483548086"><ele>217.0</ele><time>2026-03-28T12:09:47Z</time></trkpt><trkpt lat="45.591535415320166" lon="10.768048097375283"><ele>217.0</ele><time>2026-03-28T12:09:48Z</time></trkpt><trkpt lat="45.59151755629465" lon="10.767896209394932"><ele>217.0</ele><time>2026-03-28T12:09:49Z</time></trkpt><trkpt lat="45.591501913840844" lon="10.767744963825084"><ele>217.0</ele><time>2026-03-28T12:09:50Z</time></trkpt><trkpt lat="45.591497750240435" lon="10.767597520284909"><ele>217.0</ele><time>2026-03-28T12:09:51Z</time></trkpt><trkpt lat="45.59150890205891" lon="10.767436579295245"><ele>217.0</ele><time>2026-03-28T12:09:52Z</time></trkpt><trkpt lat="45.591538518716355" lon="10.767272366905903"><ele>217.0</ele><time>2026-03-28T12:09:53Z</time></trkpt><trkpt lat="45.591562429718586" lon="10.767100214839328"><ele>217.25</ele><time>2026-03-28T12:09:54Z</time></trkpt><trkpt lat="45.59159858594533" lon="10.766931832528268"><ele>217.5</ele><time>2026-03-28T12:09:55Z</time></trkpt><trkpt lat="45.591660515743584" lon="10.766758779116033"><ele>217.75</ele><time>2026-03-28T12:09:56Z</time></trkpt><trkpt lat="45.591738002037374" lon="10.766594336674173"><ele>218.0</ele><time>2026-03-28T12:09:57Z</time></trkpt><trkpt lat="45.591815048346206" lon="10.7664242119449"><ele>217.5</ele><time>2026-03-28T12:09:58Z</time></trkpt><trkpt lat="45.591877896418985" lon="10.76625972393926"><ele>217.0</ele><time>2026-03-28T12:09:59Z</time></trkpt><trkpt lat="45.59193902805186" lon="10.766116639393262"><ele>216.5</ele><time>2026-03-28T12:10:00Z</time></trkpt><trkpt lat="45.59200918575199" lon="10.765963306121563"><ele>216.0</ele><time>2026-03-28T12:10:01Z</time></trkpt><trkpt lat="45.59208518290515" lon="10.76581150005437"><ele>216.0</ele><time>2026-03-28T12:10:02Z</time></trkpt><trkpt lat="45.592169885677194" lon="10.76566390894227"><ele>216.0</ele><time>2026-03-28T12:10:03Z</time></trkpt><trkpt lat="45.59226346584538" lon="10.765514680074933"><ele>216.0</ele><time>2026-03-28T12:10:04Z</time></trkpt><trkpt lat="45.592356611357346" lon="10.765365880743069"><ele>216.0</ele><time>2026-03-28T12:10:05Z</time></trkpt><trkpt lat="45.59243893744303" lon="10.765218902326739"><ele>216.20000000000002</ele><time>2026-03-28T12:10:06Z</time></trkpt><trkpt lat="45.592510958854774" lon="10.765093181059743"><ele>216.40000000000003</ele><time>2026-03-28T12:10:07Z</time></trkpt><trkpt lat="45.59257103679208" lon="10.7649789509262"><ele>216.6</ele><time>2026-03-28T12:10:08Z</time></trkpt><trkpt lat="45.592600030904514" lon="10.764897093164738"><ele>216.8</ele><time>2026-03-28T12:10:09Z</time></trkpt><trkpt lat="45.59262390443487" lon="10.764759093508253"><ele>217.0</ele><time>2026-03-28T12:10:11Z</time></trkpt><trkpt lat="45.59260841493623" lon="10.764626555914132"><ele>216.99999999999997</ele><time>2026-03-28T12:10:13Z</time></trkpt><trkpt lat="45.59263328807897" lon="10.764520371218975"><ele>217.0</ele><time>2026-03-28T12:10:15Z</time></trkpt><trkpt lat="45.592719883640164" lon="10.764418842573532"><ele>217.0</ele><time>2026-03-28T12:10:17Z</time></trkpt><trkpt lat="45.59276861968951" lon="10.76432390298698"><ele>217.0</ele><time>2026-03-28T12:10:18Z</time></trkpt><trkpt lat="45.592813954098354" lon="10.76423833132788"><ele>216.99999999999997</ele><time>2026-03-28T12:10:19Z</time></trkpt><trkpt lat="45.59286862412319" lon="10.764155848302858"><ele>217.0</ele><time>2026-03-28T12:10:20Z</time></trkpt><trkpt lat="45.59293190459333" lon="10.76408221396528"><ele>216.83333333333331</ele><time>2026-03-28T12:10:21Z</time></trkpt><trkpt lat="45.59300400940071" lon="10.763996059207416"><ele>216.66666666666666</ele><time>2026-03-28T12:10:22Z</time></trkpt><trkpt lat="45.593079009546884" lon="10.763921979584998"><ele>216.5</ele><time>2026-03-28T12:10:23Z</time></trkpt><trkpt lat="45.593133610439686" lon="10.763870228326665"><ele>216.33333333333331</ele><time>2026-03-28T12:10:24Z</time></trkpt><trkpt lat="45.59319210214199" lon="10.763742914004089"><ele>216.16666666666666</ele><time>2026-03-28T12:10:27Z</time></trkpt><trkpt lat="45.593223753935526" lon="10.76364267948444"><ele>216.0</ele><time>2026-03-28T12:10:28Z</time></trkpt><trkpt lat="45.593271157063995" lon="10.763526138414713"><ele>216.0</ele><time>2026-03-28T12:10:29Z</time></trkpt><trkpt lat="45.5933261352155" lon="10.763402788132574"><ele>216.00000000000003</ele><time>2026-03-28T12:10:30Z</time></trkpt><trkpt lat="45.593371872144935" lon="10.763304944846094"><ele>216.00000000000003</ele><time>2026-03-28T12:10:31Z</time></trkpt><trkpt lat="45.59341029146127" lon="10.763198982243253"><ele>216.0</ele><time>2026-03-28T12:10:32Z</time></trkpt><trkpt lat="45.59344704005311" lon="10.763075414265868"><ele>216.0</ele><time>2026-03-28T12:10:33Z</time></trkpt><trkpt lat="45.593481158666" lon="10.762949778304739"><ele>216.0</ele><time>2026-03-28T12:10:34Z</time></trkpt><trkpt lat="45.59352352238346" lon="10.762814330405902"><ele>216.0</ele><time>2026-03-28T12:10:35Z</time></trkpt><trkpt lat="45.59356537106485" lon="10.762661713334863"><ele>216.0</ele><time>2026-03-28T12:10:36Z</time></trkpt><trkpt lat="45.59359133717959" lon="10.76249725748656"><ele>216.0</ele><time>2026-03-28T12:10:37Z</time></trkpt><trkpt lat="45.59361672570267" lon="10.762321036746398"><ele>216.0</ele><time>2026-03-28T12:10:38Z</time></trkpt><trkpt lat="45.593642970101705" lon="10.762142929406915"><ele>216.0</ele><time>2026-03-28T12:10:39Z</time></trkpt><trkpt lat="45.59366522180019" lon="10.761971359251339"><ele>216.0</ele><time>2026-03-28T12:10:40Z</time></trkpt><trkpt lat="45.593680718404336" lon="10.761815243368188"><ele>216.0</ele><time>2026-03-28T12:10:41Z</time></trkpt><trkpt lat="45.59369464059947" lon="10.761647584063775"><ele>216.0</ele><time>2026-03-28T12:10:42Z</time></trkpt><trkpt lat="45.59370396025085" lon="10.761488004437151"><ele>216.0</ele><time>2026-03-28T12:10:43Z</time></trkpt><trkpt lat="45.59370428098987" lon="10.76131927942673"><ele>216.0</ele><time>2026-03-28T12:10:44Z</time></trkpt><trkpt lat="45.593707238634536" lon="10.76112607648092"><ele>216.0</ele><time>2026-03-28T12:10:45Z</time></trkpt><trkpt lat="45.59371224694421" lon="10.760913321676972"><ele>216.0</ele><time>2026-03-28T12:10:46Z</time></trkpt><trkpt lat="45.593719268836395" lon="10.760721049086944"><ele>216.0</ele><time>2026-03-28T12:10:47Z</time></trkpt><trkpt lat="45.593726308469044" lon="10.760518421802491"><ele>216.0</ele><time>2026-03-28T12:10:48Z</time></trkpt><trkpt lat="45.593730408417294" lon="10.760326670954543"><ele>216.0</ele><time>2026-03-28T12:10:49Z</time></trkpt><trkpt lat="45.593731751963105" lon="10.760124892143688"><ele>216.5</ele><time>2026-03-28T12:10:50Z</time></trkpt><trkpt lat="45.59373447747837" lon="10.759918044426076"><ele>217.0</ele><time>2026-03-28T12:10:51Z</time></trkpt><trkpt lat="45.59374103549889" lon="10.759729352765437"><ele>217.5</ele><time>2026-03-28T12:10:52Z</time></trkpt><trkpt lat="45.5937525037746" lon="10.75952085158048"><ele>218.0</ele><time>2026-03-28T12:10:53Z</time></trkpt><trkpt lat="45.593768045048435" lon="10.759299696259813"><ele>219.0</ele><time>2026-03-28T12:10:54Z</time></trkpt><trkpt lat="45.59378997322816" lon="10.759090835702565"><ele>220.0</ele><time>2026-03-28T12:10:55Z</time></trkpt><trkpt lat="45.59381174364589" lon="10.758924371998623"><ele>221.0</ele><time>2026-03-28T12:10:56Z</time></trkpt><trkpt lat="45.59382984014834" lon="10.758782647425006"><ele>222.0</ele><time>2026-03-28T12:10:57Z</time></trkpt><trkpt lat="45.59384829832379" lon="10.758646375258502"><ele>221.66666666666666</ele><time>2026-03-28T12:10:58Z</time></trkpt><trkpt lat="45.593855353539944" lon="10.758533489179804"><ele>221.33333333333331</ele><time>2026-03-28T12:10:59Z</time></trkpt><trkpt lat="45.59386884952246" lon="10.758444159706354"><ele>221.0</ele><time>2026-03-28T12:11:00Z</time></trkpt><trkpt lat="45.59390322686303" lon="10.75835675591247"><ele>220.66666666666666</ele><time>2026-03-28T12:11:01Z</time></trkpt><trkpt lat="45.59394539166326" lon="10.75827155537013"><ele>220.33333333333331</ele><time>2026-03-28T12:11:02Z</time></trkpt><trkpt lat="45.59397704019748" lon="10.758165511318136"><ele>220.0</ele><time>2026-03-28T12:11:03Z</time></trkpt><trkpt lat="45.59401246828203" lon="10.758009121321017"><ele>220.0</ele><time>2026-03-28T12:11:04Z</time></trkpt><trkpt lat="45.59406188539099" lon="10.757822899598416"><ele>220.0</ele><time>2026-03-28T12:11:05Z</time></trkpt><trkpt lat="45.59412072226587" lon="10.757625065477677"><ele>220.0</ele><time>2026-03-28T12:11:06Z</time></trkpt><trkpt lat="45.59418567567825" lon="10.757404113484695"><ele>220.0</ele><time>2026-03-28T12:11:07Z</time></trkpt><trkpt lat="45.59424424769866" lon="10.757173759658972"><ele>220.0</ele><time>2026-03-28T12:11:08Z</time></trkpt><trkpt lat="45.594301632773245" lon="10.756952609969803"><ele>220.0</ele><time>2026-03-28T12:11:09Z</time></trkpt><trkpt lat="45.59435175760023" lon="10.75676234708715"><ele>220.0</ele><time>2026-03-28T12:11:10Z</time></trkpt><trkpt lat="45.59439055876782" lon="10.756609039419386"><ele>220.0</ele><time>2026-03-28T12:11:11Z</time></trkpt><trkpt lat="45.5944234392803" lon="10.756456119001573"><ele>220.0</ele><time>2026-03-28T12:11:12Z</time></trkpt><trkpt lat="45.594457439068634" lon="10.756309980639816"><ele>220.0</ele><time>2026-03-28T12:11:13Z</time></trkpt><trkpt lat="45.59449059809219" lon="10.756218694078253"><ele>220.0</ele><time>2026-03-28T12:11:14Z</time></trkpt><trkpt lat="45.59453192984418" lon="10.756107296947818"><ele>221.25</ele><time>2026-03-28T12:11:16Z</time></trkpt><trkpt lat="45.594584329540176" lon="10.755924674295409"><ele>222.5</ele><time>2026-03-28T12:11:18Z</time></trkpt><trkpt lat="45.59463461716752" lon="10.755776336865337"><ele>223.75</ele><time>2026-03-28T12:11:19Z</time></trkpt><trkpt lat="45.594705472131736" lon="10.755611102725894"><ele>225.0</ele><time>2026-03-28T12:11:20Z</time></trkpt><trkpt lat="45.594780690781946" lon="10.755433504050423"><ele>225.0</ele><time>2026-03-28T12:11:21Z</time></trkpt><trkpt lat="45.59486342122771" lon="10.75523942259503"><ele>225.0</ele><time>2026-03-28T12:11:22Z</time></trkpt><trkpt lat="45.59494633463753" lon="10.755042288948028"><ele>225.0</ele><time>2026-03-28T12:11:23Z</time></trkpt><trkpt lat="45.5950255219518" lon="10.754837968021686"><ele>225.25</ele><time>2026-03-28T12:11:24Z</time></trkpt><trkpt lat="45.59508759556846" lon="10.754644847330836"><ele>225.5</ele><time>2026-03-28T12:11:25Z</time></trkpt><trkpt lat="45.59513960560405" lon="10.754468067362982"><ele>225.75</ele><time>2026-03-28T12:11:26Z</time></trkpt><trkpt lat="45.59517719392296" lon="10.754315017182694"><ele>226.0</ele><time>2026-03-28T12:11:27Z</time></trkpt><trkpt lat="45.595209200732945" lon="10.754170213463809"><ele>226.25</ele><time>2026-03-28T12:11:28Z</time></trkpt><trkpt lat="45.59524438470779" lon="10.75401095014535"><ele>226.5</ele><time>2026-03-28T12:11:29Z</time></trkpt><trkpt lat="45.59528526317648" lon="10.753831786404199"><ele>226.75</ele><time>2026-03-28T12:11:30Z</time></trkpt><trkpt lat="45.59531703861941" lon="10.7536527254853"><ele>227.0</ele><time>2026-03-28T12:11:31Z</time></trkpt><trkpt lat="45.59534270067832" lon="10.753503176748593"><ele>228.16666666666669</ele><time>2026-03-28T12:11:32Z</time></trkpt><trkpt lat="45.59535947366871" lon="10.753394112421523"><ele>229.33333333333334</ele><time>2026-03-28T12:11:33Z</time></trkpt><trkpt lat="45.59537626841392" lon="10.7532963509243"><ele>230.5</ele><time>2026-03-28T12:11:35Z</time></trkpt><trkpt lat="45.59546533231576" lon="10.753235218780741"><ele>231.66666666666669</ele><time>2026-03-28T12:11:37Z</time></trkpt><trkpt lat="45.59555401808025" lon="10.7531898210252"><ele>232.83333333333334</ele><time>2026-03-28T12:11:38Z</time></trkpt><trkpt lat="45.59565132957083" lon="10.75316653345961"><ele>234.0</ele><time>2026-03-28T12:11:39Z</time></trkpt><trkpt lat="45.59573591233593" lon="10.75313571685717"><ele>234.0</ele><time>2026-03-28T12:11:40Z</time></trkpt><trkpt lat="45.59580226233515" lon="10.753110458844784"><ele>233.99999999999997</ele><time>2026-03-28T12:11:41Z</time></trkpt><trkpt lat="45.59588400328301" lon="10.753070617343965"><ele>233.99999999999997</ele><time>2026-03-28T12:11:43Z</time></trkpt><trkpt lat="45.59585042689073" lon="10.752871083721377"><ele>234.0</ele><time>2026-03-28T12:11:46Z</time></trkpt><trkpt lat="45.59577381397476" lon="10.752802646615695"><ele>234.0</ele><time>2026-03-28T12:11:47Z</time></trkpt><trkpt lat="45.59566818831903" lon="10.752727939434727"><ele>233.33333333333331</ele><time>2026-03-28T12:11:48Z</time></trkpt><trkpt lat="45.59554569989987" lon="10.752632723101797"><ele>232.66666666666666</ele><time>2026-03-28T12:11:49Z</time></trkpt><trkpt lat="45.595408764461084" lon="10.752532457632983"><ele>232.0</ele><time>2026-03-28T12:11:50Z</time></trkpt><trkpt lat="45.59526301438454" lon="10.752404935833837"><ele>231.0</ele><time>2026-03-28T12:11:51Z</time></trkpt><trkpt lat="45.59511452954853" lon="10.752271451302867"><ele>230.0</ele><time>2026-03-28T12:11:52Z</time></trkpt><trkpt lat="45.59495169399697" lon="10.752115308988062"><ele>229.0</ele><time>2026-03-28T12:11:53Z</time></trkpt><trkpt lat="45.59479186375703" lon="10.751950351534916"><ele>229.0</ele><time>2026-03-28T12:11:54Z</time></trkpt><trkpt lat="45.594624073593145" lon="10.751779652059364"><ele>229.0</ele><time>2026-03-28T12:11:55Z</time></trkpt><trkpt lat="45.594449612893655" lon="10.751601260766106"><ele>229.0</ele><time>2026-03-28T12:11:56Z</time></trkpt><trkpt lat="45.59427711271037" lon="10.751428120355142"><ele>228.0</ele><time>2026-03-28T12:11:57Z</time></trkpt><trkpt lat="45.594099039979554" lon="10.751251647918957"><ele>227.0</ele><time>2026-03-28T12:11:58Z</time></trkpt><trkpt lat="45.593925209885484" lon="10.751075556793324"><ele>226.0</ele><time>2026-03-28T12:11:59Z</time></trkpt><trkpt lat="45.59375324004988" lon="10.750899331667348"><ele>225.33333333333331</ele><time>2026-03-28T12:12:00Z</time></trkpt><trkpt lat="45.593576486669924" lon="10.750728137141195"><ele>224.66666666666669</ele><time>2026-03-28T12:12:01Z</time></trkpt><trkpt lat="45.59340235292051" lon="10.750545265059676"><ele>224.0</ele><time>2026-03-28T12:12:02Z</time></trkpt><trkpt lat="45.593213363362224" lon="10.750396427368173"><ele>224.0</ele><time>2026-03-28T12:12:03Z</time></trkpt><trkpt lat="45.59301680957196" lon="10.750277646685552"><ele>224.0</ele><time>2026-03-28T12:12:04Z</time></trkpt><trkpt lat="45.59282312662242" lon="10.750134935254714"><ele>224.0</ele><time>2026-03-28T12:12:05Z</time></trkpt><trkpt lat="45.59262946868328" lon="10.749996062452144"><ele>223.33333333333334</ele><time>2026-03-28T12:12:06Z</time></trkpt><trkpt lat="45.5924474076895" lon="10.7498705768734"><ele>222.66666666666669</ele><time>2026-03-28T12:12:07Z</time></trkpt><trkpt lat="45.59226992125634" lon="10.749747455622934"><ele>222.0</ele><time>2026-03-28T12:12:08Z</time></trkpt><trkpt lat="45.59209109172972" lon="10.749610311180602"><ele>222.0</ele><time>2026-03-28T12:12:09Z</time></trkpt><trkpt lat="45.59192241284492" lon="10.74946601013612"><ele>222.0</ele><time>2026-03-28T12:12:10Z</time></trkpt><trkpt lat="45.59175315406497" lon="10.749320722600967"><ele>222.0</ele><time>2026-03-28T12:12:11Z</time></trkpt><trkpt lat="45.59157793881466" lon="10.749181447416504"><ele>222.0</ele><time>2026-03-28T12:12:12Z</time></trkpt><trkpt lat="45.59140597504603" lon="10.749037447930174"><ele>222.0</ele><time>2026-03-28T12:12:13Z</time></trkpt><trkpt lat="45.59123649736772" lon="10.748897319219845"><ele>222.0</ele><time>2026-03-28T12:12:14Z</time></trkpt><trkpt lat="45.59106700078885" lon="10.74876109012506"><ele>222.0</ele><time>2026-03-28T12:12:15Z</time></trkpt><trkpt lat="45.59089645650785" lon="10.748616439546112"><ele>222.0</ele><time>2026-03-28T12:12:16Z</time></trkpt><trkpt lat="45.59072982315618" lon="10.74847643908219"><ele>222.0</ele><time>2026-03-28T12:12:17Z</time></trkpt><trkpt lat="45.59056454271936" lon="10.748343365380777"><ele>222.0</ele><time>2026-03-28T12:12:18Z</time></trkpt><trkpt lat="45.59040200971478" lon="10.748214566595996"><ele>222.0</ele><time>2026-03-28T12:12:19Z</time></trkpt><trkpt lat="45.59023884164184" lon="10.74808482644596"><ele>222.0</ele><time>2026-03-28T12:12:20Z</time></trkpt><trkpt lat="45.59006715879241" lon="10.747957333519278"><ele>222.0</ele><time>2026-03-28T12:12:21Z</time></trkpt><trkpt lat="45.58989146587584" lon="10.747844629203142"><ele>222.0</ele><time>2026-03-28T12:12:22Z</time></trkpt><trkpt lat="45.589710158748275" lon="10.747746302923654"><ele>222.0</ele><time>2026-03-28T12:12:23Z</time></trkpt><trkpt lat="45.58953874416887" lon="10.747649279505728"><ele>221.66666666666669</ele><time>2026-03-28T12:12:24Z</time></trkpt><trkpt lat="45.589361150434186" lon="10.747544759436092"><ele>221.33333333333334</ele><time>2026-03-28T12:12:25Z</time></trkpt><trkpt lat="45.58918589944519" lon="10.747438662323896"><ele>221.0</ele><time>2026-03-28T12:12:26Z</time></trkpt><trkpt lat="45.589034771000044" lon="10.747343656975438"><ele>221.0</ele><time>2026-03-28T12:12:27Z</time></trkpt><trkpt lat="45.58888774971876" lon="10.747256403232297"><ele>221.0</ele><time>2026-03-28T12:12:28Z</time></trkpt><trkpt lat="45.58875309994099" lon="10.747174053024972"><ele>221.0</ele><time>2026-03-28T12:12:29Z</time></trkpt><trkpt lat="45.588628497505155" lon="10.747092965880725"><ele>221.0</ele><time>2026-03-28T12:12:30Z</time></trkpt><trkpt lat="45.58851780407282" lon="10.747020417868463"><ele>221.0</ele><time>2026-03-28T12:12:31Z</time></trkpt><trkpt lat="45.58842321361042" lon="10.746958029321041"><ele>221.00000000000003</ele><time>2026-03-28T12:12:32Z</time></trkpt><trkpt lat="45.588342239681666" lon="10.746906985284694"><ele>221.00000000000003</ele><time>2026-03-28T12:12:33Z</time></trkpt><trkpt lat="45.588270126264916" lon="10.746850687616174"><ele>221.0</ele><time>2026-03-28T12:12:34Z</time></trkpt><trkpt lat="45.58820677441609" lon="10.746764585943964"><ele>221.0</ele><time>2026-03-28T12:12:35Z</time></trkpt><trkpt lat="45.588144925895186" lon="10.746646282187008"><ele>221.60000000000002</ele><time>2026-03-28T12:12:36Z</time></trkpt><trkpt lat="45.58806239241018" lon="10.746553101555971"><ele>222.20000000000002</ele><time>2026-03-28T12:12:37Z</time></trkpt><trkpt lat="45.58795554969355" lon="10.746508510724063"><ele>222.79999999999998</ele><time>2026-03-28T12:12:38Z</time></trkpt><trkpt lat="45.58783926090253" lon="10.746513800208767"><ele>223.39999999999998</ele><time>2026-03-28T12:12:39Z</time></trkpt><trkpt lat="45.58776519173641" lon="10.746528484630124"><ele>224.0</ele><time>2026-03-28T12:12:40Z</time></trkpt><trkpt lat="45.5877026989829" lon="10.74648260962981"><ele>224.0</ele><time>2026-03-28T12:12:42Z</time></trkpt><trkpt lat="45.58777354104157" lon="10.746381507538013"><ele>224.0</ele><time>2026-03-28T12:12:49Z</time></trkpt><trkpt lat="45.588072151495005" lon="10.746439647994388"><ele>224.0</ele><time>2026-03-28T12:12:53Z</time></trkpt><trkpt lat="45.587756366962424" lon="10.74686486278929"><ele>224.0</ele><time>2026-03-28T12:12:54Z</time></trkpt><trkpt lat="45.587689699329694" lon="10.747010576091728"><ele>224.0</ele><time>2026-03-28T12:12:55Z</time></trkpt><trkpt lat="45.587605320691885" lon="10.747157032155055"><ele>224.0</ele><time>2026-03-28T12:12:56Z</time></trkpt><trkpt lat="45.58751219626751" lon="10.747304210884487"><ele>224.0</ele><time>2026-03-28T12:12:57Z</time></trkpt><trkpt lat="45.58740212386205" lon="10.7474511214443"><ele>224.0</ele><time>2026-03-28T12:12:58Z</time></trkpt><trkpt lat="45.58727029654057" lon="10.747597642858041"><ele>224.0</ele><time>2026-03-28T12:12:59Z</time></trkpt><trkpt lat="45.58714939359379" lon="10.747739891950811"><ele>224.0</ele><time>2026-03-28T12:13:00Z</time></trkpt><trkpt lat="45.58704439387994" lon="10.747843973661183"><ele>223.66666666666669</ele><time>2026-03-28T12:13:01Z</time></trkpt><trkpt lat="45.586919633032835" lon="10.747939644452341"><ele>223.33333333333331</ele><time>2026-03-28T12:13:02Z</time></trkpt><trkpt lat="45.58676196871898" lon="10.748051098414093"><ele>223.0</ele><time>2026-03-28T12:13:03Z</time></trkpt><trkpt lat="45.58662504641993" lon="10.748230080770005"><ele>223.0</ele><time>2026-03-28T12:13:04Z</time></trkpt><trkpt lat="45.58644200213127" lon="10.748381684956229"><ele>223.0</ele><time>2026-03-28T12:13:05Z</time></trkpt><trkpt lat="45.58626551999512" lon="10.748553796917781"><ele>223.0</ele><time>2026-03-28T12:13:06Z</time></trkpt><trkpt lat="45.58608106211809" lon="10.748725967756961"><ele>222.33333333333331</ele><time>2026-03-28T12:13:07Z</time></trkpt><trkpt lat="45.58591754300075" lon="10.748881941452332"><ele>221.66666666666669</ele><time>2026-03-28T12:13:08Z</time></trkpt><trkpt lat="45.58579071257587" lon="10.749005141572317"><ele>221.0</ele><time>2026-03-28T12:13:09Z</time></trkpt><trkpt lat="45.585698503149786" lon="10.749094711988194"><ele>221.0</ele><time>2026-03-28T12:13:10Z</time></trkpt><trkpt lat="45.5856413753381" lon="10.749147370231269"><ele>221.00000000000003</ele><time>2026-03-28T12:13:11Z</time></trkpt><trkpt lat="45.585593101900066" lon="10.748984591445614"><ele>221.00000000000003</ele><time>2026-03-28T12:13:15Z</time></trkpt><trkpt lat="45.58553535689373" lon="10.748827677248833"><ele>221.0</ele><time>2026-03-28T12:13:17Z</time></trkpt><trkpt lat="45.58547856762364" lon="10.748713946713254"><ele>221.0</ele><time>2026-03-28T12:13:19Z</time></trkpt><trkpt lat="45.58540345603094" lon="10.749307707784041"><ele>220.75</ele><time>2026-03-28T12:13:20Z</time></trkpt><trkpt lat="45.5853090206399" lon="10.74940835068801"><ele>220.5</ele><time>2026-03-28T12:13:21Z</time></trkpt><trkpt lat="45.585226732520596" lon="10.749533509469401"><ele>220.25</ele><time>2026-03-28T12:13:22Z</time></trkpt><trkpt lat="45.5851397545158" lon="10.749671563667997"><ele>220.0</ele><time>2026-03-28T12:13:23Z</time></trkpt><trkpt lat="45.58506529039261" lon="10.749798669088761"><ele>219.99999999999997</ele><time>2026-03-28T12:13:24Z</time></trkpt><trkpt lat="45.58499176606657" lon="10.74992612589522"><ele>220.0</ele><time>2026-03-28T12:13:25Z</time></trkpt><trkpt lat="45.58491951711896" lon="10.750029142359557"><ele>220.0</ele><time>2026-03-28T12:13:26Z</time></trkpt><trkpt lat="45.58486350084242" lon="10.750109176233408"><ele>220.0</ele><time>2026-03-28T12:13:27Z</time></trkpt><trkpt lat="45.5848008297495" lon="10.750168826936537"><ele>219.99999999999997</ele><time>2026-03-28T12:13:28Z</time></trkpt><trkpt lat="45.58474082843448" lon="10.750217038840452"><ele>220.0</ele><time>2026-03-28T12:13:29Z</time></trkpt><trkpt lat="45.584193086221696" lon="10.749589045433545"><ele>220.8</ele><time>2026-03-28T12:13:30Z</time></trkpt><trkpt lat="45.58407736834552" lon="10.749585243462155"><ele>221.6</ele><time>2026-03-28T12:13:31Z</time></trkpt><trkpt lat="45.58398358142677" lon="10.749587835315136"><ele>222.39999999999998</ele><time>2026-03-28T12:13:32Z</time></trkpt><trkpt lat="45.583885588768844" lon="10.749587129529308"><ele>223.2</ele><time>2026-03-28T12:13:33Z</time></trkpt><trkpt lat="45.58376926661956" lon="10.749595260419063"><ele>224.0</ele><time>2026-03-28T12:13:34Z</time></trkpt><trkpt lat="45.583630502617495" lon="10.749614162307127"><ele>225.0</ele><time>2026-03-28T12:13:35Z</time></trkpt><trkpt lat="45.58347215509714" lon="10.74964913947479"><ele>226.0</ele><time>2026-03-28T12:13:36Z</time></trkpt><trkpt lat="45.58332792568731" lon="10.749696089545035"><ele>227.0</ele><time>2026-03-28T12:13:37Z</time></trkpt><trkpt lat="45.5831839492837" lon="10.7497347279679"><ele>227.0</ele><time>2026-03-28T12:13:38Z</time></trkpt><trkpt lat="45.583037589838746" lon="10.749744052265532"><ele>227.0</ele><time>2026-03-28T12:13:39Z</time></trkpt><trkpt lat="45.58289635761999" lon="10.749735902359808"><ele>227.0</ele><time>2026-03-28T12:13:40Z</time></trkpt><trkpt lat="45.58277020733407" lon="10.749703852507006"><ele>227.0</ele><time>2026-03-28T12:13:41Z</time></trkpt><trkpt lat="45.582624153033834" lon="10.74966754208456"><ele>226.5</ele><time>2026-03-28T12:13:42Z</time></trkpt><trkpt lat="45.582479772905586" lon="10.749625015812562"><ele>226.0</ele><time>2026-03-28T12:13:43Z</time></trkpt><trkpt lat="45.58233180223164" lon="10.749585092175678"><ele>225.5</ele><time>2026-03-28T12:13:44Z</time></trkpt><trkpt lat="45.58218527245253" lon="10.74954075429771"><ele>225.0</ele><time>2026-03-28T12:13:45Z</time></trkpt><trkpt lat="45.582041248518024" lon="10.749505236293171"><ele>224.0</ele><time>2026-03-28T12:13:46Z</time></trkpt><trkpt lat="45.58189304548482" lon="10.749456652302765"><ele>223.0</ele><time>2026-03-28T12:13:47Z</time></trkpt><trkpt lat="45.58175094062427" lon="10.749436616862342"><ele>222.0</ele><time>2026-03-28T12:13:48Z</time></trkpt><trkpt lat="45.581592120271374" lon="10.749427290627995"><ele>222.0</ele><time>2026-03-28T12:13:49Z</time></trkpt><trkpt lat="45.58142880712375" lon="10.749409325859922"><ele>222.0</ele><time>2026-03-28T12:13:50Z</time></trkpt><trkpt lat="45.58128365998816" lon="10.749378528993704"><ele>222.0</ele><time>2026-03-28T12:13:51Z</time></trkpt><trkpt lat="45.58114717525294" lon="10.749351204645688"><ele>222.0</ele><time>2026-03-28T12:13:52Z</time></trkpt><trkpt lat="45.58101300764908" lon="10.749338610961358"><ele>222.25</ele><time>2026-03-28T12:13:53Z</time></trkpt><trkpt lat="45.58087204924933" lon="10.749368623304187"><ele>222.5</ele><time>2026-03-28T12:13:54Z</time></trkpt><trkpt lat="45.58073128017112" lon="10.74943500716957"><ele>222.75</ele><time>2026-03-28T12:13:55Z</time></trkpt><trkpt lat="45.580603606546916" lon="10.74952032887401"><ele>223.0</ele><time>2026-03-28T12:13:56Z</time></trkpt><trkpt lat="45.58050278828249" lon="10.74959352401561"><ele>222.99999999999997</ele><time>2026-03-28T12:13:57Z</time></trkpt><trkpt lat="45.580421579921634" lon="10.74964703628849"><ele>223.0</ele><time>2026-03-28T12:13:58Z</time></trkpt><trkpt lat="45.58035445234392" lon="10.749676988250732"><ele>223.0</ele><time>2026-03-28T12:13:59Z</time></trkpt><trkpt lat="45.58027845477844" lon="10.749707921260937"><ele>223.0</ele><time>2026-03-28T12:14:00Z</time></trkpt><trkpt lat="45.58022643300586" lon="10.749765673634455"><ele>222.99999999999997</ele><time>2026-03-28T12:14:01Z</time></trkpt><trkpt lat="45.58018384384708" lon="10.749888535454778"><ele>223.0</ele><time>2026-03-28T12:14:03Z</time></trkpt><trkpt lat="45.58004538468218" lon="10.749969520910419"><ele>223.75</ele><time>2026-03-28T12:14:05Z</time></trkpt><trkpt lat="45.579943774807276" lon="10.750032161975822"><ele>224.5</ele><time>2026-03-28T12:14:06Z</time></trkpt><trkpt lat="45.579842018406694" lon="10.750095945837423"><ele>225.25</ele><time>2026-03-28T12:14:07Z</time></trkpt><trkpt lat="45.579738937943965" lon="10.750154736745808"><ele>226.0</ele><time>2026-03-28T12:14:08Z</time></trkpt><trkpt lat="45.579627837043226" lon="10.750234468953186"><ele>226.75</ele><time>2026-03-28T12:14:09Z</time></trkpt><trkpt lat="45.57950746803696" lon="10.750302728714956"><ele>227.5</ele><time>2026-03-28T12:14:10Z</time></trkpt><trkpt lat="45.57938550823665" lon="10.750385108569104"><ele>228.25</ele><time>2026-03-28T12:14:11Z</time></trkpt><trkpt lat="45.57925526825811" lon="10.750474025329833"><ele>229.0</ele><time>2026-03-28T12:14:12Z</time></trkpt><trkpt lat="45.5791311841387" lon="10.750564165711907"><ele>229.0</ele><time>2026-03-28T12:14:13Z</time></trkpt><trkpt lat="45.57902920588442" lon="10.750646756904496"><ele>228.99999999999997</ele><time>2026-03-28T12:14:14Z</time></trkpt><trkpt lat="45.578935353518524" lon="10.750709781970967"><ele>228.99999999999997</ele><time>2026-03-28T12:14:15Z</time></trkpt><trkpt lat="45.578847819019934" lon="10.750764932174487"><ele>229.0</ele><time>2026-03-28T12:14:16Z</time></trkpt><trkpt lat="45.578775907233585" lon="10.750806995565556"><ele>229.0</ele><time>2026-03-28T12:14:17Z</time></trkpt><trkpt lat="45.57871547573585" lon="10.750846134772466"><ele>230.0</ele><time>2026-03-28T12:14:18Z</time></trkpt><trkpt lat="45.578608836745" lon="10.750751594054831"><ele>231.0</ele><time>2026-03-28T12:14:19Z</time></trkpt><trkpt lat="45.57852214052804" lon="10.750808639110396"><ele>232.0</ele><time>2026-03-28T12:14:21Z</time></trkpt><trkpt lat="45.578387433310255" lon="10.751299229196114"><ele>230.6</ele><time>2026-03-28T12:14:23Z</time></trkpt><trkpt lat="45.57842343137123" lon="10.751384229335551"><ele>229.2</ele><time>2026-03-28T12:14:24Z</time></trkpt><trkpt lat="45.57865713724014" lon="10.751317571194653"><ele>227.8</ele><time>2026-03-28T12:14:25Z</time></trkpt><trkpt lat="45.5786896094091" lon="10.751403354243351"><ele>226.4</ele><time>2026-03-28T12:14:26Z</time></trkpt><trkpt lat="45.578717337666845" lon="10.751497507754639"><ele>225.0</ele><time>2026-03-28T12:14:27Z</time></trkpt><trkpt lat="45.578736676083345" lon="10.751598087119282"><ele>225.0</ele><time>2026-03-28T12:14:28Z</time></trkpt><trkpt lat="45.57859262474452" lon="10.75173090380357"><ele>225.0</ele><time>2026-03-28T12:14:29Z</time></trkpt><trkpt lat="45.57874062621834" lon="10.751780425563059"><ele>225.0</ele><time>2026-03-28T12:14:30Z</time></trkpt><trkpt lat="45.578733654886975" lon="10.751900502032262"><ele>225.0</ele><time>2026-03-28T12:14:31Z</time></trkpt><trkpt lat="45.57871795877697" lon="10.752029105134927"><ele>223.83333333333334</ele><time>2026-03-28T12:14:32Z</time></trkpt><trkpt lat="45.5786961375907" lon="10.75213126323416"><ele>222.66666666666669</ele><time>2026-03-28T12:14:33Z</time></trkpt><trkpt lat="45.57867418785487" lon="10.752254060050449"><ele>221.5</ele><time>2026-03-28T12:14:34Z</time></trkpt><trkpt lat="45.5786583392762" lon="10.752350969115959"><ele>220.33333333333334</ele><time>2026-03-28T12:14:35Z</time></trkpt><trkpt lat="45.57864452692865" lon="10.752461958413875"><ele>219.16666666666669</ele><time>2026-03-28T12:14:36Z</time></trkpt><trkpt lat="45.578629142521436" lon="10.752549313725952"><ele>218.0</ele><time>2026-03-28T12:14:37Z</time></trkpt><trkpt lat="45.578504747494314" lon="10.752543609268749"><ele>218.0</ele><time>2026-03-28T12:14:39Z</time></trkpt><trkpt lat="45.57843525918263" lon="10.752590389314467"><ele>218.0</ele><time>2026-03-28T12:14:41Z</time></trkpt><trkpt lat="45.57838671279481" lon="10.752683610760712"><ele>218.0</ele><time>2026-03-28T12:14:42Z</time></trkpt><trkpt lat="45.578442941434" lon="10.752936304613867"><ele>218.0</ele><time>2026-03-28T12:14:43Z</time></trkpt><trkpt lat="45.578438115273286" lon="10.753116859216247"><ele>216.75</ele><time>2026-03-28T12:14:44Z</time></trkpt><trkpt lat="45.57843919060251" lon="10.753301091355489"><ele>215.5</ele><time>2026-03-28T12:14:45Z</time></trkpt><trkpt lat="45.57843695174837" lon="10.753473600233868"><ele>214.25</ele><time>2026-03-28T12:14:46Z</time></trkpt><trkpt lat="45.578457842953085" lon="10.75363468723166"><ele>213.0</ele><time>2026-03-28T12:14:47Z</time></trkpt><trkpt lat="45.57850288689506" lon="10.75377481586721"><ele>212.2</ele><time>2026-03-28T12:14:48Z</time></trkpt><trkpt lat="45.57855445329927" lon="10.753898820721838"><ele>211.4</ele><time>2026-03-28T12:14:49Z</time></trkpt><trkpt lat="45.57857048870082" lon="10.754010426424246"><ele>210.6</ele><time>2026-03-28T12:14:50Z</time></trkpt><trkpt lat="45.57859811411907" lon="10.754133973227312"><ele>209.79999999999998</ele><time>2026-03-28T12:14:52Z</time></trkpt><trkpt lat="45.57852769523917" lon="10.754116963694882"><ele>209.0</ele><time>2026-03-28T12:14:55Z</time></trkpt><trkpt lat="45.5783985305226" lon="10.754021655452775"><ele>209.0</ele><time>2026-03-28T12:14:57Z</time></trkpt><trkpt lat="45.57829054440732" lon="10.753960103110906"><ele>209.0</ele><time>2026-03-28T12:14:58Z</time></trkpt><trkpt lat="45.57815727130253" lon="10.753867603023798"><ele>209.0</ele><time>2026-03-28T12:14:59Z</time></trkpt><trkpt lat="45.5780266884732" lon="10.753776345098242"><ele>209.0</ele><time>2026-03-28T12:15:00Z</time></trkpt><trkpt lat="45.577899322025274" lon="10.753670405626844"><ele>209.33333333333334</ele><time>2026-03-28T12:15:01Z</time></trkpt><trkpt lat="45.57777603753726" lon="10.753548431379748"><ele>209.66666666666669</ele><time>2026-03-28T12:15:02Z</time></trkpt><trkpt lat="45.57765046216806" lon="10.753406832542032"><ele>210.0</ele><time>2026-03-28T12:15:03Z</time></trkpt><trkpt lat="45.577531877872275" lon="10.753280275328116"><ele>210.0</ele><time>2026-03-28T12:15:04Z</time></trkpt><trkpt lat="45.57744235847771" lon="10.753132491509373"><ele>210.0</ele><time>2026-03-28T12:15:05Z</time></trkpt><trkpt lat="45.57736085573614" lon="10.752998278358175"><ele>210.0</ele><time>2026-03-28T12:15:06Z</time></trkpt><trkpt lat="45.577284378492315" lon="10.752850113914736"><ele>210.0</ele><time>2026-03-28T12:15:07Z</time></trkpt><trkpt lat="45.57718351363733" lon="10.752666293571517"><ele>210.0</ele><time>2026-03-28T12:15:08Z</time></trkpt><trkpt lat="45.57707594872619" lon="10.752430483689555"><ele>210.0</ele><time>2026-03-28T12:15:09Z</time></trkpt><trkpt lat="45.57699148402049" lon="10.752236069028605"><ele>210.0</ele><time>2026-03-28T12:15:10Z</time></trkpt><trkpt lat="45.576913371444554" lon="10.75205680376759"><ele>210.0</ele><time>2026-03-28T12:15:11Z</time></trkpt><trkpt lat="45.57683604877123" lon="10.751898737472182"><ele>210.0</ele><time>2026-03-28T12:15:12Z</time></trkpt><trkpt lat="45.57675966450036" lon="10.75175745438769"><ele>210.0</ele><time>2026-03-28T12:15:13Z</time></trkpt><trkpt lat="45.576681443132514" lon="10.751640126869807"><ele>210.0</ele><time>2026-03-28T12:15:14Z</time></trkpt><trkpt lat="45.576624888661165" lon="10.75155310105662"><ele>210.0</ele><time>2026-03-28T12:15:15Z</time></trkpt><trkpt lat="45.576584411811154" lon="10.75144345667291"><ele>210.0</ele><time>2026-03-28T12:15:17Z</time></trkpt><trkpt lat="45.57651499841038" lon="10.75135039250342"><ele>210.0</ele><time>2026-03-28T12:15:19Z</time></trkpt><trkpt lat="45.57645959519973" lon="10.751251061219765"><ele>210.0</ele><time>2026-03-28T12:15:20Z</time></trkpt><trkpt lat="45.57637858013228" lon="10.751114301370182"><ele>210.0</ele><time>2026-03-28T12:15:21Z</time></trkpt><trkpt lat="45.576294287121456" lon="10.75097287578467"><ele>210.0</ele><time>2026-03-28T12:15:22Z</time></trkpt><trkpt lat="45.576203372463624" lon="10.750793029480123"><ele>210.0</ele><time>2026-03-28T12:15:23Z</time></trkpt><trkpt lat="45.576102060386496" lon="10.750611604082227"><ele>210.0</ele><time>2026-03-28T12:15:24Z</time></trkpt><trkpt lat="45.57598825677461" lon="10.750432636614622"><ele>210.0</ele><time>2026-03-28T12:15:25Z</time></trkpt><trkpt lat="45.57589077849178" lon="10.75024304191979"><ele>210.0</ele><time>2026-03-28T12:15:26Z</time></trkpt><trkpt lat="45.57576813220304" lon="10.750077572877387"><ele>210.0</ele><time>2026-03-28T12:15:27Z</time></trkpt><trkpt lat="45.57563267701941" lon="10.749969684226503"><ele>210.0</ele><time>2026-03-28T12:15:28Z</time></trkpt><trkpt lat="45.575499710450465" lon="10.749856034910943"><ele>210.0</ele><time>2026-03-28T12:15:29Z</time></trkpt><trkpt lat="45.57535473388159" lon="10.749737387219099"><ele>210.0</ele><time>2026-03-28T12:15:30Z</time></trkpt><trkpt lat="45.57520407403641" lon="10.74961916072863"><ele>210.33333333333331</ele><time>2026-03-28T12:15:31Z</time></trkpt><trkpt lat="45.5750592770956" lon="10.749504636037003"><ele>210.66666666666666</ele><time>2026-03-28T12:15:32Z</time></trkpt><trkpt lat="45.5749182300726" lon="10.749388619689995"><ele>211.0</ele><time>2026-03-28T12:15:33Z</time></trkpt><trkpt lat="45.57477734907001" lon="10.74927171737846"><ele>211.0</ele><time>2026-03-28T12:15:34Z</time></trkpt><trkpt lat="45.57462854034678" lon="10.74915469646933"><ele>211.0</ele><time>2026-03-28T12:15:35Z</time></trkpt><trkpt lat="45.57449932414628" lon="10.749057684722771"><ele>211.0</ele><time>2026-03-28T12:15:36Z</time></trkpt><trkpt lat="45.57438182155586" lon="10.748979853298813"><ele>211.0</ele><time>2026-03-28T12:15:37Z</time></trkpt><trkpt lat="45.574251376298875" lon="10.748934111739057"><ele>211.0</ele><time>2026-03-28T12:15:38Z</time></trkpt><trkpt lat="45.574124526727275" lon="10.748859741631414"><ele>211.0</ele><time>2026-03-28T12:15:39Z</time></trkpt><trkpt lat="45.57399371359949" lon="10.74876688991678"><ele>211.0</ele><time>2026-03-28T12:15:40Z</time></trkpt><trkpt lat="45.57386874601175" lon="10.748651216162742"><ele>211.0</ele><time>2026-03-28T12:15:41Z</time></trkpt><trkpt lat="45.57374347123816" lon="10.748518516910623"><ele>209.66666666666666</ele><time>2026-03-28T12:15:42Z</time></trkpt><trkpt lat="45.573617608398216" lon="10.748372525689009"><ele>208.33333333333331</ele><time>2026-03-28T12:15:43Z</time></trkpt><trkpt lat="45.57350364022137" lon="10.748232000721064"><ele>207.0</ele><time>2026-03-28T12:15:44Z</time></trkpt><trkpt lat="45.57339704717379" lon="10.748096222309584"><ele>207.0</ele><time>2026-03-28T12:15:45Z</time></trkpt><trkpt lat="45.573313815644795" lon="10.747993608113518"><ele>207.0</ele><time>2026-03-28T12:15:46Z</time></trkpt><trkpt lat="45.57326389096856" lon="10.747927607237754"><ele>207.0</ele><time>2026-03-28T12:15:47Z</time></trkpt><trkpt lat="45.57322248673555" lon="10.74785666152478"><ele>207.0</ele><time>2026-03-28T12:15:50Z</time></trkpt><trkpt lat="45.57313510933666" lon="10.748010926461896"><ele>207.0</ele><time>2026-03-28T12:15:55Z</time></trkpt><trkpt lat="45.5731067570334" lon="10.748106486666686"><ele>207.0</ele><time>2026-03-28T12:15:56Z</time></trkpt><trkpt lat="45.57304071273415" lon="10.748148154043568"><ele>207.0</ele><time>2026-03-28T12:15:57Z</time></trkpt><trkpt lat="45.57296369919163" lon="10.748214726882733"><ele>207.0</ele><time>2026-03-28T12:15:58Z</time></trkpt><trkpt lat="45.57287922332674" lon="10.748287750475946"><ele>207.0</ele><time>2026-03-28T12:15:59Z</time></trkpt><trkpt lat="45.572771336462914" lon="10.748394931890669"><ele>207.0</ele><time>2026-03-28T12:16:00Z</time></trkpt><trkpt lat="45.57265512456579" lon="10.74850786149718"><ele>207.2</ele><time>2026-03-28T12:16:01Z</time></trkpt><trkpt lat="45.57253586995438" lon="10.748616753970502"><ele>207.39999999999998</ele><time>2026-03-28T12:16:02Z</time></trkpt><trkpt lat="45.57243594461084" lon="10.748706259341235"><ele>207.60000000000002</ele><time>2026-03-28T12:16:03Z</time></trkpt><trkpt lat="45.5723532035931" lon="10.748777710454364"><ele>207.8</ele><time>2026-03-28T12:16:04Z</time></trkpt><trkpt lat="45.572278519773604" lon="10.748833733652562"><ele>208.0</ele><time>2026-03-28T12:16:05Z</time></trkpt><trkpt lat="45.57221211600107" lon="10.748862670013068"><ele>208.0</ele><time>2026-03-28T12:16:06Z</time></trkpt><trkpt lat="45.57213959159264" lon="10.748869799010748"><ele>208.0</ele><time>2026-03-28T12:16:07Z</time></trkpt><trkpt lat="45.57206187892002" lon="10.748853918349297"><ele>208.0</ele><time>2026-03-28T12:16:08Z</time></trkpt><trkpt lat="45.57196556950595" lon="10.748811624699373"><ele>208.0</ele><time>2026-03-28T12:16:09Z</time></trkpt><trkpt lat="45.57185750650557" lon="10.748761012613878"><ele>208.0</ele><time>2026-03-28T12:16:10Z</time></trkpt><trkpt lat="45.57174529369215" lon="10.74870348618226"><ele>208.25</ele><time>2026-03-28T12:16:11Z</time></trkpt><trkpt lat="45.57163592669103" lon="10.748642899625949"><ele>208.5</ele><time>2026-03-28T12:16:12Z</time></trkpt><trkpt lat="45.571541076578704" lon="10.748548810149508"><ele>208.75</ele><time>2026-03-28T12:16:13Z</time></trkpt><trkpt lat="45.571434960414784" lon="10.74848261033894"><ele>209.0</ele><time>2026-03-28T12:16:14Z</time></trkpt><trkpt lat="45.571340279015196" lon="10.74840080323861"><ele>209.0</ele><time>2026-03-28T12:16:15Z</time></trkpt><trkpt lat="45.57124688121312" lon="10.748324998296932"><ele>209.0</ele><time>2026-03-28T12:16:16Z</time></trkpt><trkpt lat="45.571156942950765" lon="10.748258347521741"><ele>209.0</ele><time>2026-03-28T12:16:17Z</time></trkpt><trkpt lat="45.57106080085168" lon="10.748183954817124"><ele>209.0</ele><time>2026-03-28T12:16:18Z</time></trkpt><trkpt lat="45.57097897239578" lon="10.748108954529577"><ele>209.0</ele><time>2026-03-28T12:16:19Z</time></trkpt><trkpt lat="45.570907354544175" lon="10.748037809234932"><ele>208.6</ele><time>2026-03-28T12:16:20Z</time></trkpt><trkpt lat="45.57082758647276" lon="10.747984182678017"><ele>208.2</ele><time>2026-03-28T12:16:21Z</time></trkpt><trkpt lat="45.57074867095985" lon="10.747944388904347"><ele>207.79999999999998</ele><time>2026-03-28T12:16:22Z</time></trkpt><trkpt lat="45.57065897853613" lon="10.747966669422096"><ele>207.39999999999998</ele><time>2026-03-28T12:16:23Z</time></trkpt><trkpt lat="45.570573762923225" lon="10.74806608586665"><ele>207.0</ele><time>2026-03-28T12:16:24Z</time></trkpt><trkpt lat="45.57048708467486" lon="10.748181186301855"><ele>207.0</ele><time>2026-03-28T12:16:25Z</time></trkpt><trkpt lat="45.570402232441815" lon="10.748317559531387"><ele>207.0</ele><time>2026-03-28T12:16:26Z</time></trkpt><trkpt lat="45.570306244814425" lon="10.748484844064551"><ele>207.0</ele><time>2026-03-28T12:16:27Z</time></trkpt><trkpt lat="45.570210083796965" lon="10.748673632678143"><ele>207.0</ele><time>2026-03-28T12:16:28Z</time></trkpt><trkpt lat="45.570142400813985" lon="10.748879575300252"><ele>212.66666666666669</ele><time>2026-03-28T12:16:29Z</time></trkpt><trkpt lat="45.57009952767363" lon="10.749101705130725"><ele>218.33333333333334</ele><time>2026-03-28T12:16:30Z</time></trkpt><trkpt lat="45.57008832427479" lon="10.749338620770985"><ele>224.0</ele><time>2026-03-28T12:16:31Z</time></trkpt><trkpt lat="45.57008295419476" lon="10.749526049672907"><ele>224.6</ele><time>2026-03-28T12:16:32Z</time></trkpt><trkpt lat="45.57004313354158" lon="10.74967175492758"><ele>225.2</ele><time>2026-03-28T12:16:33Z</time></trkpt><trkpt lat="45.57000479774914" lon="10.749815750509715"><ele>225.79999999999998</ele><time>2026-03-28T12:16:34Z</time></trkpt><trkpt lat="45.569956127016404" lon="10.74992560506877"><ele>226.39999999999998</ele><time>2026-03-28T12:16:35Z</time></trkpt><trkpt lat="45.56991229852893" lon="10.750039573457483"><ele>227.0</ele><time>2026-03-28T12:16:36Z</time></trkpt><trkpt lat="45.569873213646666" lon="10.75013090799931"><ele>227.0</ele><time>2026-03-28T12:16:37Z</time></trkpt><trkpt lat="45.569819456769224" lon="10.750188815681062"><ele>227.0</ele><time>2026-03-28T12:16:38Z</time></trkpt><trkpt lat="45.569768335464374" lon="10.750303058458897"><ele>227.0</ele><time>2026-03-28T12:16:40Z</time></trkpt><trkpt lat="45.569690288079855" lon="10.750221167703844"><ele>227.0</ele><time>2026-03-28T12:16:45Z</time></trkpt><trkpt lat="45.56962993988635" lon="10.75005897432"><ele>227.0</ele><time>2026-03-28T12:16:46Z</time></trkpt><trkpt lat="45.56959844812345" lon="10.749909634511912"><ele>227.0</ele><time>2026-03-28T12:16:47Z</time></trkpt><trkpt lat="45.569558163989356" lon="10.749748474677059"><ele>227.0</ele><time>2026-03-28T12:16:48Z</time></trkpt><trkpt lat="45.56951534880736" lon="10.74956873087238"><ele>227.0</ele><time>2026-03-28T12:16:49Z</time></trkpt><trkpt lat="45.569474844306" lon="10.749358185257867"><ele>227.0</ele><time>2026-03-28T12:16:50Z</time></trkpt><trkpt lat="45.56944888956389" lon="10.749141162659235"><ele>226.75</ele><time>2026-03-28T12:16:51Z</time></trkpt><trkpt lat="45.56942348702161" lon="10.748949807218295"><ele>226.5</ele><time>2026-03-28T12:16:52Z</time></trkpt><trkpt lat="45.5694044464334" lon="10.748768810392287"><ele>226.25</ele><time>2026-03-28T12:16:53Z</time></trkpt><trkpt lat="45.56938224511045" lon="10.748600474275918"><ele>226.0</ele><time>2026-03-28T12:16:54Z</time></trkpt><trkpt lat="45.5693745867789" lon="10.74845506633788"><ele>225.75</ele><time>2026-03-28T12:16:55Z</time></trkpt><trkpt lat="45.56938918849676" lon="10.748343342249335"><ele>225.5</ele><time>2026-03-28T12:16:56Z</time></trkpt><trkpt lat="45.569399158894264" lon="10.748188226053616"><ele>225.25</ele><time>2026-03-28T12:16:58Z</time></trkpt><trkpt lat="45.56924112587103" lon="10.748097363612493"><ele>225.0</ele><time>2026-03-28T12:16:59Z</time></trkpt><trkpt lat="45.56914477165086" lon="10.748006386496586"><ele>225.0</ele><time>2026-03-28T12:17:00Z</time></trkpt><trkpt lat="45.569030935413295" lon="10.747877892303894"><ele>225.0</ele><time>2026-03-28T12:17:01Z</time></trkpt><trkpt lat="45.568915271379886" lon="10.747730260029439"><ele>225.0</ele><time>2026-03-28T12:17:02Z</time></trkpt><trkpt lat="45.568817790629616" lon="10.747611926487492"><ele>225.0</ele><time>2026-03-28T12:17:03Z</time></trkpt><trkpt lat="45.56872463372419" lon="10.747512696968217"><ele>226.5</ele><time>2026-03-28T12:17:04Z</time></trkpt><trkpt lat="45.56863960939013" lon="10.747379258831288"><ele>228.0</ele><time>2026-03-28T12:17:05Z</time></trkpt><trkpt lat="45.56847870159261" lon="10.74738215842903"><ele>229.5</ele><time>2026-03-28T12:17:06Z</time></trkpt><trkpt lat="45.56834772019708" lon="10.747323863814916"><ele>231.0</ele><time>2026-03-28T12:17:07Z</time></trkpt><trkpt lat="45.568221078855295" lon="10.74728797756518"><ele>231.0</ele><time>2026-03-28T12:17:08Z</time></trkpt><trkpt lat="45.568103582761225" lon="10.747279034465882"><ele>231.00000000000003</ele><time>2026-03-28T12:17:09Z</time></trkpt><trkpt lat="45.567994076946306" lon="10.747275124424533"><ele>231.00000000000003</ele><time>2026-03-28T12:17:10Z</time></trkpt><trkpt lat="45.56789667503327" lon="10.747292926831006"><ele>231.0</ele><time>2026-03-28T12:17:11Z</time></trkpt><trkpt lat="45.567809957021794" lon="10.747296864888808"><ele>231.0</ele><time>2026-03-28T12:17:12Z</time></trkpt><trkpt lat="45.56773967893377" lon="10.747305651705982"><ele>231.83333333333334</ele><time>2026-03-28T12:17:13Z</time></trkpt><trkpt lat="45.56762742219157" lon="10.747306862418014"><ele>232.66666666666669</ele><time>2026-03-28T12:17:15Z</time></trkpt><trkpt lat="45.567563583470594" lon="10.747309682961282"><ele>233.5</ele><time>2026-03-28T12:17:16Z</time></trkpt><trkpt lat="45.56748864348996" lon="10.74731514416425"><ele>234.33333333333334</ele><time>2026-03-28T12:17:17Z</time></trkpt><trkpt lat="45.56737717042722" lon="10.74737133570038"><ele>235.16666666666669</ele><time>2026-03-28T12:17:19Z</time></trkpt><trkpt lat="45.567311616395955" lon="10.74739031574645"><ele>236.0</ele><time>2026-03-28T12:17:20Z</time></trkpt><trkpt lat="45.56723055199634" lon="10.747374567981657"><ele>236.00000000000003</ele><time>2026-03-28T12:17:21Z</time></trkpt><trkpt lat="45.56715138721439" lon="10.747373800191482"><ele>236.0</ele><time>2026-03-28T12:17:22Z</time></trkpt><trkpt lat="45.56706122299692" lon="10.747365096346256"><ele>236.0</ele><time>2026-03-28T12:17:23Z</time></trkpt><trkpt lat="45.566979645579934" lon="10.747352192942838"><ele>236.0</ele><time>2026-03-28T12:17:24Z</time></trkpt><trkpt lat="45.56689157871316" lon="10.747336481957156"><ele>236.00000000000003</ele><time>2026-03-28T12:17:25Z</time></trkpt><trkpt lat="45.56682846236647" lon="10.747328369950717"><ele>236.0</ele><time>2026-03-28T12:17:26Z</time></trkpt><trkpt lat="45.56675982310493" lon="10.747395207401905"><ele>238.00000000000003</ele><time>2026-03-28T12:17:28Z</time></trkpt><trkpt lat="45.566651208879875" lon="10.747444705250725"><ele>240.0</ele><time>2026-03-28T12:17:30Z</time></trkpt><trkpt lat="45.566596265586334" lon="10.74750741105947"><ele>242.0</ele><time>2026-03-28T12:17:31Z</time></trkpt><trkpt lat="45.566531259507926" lon="10.747557898922622"><ele>244.0</ele><time>2026-03-28T12:17:32Z</time></trkpt><trkpt lat="45.56646890936029" lon="10.747597019296908"><ele>246.00000000000003</ele><time>2026-03-28T12:17:33Z</time></trkpt><trkpt lat="45.56640095274983" lon="10.74766974489542"><ele>248.0</ele><time>2026-03-28T12:17:34Z</time></trkpt><trkpt lat="45.56635518734857" lon="10.747735938729104"><ele>249.2</ele><time>2026-03-28T12:17:35Z</time></trkpt><trkpt lat="45.56632380198566" lon="10.747907196502224"><ele>250.4</ele><time>2026-03-28T12:17:37Z</time></trkpt><trkpt lat="45.56633554952501" lon="10.748022849550395"><ele>251.59999999999997</ele><time>2026-03-28T12:17:38Z</time></trkpt><trkpt lat="45.56635037093825" lon="10.748162737822907"><ele>252.79999999999998</ele><time>2026-03-28T12:17:39Z</time></trkpt><trkpt lat="45.566385475430074" lon="10.748294647674722"><ele>254.0</ele><time>2026-03-28T12:17:40Z</time></trkpt><trkpt lat="45.56643372101202" lon="10.748403929481439"><ele>254.00000000000003</ele><time>2026-03-28T12:17:41Z</time></trkpt><trkpt lat="45.56645402513192" lon="10.748518991155825"><ele>254.0</ele><time>2026-03-28T12:17:42Z</time></trkpt><trkpt lat="45.5664943232962" lon="10.74862113963643"><ele>254.0</ele><time>2026-03-28T12:17:43Z</time></trkpt><trkpt lat="45.566554808925474" lon="10.748703170649248"><ele>254.0</ele><time>2026-03-28T12:17:44Z</time></trkpt><trkpt lat="45.56658926792823" lon="10.748800995052537"><ele>254.00000000000003</ele><time>2026-03-28T12:17:45Z</time></trkpt><trkpt lat="45.56663512823448" lon="10.748890030998988"><ele>254.0</ele><time>2026-03-28T12:17:46Z</time></trkpt><trkpt lat="45.56667430284187" lon="10.748996385656937"><ele>256.1666666666667</ele><time>2026-03-28T12:17:47Z</time></trkpt><trkpt lat="45.56669880902559" lon="10.749112097351075"><ele>258.33333333333337</ele><time>2026-03-28T12:17:48Z</time></trkpt><trkpt lat="45.566713089649745" lon="10.7492087138569"><ele>260.5</ele><time>2026-03-28T12:17:49Z</time></trkpt><trkpt lat="45.56670110832595" lon="10.74935420698949"><ele>262.6666666666667</ele><time>2026-03-28T12:17:51Z</time></trkpt><trkpt lat="45.56665570288591" lon="10.749427487835058"><ele>264.8333333333333</ele><time>2026-03-28T12:17:52Z</time></trkpt><trkpt lat="45.56659495484986" lon="10.749503091373006"><ele>267.0</ele><time>2026-03-28T12:17:53Z</time></trkpt><trkpt lat="45.56651648048576" lon="10.749597236684727"><ele>268.25</ele><time>2026-03-28T12:17:54Z</time></trkpt><trkpt lat="45.56642961463403" lon="10.74969628190888"><ele>269.5</ele><time>2026-03-28T12:17:55Z</time></trkpt><trkpt lat="45.56632640120869" lon="10.749800048709465"><ele>270.75</ele><time>2026-03-28T12:17:56Z</time></trkpt><trkpt lat="45.5661972304465" lon="10.749922898293375"><ele>272.0</ele><time>2026-03-28T12:17:57Z</time></trkpt><trkpt lat="45.56606347852215" lon="10.750030416202982"><ele>272.25</ele><time>2026-03-28T12:17:58Z</time></trkpt><trkpt lat="45.56594659352347" lon="10.750142085848637"><ele>272.5</ele><time>2026-03-28T12:17:59Z</time></trkpt><trkpt lat="45.56584502934392" lon="10.750244932489878"><ele>272.75</ele><time>2026-03-28T12:18:00Z</time></trkpt><trkpt lat="45.565754237104905" lon="10.750338065100376"><ele>273.0</ele><time>2026-03-28T12:18:01Z</time></trkpt><trkpt lat="45.565677724747324" lon="10.750416904845771"><ele>273.0</ele><time>2026-03-28T12:18:02Z</time></trkpt><trkpt lat="45.565610658305914" lon="10.750488749854823"><ele>273.0</ele><time>2026-03-28T12:18:03Z</time></trkpt><trkpt lat="45.56555532933401" lon="10.750561373494884"><ele>273.0</ele><time>2026-03-28T12:18:04Z</time></trkpt><trkpt lat="45.56549295588571" lon="10.750607386673545"><ele>273.0</ele><time>2026-03-28T12:18:05Z</time></trkpt><trkpt lat="45.56542342754016" lon="10.750670728906329"><ele>273.0</ele><time>2026-03-28T12:18:06Z</time></trkpt><trkpt lat="45.565321383602694" lon="10.75073228646272"><ele>273.0</ele><time>2026-03-28T12:18:07Z</time></trkpt><trkpt lat="45.565195831286395" lon="10.750795287016146"><ele>273.5</ele><time>2026-03-28T12:18:08Z</time></trkpt><trkpt lat="45.56506795718081" lon="10.75085544884183"><ele>274.0</ele><time>2026-03-28T12:18:09Z</time></trkpt><trkpt lat="45.564963546600445" lon="10.750917258775313"><ele>274.5</ele><time>2026-03-28T12:18:10Z</time></trkpt><trkpt lat="45.56488194547027" lon="10.75100708053357"><ele>275.0</ele><time>2026-03-28T12:18:11Z</time></trkpt><trkpt lat="45.564813323511174" lon="10.75114768374717"><ele>275.25</ele><time>2026-03-28T12:18:12Z</time></trkpt><trkpt lat="45.56474574219742" lon="10.751314470398345"><ele>275.5</ele><time>2026-03-28T12:18:13Z</time></trkpt><trkpt lat="45.56465402046714" lon="10.75146049161938"><ele>275.75</ele><time>2026-03-28T12:18:14Z</time></trkpt><trkpt lat="45.5645296768815" lon="10.751546622433413"><ele>276.0</ele><time>2026-03-28T12:18:15Z</time></trkpt><trkpt lat="45.56440610916251" lon="10.75163464541327"><ele>274.6</ele><time>2026-03-28T12:18:16Z</time></trkpt><trkpt lat="45.564292517617815" lon="10.751723833157586"><ele>273.20000000000005</ele><time>2026-03-28T12:18:17Z</time></trkpt><trkpt lat="45.56418165495424" lon="10.751786453854738"><ele>271.79999999999995</ele><time>2026-03-28T12:18:18Z</time></trkpt><trkpt lat="45.564094137191034" lon="10.751849761231432"><ele>270.4</ele><time>2026-03-28T12:18:19Z</time></trkpt><trkpt lat="45.56401598970148" lon="10.7518986234837"><ele>269.0</ele><time>2026-03-28T12:18:20Z</time></trkpt><trkpt lat="45.5639518598195" lon="10.75197840754261"><ele>267.4</ele><time>2026-03-28T12:18:21Z</time></trkpt><trkpt lat="45.56389405565015" lon="10.752049318995871"><ele>265.79999999999995</ele><time>2026-03-28T12:18:22Z</time></trkpt><trkpt lat="45.56386222433428" lon="10.752152044881978"><ele>264.20000000000005</ele><time>2026-03-28T12:18:23Z</time></trkpt><trkpt lat="45.563833882419914" lon="10.752274640971159"><ele>262.6</ele><time>2026-03-28T12:18:24Z</time></trkpt><trkpt lat="45.56384986691855" lon="10.752428946728866"><ele>261.0</ele><time>2026-03-28T12:18:25Z</time></trkpt><trkpt lat="45.563880570788726" lon="10.75260984136491"><ele>260.0</ele><time>2026-03-28T12:18:26Z</time></trkpt><trkpt lat="45.563901002384604" lon="10.752801775357854"><ele>259.0</ele><time>2026-03-28T12:18:27Z</time></trkpt><trkpt lat="45.56392325250787" lon="10.752956313194769"><ele>258.0</ele><time>2026-03-28T12:18:28Z</time></trkpt><trkpt lat="45.56393675264771" lon="10.753059655021325"><ele>257.0</ele><time>2026-03-28T12:18:29Z</time></trkpt><trkpt lat="45.56393894429053" lon="10.753163596686667"><ele>256.0</ele><time>2026-03-28T12:18:31Z</time></trkpt><trkpt lat="45.56387617242176" lon="10.753183003310422"><ele>255.99999999999997</ele><time>2026-03-28T12:18:33Z</time></trkpt><trkpt lat="45.563835764802135" lon="10.753109431385509"><ele>256.0</ele><time>2026-03-28T12:18:34Z</time></trkpt><trkpt lat="45.563836906539095" lon="10.752994292461821"><ele>256.0</ele><time>2026-03-28T12:18:35Z</time></trkpt><trkpt lat="45.563822725770315" lon="10.752871850231601"><ele>256.0</ele><time>2026-03-28T12:18:36Z</time></trkpt><trkpt lat="45.563814214726854" lon="10.752756752569802"><ele>255.99999999999997</ele><time>2026-03-28T12:18:37Z</time></trkpt><trkpt lat="45.56378884291695" lon="10.75267117065123"><ele>256.0</ele><time>2026-03-28T12:18:38Z</time></trkpt><trkpt lat="45.56371739067113" lon="10.752564351853273"><ele>256.3333333333333</ele><time>2026-03-28T12:18:40Z</time></trkpt><trkpt lat="45.563654387803965" lon="10.752577953028057"><ele>256.66666666666663</ele><time>2026-03-28T12:18:41Z</time></trkpt><trkpt lat="45.5635926852764" lon="10.752622155530371"><ele>257.0</ele><time>2026-03-28T12:18:42Z</time></trkpt><trkpt lat="45.5635901382473" lon="10.752760417615537"><ele>257.3333333333333</ele><time>2026-03-28T12:18:43Z</time></trkpt><trkpt lat="45.56363237642269" lon="10.752907122968443"><ele>257.6666666666667</ele><time>2026-03-28T12:18:44Z</time></trkpt><trkpt lat="45.56362705539399" lon="10.753016399763425"><ele>258.0</ele><time>2026-03-28T12:18:45Z</time></trkpt><trkpt lat="45.563619244310225" lon="10.753121137627627"><ele>256.4</ele><time>2026-03-28T12:18:46Z</time></trkpt><trkpt lat="45.56352358032472" lon="10.75318590241958"><ele>254.8</ele><time>2026-03-28T12:18:48Z</time></trkpt><trkpt lat="45.56346346226611" lon="10.753240779286044"><ele>253.2</ele><time>2026-03-28T12:18:49Z</time></trkpt><trkpt lat="45.5633933316293" lon="10.753337666190898"><ele>251.6</ele><time>2026-03-28T12:18:50Z</time></trkpt><trkpt lat="45.563319650982656" lon="10.753479138806922"><ele>250.0</ele><time>2026-03-28T12:18:51Z</time></trkpt><trkpt lat="45.563231424217335" lon="10.753600702361416"><ele>247.4</ele><time>2026-03-28T12:18:52Z</time></trkpt><trkpt lat="45.563131752999055" lon="10.753663301802261"><ele>244.8</ele><time>2026-03-28T12:18:53Z</time></trkpt><trkpt lat="45.56301544077855" lon="10.753709619564047"><ele>242.2</ele><time>2026-03-28T12:18:54Z</time></trkpt><trkpt lat="45.562914826865324" lon="10.753730847629093"><ele>239.6</ele><time>2026-03-28T12:18:55Z</time></trkpt><trkpt lat="45.56284216717618" lon="10.753729594018571"><ele>237.0</ele><time>2026-03-28T12:18:56Z</time></trkpt><trkpt lat="45.56276345880062" lon="10.753710214336"><ele>236.2</ele><time>2026-03-28T12:18:57Z</time></trkpt><trkpt lat="45.56266703579357" lon="10.753667170241847"><ele>235.39999999999998</ele><time>2026-03-28T12:18:58Z</time></trkpt><trkpt lat="45.562544252770905" lon="10.75362310181445"><ele>234.60000000000002</ele><time>2026-03-28T12:18:59Z</time></trkpt><trkpt lat="45.562434801885196" lon="10.753594821291927"><ele>233.8</ele><time>2026-03-28T12:19:00Z</time></trkpt><trkpt lat="45.56234082743814" lon="10.75357774054288"><ele>233.0</ele><time>2026-03-28T12:19:01Z</time></trkpt><trkpt lat="45.56224134766022" lon="10.753572989438503"><ele>233.0</ele><time>2026-03-28T12:19:02Z</time></trkpt><trkpt lat="45.56213600063865" lon="10.75358140338182"><ele>233.0</ele><time>2026-03-28T12:19:03Z</time></trkpt><trkpt lat="45.56203425900123" lon="10.75360892283073"><ele>233.0</ele><time>2026-03-28T12:19:04Z</time></trkpt><trkpt lat="45.56193405784521" lon="10.753629863778613"><ele>233.0</ele><time>2026-03-28T12:19:05Z</time></trkpt><trkpt lat="45.56184112324694" lon="10.753639332783427"><ele>233.0</ele><time>2026-03-28T12:19:06Z</time></trkpt><trkpt lat="45.56174228022778" lon="10.753636219095174"><ele>232.33333333333334</ele><time>2026-03-28T12:19:07Z</time></trkpt><trkpt lat="45.56165084288824" lon="10.753619505948622"><ele>231.66666666666669</ele><time>2026-03-28T12:19:08Z</time></trkpt><trkpt lat="45.56156401156445" lon="10.75354670652655"><ele>231.0</ele><time>2026-03-28T12:19:09Z</time></trkpt><trkpt lat="45.56147773006433" lon="10.753480296335713"><ele>230.33333333333331</ele><time>2026-03-28T12:19:10Z</time></trkpt><trkpt lat="45.56141534411388" lon="10.7534121364592"><ele>229.66666666666666</ele><time>2026-03-28T12:19:11Z</time></trkpt><trkpt lat="45.56134942019505" lon="10.753347968665059"><ele>229.0</ele><time>2026-03-28T12:19:12Z</time></trkpt><trkpt lat="45.561235432218616" lon="10.753265105224296"><ele>230.16666666666666</ele><time>2026-03-28T12:19:14Z</time></trkpt><trkpt lat="45.561162196830814" lon="10.75322617672661"><ele>231.33333333333331</ele><time>2026-03-28T12:19:15Z</time></trkpt><trkpt lat="45.56108393422992" lon="10.753196750512263"><ele>232.5</ele><time>2026-03-28T12:19:16Z</time></trkpt><trkpt lat="45.56098346353595" lon="10.753156233273494"><ele>233.66666666666669</ele><time>2026-03-28T12:19:17Z</time></trkpt><trkpt lat="45.56090078881489" lon="10.753111009463536"><ele>234.83333333333334</ele><time>2026-03-28T12:19:18Z</time></trkpt><trkpt lat="45.56080742253799" lon="10.753074964031025"><ele>236.0</ele><time>2026-03-28T12:19:19Z</time></trkpt><trkpt lat="45.56070428671119" lon="10.75305643047532"><ele>236.0</ele><time>2026-03-28T12:19:20Z</time></trkpt><trkpt lat="45.56059842456768" lon="10.75305453606694"><ele>236.0</ele><time>2026-03-28T12:19:21Z</time></trkpt><trkpt lat="45.56048176529839" lon="10.753063427838738"><ele>236.0</ele><time>2026-03-28T12:19:22Z</time></trkpt><trkpt lat="45.56035458472009" lon="10.7530634004516"><ele>236.0</ele><time>2026-03-28T12:19:23Z</time></trkpt><trkpt lat="45.56022596192748" lon="10.753038678568672"><ele>234.75</ele><time>2026-03-28T12:19:24Z</time></trkpt><trkpt lat="45.56010992897905" lon="10.752994384378466"><ele>233.5</ele><time>2026-03-28T12:19:25Z</time></trkpt><trkpt lat="45.56000001678248" lon="10.75295064402602"><ele>232.25</ele><time>2026-03-28T12:19:26Z</time></trkpt><trkpt lat="45.55988892268371" lon="10.752883697308924"><ele>231.0</ele><time>2026-03-28T12:19:27Z</time></trkpt><trkpt lat="45.55976463686513" lon="10.752800331296456"><ele>232.0</ele><time>2026-03-28T12:19:28Z</time></trkpt><trkpt lat="45.55964042556128" lon="10.752697997218068"><ele>233.0</ele><time>2026-03-28T12:19:29Z</time></trkpt><trkpt lat="45.55951471597662" lon="10.75259682820375"><ele>234.0</ele><time>2026-03-28T12:19:30Z</time></trkpt><trkpt lat="45.55939113496644" lon="10.752494416675802"><ele>235.0</ele><time>2026-03-28T12:19:31Z</time></trkpt><trkpt lat="45.5592783418168" lon="10.752361673138653"><ele>235.0</ele><time>2026-03-28T12:19:32Z</time></trkpt><trkpt lat="45.55915913316087" lon="10.75223966380568"><ele>235.0</ele><time>2026-03-28T12:19:33Z</time></trkpt><trkpt lat="45.559032349983056" lon="10.752120746218084"><ele>235.0</ele><time>2026-03-28T12:19:34Z</time></trkpt><trkpt lat="45.558888012026024" lon="10.75200310158678"><ele>235.0</ele><time>2026-03-28T12:19:35Z</time></trkpt><trkpt lat="45.55876358355385" lon="10.751900833528707"><ele>235.0</ele><time>2026-03-28T12:19:36Z</time></trkpt><trkpt lat="45.55866547253464" lon="10.751813497782887"><ele>235.0</ele><time>2026-03-28T12:19:37Z</time></trkpt><trkpt lat="45.55858107198167" lon="10.751726109194223"><ele>235.0</ele><time>2026-03-28T12:19:38Z</time></trkpt><trkpt lat="45.5584988913304" lon="10.75162890604267"><ele>235.75</ele><time>2026-03-28T12:19:39Z</time></trkpt><trkpt lat="45.55840806298186" lon="10.751543988296639"><ele>236.5</ele><time>2026-03-28T12:19:40Z</time></trkpt><trkpt lat="45.55829683004623" lon="10.75146280446102"><ele>237.25</ele><time>2026-03-28T12:19:41Z</time></trkpt><trkpt lat="45.55817546112498" lon="10.751399137625974"><ele>238.0</ele><time>2026-03-28T12:19:42Z</time></trkpt><trkpt lat="45.55804358983655" lon="10.75134339023747"><ele>238.0</ele><time>2026-03-28T12:19:43Z</time></trkpt><trkpt lat="45.55791361143766" lon="10.751296370601446"><ele>238.0</ele><time>2026-03-28T12:19:44Z</time></trkpt><trkpt lat="45.55776560663406" lon="10.75125870898102"><ele>238.0</ele><time>2026-03-28T12:19:45Z</time></trkpt><trkpt lat="45.55763485106631" lon="10.751235815063241"><ele>238.0</ele><time>2026-03-28T12:19:46Z</time></trkpt><trkpt lat="45.55751979647411" lon="10.751228252172822"><ele>236.99999999999997</ele><time>2026-03-28T12:19:47Z</time></trkpt><trkpt lat="45.55742599027053" lon="10.75123367135652"><ele>236.0</ele><time>2026-03-28T12:19:48Z</time></trkpt><trkpt lat="45.557352832365034" lon="10.751252995577548"><ele>235.0</ele><time>2026-03-28T12:19:49Z</time></trkpt><trkpt lat="45.55728587369886" lon="10.751266878284081"><ele>234.0</ele><time>2026-03-28T12:19:50Z</time></trkpt><trkpt lat="45.55721967785912" lon="10.751276921655572"><ele>232.99999999999997</ele><time>2026-03-28T12:19:51Z</time></trkpt><trkpt lat="45.55714547432308" lon="10.751287912542796"><ele>232.0</ele><time>2026-03-28T12:19:52Z</time></trkpt><trkpt lat="45.557069949516375" lon="10.751303307426097"><ele>232.6</ele><time>2026-03-28T12:19:53Z</time></trkpt><trkpt lat="45.556983515318464" lon="10.751321468621608"><ele>233.2</ele><time>2026-03-28T12:19:54Z</time></trkpt><trkpt lat="45.556891517403855" lon="10.751342065865611"><ele>233.8</ele><time>2026-03-28T12:19:55Z</time></trkpt><trkpt lat="45.556786803903165" lon="10.751362086422967"><ele>234.4</ele><time>2026-03-28T12:19:56Z</time></trkpt><trkpt lat="45.55667312307084" lon="10.751377369874346"><ele>235.0</ele><time>2026-03-28T12:19:57Z</time></trkpt><trkpt lat="45.55656117079489" lon="10.751399269020817"><ele>235.0</ele><time>2026-03-28T12:19:58Z</time></trkpt><trkpt lat="45.5564461080058" lon="10.751422752005059"><ele>235.0</ele><time>2026-03-28T12:19:59Z</time></trkpt><trkpt lat="45.55634770487353" lon="10.751445955884174"><ele>235.0</ele><time>2026-03-28T12:20:00Z</time></trkpt><trkpt lat="45.55627552524363" lon="10.751463531214755"><ele>235.0</ele><time>2026-03-28T12:20:01Z</time></trkpt><trkpt lat="45.55620513585368" lon="10.751486971884466"><ele>235.0</ele><time>2026-03-28T12:20:02Z</time></trkpt><trkpt lat="45.55611151197252" lon="10.75158795314368"><ele>235.33333333333331</ele><time>2026-03-28T12:20:04Z</time></trkpt><trkpt lat="45.55604021712856" lon="10.751624096463914"><ele>235.66666666666666</ele><time>2026-03-28T12:20:05Z</time></trkpt><trkpt lat="45.55596420991967" lon="10.751641549293026"><ele>236.0</ele><time>2026-03-28T12:20:06Z</time></trkpt><trkpt lat="45.555887982165686" lon="10.751653834903523"><ele>236.33333333333331</ele><time>2026-03-28T12:20:07Z</time></trkpt><trkpt lat="45.55581823871057" lon="10.751662426211693"><ele>236.66666666666666</ele><time>2026-03-28T12:20:08Z</time></trkpt><trkpt lat="45.55570261641312" lon="10.751641005677161"><ele>237.0</ele><time>2026-03-28T12:20:10Z</time></trkpt><trkpt lat="45.555597604889904" lon="10.75158502989525"><ele>237.0</ele><time>2026-03-28T12:20:12Z</time></trkpt><trkpt lat="45.55551656085488" lon="10.751442443155018"><ele>237.0</ele><time>2026-03-28T12:20:14Z</time></trkpt><trkpt lat="45.555470160565825" lon="10.75132429387007"><ele>237.0</ele><time>2026-03-28T12:20:15Z</time></trkpt><trkpt lat="45.5554363309369" lon="10.75120599556338"><ele>237.0</ele><time>2026-03-28T12:20:16Z</time></trkpt><trkpt lat="45.55539982280402" lon="10.751057000618138"><ele>237.0</ele><time>2026-03-28T12:20:18Z</time></trkpt><trkpt lat="45.55536097232817" lon="10.750912929560545"><ele>237.0</ele><time>2026-03-28T12:20:20Z</time></trkpt><trkpt lat="45.55533981101768" lon="10.75068531298502"><ele>237.0</ele><time>2026-03-28T12:20:26Z</time></trkpt><trkpt lat="45.55537050442188" lon="10.7511021963977"><ele>237.0</ele><time>2026-03-28T12:20:27Z</time></trkpt><trkpt lat="45.555406774849565" lon="10.751215562153583"><ele>237.0</ele><time>2026-03-28T12:20:29Z</time></trkpt><trkpt lat="45.55545115366685" lon="10.751301000785068"><ele>237.0</ele><time>2026-03-28T12:20:33Z</time></trkpt><trkpt lat="45.55554911840424" lon="10.751213191807457"><ele>237.0</ele><time>2026-03-28T12:20:36Z</time></trkpt><trkpt lat="45.5556131899657" lon="10.751126333973655"><ele>237.0</ele><time>2026-03-28T12:20:37Z</time></trkpt><trkpt lat="45.55567667349884" lon="10.751050056832412"><ele>237.0</ele><time>2026-03-28T12:20:38Z</time></trkpt><trkpt lat="45.555714413364186" lon="10.750967719665153"><ele>237.8</ele><time>2026-03-28T12:20:39Z</time></trkpt><trkpt lat="45.555729853567684" lon="10.75086552163993"><ele>238.6</ele><time>2026-03-28T12:20:40Z</time></trkpt><trkpt lat="45.55573796293217" lon="10.750720761620007"><ele>239.40000000000003</ele><time>2026-03-28T12:20:41Z</time></trkpt><trkpt lat="45.55575142487515" lon="10.750555445549242"><ele>240.20000000000002</ele><time>2026-03-28T12:20:42Z</time></trkpt><trkpt lat="45.55577237171842" lon="10.750366091134731"><ele>241.0</ele><time>2026-03-28T12:20:43Z</time></trkpt><trkpt lat="45.55580006249665" lon="10.750187254169163"><ele>241.0</ele><time>2026-03-28T12:20:44Z</time></trkpt><trkpt lat="45.55583418870745" lon="10.749994139194229"><ele>241.0</ele><time>2026-03-28T12:20:45Z</time></trkpt><trkpt lat="45.555884372298976" lon="10.7498046371804"><ele>241.0</ele><time>2026-03-28T12:20:46Z</time></trkpt><trkpt lat="45.55595537807384" lon="10.749604225041809"><ele>241.0</ele><time>2026-03-28T12:20:47Z</time></trkpt><trkpt lat="45.55603748085689" lon="10.749406659619662"><ele>240.0</ele><time>2026-03-28T12:20:48Z</time></trkpt><trkpt lat="45.556125753454424" lon="10.7492021649097"><ele>239.0</ele><time>2026-03-28T12:20:49Z</time></trkpt><trkpt lat="45.556217769807574" lon="10.748967888549084"><ele>238.0</ele><time>2026-03-28T12:20:50Z</time></trkpt><trkpt lat="45.55628434926002" lon="10.748763287371082"><ele>241.0</ele><time>2026-03-28T12:20:51Z</time></trkpt><trkpt lat="45.55634666652633" lon="10.748546150244989"><ele>244.0</ele><time>2026-03-28T12:20:52Z</time></trkpt><trkpt lat="45.55639785740235" lon="10.74836856990519"><ele>247.0</ele><time>2026-03-28T12:20:53Z</time></trkpt><trkpt lat="45.55644346800733" lon="10.748198648390797"><ele>250.0</ele><time>2026-03-28T12:20:54Z</time></trkpt><trkpt lat="45.556477383308625" lon="10.748037929670966"><ele>250.0</ele><time>2026-03-28T12:20:55Z</time></trkpt><trkpt lat="45.55651587405034" lon="10.747878259514874"><ele>250.0</ele><time>2026-03-28T12:20:56Z</time></trkpt><trkpt lat="45.55656654496775" lon="10.747731428552818"><ele>250.0</ele><time>2026-03-28T12:20:57Z</time></trkpt><trkpt lat="45.55663480457627" lon="10.747581453804326"><ele>250.0</ele><time>2026-03-28T12:20:58Z</time></trkpt><trkpt lat="45.556709432115085" lon="10.74745791725768"><ele>248.6</ele><time>2026-03-28T12:20:59Z</time></trkpt><trkpt lat="45.556776735658644" lon="10.747360361310877"><ele>247.2</ele><time>2026-03-28T12:21:00Z</time></trkpt><trkpt lat="45.5568307069303" lon="10.747270117528076"><ele>245.8</ele><time>2026-03-28T12:21:01Z</time></trkpt><trkpt lat="45.55688524082053" lon="10.747121498640464"><ele>244.4</ele><time>2026-03-28T12:21:03Z</time></trkpt><trkpt lat="45.55699495986621" lon="10.747052396047335"><ele>243.0</ele><time>2026-03-28T12:21:05Z</time></trkpt><trkpt lat="45.5570640842702" lon="10.74704278457478"><ele>244.60000000000002</ele><time>2026-03-28T12:21:06Z</time></trkpt><trkpt lat="45.55712816433038" lon="10.747022265295811"><ele>246.20000000000002</ele><time>2026-03-28T12:21:07Z</time></trkpt><trkpt lat="45.55718173998829" lon="10.74696281629802"><ele>247.8</ele><time>2026-03-28T12:21:08Z</time></trkpt><trkpt lat="45.55721793995467" lon="10.746825944610903"><ele>249.4</ele><time>2026-03-28T12:21:09Z</time></trkpt><trkpt lat="45.557289496222005" lon="10.74671815724503"><ele>251.0</ele><time>2026-03-28T12:21:10Z</time></trkpt><trkpt lat="45.55736161646137" lon="10.74658798610967"><ele>251.00000000000003</ele><time>2026-03-28T12:21:11Z</time></trkpt><trkpt lat="45.557422326201106" lon="10.746463840798656"><ele>251.0</ele><time>2026-03-28T12:21:12Z</time></trkpt><trkpt lat="45.55747460224779" lon="10.746352798564677"><ele>251.0</ele><time>2026-03-28T12:21:13Z</time></trkpt><trkpt lat="45.55752485932263" lon="10.746243387448645"><ele>251.0</ele><time>2026-03-28T12:21:14Z</time></trkpt><trkpt lat="45.55756908556854" lon="10.746152673425046"><ele>251.00000000000003</ele><time>2026-03-28T12:21:15Z</time></trkpt><trkpt lat="45.557621984413544" lon="10.746089261102759"><ele>251.0</ele><time>2026-03-28T12:21:16Z</time></trkpt><trkpt lat="45.55766910213016" lon="10.74600378250631"><ele>250.71428571428567</ele><time>2026-03-28T12:21:17Z</time></trkpt><trkpt lat="45.55771652312824" lon="10.745933877364452"><ele>250.42857142857142</ele><time>2026-03-28T12:21:18Z</time></trkpt><trkpt lat="45.55775973251435" lon="10.745854250828836"><ele>250.1428571428571</ele><time>2026-03-28T12:21:19Z</time></trkpt><trkpt lat="45.557816337417634" lon="10.745799551035702"><ele>249.85714285714283</ele><time>2026-03-28T12:21:20Z</time></trkpt><trkpt lat="45.557885399866585" lon="10.745742344454321"><ele>249.57142857142856</ele><time>2026-03-28T12:21:21Z</time></trkpt><trkpt lat="45.55794423019706" lon="10.745696148817842"><ele>249.28571428571428</ele><time>2026-03-28T12:21:23Z</time></trkpt><trkpt lat="45.55801601617578" lon="10.745635102023662"><ele>249.0</ele><time>2026-03-28T12:21:25Z</time></trkpt><trkpt lat="45.55807408796006" lon="10.745587086937112"><ele>250.39999999999998</ele><time>2026-03-28T12:21:26Z</time></trkpt><trkpt lat="45.5581584563982" lon="10.745538148192606"><ele>251.79999999999998</ele><time>2026-03-28T12:21:27Z</time></trkpt><trkpt lat="45.55824952700148" lon="10.745523078141822"><ele>253.20000000000002</ele><time>2026-03-28T12:21:28Z</time></trkpt><trkpt lat="45.558349104704" lon="10.745495228263161"><ele>254.60000000000002</ele><time>2026-03-28T12:21:29Z</time></trkpt><trkpt lat="45.55843401469378" lon="10.745475972135402"><ele>256.0</ele><time>2026-03-28T12:21:30Z</time></trkpt><trkpt lat="45.5585205364978" lon="10.745443412493302"><ele>255.99999999999997</ele><time>2026-03-28T12:21:31Z</time></trkpt><trkpt lat="45.5585985712836" lon="10.74540930054781"><ele>256.0</ele><time>2026-03-28T12:21:32Z</time></trkpt><trkpt lat="45.55869109230756" lon="10.745406505685324"><ele>256.0</ele><time>2026-03-28T12:21:33Z</time></trkpt><trkpt lat="45.55878433404772" lon="10.745386185588794"><ele>256.0</ele><time>2026-03-28T12:21:34Z</time></trkpt><trkpt lat="45.55886491150255" lon="10.745343381443064"><ele>255.99999999999997</ele><time>2026-03-28T12:21:35Z</time></trkpt><trkpt lat="45.55894784218441" lon="10.745318473520483"><ele>256.0</ele><time>2026-03-28T12:21:36Z</time></trkpt><trkpt lat="45.55904194648078" lon="10.745269446230237"><ele>255.25</ele><time>2026-03-28T12:21:37Z</time></trkpt><trkpt lat="45.559144019944256" lon="10.745211309649862"><ele>254.5</ele><time>2026-03-28T12:21:38Z</time></trkpt><trkpt lat="45.559254774677356" lon="10.74513962931961"><ele>253.75</ele><time>2026-03-28T12:21:39Z</time></trkpt><trkpt lat="45.55937277044426" lon="10.745082980274853"><ele>253.0</ele><time>2026-03-28T12:21:40Z</time></trkpt><trkpt lat="45.559478325338034" lon="10.745019261559273"><ele>253.25</ele><time>2026-03-28T12:21:41Z</time></trkpt><trkpt lat="45.55958668515954" lon="10.744948863994791"><ele>253.5</ele><time>2026-03-28T12:21:42Z</time></trkpt><trkpt lat="45.559690610867925" lon="10.7448752261155"><ele>253.75</ele><time>2026-03-28T12:21:43Z</time></trkpt><trkpt lat="45.55979869710387" lon="10.744783775788038"><ele>254.0</ele><time>2026-03-28T12:21:44Z</time></trkpt><trkpt lat="45.55989901421267" lon="10.74467711275223"><ele>254.0</ele><time>2026-03-28T12:21:45Z</time></trkpt><trkpt lat="45.56000347936428" lon="10.744549844440751"><ele>254.0</ele><time>2026-03-28T12:21:46Z</time></trkpt><trkpt lat="45.56009974069791" lon="10.744422649131808"><ele>254.0</ele><time>2026-03-28T12:21:47Z</time></trkpt><trkpt lat="45.56017915332177" lon="10.744318048515524"><ele>254.0</ele><time>2026-03-28T12:21:48Z</time></trkpt><trkpt lat="45.56026169319618" lon="10.744208385545377"><ele>253.39999999999998</ele><time>2026-03-28T12:21:49Z</time></trkpt><trkpt lat="45.560344485303744" lon="10.744096917559204"><ele>252.79999999999998</ele><time>2026-03-28T12:21:50Z</time></trkpt><trkpt lat="45.56042356811777" lon="10.743982413120527"><ele>252.20000000000002</ele><time>2026-03-28T12:21:51Z</time></trkpt><trkpt lat="45.560489370087915" lon="10.74386248550578"><ele>251.60000000000002</ele><time>2026-03-28T12:21:52Z</time></trkpt><trkpt lat="45.56057824051398" lon="10.743787934101015"><ele>251.0</ele><time>2026-03-28T12:21:53Z</time></trkpt><trkpt lat="45.56066680490053" lon="10.743696454564844"><ele>250.5</ele><time>2026-03-28T12:21:54Z</time></trkpt><trkpt lat="45.56076024099507" lon="10.74361206955455"><ele>250.0</ele><time>2026-03-28T12:21:55Z</time></trkpt><trkpt lat="45.560871215709" lon="10.743530326227244"><ele>249.5</ele><time>2026-03-28T12:21:56Z</time></trkpt><trkpt lat="45.56097621247971" lon="10.743471412473138"><ele>249.0</ele><time>2026-03-28T12:21:57Z</time></trkpt><trkpt lat="45.56108655238406" lon="10.74342103158036"><ele>248.0</ele><time>2026-03-28T12:21:58Z</time></trkpt><trkpt lat="45.561210495558605" lon="10.74338646894029"><ele>247.0</ele><time>2026-03-28T12:21:59Z</time></trkpt><trkpt lat="45.561332012349375" lon="10.743356694832377"><ele>246.0</ele><time>2026-03-28T12:22:00Z</time></trkpt><trkpt lat="45.561463335459045" lon="10.743329289267404"><ele>245.0</ele><time>2026-03-28T12:22:01Z</time></trkpt><trkpt lat="45.561596021992095" lon="10.743281166711299"><ele>245.0</ele><time>2026-03-28T12:22:02Z</time></trkpt><trkpt lat="45.56174280230109" lon="10.743254673272345"><ele>245.0</ele><time>2026-03-28T12:22:03Z</time></trkpt><trkpt lat="45.5618853073576" lon="10.743226785954528"><ele>245.0</ele><time>2026-03-28T12:22:04Z</time></trkpt><trkpt lat="45.56202049696835" lon="10.743197614001543"><ele>245.0</ele><time>2026-03-28T12:22:05Z</time></trkpt><trkpt lat="45.56215246842465" lon="10.743186369211502"><ele>244.25</ele><time>2026-03-28T12:22:06Z</time></trkpt><trkpt lat="45.56228811072195" lon="10.743130789091348"><ele>243.5</ele><time>2026-03-28T12:22:07Z</time></trkpt><trkpt lat="45.56241835946682" lon="10.743101048687235"><ele>242.75</ele><time>2026-03-28T12:22:08Z</time></trkpt><trkpt lat="45.56253341677958" lon="10.743073183183036"><ele>242.0</ele><time>2026-03-28T12:22:09Z</time></trkpt><trkpt lat="45.562635218298155" lon="10.743025304421256"><ele>242.0</ele><time>2026-03-28T12:22:10Z</time></trkpt><trkpt lat="45.5627396103285" lon="10.742967533326118"><ele>242.0</ele><time>2026-03-28T12:22:11Z</time></trkpt><trkpt lat="45.56285507443917" lon="10.7428880313686"><ele>242.0</ele><time>2026-03-28T12:22:12Z</time></trkpt><trkpt lat="45.562978355436776" lon="10.742791200611855"><ele>242.0</ele><time>2026-03-28T12:22:13Z</time></trkpt><trkpt lat="45.563077649557094" lon="10.742715167175469"><ele>241.2</ele><time>2026-03-28T12:22:14Z</time></trkpt><trkpt lat="45.563159627375214" lon="10.742656995266014"><ele>240.39999999999998</ele><time>2026-03-28T12:22:15Z</time></trkpt><trkpt lat="45.56323508586517" lon="10.742617098967605"><ele>239.60000000000002</ele><time>2026-03-28T12:22:16Z</time></trkpt><trkpt lat="45.56335518967305" lon="10.742581777249672"><ele>238.8</ele><time>2026-03-28T12:22:18Z</time></trkpt><trkpt lat="45.56342524959797" lon="10.74260859487065"><ele>238.0</ele><time>2026-03-28T12:22:20Z</time></trkpt><trkpt lat="45.56340252098035" lon="10.742790153323206"><ele>237.4</ele><time>2026-03-28T12:22:22Z</time></trkpt><trkpt lat="45.56338173819953" lon="10.742896831782739"><ele>236.8</ele><time>2026-03-28T12:22:23Z</time></trkpt><trkpt lat="45.563363619575185" lon="10.743028310237083"><ele>236.2</ele><time>2026-03-28T12:22:24Z</time></trkpt><trkpt lat="45.56331688663049" lon="10.7431686995115"><ele>235.6</ele><time>2026-03-28T12:22:25Z</time></trkpt><trkpt lat="45.56329059706068" lon="10.743301852449697"><ele>235.0</ele><time>2026-03-28T12:22:26Z</time></trkpt><trkpt lat="45.56328578862051" lon="10.743423808169252"><ele>235.8</ele><time>2026-03-28T12:22:27Z</time></trkpt><trkpt lat="45.56329374218738" lon="10.743557013991802"><ele>236.6</ele><time>2026-03-28T12:22:28Z</time></trkpt><trkpt lat="45.563308370730745" lon="10.743704314002214"><ele>237.39999999999998</ele><time>2026-03-28T12:22:29Z</time></trkpt><trkpt lat="45.56331556794744" lon="10.743849658352975"><ele>238.2</ele><time>2026-03-28T12:22:30Z</time></trkpt><trkpt lat="45.56333319526981" lon="10.743973270551443"><ele>239.0</ele><time>2026-03-28T12:22:31Z</time></trkpt><trkpt lat="45.56335767274248" lon="10.74405812712512"><ele>239.0</ele><time>2026-03-28T12:22:32Z</time></trkpt><trkpt lat="45.56340676476408" lon="10.744128315770324"><ele>238.99999999999997</ele><time>2026-03-28T12:22:33Z</time></trkpt><trkpt lat="45.56347754513304" lon="10.74417881041221"><ele>238.99999999999997</ele><time>2026-03-28T12:22:34Z</time></trkpt><trkpt lat="45.56357431548062" lon="10.744219738052148"><ele>239.0</ele><time>2026-03-28T12:22:35Z</time></trkpt><trkpt lat="45.56368807334426" lon="10.74427662112743"><ele>239.0</ele><time>2026-03-28T12:22:36Z</time></trkpt><trkpt lat="45.563835142483455" lon="10.744311577256157"><ele>239.0</ele><time>2026-03-28T12:22:37Z</time></trkpt><trkpt lat="45.563991910847946" lon="10.744320741666195"><ele>239.0</ele><time>2026-03-28T12:22:38Z</time></trkpt><trkpt lat="45.56415373310208" lon="10.744322190199737"><ele>239.0</ele><time>2026-03-28T12:22:39Z</time></trkpt><trkpt lat="45.56433764367226" lon="10.744331604726005"><ele>239.0</ele><time>2026-03-28T12:22:40Z</time></trkpt><trkpt lat="45.56451395371342" lon="10.74434063017696"><ele>239.0</ele><time>2026-03-28T12:22:41Z</time></trkpt><trkpt lat="45.564685948329625" lon="10.74434646387506"><ele>239.0</ele><time>2026-03-28T12:22:42Z</time></trkpt><trkpt lat="45.564850545824605" lon="10.74435052865101"><ele>240.0</ele><time>2026-03-28T12:22:43Z</time></trkpt><trkpt lat="45.565007446229416" lon="10.744339375165088"><ele>241.0</ele><time>2026-03-28T12:22:44Z</time></trkpt><trkpt lat="45.56516178778968" lon="10.744349293493618"><ele>242.0</ele><time>2026-03-28T12:22:45Z</time></trkpt><trkpt lat="45.56531360412948" lon="10.74433885203737"><ele>242.25</ele><time>2026-03-28T12:22:46Z</time></trkpt><trkpt lat="45.565453074887685" lon="10.744348874237915"><ele>242.5</ele><time>2026-03-28T12:22:47Z</time></trkpt><trkpt lat="45.56557092082078" lon="10.744332640883991"><ele>242.75</ele><time>2026-03-28T12:22:48Z</time></trkpt><trkpt lat="45.56568819518884" lon="10.74430829429173"><ele>243.0</ele><time>2026-03-28T12:22:49Z</time></trkpt><trkpt lat="45.56581022957895" lon="10.744249502974185"><ele>243.0</ele><time>2026-03-28T12:22:50Z</time></trkpt><trkpt lat="45.56595669775891" lon="10.744192527047979"><ele>243.0</ele><time>2026-03-28T12:22:51Z</time></trkpt><trkpt lat="45.56611333809319" lon="10.744144157521099"><ele>243.0</ele><time>2026-03-28T12:22:52Z</time></trkpt><trkpt lat="45.56626381482435" lon="10.744093803684008"><ele>244.0</ele><time>2026-03-28T12:22:53Z</time></trkpt><trkpt lat="45.56639496699972" lon="10.744060112197472"><ele>245.0</ele><time>2026-03-28T12:22:54Z</time></trkpt><trkpt lat="45.56651577128835" lon="10.744029653271935"><ele>246.0</ele><time>2026-03-28T12:22:55Z</time></trkpt><trkpt lat="45.566632534808356" lon="10.744011997313248"><ele>247.0</ele><time>2026-03-28T12:22:56Z</time></trkpt><trkpt lat="45.56676059969981" lon="10.744000635497237"><ele>247.0</ele><time>2026-03-28T12:22:57Z</time></trkpt><trkpt lat="45.566890296872934" lon="10.744003311502004"><ele>247.0</ele><time>2026-03-28T12:22:58Z</time></trkpt><trkpt lat="45.56701387564662" lon="10.744004139017058"><ele>247.0</ele><time>2026-03-28T12:22:59Z</time></trkpt><trkpt lat="45.567128675276265" lon="10.744012332265866"><ele>247.0</ele><time>2026-03-28T12:23:00Z</time></trkpt><trkpt lat="45.5672272476249" lon="10.744050556022728"><ele>247.39999999999998</ele><time>2026-03-28T12:23:01Z</time></trkpt><trkpt lat="45.56732822749721" lon="10.744059102850862"><ele>247.79999999999998</ele><time>2026-03-28T12:23:02Z</time></trkpt><trkpt lat="45.567432247700566" lon="10.744104513153301"><ele>248.2</ele><time>2026-03-28T12:23:03Z</time></trkpt><trkpt lat="45.567526340073805" lon="10.744152891155352"><ele>248.6</ele><time>2026-03-28T12:23:04Z</time></trkpt><trkpt lat="45.56759383559573" lon="10.744197580788036"><ele>249.0</ele><time>2026-03-28T12:23:05Z</time></trkpt><trkpt lat="45.56766049127312" lon="10.744226837853354"><ele>249.0</ele><time>2026-03-28T12:23:06Z</time></trkpt><trkpt lat="45.56773752065957" lon="10.744255899143392"><ele>248.99999999999997</ele><time>2026-03-28T12:23:08Z</time></trkpt><trkpt lat="45.56778752381118" lon="10.744042036824988"><ele>248.99999999999997</ele><time>2026-03-28T12:23:14Z</time></trkpt><trkpt lat="45.56776540107577" lon="10.743918980238979"><ele>249.0</ele><time>2026-03-28T12:23:15Z</time></trkpt><trkpt lat="45.567740329115914" lon="10.743784510983634"><ele>249.0</ele><time>2026-03-28T12:23:16Z</time></trkpt><trkpt lat="45.567729538093936" lon="10.743673250395076"><ele>248.83333333333334</ele><time>2026-03-28T12:23:17Z</time></trkpt><trkpt lat="45.56771240370302" lon="10.743516803195064"><ele>248.66666666666669</ele><time>2026-03-28T12:23:18Z</time></trkpt><trkpt lat="45.56769481457278" lon="10.743366147777802"><ele>248.5</ele><time>2026-03-28T12:23:19Z</time></trkpt><trkpt lat="45.567680700122054" lon="10.743254113905586"><ele>248.33333333333334</ele><time>2026-03-28T12:23:20Z</time></trkpt><trkpt lat="45.56766628795163" lon="10.743166305490899"><ele>248.16666666666669</ele><time>2026-03-28T12:23:21Z</time></trkpt><trkpt lat="45.567649825182116" lon="10.743074432401604"><ele>248.0</ele><time>2026-03-28T12:23:22Z</time></trkpt><trkpt lat="45.56761946881739" lon="10.742953178070309"><ele>248.0</ele><time>2026-03-28T12:23:24Z</time></trkpt><trkpt lat="45.5676033704481" lon="10.742853202240797"><ele>248.0</ele><time>2026-03-28T12:23:26Z</time></trkpt><trkpt lat="45.567633224558264" lon="10.742701242047811"><ele>248.0</ele><time>2026-03-28T12:23:28Z</time></trkpt><trkpt lat="45.567655125017986" lon="10.742611337315351"><ele>248.0</ele><time>2026-03-28T12:23:29Z</time></trkpt><trkpt lat="45.567662314315484" lon="10.742445617312905"><ele>248.0</ele><time>2026-03-28T12:23:31Z</time></trkpt><trkpt lat="45.56769734995126" lon="10.742300490545208"><ele>247.33333333333334</ele><time>2026-03-28T12:23:33Z</time></trkpt><trkpt lat="45.567744858384685" lon="10.742144286523073"><ele>246.66666666666669</ele><time>2026-03-28T12:23:35Z</time></trkpt><trkpt lat="45.56778177636927" lon="10.7420581892524"><ele>246.0</ele><time>2026-03-28T12:23:36Z</time></trkpt><trkpt lat="45.56782827853817" lon="10.741967408909199"><ele>245.33333333333331</ele><time>2026-03-28T12:23:37Z</time></trkpt><trkpt lat="45.5678855816372" lon="10.741878792640819"><ele>244.66666666666666</ele><time>2026-03-28T12:23:38Z</time></trkpt><trkpt lat="45.56793015562537" lon="10.741805538329817"><ele>244.0</ele><time>2026-03-28T12:23:39Z</time></trkpt><trkpt lat="45.56797161726374" lon="10.741722841262028"><ele>243.49999999999997</ele><time>2026-03-28T12:23:40Z</time></trkpt><trkpt lat="45.56800894618037" lon="10.741649332595696"><ele>243.0</ele><time>2026-03-28T12:23:41Z</time></trkpt><trkpt lat="45.56806462038018" lon="10.741497073937353"><ele>242.5</ele><time>2026-03-28T12:23:43Z</time></trkpt><trkpt lat="45.56807554200583" lon="10.741406911689328"><ele>242.0</ele><time>2026-03-28T12:23:44Z</time></trkpt><trkpt lat="45.56806886294559" lon="10.741316539608972"><ele>241.49999999999997</ele><time>2026-03-28T12:23:45Z</time></trkpt><trkpt lat="45.56804719138732" lon="10.741211265340828"><ele>241.0</ele><time>2026-03-28T12:23:46Z</time></trkpt><trkpt lat="45.56802886577907" lon="10.741116347804324"><ele>239.0</ele><time>2026-03-28T12:23:47Z</time></trkpt><trkpt lat="45.568019469459074" lon="10.740921369568582"><ele>237.00000000000003</ele><time>2026-03-28T12:23:49Z</time></trkpt><trkpt lat="45.56797836627055" lon="10.740837757653518"><ele>235.00000000000003</ele><time>2026-03-28T12:23:50Z</time></trkpt><trkpt lat="45.56794170866806" lon="10.74076318816361"><ele>233.0</ele><time>2026-03-28T12:23:51Z</time></trkpt><trkpt lat="45.567862059377056" lon="10.740630974201219"><ele>231.0</ele><time>2026-03-28T12:23:52Z</time></trkpt><trkpt lat="45.56779608679046" lon="10.74056812560919"><ele>230.0</ele><time>2026-03-28T12:23:53Z</time></trkpt><trkpt lat="45.56764592635109" lon="10.740677924893525"><ele>229.0</ele><time>2026-03-28T12:23:54Z</time></trkpt><trkpt lat="45.56756030334742" lon="10.74066530991397"><ele>228.0</ele><time>2026-03-28T12:23:55Z</time></trkpt><trkpt lat="45.567455709599834" lon="10.74061916987198"><ele>227.0</ele><time>2026-03-28T12:23:56Z</time></trkpt><trkpt lat="45.56734350741671" lon="10.74055650217396"><ele>227.0</ele><time>2026-03-28T12:23:57Z</time></trkpt><trkpt lat="45.567219527531876" lon="10.740541645331191"><ele>227.0</ele><time>2026-03-28T12:23:58Z</time></trkpt><trkpt lat="45.56711162999259" lon="10.740523177680277"><ele>227.0</ele><time>2026-03-28T12:23:59Z</time></trkpt><trkpt lat="45.56701640427387" lon="10.740494911980253"><ele>227.0</ele><time>2026-03-28T12:24:00Z</time></trkpt><trkpt lat="45.5669294231621" lon="10.740463853969011"><ele>227.0</ele><time>2026-03-28T12:24:01Z</time></trkpt><trkpt lat="45.56686199736224" lon="10.74041147447222"><ele>227.2</ele><time>2026-03-28T12:24:02Z</time></trkpt><trkpt lat="45.56679413301566" lon="10.74032073688635"><ele>227.39999999999998</ele><time>2026-03-28T12:24:03Z</time></trkpt><trkpt lat="45.566725206488" lon="10.740261549286817"><ele>227.60000000000002</ele><time>2026-03-28T12:24:04Z</time></trkpt><trkpt lat="45.56667645546481" lon="10.740158557890183"><ele>227.8</ele><time>2026-03-28T12:24:05Z</time></trkpt><trkpt lat="45.56661752421422" lon="10.740039428698232"><ele>228.0</ele><time>2026-03-28T12:24:06Z</time></trkpt><trkpt lat="45.56654349276524" lon="10.739931682863977"><ele>229.0</ele><time>2026-03-28T12:24:07Z</time></trkpt><trkpt lat="45.56649354913443" lon="10.739807820853757"><ele>230.0</ele><time>2026-03-28T12:24:08Z</time></trkpt><trkpt lat="45.56644515731844" lon="10.739680115614307"><ele>231.0</ele><time>2026-03-28T12:24:09Z</time></trkpt><trkpt lat="45.566409843132" lon="10.73956003393505"><ele>232.0</ele><time>2026-03-28T12:24:10Z</time></trkpt><trkpt lat="45.566400963807546" lon="10.739410212019731"><ele>233.0</ele><time>2026-03-28T12:24:11Z</time></trkpt><trkpt lat="45.56636749719808" lon="10.739275100315226"><ele>233.8</ele><time>2026-03-28T12:24:12Z</time></trkpt><trkpt lat="45.56635723874175" lon="10.73912988707592"><ele>234.60000000000002</ele><time>2026-03-28T12:24:13Z</time></trkpt><trkpt lat="45.56635013900879" lon="10.739013121730517"><ele>235.39999999999998</ele><time>2026-03-28T12:24:14Z</time></trkpt><trkpt lat="45.56635277359378" lon="10.738865848338245"><ele>236.2</ele><time>2026-03-28T12:24:16Z</time></trkpt><trkpt lat="45.56647710070947" lon="10.738775031318726"><ele>237.0</ele><time>2026-03-28T12:24:18Z</time></trkpt><trkpt lat="45.566557895471554" lon="10.738669531798887"><ele>237.0</ele><time>2026-03-28T12:24:19Z</time></trkpt><trkpt lat="45.56665343087277" lon="10.738532518883178"><ele>237.0</ele><time>2026-03-28T12:24:20Z</time></trkpt><trkpt lat="45.56674864133241" lon="10.738396232941723"><ele>237.0</ele><time>2026-03-28T12:24:21Z</time></trkpt><trkpt lat="45.566853426644904" lon="10.738255083358268"><ele>237.0</ele><time>2026-03-28T12:24:22Z</time></trkpt><trkpt lat="45.56696589674043" lon="10.738097641141934"><ele>235.66666666666669</ele><time>2026-03-28T12:24:23Z</time></trkpt><trkpt lat="45.567057046450294" lon="10.737911388128008"><ele>234.33333333333334</ele><time>2026-03-28T12:24:24Z</time></trkpt><trkpt lat="45.5671646663836" lon="10.737721880010646"><ele>233.0</ele><time>2026-03-28T12:24:25Z</time></trkpt><trkpt lat="45.56725996726897" lon="10.737553973964502"><ele>232.25</ele><time>2026-03-28T12:24:26Z</time></trkpt><trkpt lat="45.567352021711855" lon="10.737398281771958"><ele>231.5</ele><time>2026-03-28T12:24:27Z</time></trkpt><trkpt lat="45.56742405757175" lon="10.737272775696548"><ele>230.75</ele><time>2026-03-28T12:24:28Z</time></trkpt><trkpt lat="45.56748432495204" lon="10.737161966013403"><ele>230.0</ele><time>2026-03-28T12:24:29Z</time></trkpt><trkpt lat="45.56753326350191" lon="10.737036392728108"><ele>230.0</ele><time>2026-03-28T12:24:30Z</time></trkpt><trkpt lat="45.56756739225674" lon="10.736891248311641"><ele>230.0</ele><time>2026-03-28T12:24:31Z</time></trkpt><trkpt lat="45.56758698082501" lon="10.73673205672409"><ele>230.0</ele><time>2026-03-28T12:24:32Z</time></trkpt><trkpt lat="45.56759450381635" lon="10.736575933731247"><ele>230.0</ele><time>2026-03-28T12:24:33Z</time></trkpt><trkpt lat="45.56761795154242" lon="10.736450141428666"><ele>230.0</ele><time>2026-03-28T12:24:34Z</time></trkpt><trkpt lat="45.56762690459902" lon="10.736352229285593"><ele>229.85714285714283</ele><time>2026-03-28T12:24:35Z</time></trkpt><trkpt lat="45.56764508047541" lon="10.736241152038302"><ele>229.71428571428572</ele><time>2026-03-28T12:24:37Z</time></trkpt><trkpt lat="45.567713176299215" lon="10.736254499616821"><ele>229.57142857142856</ele><time>2026-03-28T12:24:39Z</time></trkpt><trkpt lat="45.56775338478449" lon="10.7363247235766"><ele>229.42857142857142</ele><time>2026-03-28T12:24:40Z</time></trkpt><trkpt lat="45.56778262948136" lon="10.73641359368642"><ele>229.28571428571428</ele><time>2026-03-28T12:24:41Z</time></trkpt><trkpt lat="45.56786190912199" lon="10.7364974088566"><ele>229.14285714285714</ele><time>2026-03-28T12:24:43Z</time></trkpt><trkpt lat="45.56792106277813" lon="10.736461203795635"><ele>229.0</ele><time>2026-03-28T12:24:45Z</time></trkpt><trkpt lat="45.56790899929338" lon="10.736286409567814"><ele>229.0</ele><time>2026-03-28T12:24:53Z</time></trkpt><trkpt lat="45.567837169626195" lon="10.736178686295514"><ele>228.99999999999997</ele><time>2026-03-28T12:24:54Z</time></trkpt><trkpt lat="45.56777780975156" lon="10.736053132821791"><ele>228.99999999999997</ele><time>2026-03-28T12:24:55Z</time></trkpt><trkpt lat="45.56774446726613" lon="10.735962380001402"><ele>229.0</ele><time>2026-03-28T12:24:56Z</time></trkpt><trkpt lat="45.56775172291615" lon="10.735819146190392"><ele>229.0</ele><time>2026-03-28T12:25:00Z</time></trkpt><trkpt lat="45.56790881957213" lon="10.735814083641804"><ele>226.75</ele><time>2026-03-28T12:25:01Z</time></trkpt><trkpt lat="45.567995685944766" lon="10.7358581083179"><ele>224.5</ele><time>2026-03-28T12:25:02Z</time></trkpt><trkpt lat="45.56811525735412" lon="10.735900481943311"><ele>222.25</ele><time>2026-03-28T12:25:03Z</time></trkpt><trkpt lat="45.568238238315615" lon="10.735945796509368"><ele>220.0</ele><time>2026-03-28T12:25:04Z</time></trkpt><trkpt lat="45.568375825485155" lon="10.735998990275265"><ele>220.0</ele><time>2026-03-28T12:25:05Z</time></trkpt><trkpt lat="45.568497723660855" lon="10.736029448827374"><ele>220.0</ele><time>2026-03-28T12:25:06Z</time></trkpt><trkpt lat="45.56860931007907" lon="10.736037978113835"><ele>220.0</ele><time>2026-03-28T12:25:07Z</time></trkpt><trkpt lat="45.56873621562881" lon="10.736020439544255"><ele>220.0</ele><time>2026-03-28T12:25:08Z</time></trkpt><trkpt lat="45.56886409626271" lon="10.736002885232281"><ele>219.75</ele><time>2026-03-28T12:25:09Z</time></trkpt><trkpt lat="45.56899578679247" lon="10.736010105623151"><ele>219.5</ele><time>2026-03-28T12:25:10Z</time></trkpt><trkpt lat="45.56913200758331" lon="10.736046667366153"><ele>219.25</ele><time>2026-03-28T12:25:11Z</time></trkpt><trkpt lat="45.56927010987088" lon="10.736124633638306"><ele>219.0</ele><time>2026-03-28T12:25:12Z</time></trkpt><trkpt lat="45.56940002705268" lon="10.736164223284797"><ele>219.0</ele><time>2026-03-28T12:25:13Z</time></trkpt><trkpt lat="45.569518988881875" lon="10.736215649168651"><ele>219.0</ele><time>2026-03-28T12:25:14Z</time></trkpt><trkpt lat="45.56965380301985" lon="10.736263516129965"><ele>219.0</ele><time>2026-03-28T12:25:15Z</time></trkpt><trkpt lat="45.569800732261626" lon="10.736281070586221"><ele>219.0</ele><time>2026-03-28T12:25:16Z</time></trkpt><trkpt lat="45.56994368980321" lon="10.736282994637195"><ele>219.0</ele><time>2026-03-28T12:25:17Z</time></trkpt><trkpt lat="45.57008176204988" lon="10.736305944113054"><ele>219.0</ele><time>2026-03-28T12:25:18Z</time></trkpt><trkpt lat="45.57020646722319" lon="10.736307723250778"><ele>219.0</ele><time>2026-03-28T12:25:19Z</time></trkpt><trkpt lat="45.570320495981704" lon="10.736317618415702"><ele>219.0</ele><time>2026-03-28T12:25:20Z</time></trkpt><trkpt lat="45.57042696581299" lon="10.73631897225372"><ele>219.6</ele><time>2026-03-28T12:25:21Z</time></trkpt><trkpt lat="45.57051948021344" lon="10.736318010340433"><ele>220.2</ele><time>2026-03-28T12:25:22Z</time></trkpt><trkpt lat="45.57058899556359" lon="10.736318923803994"><ele>220.79999999999998</ele><time>2026-03-28T12:25:23Z</time></trkpt><trkpt lat="45.57066622848588" lon="10.736323863146124"><ele>221.39999999999998</ele><time>2026-03-28T12:25:25Z</time></trkpt><trkpt lat="45.570674142189716" lon="10.736524151322234"><ele>222.0</ele><time>2026-03-28T12:25:27Z</time></trkpt><trkpt lat="45.57071820336744" lon="10.736645973090377"><ele>222.0</ele><time>2026-03-28T12:25:28Z</time></trkpt><trkpt lat="45.570751039960804" lon="10.73678020185441"><ele>222.0</ele><time>2026-03-28T12:25:29Z</time></trkpt><trkpt lat="45.570781900377455" lon="10.736920971482"><ele>222.0</ele><time>2026-03-28T12:25:30Z</time></trkpt><trkpt lat="45.5707938557392" lon="10.73707381202593"><ele>222.0</ele><time>2026-03-28T12:25:31Z</time></trkpt><trkpt lat="45.570800100192656" lon="10.73721495840093"><ele>222.0</ele><time>2026-03-28T12:25:32Z</time></trkpt><trkpt lat="45.57082638384504" lon="10.737363643826527"><ele>222.0</ele><time>2026-03-28T12:25:33Z</time></trkpt><trkpt lat="45.57082911232193" lon="10.737523889379304"><ele>222.0</ele><time>2026-03-28T12:25:34Z</time></trkpt><trkpt lat="45.570837628946144" lon="10.737646891888115"><ele>222.0</ele><time>2026-03-28T12:25:35Z</time></trkpt><trkpt lat="45.57084178984213" lon="10.73774499310717"><ele>222.0</ele><time>2026-03-28T12:25:36Z</time></trkpt><trkpt lat="45.57085057661474" lon="10.737856879455128"><ele>222.0</ele><time>2026-03-28T12:25:37Z</time></trkpt><trkpt lat="45.57084300943163" lon="10.73795613185949"><ele>222.0</ele><time>2026-03-28T12:25:38Z</time></trkpt><trkpt lat="45.57086769895695" lon="10.738089730110685"><ele>221.83333333333334</ele><time>2026-03-28T12:25:39Z</time></trkpt><trkpt lat="45.57086008683376" lon="10.738228243319147"><ele>221.66666666666669</ele><time>2026-03-28T12:25:40Z</time></trkpt><trkpt lat="45.57088289009132" lon="10.738340763479771"><ele>221.5</ele><time>2026-03-28T12:25:41Z</time></trkpt><trkpt lat="45.570876564084614" lon="10.738460065509337"><ele>221.33333333333334</ele><time>2026-03-28T12:25:42Z</time></trkpt><trkpt lat="45.57090183082819" lon="10.73856852303198"><ele>221.16666666666669</ele><time>2026-03-28T12:25:43Z</time></trkpt><trkpt lat="45.570903718062596" lon="10.738659138928423"><ele>221.0</ele><time>2026-03-28T12:25:44Z</time></trkpt><trkpt lat="45.57091734851613" lon="10.738845881853825"><ele>221.00000000000003</ele><time>2026-03-28T12:25:46Z</time></trkpt><trkpt lat="45.57091559471848" lon="10.738974697785096"><ele>221.0</ele><time>2026-03-28T12:25:47Z</time></trkpt><trkpt lat="45.57090213082965" lon="10.739088803169578"><ele>221.0</ele><time>2026-03-28T12:25:48Z</time></trkpt><trkpt lat="45.57088661076299" lon="10.739217696610458"><ele>221.0</ele><time>2026-03-28T12:25:49Z</time></trkpt><trkpt lat="45.57088343501341" lon="10.739349263391269"><ele>221.00000000000003</ele><time>2026-03-28T12:25:50Z</time></trkpt><trkpt lat="45.57086845533437" lon="10.739471681084789"><ele>221.0</ele><time>2026-03-28T12:25:51Z</time></trkpt><trkpt lat="45.570868455335784" lon="10.739635498474364"><ele>221.0</ele><time>2026-03-28T12:25:53Z</time></trkpt><trkpt lat="45.570897281802964" lon="10.739721486401915"><ele>221.00000000000003</ele><time>2026-03-28T12:25:55Z</time></trkpt><trkpt lat="45.5710202631876" lon="10.739715097840662"><ele>221.00000000000003</ele><time>2026-03-28T12:25:58Z</time></trkpt><trkpt lat="45.57109860106853" lon="10.739701962093344"><ele>221.0</ele><time>2026-03-28T12:25:59Z</time></trkpt><trkpt lat="45.57118028586507" lon="10.739661176626257"><ele>221.0</ele><time>2026-03-28T12:26:01Z</time></trkpt><trkpt lat="45.571237251714116" lon="10.739771181623594"><ele>217.25</ele><time>2026-03-28T12:26:03Z</time></trkpt><trkpt lat="45.57123802532958" lon="10.739964759286046"><ele>213.5</ele><time>2026-03-28T12:26:05Z</time></trkpt><trkpt lat="45.57121778375633" lon="10.740104710362546"><ele>209.75</ele><time>2026-03-28T12:26:06Z</time></trkpt><trkpt lat="45.57120853349584" lon="10.740268546085"><ele>206.0</ele><time>2026-03-28T12:26:07Z</time></trkpt><trkpt lat="45.57119695398449" lon="10.740429904670545"><ele>205.4</ele><time>2026-03-28T12:26:08Z</time></trkpt><trkpt lat="45.57120726209039" lon="10.740552403177274"><ele>204.8</ele><time>2026-03-28T12:26:09Z</time></trkpt><trkpt lat="45.571210806358444" lon="10.740662226378525"><ele>204.20000000000002</ele><time>2026-03-28T12:26:10Z</time></trkpt><trkpt lat="45.57122366468805" lon="10.740823795178864"><ele>203.60000000000002</ele><time>2026-03-28T12:26:12Z</time></trkpt><trkpt lat="45.57121767934609" lon="10.740956083550287"><ele>203.0</ele><time>2026-03-28T12:26:14Z</time></trkpt><trkpt lat="45.57113420594817" lon="10.741055957965619"><ele>208.2</ele><time>2026-03-28T12:26:16Z</time></trkpt><trkpt lat="45.57106980178712" lon="10.741098534090005"><ele>213.4</ele><time>2026-03-28T12:26:17Z</time></trkpt><trkpt lat="45.570995271706934" lon="10.741254018883401"><ele>218.59999999999997</ele><time>2026-03-28T12:26:19Z</time></trkpt><trkpt lat="45.5710030901051" lon="10.741364562530661"><ele>223.79999999999998</ele><time>2026-03-28T12:26:20Z</time></trkpt><trkpt lat="45.57102051711028" lon="10.741523887644458"><ele>229.0</ele><time>2026-03-28T12:26:22Z</time></trkpt><trkpt lat="45.57105800651902" lon="10.741619431116169"><ele>229.0</ele><time>2026-03-28T12:26:23Z</time></trkpt><trkpt lat="45.57108356940488" lon="10.741750867131056"><ele>228.99999999999997</ele><time>2026-03-28T12:26:24Z</time></trkpt><trkpt lat="45.57112295665576" lon="10.741882670484758"><ele>228.99999999999997</ele><time>2026-03-28T12:26:25Z</time></trkpt><trkpt lat="45.5711631041719" lon="10.74198615066492"><ele>229.0</ele><time>2026-03-28T12:26:26Z</time></trkpt><trkpt lat="45.57118466577214" lon="10.742135165264788"><ele>229.0</ele><time>2026-03-28T12:26:28Z</time></trkpt><trkpt lat="45.57121575749122" lon="10.742261187410229"><ele>226.16666666666666</ele><time>2026-03-28T12:26:30Z</time></trkpt><trkpt lat="45.571265545133215" lon="10.742400982152029"><ele>223.33333333333331</ele><time>2026-03-28T12:26:32Z</time></trkpt><trkpt lat="45.571297755236536" lon="10.742523886914219"><ele>220.5</ele><time>2026-03-28T12:26:34Z</time></trkpt><trkpt lat="45.57131904249222" lon="10.74263385043768"><ele>217.66666666666669</ele><time>2026-03-28T12:26:36Z</time></trkpt><trkpt lat="45.57133012756385" lon="10.742730912889336"><ele>214.83333333333334</ele><time>2026-03-28T12:26:39Z</time></trkpt><trkpt lat="45.57135614815742" lon="10.742833926841628"><ele>212.0</ele><time>2026-03-28T12:26:40Z</time></trkpt><trkpt lat="45.5713821732627" lon="10.742938473902926"><ele>212.00000000000003</ele><time>2026-03-28T12:26:41Z</time></trkpt><trkpt lat="45.571402660718" lon="10.74303014078777"><ele>212.0</ele><time>2026-03-28T12:26:42Z</time></trkpt><trkpt lat="45.57144516941192" lon="10.743150977424216"><ele>212.0</ele><time>2026-03-28T12:26:44Z</time></trkpt><trkpt lat="45.57147674132019" lon="10.743244182414118"><ele>212.0</ele><time>2026-03-28T12:26:47Z</time></trkpt><trkpt lat="45.5714366655888" lon="10.743163521750361"><ele>212.00000000000003</ele><time>2026-03-28T12:26:51Z</time></trkpt><trkpt lat="45.5714063253821" lon="10.743073209213494"><ele>212.0</ele><time>2026-03-28T12:26:52Z</time></trkpt><trkpt lat="45.57138593569095" lon="10.742964084400267"><ele>212.0</ele><time>2026-03-28T12:26:53Z</time></trkpt><trkpt lat="45.57135102715536" lon="10.742843205336577"><ele>212.0</ele><time>2026-03-28T12:26:54Z</time></trkpt><trkpt lat="45.57132898965376" lon="10.74273463284723"><ele>212.0</ele><time>2026-03-28T12:26:55Z</time></trkpt><trkpt lat="45.57130711486731" lon="10.742614617950396"><ele>212.0</ele><time>2026-03-28T12:26:56Z</time></trkpt><trkpt lat="45.57131412372928" lon="10.742479747837937"><ele>212.0</ele><time>2026-03-28T12:26:57Z</time></trkpt><trkpt lat="45.57129067618832" lon="10.74234204738713"><ele>211.6</ele><time>2026-03-28T12:26:58Z</time></trkpt><trkpt lat="45.571259874002244" lon="10.742204779910194"><ele>211.2</ele><time>2026-03-28T12:26:59Z</time></trkpt><trkpt lat="45.57122713978366" lon="10.74209592876497"><ele>210.8</ele><time>2026-03-28T12:27:00Z</time></trkpt><trkpt lat="45.57118023837697" lon="10.741949282931952"><ele>210.4</ele><time>2026-03-28T12:27:02Z</time></trkpt><trkpt lat="45.571244560905896" lon="10.74209321893759"><ele>210.0</ele><time>2026-03-28T12:27:09Z</time></trkpt><trkpt lat="45.571281220954255" lon="10.742199770735235"><ele>210.0</ele><time>2026-03-28T12:27:10Z</time></trkpt><trkpt lat="45.57141604366795" lon="10.742213488968812"><ele>210.0</ele><time>2026-03-28T12:27:11Z</time></trkpt><trkpt lat="45.57150022472123" lon="10.742313325973418"><ele>210.0</ele><time>2026-03-28T12:27:13Z</time></trkpt><trkpt lat="45.571561907958404" lon="10.742394940494034"><ele>210.0</ele><time>2026-03-28T12:27:15Z</time></trkpt><trkpt lat="45.57161412498596" lon="10.742515513947147"><ele>210.0</ele><time>2026-03-28T12:27:17Z</time></trkpt><trkpt lat="45.571699605757196" lon="10.742630661669478"><ele>210.0</ele><time>2026-03-28T12:27:19Z</time></trkpt><trkpt lat="45.57183519332438" lon="10.7426018733051"><ele>210.0</ele><time>2026-03-28T12:27:21Z</time></trkpt><trkpt lat="45.57192005311616" lon="10.742552766848124"><ele>210.0</ele><time>2026-03-28T12:27:22Z</time></trkpt><trkpt lat="45.57201033124419" lon="10.742508284455406"><ele>210.0</ele><time>2026-03-28T12:27:23Z</time></trkpt><trkpt lat="45.57209219694448" lon="10.742490952054983"><ele>210.0</ele><time>2026-03-28T12:27:24Z</time></trkpt><trkpt lat="45.5721804535818" lon="10.742461713794176"><ele>209.2</ele><time>2026-03-28T12:27:26Z</time></trkpt><trkpt lat="45.57229879028189" lon="10.742523979082915"><ele>208.4</ele><time>2026-03-28T12:27:28Z</time></trkpt><trkpt lat="45.57239299323202" lon="10.742610598932151"><ele>207.60000000000002</ele><time>2026-03-28T12:27:30Z</time></trkpt><trkpt lat="45.572440328693716" lon="10.742673724372061"><ele>206.8</ele><time>2026-03-28T12:27:31Z</time></trkpt><trkpt lat="45.57249996349075" lon="10.742747870832746"><ele>206.0</ele><time>2026-03-28T12:27:32Z</time></trkpt><trkpt lat="45.57256591252238" lon="10.742817906492864"><ele>205.75</ele><time>2026-03-28T12:27:33Z</time></trkpt><trkpt lat="45.57269370304236" lon="10.7429558392809"><ele>205.5</ele><time>2026-03-28T12:27:35Z</time></trkpt><trkpt lat="45.57277224356601" lon="10.743033653844813"><ele>205.25</ele><time>2026-03-28T12:27:36Z</time></trkpt><trkpt lat="45.57287476828783" lon="10.743120845427308"><ele>205.0</ele><time>2026-03-28T12:27:37Z</time></trkpt><trkpt lat="45.5729675181291" lon="10.7432021902729"><ele>205.0</ele><time>2026-03-28T12:27:38Z</time></trkpt><trkpt lat="45.57306420377579" lon="10.743280775013977"><ele>205.0</ele><time>2026-03-28T12:27:39Z</time></trkpt><trkpt lat="45.57314871379513" lon="10.743375218805236"><ele>205.0</ele><time>2026-03-28T12:27:40Z</time></trkpt><trkpt lat="45.573218325634386" lon="10.743455791680619"><ele>205.0</ele><time>2026-03-28T12:27:41Z</time></trkpt><trkpt lat="45.57328088012542" lon="10.743518504306452"><ele>205.0</ele><time>2026-03-28T12:27:42Z</time></trkpt><trkpt lat="45.573341418308736" lon="10.743579506892862"><ele>208.4</ele><time>2026-03-28T12:27:43Z</time></trkpt><trkpt lat="45.573414625457666" lon="10.743661020793397"><ele>211.8</ele><time>2026-03-28T12:27:44Z</time></trkpt><trkpt lat="45.57347526908799" lon="10.743752706511122"><ele>215.2</ele><time>2026-03-28T12:27:45Z</time></trkpt><trkpt lat="45.57354875322124" lon="10.743862163330776"><ele>218.6</ele><time>2026-03-28T12:27:46Z</time></trkpt><trkpt lat="45.57361353015742" lon="10.743950618843122"><ele>222.0</ele><time>2026-03-28T12:27:47Z</time></trkpt><trkpt lat="45.5736829867273" lon="10.744031060950952"><ele>222.16666666666666</ele><time>2026-03-28T12:27:48Z</time></trkpt><trkpt lat="45.57373184974354" lon="10.744090475607264"><ele>222.33333333333331</ele><time>2026-03-28T12:27:49Z</time></trkpt><trkpt lat="45.57379383705205" lon="10.744145782247708"><ele>222.5</ele><time>2026-03-28T12:27:50Z</time></trkpt><trkpt lat="45.573854368784346" lon="10.744174726798933"><ele>222.66666666666666</ele><time>2026-03-28T12:27:51Z</time></trkpt><trkpt lat="45.57392628462731" lon="10.744262066826943"><ele>222.83333333333331</ele><time>2026-03-28T12:27:53Z</time></trkpt><trkpt lat="45.573960359465005" lon="10.744355133776507"><ele>223.0</ele><time>2026-03-28T12:27:54Z</time></trkpt><trkpt lat="45.57402597012872" lon="10.744440477922756"><ele>223.0</ele><time>2026-03-28T12:27:55Z</time></trkpt><trkpt lat="45.57410835557714" lon="10.744517473268308"><ele>223.0</ele><time>2026-03-28T12:27:56Z</time></trkpt><trkpt lat="45.574187166484286" lon="10.7446071253266"><ele>223.0</ele><time>2026-03-28T12:27:57Z</time></trkpt><trkpt lat="45.57427551969853" lon="10.744707398514718"><ele>223.0</ele><time>2026-03-28T12:27:58Z</time></trkpt><trkpt lat="45.57438725232361" lon="10.744848195898559"><ele>223.0</ele><time>2026-03-28T12:27:59Z</time></trkpt><trkpt lat="45.57448345582632" lon="10.74497082136434"><ele>223.0</ele><time>2026-03-28T12:28:00Z</time></trkpt><trkpt lat="45.57456535854147" lon="10.745077177805662"><ele>223.0</ele><time>2026-03-28T12:28:01Z</time></trkpt><trkpt lat="45.57464165952736" lon="10.745174002728337"><ele>223.0</ele><time>2026-03-28T12:28:02Z</time></trkpt><trkpt lat="45.574709141253585" lon="10.74524827270149"><ele>223.0</ele><time>2026-03-28T12:28:03Z</time></trkpt><trkpt lat="45.57477119557961" lon="10.745319062888624"><ele>223.2</ele><time>2026-03-28T12:28:04Z</time></trkpt><trkpt lat="45.574838291654906" lon="10.745412747237381"><ele>223.4</ele><time>2026-03-28T12:28:06Z</time></trkpt><trkpt lat="45.574874187182694" lon="10.745510430599726"><ele>223.59999999999997</ele><time>2026-03-28T12:28:10Z</time></trkpt><trkpt lat="45.574902982073496" lon="10.745625691711563"><ele>223.79999999999998</ele><time>2026-03-28T12:28:32Z</time></trkpt><trkpt lat="45.57499298841142" lon="10.745765687088374"><ele>224.0</ele><time>2026-03-28T12:28:34Z</time></trkpt><trkpt lat="45.57506300546368" lon="10.745835708535198"><ele>224.0</ele><time>2026-03-28T12:28:35Z</time></trkpt><trkpt lat="45.5751513536935" lon="10.745914963595684"><ele>224.0</ele><time>2026-03-28T12:28:36Z</time></trkpt><trkpt lat="45.5752474931945" lon="10.745996615187925"><ele>224.0</ele><time>2026-03-28T12:28:37Z</time></trkpt><trkpt lat="45.57536329224737" lon="10.74608030044795"><ele>224.0</ele><time>2026-03-28T12:28:38Z</time></trkpt><trkpt lat="45.575489743724866" lon="10.746156666032725"><ele>226.25</ele><time>2026-03-28T12:28:39Z</time></trkpt><trkpt lat="45.57561014111623" lon="10.746213331564272"><ele>228.5</ele><time>2026-03-28T12:28:40Z</time></trkpt><trkpt lat="45.57573075475224" lon="10.746255019809787"><ele>230.75</ele><time>2026-03-28T12:28:41Z</time></trkpt><trkpt lat="45.57584987873281" lon="10.746278808919557"><ele>233.0</ele><time>2026-03-28T12:28:42Z</time></trkpt><trkpt lat="45.575954340817546" lon="10.74629598574312"><ele>233.0</ele><time>2026-03-28T12:28:43Z</time></trkpt><trkpt lat="45.576064142129965" lon="10.746294134682183"><ele>233.0</ele><time>2026-03-28T12:28:44Z</time></trkpt><trkpt lat="45.57617369288995" lon="10.746441091815212"><ele>233.0</ele><time>2026-03-28T12:28:45Z</time></trkpt><trkpt lat="45.57624889522927" lon="10.746428399245202"><ele>233.0</ele><time>2026-03-28T12:28:46Z</time></trkpt><trkpt lat="45.576340257479124" lon="10.746428399242482"><ele>233.0</ele><time>2026-03-28T12:28:47Z</time></trkpt><trkpt lat="45.57641058197263" lon="10.746447327611333"><ele>233.33333333333334</ele><time>2026-03-28T12:28:48Z</time></trkpt><trkpt lat="45.57647537495422" lon="10.746468802342198"><ele>233.66666666666669</ele><time>2026-03-28T12:28:49Z</time></trkpt><trkpt lat="45.57654579392176" lon="10.74648709425855"><ele>234.0</ele><time>2026-03-28T12:28:50Z</time></trkpt><trkpt lat="45.57661856483034" lon="10.746494267637779"><ele>234.33333333333331</ele><time>2026-03-28T12:28:52Z</time></trkpt><trkpt lat="45.576692591439716" lon="10.746611331360857"><ele>234.66666666666666</ele><time>2026-03-28T12:28:54Z</time></trkpt><trkpt lat="45.57671217305897" lon="10.74673131984196"><ele>235.0</ele><time>2026-03-28T12:28:55Z</time></trkpt><trkpt lat="45.57675318228044" lon="10.746819439243302"><ele>234.99999999999997</ele><time>2026-03-28T12:28:56Z</time></trkpt><trkpt lat="45.57682698891363" lon="10.746874333627744"><ele>235.0</ele><time>2026-03-28T12:28:57Z</time></trkpt><trkpt lat="45.57689559654681" lon="10.746891964255468"><ele>235.0</ele><time>2026-03-28T12:28:58Z</time></trkpt><trkpt lat="45.57697116220901" lon="10.74689522323645"><ele>235.0</ele><time>2026-03-28T12:28:59Z</time></trkpt><trkpt lat="45.57705463399037" lon="10.746870689672548"><ele>234.99999999999997</ele><time>2026-03-28T12:29:00Z</time></trkpt><trkpt lat="45.577150149087785" lon="10.746816627280339"><ele>235.0</ele><time>2026-03-28T12:29:01Z</time></trkpt><trkpt lat="45.57725455576844" lon="10.746795530782343"><ele>234.75</ele><time>2026-03-28T12:29:02Z</time></trkpt><trkpt lat="45.577361266311954" lon="10.74671869304296"><ele>234.5</ele><time>2026-03-28T12:29:03Z</time></trkpt><trkpt lat="45.577468848816316" lon="10.746640144055045"><ele>234.25</ele><time>2026-03-28T12:29:04Z</time></trkpt><trkpt lat="45.57759011541649" lon="10.746524082468659"><ele>234.0</ele><time>2026-03-28T12:29:05Z</time></trkpt><trkpt lat="45.57771305541287" lon="10.746373032771917"><ele>234.0</ele><time>2026-03-28T12:29:06Z</time></trkpt><trkpt lat="45.57784480719931" lon="10.746234117563475"><ele>234.0</ele><time>2026-03-28T12:29:07Z</time></trkpt><trkpt lat="45.57797101534648" lon="10.746116396574951"><ele>234.0</ele><time>2026-03-28T12:29:08Z</time></trkpt><trkpt lat="45.57810210656068" lon="10.746000166424295"><ele>232.25</ele><time>2026-03-28T12:29:09Z</time></trkpt><trkpt lat="45.57823196177611" lon="10.745896657601683"><ele>230.5</ele><time>2026-03-28T12:29:10Z</time></trkpt><trkpt lat="45.578358239202046" lon="10.745795024933237"><ele>228.75</ele><time>2026-03-28T12:29:11Z</time></trkpt><trkpt lat="45.578478033912994" lon="10.7456903950815"><ele>227.0</ele><time>2026-03-28T12:29:12Z</time></trkpt><trkpt lat="45.57859347615815" lon="10.745587379290525"><ele>226.5</ele><time>2026-03-28T12:29:13Z</time></trkpt><trkpt lat="45.57870435439111" lon="10.745485381987372"><ele>226.0</ele><time>2026-03-28T12:29:14Z</time></trkpt><trkpt lat="45.57880984649664" lon="10.745374263802411"><ele>225.5</ele><time>2026-03-28T12:29:15Z</time></trkpt><trkpt lat="45.57889561027754" lon="10.745249346472113"><ele>225.0</ele><time>2026-03-28T12:29:16Z</time></trkpt><trkpt lat="45.578975260402395" lon="10.745112770327486"><ele>224.0</ele><time>2026-03-28T12:29:17Z</time></trkpt><trkpt lat="45.57905770841868" lon="10.744983617174192"><ele>223.0</ele><time>2026-03-28T12:29:18Z</time></trkpt><trkpt lat="45.57913958937064" lon="10.744864091897162"><ele>222.0</ele><time>2026-03-28T12:29:19Z</time></trkpt><trkpt lat="45.579212551240445" lon="10.744755201823928"><ele>221.0</ele><time>2026-03-28T12:29:20Z</time></trkpt><trkpt lat="45.57928618372652" lon="10.744672195782186"><ele>220.0</ele><time>2026-03-28T12:29:21Z</time></trkpt><trkpt lat="45.579359630928835" lon="10.744617309581184"><ele>220.0</ele><time>2026-03-28T12:29:22Z</time></trkpt><trkpt lat="45.579434112659506" lon="10.744605932338496"><ele>220.0</ele><time>2026-03-28T12:29:23Z</time></trkpt><trkpt lat="45.57949605143517" lon="10.744693417005628"><ele>220.0</ele><time>2026-03-28T12:29:24Z</time></trkpt><trkpt lat="45.579581970237435" lon="10.744754989903777"><ele>220.0</ele><time>2026-03-28T12:29:25Z</time></trkpt><trkpt lat="45.579678454369756" lon="10.744806020903578"><ele>220.0</ele><time>2026-03-28T12:29:26Z</time></trkpt><trkpt lat="45.57977563817596" lon="10.744887999533237"><ele>219.25</ele><time>2026-03-28T12:29:27Z</time></trkpt><trkpt lat="45.57988361513267" lon="10.744965416827323"><ele>218.5</ele><time>2026-03-28T12:29:28Z</time></trkpt><trkpt lat="45.57997063948425" lon="10.745075060881799"><ele>217.75</ele><time>2026-03-28T12:29:29Z</time></trkpt><trkpt lat="45.58006551591343" lon="10.745172490806526"><ele>217.0</ele><time>2026-03-28T12:29:30Z</time></trkpt><trkpt lat="45.58018136299306" lon="10.745256665572258"><ele>219.33333333333331</ele><time>2026-03-28T12:29:31Z</time></trkpt><trkpt lat="45.58030593290231" lon="10.745349761183105"><ele>221.66666666666669</ele><time>2026-03-28T12:29:32Z</time></trkpt><trkpt lat="45.5804563991122" lon="10.745420810880185"><ele>224.0</ele><time>2026-03-28T12:29:33Z</time></trkpt><trkpt lat="45.58061255046062" lon="10.7454560563293"><ele>226.25</ele><time>2026-03-28T12:29:34Z</time></trkpt><trkpt lat="45.58076714620387" lon="10.745484320613691"><ele>228.5</ele><time>2026-03-28T12:29:35Z</time></trkpt><trkpt lat="45.580901475746415" lon="10.745528658860957"><ele>230.75</ele><time>2026-03-28T12:29:36Z</time></trkpt><trkpt lat="45.581023801707566" lon="10.745565138753301"><ele>233.0</ele><time>2026-03-28T12:29:37Z</time></trkpt><trkpt lat="45.581133525732625" lon="10.745620897407209"><ele>230.75</ele><time>2026-03-28T12:29:38Z</time></trkpt><trkpt lat="45.58124439652743" lon="10.745633498007264"><ele>228.5</ele><time>2026-03-28T12:29:39Z</time></trkpt><trkpt lat="45.58136048892995" lon="10.745692614462772"><ele>226.25</ele><time>2026-03-28T12:29:40Z</time></trkpt><trkpt lat="45.58149983664903" lon="10.74574779769699"><ele>224.0</ele><time>2026-03-28T12:29:41Z</time></trkpt><trkpt lat="45.58165956005687" lon="10.745793744235556"><ele>224.0</ele><time>2026-03-28T12:29:42Z</time></trkpt><trkpt lat="45.58183562721698" lon="10.745823350128934"><ele>224.0</ele><time>2026-03-28T12:29:43Z</time></trkpt><trkpt lat="45.58203011665059" lon="10.745848901330435"><ele>224.0</ele><time>2026-03-28T12:29:44Z</time></trkpt><trkpt lat="45.58221550811416" lon="10.745869735985323"><ele>223.66666666666669</ele><time>2026-03-28T12:29:45Z</time></trkpt><trkpt lat="45.58240143574501" lon="10.745884631334613"><ele>223.33333333333331</ele><time>2026-03-28T12:29:46Z</time></trkpt><trkpt lat="45.58256448328788" lon="10.745895586376069"><ele>223.0</ele><time>2026-03-28T12:29:47Z</time></trkpt><trkpt lat="45.58271897518881" lon="10.745910665473083"><ele>224.66666666666666</ele><time>2026-03-28T12:29:48Z</time></trkpt><trkpt lat="45.58287493346979" lon="10.745911636557382"><ele>226.33333333333331</ele><time>2026-03-28T12:29:49Z</time></trkpt><trkpt lat="45.58304412007728" lon="10.745907202751535"><ele>228.0</ele><time>2026-03-28T12:29:50Z</time></trkpt><trkpt lat="45.58322283133169" lon="10.74589730565077"><ele>228.0</ele><time>2026-03-28T12:29:51Z</time></trkpt><trkpt lat="45.583379536140185" lon="10.745885463883207"><ele>228.0</ele><time>2026-03-28T12:29:52Z</time></trkpt><trkpt lat="45.58351299903513" lon="10.745881760354527"><ele>228.0</ele><time>2026-03-28T12:29:53Z</time></trkpt><trkpt lat="45.583647097036454" lon="10.745882749748937"><ele>228.0</ele><time>2026-03-28T12:29:54Z</time></trkpt><trkpt lat="45.583773272028644" lon="10.745892604666992"><ele>229.25</ele><time>2026-03-28T12:29:55Z</time></trkpt><trkpt lat="45.583885423451235" lon="10.745895499759861"><ele>230.5</ele><time>2026-03-28T12:29:56Z</time></trkpt><trkpt lat="45.58399894901526" lon="10.745892902542417"><ele>231.75</ele><time>2026-03-28T12:29:57Z</time></trkpt><trkpt lat="45.58411205346294" lon="10.745884919300002"><ele>233.0</ele><time>2026-03-28T12:29:58Z</time></trkpt><trkpt lat="45.58422489612641" lon="10.745866126970304"><ele>233.0</ele><time>2026-03-28T12:29:59Z</time></trkpt><trkpt lat="45.58434365379916" lon="10.745828374182977"><ele>233.0</ele><time>2026-03-28T12:30:00Z</time></trkpt><trkpt lat="45.58445723101022" lon="10.745776283132326"><ele>233.0</ele><time>2026-03-28T12:30:01Z</time></trkpt><trkpt lat="45.58455080870927" lon="10.745724767798569"><ele>233.0</ele><time>2026-03-28T12:30:02Z</time></trkpt><trkpt lat="45.58463325836542" lon="10.745681282910237"><ele>233.0</ele><time>2026-03-28T12:30:03Z</time></trkpt><trkpt lat="45.58470567667407" lon="10.745640315238594"><ele>233.60000000000002</ele><time>2026-03-28T12:30:04Z</time></trkpt><trkpt lat="45.58477592982033" lon="10.745567862118076"><ele>234.20000000000002</ele><time>2026-03-28T12:30:05Z</time></trkpt><trkpt lat="45.58484993235315" lon="10.745474451339225"><ele>234.8</ele><time>2026-03-28T12:30:06Z</time></trkpt><trkpt lat="45.5849293628672" lon="10.745388774825022"><ele>235.4</ele><time>2026-03-28T12:30:07Z</time></trkpt><trkpt lat="45.58500833847853" lon="10.745333453063303"><ele>236.0</ele><time>2026-03-28T12:30:08Z</time></trkpt><trkpt lat="45.58509205548574" lon="10.74530025760341"><ele>236.0</ele><time>2026-03-28T12:30:09Z</time></trkpt><trkpt lat="45.58518995353277" lon="10.74528172691408"><ele>236.0</ele><time>2026-03-28T12:30:10Z</time></trkpt><trkpt lat="45.585292932800385" lon="10.745288598353973"><ele>236.0</ele><time>2026-03-28T12:30:11Z</time></trkpt><trkpt lat="45.585417700095235" lon="10.74530716991308"><ele>236.0</ele><time>2026-03-28T12:30:12Z</time></trkpt><trkpt lat="45.58555347922168" lon="10.745341983939179"><ele>236.20000000000002</ele><time>2026-03-28T12:30:13Z</time></trkpt><trkpt lat="45.58566650650461" lon="10.74535891913381"><ele>236.40000000000003</ele><time>2026-03-28T12:30:14Z</time></trkpt><trkpt lat="45.58576720824514" lon="10.745379882955538"><ele>236.6</ele><time>2026-03-28T12:30:15Z</time></trkpt><trkpt lat="45.585850757599054" lon="10.745391906061808"><ele>236.8</ele><time>2026-03-28T12:30:16Z</time></trkpt><trkpt lat="45.58594543537196" lon="10.745402413719669"><ele>237.0</ele><time>2026-03-28T12:30:18Z</time></trkpt><trkpt lat="45.586021132939436" lon="10.745221036718108"><ele>238.5</ele><time>2026-03-28T12:30:25Z</time></trkpt><trkpt lat="45.58601727083064" lon="10.745070954634938"><ele>240.0</ele><time>2026-03-28T12:30:26Z</time></trkpt><trkpt lat="45.58600223213808" lon="10.744913516824399"><ele>241.5</ele><time>2026-03-28T12:30:27Z</time></trkpt><trkpt lat="45.58598507336235" lon="10.744743089347558"><ele>243.0</ele><time>2026-03-28T12:30:28Z</time></trkpt><trkpt lat="45.58597625761835" lon="10.744558242565148"><ele>243.25</ele><time>2026-03-28T12:30:29Z</time></trkpt><trkpt lat="45.58596612210515" lon="10.744373841257987"><ele>243.5</ele><time>2026-03-28T12:30:30Z</time></trkpt><trkpt lat="45.58595212852344" lon="10.744196472938777"><ele>243.75</ele><time>2026-03-28T12:30:31Z</time></trkpt><trkpt lat="45.58593376142961" lon="10.744041618983514"><ele>244.0</ele><time>2026-03-28T12:30:32Z</time></trkpt><trkpt lat="45.58591562120648" lon="10.743890806623174"><ele>244.0</ele><time>2026-03-28T12:30:33Z</time></trkpt><trkpt lat="45.58589443108734" lon="10.743716835254073"><ele>244.0</ele><time>2026-03-28T12:30:34Z</time></trkpt><trkpt lat="45.58587596434102" lon="10.743523958631608"><ele>244.0</ele><time>2026-03-28T12:30:35Z</time></trkpt><trkpt lat="45.585850341252474" lon="10.743347484815175"><ele>244.0</ele><time>2026-03-28T12:30:36Z</time></trkpt><trkpt lat="45.58583428473955" lon="10.743165114301696"><ele>242.75</ele><time>2026-03-28T12:30:37Z</time></trkpt><trkpt lat="45.585829998482666" lon="10.742983740367736"><ele>241.5</ele><time>2026-03-28T12:30:38Z</time></trkpt><trkpt lat="45.58584469050482" lon="10.742806881260682"><ele>240.25</ele><time>2026-03-28T12:30:39Z</time></trkpt><trkpt lat="45.5858615804069" lon="10.74264445476659"><ele>239.0</ele><time>2026-03-28T12:30:40Z</time></trkpt><trkpt lat="45.58587400278571" lon="10.74249236226079"><ele>238.16666666666669</ele><time>2026-03-28T12:30:41Z</time></trkpt><trkpt lat="45.585880797508686" lon="10.742359311952477"><ele>237.33333333333334</ele><time>2026-03-28T12:30:42Z</time></trkpt><trkpt lat="45.585879388891975" lon="10.742249352166546"><ele>236.5</ele><time>2026-03-28T12:30:43Z</time></trkpt><trkpt lat="45.58587228262136" lon="10.742115323124956"><ele>235.66666666666669</ele><time>2026-03-28T12:30:45Z</time></trkpt><trkpt lat="45.585874675209126" lon="10.741998672778639"><ele>234.83333333333334</ele><time>2026-03-28T12:30:47Z</time></trkpt><trkpt lat="45.58586947074652" lon="10.741882397452015"><ele>234.0</ele><time>2026-03-28T12:30:48Z</time></trkpt><trkpt lat="45.585854855580564" lon="10.741751317619789"><ele>232.5</ele><time>2026-03-28T12:30:49Z</time></trkpt><trkpt lat="45.58584424222283" lon="10.74158145286385"><ele>231.0</ele><time>2026-03-28T12:30:50Z</time></trkpt><trkpt lat="45.58584168008226" lon="10.741385401075519"><ele>229.5</ele><time>2026-03-28T12:30:51Z</time></trkpt><trkpt lat="45.585835208938434" lon="10.741183426221285"><ele>228.0</ele><time>2026-03-28T12:30:52Z</time></trkpt><trkpt lat="45.58582083462541" lon="10.741005610630925"><ele>227.60000000000002</ele><time>2026-03-28T12:30:53Z</time></trkpt><trkpt lat="45.58580419590369" lon="10.740840627937864"><ele>227.20000000000002</ele><time>2026-03-28T12:30:54Z</time></trkpt><trkpt lat="45.58578957648926" lon="10.740692832912295"><ele>226.8</ele><time>2026-03-28T12:30:55Z</time></trkpt><trkpt lat="45.58577543298243" lon="10.74055526007803"><ele>226.4</ele><time>2026-03-28T12:30:56Z</time></trkpt><trkpt lat="45.5857654304821" lon="10.740439920216149"><ele>226.0</ele><time>2026-03-28T12:30:57Z</time></trkpt><trkpt lat="45.58575833101762" lon="10.740332021300462"><ele>225.99999999999997</ele><time>2026-03-28T12:30:58Z</time></trkpt><trkpt lat="45.585759597226925" lon="10.740234097913637"><ele>226.0</ele><time>2026-03-28T12:30:59Z</time></trkpt><trkpt lat="45.585777871263986" lon="10.740132350351653"><ele>226.0</ele><time>2026-03-28T12:31:00Z</time></trkpt><trkpt lat="45.58580260693043" lon="10.740038961328562"><ele>226.0</ele><time>2026-03-28T12:31:01Z</time></trkpt><trkpt lat="45.585798354627734" lon="10.739868233797687"><ele>225.99999999999997</ele><time>2026-03-28T12:31:03Z</time></trkpt><trkpt lat="45.585769456383396" lon="10.739786637874536"><ele>226.0</ele><time>2026-03-28T12:31:04Z</time></trkpt><trkpt lat="45.585730438242386" lon="10.739702813839987"><ele>226.16666666666666</ele><time>2026-03-28T12:31:05Z</time></trkpt><trkpt lat="45.5857128102353" lon="10.739602145426332"><ele>226.33333333333331</ele><time>2026-03-28T12:31:06Z</time></trkpt><trkpt lat="45.585709820505954" lon="10.739480313287135"><ele>226.5</ele><time>2026-03-28T12:31:07Z</time></trkpt><trkpt lat="45.58569854274284" lon="10.739363479722455"><ele>226.66666666666669</ele><time>2026-03-28T12:31:08Z</time></trkpt><trkpt lat="45.58567965740842" lon="10.739245052923026"><ele>226.83333333333334</ele><time>2026-03-28T12:31:09Z</time></trkpt><trkpt lat="45.585648392899806" lon="10.739119336246642"><ele>227.0</ele><time>2026-03-28T12:31:10Z</time></trkpt><trkpt lat="45.58560587139558" lon="10.738987539248809"><ele>227.0</ele><time>2026-03-28T12:31:11Z</time></trkpt><trkpt lat="45.58556181290364" lon="10.738842767441502"><ele>227.0</ele><time>2026-03-28T12:31:12Z</time></trkpt><trkpt lat="45.585516622405244" lon="10.738690268201903"><ele>227.0</ele><time>2026-03-28T12:31:13Z</time></trkpt><trkpt lat="45.585470963341024" lon="10.738509758633603"><ele>227.0</ele><time>2026-03-28T12:31:14Z</time></trkpt><trkpt lat="45.5854259192253" lon="10.738329635088327"><ele>226.5</ele><time>2026-03-28T12:31:15Z</time></trkpt><trkpt lat="45.585378888284446" lon="10.738156705285952"><ele>226.0</ele><time>2026-03-28T12:31:16Z</time></trkpt><trkpt lat="45.58533581290198" lon="10.73798470854158"><ele>225.5</ele><time>2026-03-28T12:31:17Z</time></trkpt><trkpt lat="45.58529829076722" lon="10.7378154804948"><ele>225.0</ele><time>2026-03-28T12:31:18Z</time></trkpt><trkpt lat="45.58526932555973" lon="10.737641215596838"><ele>221.25</ele><time>2026-03-28T12:31:19Z</time></trkpt><trkpt lat="45.58524675192387" lon="10.737469513014902"><ele>217.5</ele><time>2026-03-28T12:31:20Z</time></trkpt><trkpt lat="45.58523094481268" lon="10.737299990085335"><ele>213.75</ele><time>2026-03-28T12:31:21Z</time></trkpt><trkpt lat="45.58522445079017" lon="10.737125509983318"><ele>210.0</ele><time>2026-03-28T12:31:22Z</time></trkpt><trkpt lat="45.58522341322722" lon="10.736951142808726"><ele>208.75</ele><time>2026-03-28T12:31:23Z</time></trkpt><trkpt lat="45.58524917097009" lon="10.73676877437593"><ele>207.5</ele><time>2026-03-28T12:31:24Z</time></trkpt><trkpt lat="45.58529593999113" lon="10.736583769027648"><ele>206.25</ele><time>2026-03-28T12:31:25Z</time></trkpt><trkpt lat="45.5853469471487" lon="10.736398031075327"><ele>205.0</ele><time>2026-03-28T12:31:26Z</time></trkpt><trkpt lat="45.5854006266923" lon="10.736207998581229"><ele>207.0</ele><time>2026-03-28T12:31:27Z</time></trkpt><trkpt lat="45.58546042489987" lon="10.736019004863564"><ele>209.0</ele><time>2026-03-28T12:31:28Z</time></trkpt><trkpt lat="45.58552318634866" lon="10.735826968379778"><ele>211.0</ele><time>2026-03-28T12:31:29Z</time></trkpt><trkpt lat="45.58557664596192" lon="10.735628922050587"><ele>213.0</ele><time>2026-03-28T12:31:30Z</time></trkpt><trkpt lat="45.58562429365337" lon="10.73542450863526"><ele>211.0</ele><time>2026-03-28T12:31:31Z</time></trkpt><trkpt lat="45.58566872646837" lon="10.735215629682488"><ele>209.0</ele><time>2026-03-28T12:31:32Z</time></trkpt><trkpt lat="45.58570011602526" lon="10.734996020083475"><ele>207.0</ele><time>2026-03-28T12:31:33Z</time></trkpt><trkpt lat="45.58571823806554" lon="10.73476781566711"><ele>207.0</ele><time>2026-03-28T12:31:34Z</time></trkpt><trkpt lat="45.58573014603114" lon="10.734554187007987"><ele>207.0</ele><time>2026-03-28T12:31:35Z</time></trkpt><trkpt lat="45.58574009191837" lon="10.734332413469252"><ele>207.0</ele><time>2026-03-28T12:31:36Z</time></trkpt><trkpt lat="45.58575101636536" lon="10.734129162157563"><ele>207.0</ele><time>2026-03-28T12:31:37Z</time></trkpt><trkpt lat="45.58575912558066" lon="10.733940534403056"><ele>205.6</ele><time>2026-03-28T12:31:38Z</time></trkpt><trkpt lat="45.58576593302964" lon="10.733763036597349"><ele>204.2</ele><time>2026-03-28T12:31:39Z</time></trkpt><trkpt lat="45.58577005858693" lon="10.733602285171441"><ele>202.8</ele><time>2026-03-28T12:31:40Z</time></trkpt><trkpt lat="45.585757279411396" lon="10.73346342740148"><ele>201.4</ele><time>2026-03-28T12:31:41Z</time></trkpt><trkpt lat="45.58571753370444" lon="10.733330031603877"><ele>200.0</ele><time>2026-03-28T12:31:42Z</time></trkpt><trkpt lat="45.58564282402594" lon="10.7332129330407"><ele>199.75</ele><time>2026-03-28T12:31:43Z</time></trkpt><trkpt lat="45.58555244608475" lon="10.733127125610181"><ele>199.5</ele><time>2026-03-28T12:31:44Z</time></trkpt><trkpt lat="45.585445802204696" lon="10.733060769100161"><ele>199.25</ele><time>2026-03-28T12:31:45Z</time></trkpt><trkpt lat="45.58533686085376" lon="10.73299336222963"><ele>199.0</ele><time>2026-03-28T12:31:46Z</time></trkpt><trkpt lat="45.585237995399076" lon="10.732911282020387"><ele>196.2</ele><time>2026-03-28T12:31:47Z</time></trkpt><trkpt lat="45.58515276420015" lon="10.732811876843162"><ele>193.39999999999998</ele><time>2026-03-28T12:31:48Z</time></trkpt><trkpt lat="45.58508467850391" lon="10.732697662542579"><ele>190.6</ele><time>2026-03-28T12:31:49Z</time></trkpt><trkpt lat="45.5850254723168" lon="10.73256875347154"><ele>187.8</ele><time>2026-03-28T12:31:50Z</time></trkpt><trkpt lat="45.584980960207254" lon="10.732429284692916"><ele>185.0</ele><time>2026-03-28T12:31:51Z</time></trkpt><trkpt lat="45.58494415888269" lon="10.732294165781587"><ele>185.0</ele><time>2026-03-28T12:31:52Z</time></trkpt><trkpt lat="45.58492556205865" lon="10.732166580408565"><ele>185.0</ele><time>2026-03-28T12:31:53Z</time></trkpt><trkpt lat="45.584924546349" lon="10.73206283113646"><ele>185.0</ele><time>2026-03-28T12:31:54Z</time></trkpt><trkpt lat="45.584919619520775" lon="10.731968234109601"><ele>185.0</ele><time>2026-03-28T12:31:55Z</time></trkpt><trkpt lat="45.58490151075698" lon="10.73188118622832"><ele>185.0</ele><time>2026-03-28T12:31:56Z</time></trkpt><trkpt lat="45.58484198198865" lon="10.731794736061367"><ele>185.0</ele><time>2026-03-28T12:31:58Z</time></trkpt><trkpt lat="45.58476593051529" lon="10.731822007108656"><ele>185.0</ele><time>2026-03-28T12:31:59Z</time></trkpt><trkpt lat="45.58468706537786" lon="10.731919662012405"><ele>185.0</ele><time>2026-03-28T12:32:01Z</time></trkpt><trkpt lat="45.584663601523296" lon="10.732083367920428"><ele>185.0</ele><time>2026-03-28T12:32:03Z</time></trkpt><trkpt lat="45.58464164703029" lon="10.732177446363766"><ele>185.0</ele><time>2026-03-28T12:32:04Z</time></trkpt><trkpt lat="45.58463326727787" lon="10.732274234925818"><ele>185.0</ele><time>2026-03-28T12:32:05Z</time></trkpt><trkpt lat="45.58464003199711" lon="10.73236715858493"><ele>185.0</ele><time>2026-03-28T12:32:06Z</time></trkpt><trkpt lat="45.584617126457495" lon="10.732534333731403"><ele>185.0</ele><time>2026-03-28T12:32:08Z</time></trkpt><trkpt lat="45.5846026660142" lon="10.732669586175282"><ele>185.0</ele><time>2026-03-28T12:32:10Z</time></trkpt><trkpt lat="45.58454388933493" lon="10.732755384332748"><ele>185.0</ele><time>2026-03-28T12:32:12Z</time></trkpt><trkpt lat="45.584457252358234" lon="10.73264548248409"><ele>185.0</ele><time>2026-03-28T12:32:14Z</time></trkpt><trkpt lat="45.58445518820707" lon="10.732537657994879"><ele>185.0</ele><time>2026-03-28T12:32:15Z</time></trkpt><trkpt lat="45.584475618626" lon="10.732409244833766"><ele>178.0</ele><time>2026-03-28T12:32:16Z</time></trkpt><trkpt lat="45.584493667346436" lon="10.73226952330703"><ele>171.0</ele><time>2026-03-28T12:32:17Z</time></trkpt><trkpt lat="45.584504719464164" lon="10.732106488435134"><ele>164.0</ele><time>2026-03-28T12:32:18Z</time></trkpt><trkpt lat="45.58450806781807" lon="10.731929515538992"><ele>157.0</ele><time>2026-03-28T12:32:19Z</time></trkpt><trkpt lat="45.584511996458204" lon="10.731764593431304"><ele>156.79999999999998</ele><time>2026-03-28T12:32:20Z</time></trkpt><trkpt lat="45.58451285988266" lon="10.731621087857922"><ele>156.6</ele><time>2026-03-28T12:32:21Z</time></trkpt><trkpt lat="45.58450545951362" lon="10.73148325692725"><ele>156.39999999999998</ele><time>2026-03-28T12:32:22Z</time></trkpt><trkpt lat="45.58449098298621" lon="10.731354366523219"><ele>156.2</ele><time>2026-03-28T12:32:23Z</time></trkpt><trkpt lat="45.58447482278815" lon="10.731235250314814"><ele>156.0</ele><time>2026-03-28T12:32:24Z</time></trkpt><trkpt lat="45.58445739814279" lon="10.731113943713924"><ele>156.16666666666666</ele><time>2026-03-28T12:32:25Z</time></trkpt><trkpt lat="45.58443836420791" lon="10.731001477463755"><ele>156.33333333333334</ele><time>2026-03-28T12:32:26Z</time></trkpt><trkpt lat="45.58442188579645" lon="10.730885999709745"><ele>156.5</ele><time>2026-03-28T12:32:27Z</time></trkpt><trkpt lat="45.58440908237928" lon="10.7307755267975"><ele>156.66666666666669</ele><time>2026-03-28T12:32:28Z</time></trkpt><trkpt lat="45.58439772828537" lon="10.73066485096516"><ele>156.83333333333334</ele><time>2026-03-28T12:32:29Z</time></trkpt><trkpt lat="45.58438940837564" lon="10.730515295557181"><ele>157.0</ele><time>2026-03-28T12:32:31Z</time></trkpt><trkpt lat="45.58437249380063" lon="10.730373767439245"><ele>156.5</ele><time>2026-03-28T12:32:34Z</time></trkpt><trkpt lat="45.58434717247636" lon="10.730172212388373"><ele>156.0</ele><time>2026-03-28T12:32:36Z</time></trkpt><trkpt lat="45.5843325942733" lon="10.730033418090754"><ele>155.5</ele><time>2026-03-28T12:32:37Z</time></trkpt><trkpt lat="45.58431444132311" lon="10.729892316950918"><ele>155.0</ele><time>2026-03-28T12:32:38Z</time></trkpt><trkpt lat="45.584292511836345" lon="10.729735999086108"><ele>155.0</ele><time>2026-03-28T12:32:39Z</time></trkpt><trkpt lat="45.58427007747248" lon="10.72958995484436"><ele>155.0</ele><time>2026-03-28T12:32:40Z</time></trkpt><trkpt lat="45.58424970771582" lon="10.729453563228144"><ele>155.0</ele><time>2026-03-28T12:32:41Z</time></trkpt><trkpt lat="45.58423087688004" lon="10.729314520996711"><ele>155.0</ele><time>2026-03-28T12:32:42Z</time></trkpt><trkpt lat="45.584212909393166" lon="10.729175433407788"><ele>155.0</ele><time>2026-03-28T12:32:43Z</time></trkpt><trkpt lat="45.58418115315849" lon="10.729020024380068"><ele>154.25</ele><time>2026-03-28T12:32:44Z</time></trkpt><trkpt lat="45.584141758183215" lon="10.728872908119023"><ele>153.5</ele><time>2026-03-28T12:32:45Z</time></trkpt><trkpt lat="45.58408094175683" lon="10.728743913711382"><ele>152.75</ele><time>2026-03-28T12:32:46Z</time></trkpt><trkpt lat="45.583997321934795" lon="10.728615571258581"><ele>152.0</ele><time>2026-03-28T12:32:47Z</time></trkpt><trkpt lat="45.583908096384896" lon="10.72850929659638"><ele>151.4</ele><time>2026-03-28T12:32:48Z</time></trkpt><trkpt lat="45.58382021292522" lon="10.728409556678823"><ele>150.79999999999998</ele><time>2026-03-28T12:32:49Z</time></trkpt><trkpt lat="45.583735306139154" lon="10.728307324892622"><ele>150.2</ele><time>2026-03-28T12:32:50Z</time></trkpt><trkpt lat="45.583667903883146" lon="10.728187387720217"><ele>149.6</ele><time>2026-03-28T12:32:51Z</time></trkpt><trkpt lat="45.58362223337682" lon="10.728044039944516"><ele>149.0</ele><time>2026-03-28T12:32:52Z</time></trkpt><trkpt lat="45.58360051547107" lon="10.72788673128415"><ele>144.5</ele><time>2026-03-28T12:32:53Z</time></trkpt><trkpt lat="45.58358276020855" lon="10.727715830231391"><ele>140.0</ele><time>2026-03-28T12:32:54Z</time></trkpt><trkpt lat="45.583562042295426" lon="10.727522171846632"><ele>135.5</ele><time>2026-03-28T12:32:55Z</time></trkpt><trkpt lat="45.583538750233394" lon="10.727325710756803"><ele>131.0</ele><time>2026-03-28T12:32:56Z</time></trkpt><trkpt lat="45.58351403739753" lon="10.727141349133818"><ele>131.0</ele><time>2026-03-28T12:32:57Z</time></trkpt><trkpt lat="45.583488110189364" lon="10.726963723299065"><ele>131.0</ele><time>2026-03-28T12:32:58Z</time></trkpt><trkpt lat="45.583463444930736" lon="10.72679982088077"><ele>131.0</ele><time>2026-03-28T12:32:59Z</time></trkpt><trkpt lat="45.583442796213156" lon="10.72663412736718"><ele>131.0</ele><time>2026-03-28T12:33:00Z</time></trkpt><trkpt lat="45.583423156753234" lon="10.726475461060883"><ele>130.66666666666666</ele><time>2026-03-28T12:33:01Z</time></trkpt><trkpt lat="45.583403250855476" lon="10.726318731308337"><ele>130.33333333333331</ele><time>2026-03-28T12:33:02Z</time></trkpt><trkpt lat="45.58338533338309" lon="10.726183783733205"><ele>130.0</ele><time>2026-03-28T12:33:03Z</time></trkpt><trkpt lat="45.58337025065241" lon="10.726068784264296"><ele>129.66666666666666</ele><time>2026-03-28T12:33:04Z</time></trkpt><trkpt lat="45.58335258584323" lon="10.725979905535288"><ele>129.33333333333334</ele><time>2026-03-28T12:33:05Z</time></trkpt><trkpt lat="45.583319553817326" lon="10.725892162512475"><ele>129.0</ele><time>2026-03-28T12:33:06Z</time></trkpt><trkpt lat="45.58326781415416" lon="10.725803965383083"><ele>128.8</ele><time>2026-03-28T12:33:07Z</time></trkpt><trkpt lat="45.583206913285025" lon="10.725720251520928"><ele>128.60000000000002</ele><time>2026-03-28T12:33:08Z</time></trkpt><trkpt lat="45.58315237203648" lon="10.725644514164625"><ele>128.4</ele><time>2026-03-28T12:33:09Z</time></trkpt><trkpt lat="45.58311702732985" lon="10.72553370961511"><ele>128.20000000000002</ele><time>2026-03-28T12:33:11Z</time></trkpt><trkpt lat="45.5832713296245" lon="10.725450493377524"><ele>128.0</ele><time>2026-03-28T12:33:14Z</time></trkpt><trkpt lat="45.58335586220682" lon="10.725440887195429"><ele>128.0</ele><time>2026-03-28T12:33:15Z</time></trkpt><trkpt lat="45.58343972722375" lon="10.725419618712834"><ele>128.0</ele><time>2026-03-28T12:33:16Z</time></trkpt><trkpt lat="45.58352054129235" lon="10.725414957844233"><ele>128.0</ele><time>2026-03-28T12:33:17Z</time></trkpt><trkpt lat="45.583591828483456" lon="10.725398495306141"><ele>128.0</ele><time>2026-03-28T12:33:18Z</time></trkpt><trkpt lat="45.58361658046087" lon="10.725134477657038"><ele>128.0</ele><time>2026-03-28T12:33:19Z</time></trkpt><trkpt lat="45.58365314005519" lon="10.724950466770338"><ele>128.5</ele><time>2026-03-28T12:33:20Z</time></trkpt><trkpt lat="45.583684565634194" lon="10.72475252841462"><ele>129.0</ele><time>2026-03-28T12:33:21Z</time></trkpt><trkpt lat="45.58372925421296" lon="10.7245652726983"><ele>129.5</ele><time>2026-03-28T12:33:22Z</time></trkpt><trkpt lat="45.58381547575952" lon="10.724417731428286"><ele>130.0</ele><time>2026-03-28T12:33:23Z</time></trkpt><trkpt lat="45.583908915121164" lon="10.724284732412238"><ele>130.25</ele><time>2026-03-28T12:33:24Z</time></trkpt><trkpt lat="45.584001977827675" lon="10.724143855580019"><ele>130.5</ele><time>2026-03-28T12:33:25Z</time></trkpt><trkpt lat="45.58410973950555" lon="10.723991689523602"><ele>130.75</ele><time>2026-03-28T12:33:26Z</time></trkpt><trkpt lat="45.58421271846422" lon="10.723831859840725"><ele>131.0</ele><time>2026-03-28T12:33:27Z</time></trkpt><trkpt lat="45.58431053577735" lon="10.723697480868346"><ele>131.0</ele><time>2026-03-28T12:33:28Z</time></trkpt><trkpt lat="45.58439616552038" lon="10.723595036470053"><ele>131.0</ele><time>2026-03-28T12:33:29Z</time></trkpt><trkpt lat="45.58447245382888" lon="10.723570752001105"><ele>131.0</ele><time>2026-03-28T12:33:30Z</time></trkpt><trkpt lat="45.58453910568123" lon="10.723520515837878"><ele>131.0</ele><time>2026-03-28T12:33:31Z</time></trkpt><trkpt lat="45.58460549728252" lon="10.723519231644532"><ele>131.0</ele><time>2026-03-28T12:33:32Z</time></trkpt><trkpt lat="45.584675840323634" lon="10.723546291258787"><ele>131.0</ele><time>2026-03-28T12:33:33Z</time></trkpt><trkpt lat="45.58473338292188" lon="10.72362625693426"><ele>134.6</ele><time>2026-03-28T12:33:34Z</time></trkpt><trkpt lat="45.58476814562759" lon="10.723736038447694"><ele>138.2</ele><time>2026-03-28T12:33:35Z</time></trkpt><trkpt lat="45.58481127846863" lon="10.723849203966306"><ele>141.8</ele><time>2026-03-28T12:33:36Z</time></trkpt><trkpt lat="45.58487494741656" lon="10.723945310211144"><ele>145.4</ele><time>2026-03-28T12:33:37Z</time></trkpt><trkpt lat="45.58495686874062" lon="10.724025931210779"><ele>149.0</ele><time>2026-03-28T12:33:38Z</time></trkpt><trkpt lat="45.58504708066396" lon="10.724079236484359"><ele>149.0</ele><time>2026-03-28T12:33:39Z</time></trkpt><trkpt lat="45.5851356407031" lon="10.724093778604677"><ele>149.0</ele><time>2026-03-28T12:33:40Z</time></trkpt><trkpt lat="45.585224884905124" lon="10.724065351654902"><ele>149.0</ele><time>2026-03-28T12:33:41Z</time></trkpt><trkpt lat="45.585312689113344" lon="10.724044803797765"><ele>149.0</ele><time>2026-03-28T12:33:42Z</time></trkpt><trkpt lat="45.58540333558289" lon="10.724068863751015"><ele>149.0</ele><time>2026-03-28T12:33:43Z</time></trkpt><trkpt lat="45.585483100324126" lon="10.72418234366448"><ele>150.0</ele><time>2026-03-28T12:33:44Z</time></trkpt><trkpt lat="45.585593225122935" lon="10.724246660253701"><ele>151.0</ele><time>2026-03-28T12:33:45Z</time></trkpt><trkpt lat="45.585684044801866" lon="10.724343215331992"><ele>152.0</ele><time>2026-03-28T12:33:46Z</time></trkpt><trkpt lat="45.585757571167306" lon="10.72439085449764"><ele>153.0</ele><time>2026-03-28T12:33:47Z</time></trkpt><trkpt lat="45.58582004657059" lon="10.72440418728052"><ele>154.0</ele><time>2026-03-28T12:33:48Z</time></trkpt><trkpt lat="45.58588504968051" lon="10.724431223227063"><ele>155.0</ele><time>2026-03-28T12:33:49Z</time></trkpt><trkpt lat="45.585955383090074" lon="10.72446182256767"><ele>155.0</ele><time>2026-03-28T12:33:50Z</time></trkpt><trkpt lat="45.58601645545332" lon="10.724567755340692"><ele>155.0</ele><time>2026-03-28T12:33:51Z</time></trkpt><trkpt lat="45.58610169513476" lon="10.72465100276311"><ele>155.0</ele><time>2026-03-28T12:33:52Z</time></trkpt><trkpt lat="45.58618705680373" lon="10.724713675786258"><ele>155.0</ele><time>2026-03-28T12:33:53Z</time></trkpt><trkpt lat="45.58627396445502" lon="10.724772121047872"><ele>155.0</ele><time>2026-03-28T12:33:54Z</time></trkpt><trkpt lat="45.5863836056965" lon="10.724823033806846"><ele>161.25</ele><time>2026-03-28T12:33:55Z</time></trkpt><trkpt lat="45.586504456866194" lon="10.724867058521511"><ele>167.5</ele><time>2026-03-28T12:33:56Z</time></trkpt><trkpt lat="45.58661643148044" lon="10.724925907877704"><ele>173.75</ele><time>2026-03-28T12:33:57Z</time></trkpt><trkpt lat="45.58673046762349" lon="10.724975173762283"><ele>180.0</ele><time>2026-03-28T12:33:58Z</time></trkpt><trkpt lat="45.58683265709187" lon="10.725026899815944"><ele>180.0</ele><time>2026-03-28T12:33:59Z</time></trkpt><trkpt lat="45.586908937897974" lon="10.725065780911514"><ele>180.0</ele><time>2026-03-28T12:34:00Z</time></trkpt><trkpt lat="45.58700869513048" lon="10.725121968357216"><ele>180.0</ele><time>2026-03-28T12:34:02Z</time></trkpt><trkpt lat="45.58707975826306" lon="10.724954426364103"><ele>180.0</ele><time>2026-03-28T12:34:05Z</time></trkpt><trkpt lat="45.58709481065129" lon="10.724838005853062"><ele>180.0</ele><time>2026-03-28T12:34:06Z</time></trkpt><trkpt lat="45.58712921746732" lon="10.724703631343518"><ele>184.2</ele><time>2026-03-28T12:34:07Z</time></trkpt><trkpt lat="45.5871438495234" lon="10.724553141866403"><ele>188.4</ele><time>2026-03-28T12:34:08Z</time></trkpt><trkpt lat="45.58716230472673" lon="10.724409368277263"><ele>192.60000000000002</ele><time>2026-03-28T12:34:09Z</time></trkpt><trkpt lat="45.587173405886546" lon="10.724274970376312"><ele>196.8</ele><time>2026-03-28T12:34:10Z</time></trkpt><trkpt lat="45.58719889857172" lon="10.724114372352275"><ele>201.0</ele><time>2026-03-28T12:34:11Z</time></trkpt><trkpt lat="45.587210076553454" lon="10.723939280047667"><ele>201.0</ele><time>2026-03-28T12:34:12Z</time></trkpt><trkpt lat="45.587226847503274" lon="10.723784108039684"><ele>201.0</ele><time>2026-03-28T12:34:13Z</time></trkpt><trkpt lat="45.58722927925882" lon="10.7236448287619"><ele>201.0</ele><time>2026-03-28T12:34:14Z</time></trkpt><trkpt lat="45.5872322062276" lon="10.723471009200122"><ele>201.0</ele><time>2026-03-28T12:34:15Z</time></trkpt><trkpt lat="45.5872290972998" lon="10.72329950373109"><ele>201.0</ele><time>2026-03-28T12:34:16Z</time></trkpt><trkpt lat="45.58722682811709" lon="10.72312767251493"><ele>200.83333333333334</ele><time>2026-03-28T12:34:17Z</time></trkpt><trkpt lat="45.58721665750751" lon="10.722982318032171"><ele>200.66666666666669</ele><time>2026-03-28T12:34:18Z</time></trkpt><trkpt lat="45.58720771953534" lon="10.722858459471619"><ele>200.5</ele><time>2026-03-28T12:34:19Z</time></trkpt><trkpt lat="45.58720632912819" lon="10.722734243798081"><ele>200.33333333333334</ele><time>2026-03-28T12:34:20Z</time></trkpt><trkpt lat="45.587196881076665" lon="10.722621846751885"><ele>200.16666666666669</ele><time>2026-03-28T12:34:21Z</time></trkpt><trkpt lat="45.587175837853835" lon="10.722523523857305"><ele>200.0</ele><time>2026-03-28T12:34:22Z</time></trkpt><trkpt lat="45.58715051453799" lon="10.722433051954848"><ele>200.0</ele><time>2026-03-28T12:34:23Z</time></trkpt><trkpt lat="45.58712462711573" lon="10.722295360567452"><ele>200.0</ele><time>2026-03-28T12:34:25Z</time></trkpt><trkpt lat="45.587028698518935" lon="10.722236269844908"><ele>200.0</ele><time>2026-03-28T12:34:27Z</time></trkpt><trkpt lat="45.58690930028826" lon="10.722240272576641"><ele>200.0</ele><time>2026-03-28T12:34:29Z</time></trkpt><trkpt lat="45.58678531199494" lon="10.722265158314041"><ele>200.0</ele><time>2026-03-28T12:34:31Z</time></trkpt><trkpt lat="45.58672153837826" lon="10.722270880904324"><ele>195.8</ele><time>2026-03-28T12:34:32Z</time></trkpt><trkpt lat="45.58665662432945" lon="10.722270929804074"><ele>191.6</ele><time>2026-03-28T12:34:33Z</time></trkpt><trkpt lat="45.586560553284606" lon="10.722243627637075"><ele>187.39999999999998</ele><time>2026-03-28T12:34:35Z</time></trkpt><trkpt lat="45.58656699452976" lon="10.722134264522051"><ele>183.2</ele><time>2026-03-28T12:34:37Z</time></trkpt><trkpt lat="45.586506392056684" lon="10.721965660215966"><ele>179.0</ele><time>2026-03-28T12:34:39Z</time></trkpt><trkpt lat="45.58648301493493" lon="10.721823561196944"><ele>179.0</ele><time>2026-03-28T12:34:40Z</time></trkpt><trkpt lat="45.586464215836926" lon="10.72163056405849"><ele>179.0</ele><time>2026-03-28T12:34:41Z</time></trkpt><trkpt lat="45.586453282885834" lon="10.721430931731069"><ele>179.0</ele><time>2026-03-28T12:34:42Z</time></trkpt><trkpt lat="45.58643841363319" lon="10.72123915669047"><ele>179.0</ele><time>2026-03-28T12:34:43Z</time></trkpt><trkpt lat="45.586421230367385" lon="10.721077680341892"><ele>179.6</ele><time>2026-03-28T12:34:44Z</time></trkpt><trkpt lat="45.58641955214871" lon="10.720933593955323"><ele>180.2</ele><time>2026-03-28T12:34:45Z</time></trkpt><trkpt lat="45.58639857626501" lon="10.72078901348354"><ele>180.79999999999998</ele><time>2026-03-28T12:34:46Z</time></trkpt><trkpt lat="45.58639392984334" lon="10.72064009299806"><ele>181.39999999999998</ele><time>2026-03-28T12:34:47Z</time></trkpt><trkpt lat="45.586393446791604" lon="10.720463996898696"><ele>182.0</ele><time>2026-03-28T12:34:48Z</time></trkpt><trkpt lat="45.586387457034675" lon="10.720275035205123"><ele>182.5</ele><time>2026-03-28T12:34:49Z</time></trkpt><trkpt lat="45.5863833486491" lon="10.720080337222644"><ele>183.0</ele><time>2026-03-28T12:34:50Z</time></trkpt><trkpt lat="45.5863754652324" lon="10.71989496222207"><ele>183.5</ele><time>2026-03-28T12:34:51Z</time></trkpt><trkpt lat="45.58636857244288" lon="10.719727743372081"><ele>184.0</ele><time>2026-03-28T12:34:52Z</time></trkpt><trkpt lat="45.58637065781132" lon="10.719593783140613"><ele>184.0</ele><time>2026-03-28T12:34:53Z</time></trkpt><trkpt lat="45.58636354519184" lon="10.719471511217723"><ele>184.0</ele><time>2026-03-28T12:34:54Z</time></trkpt><trkpt lat="45.586362361604564" lon="10.719376231544713"><ele>184.0</ele><time>2026-03-28T12:34:55Z</time></trkpt><trkpt lat="45.58635401501922" lon="10.719273962671467"><ele>184.0</ele><time>2026-03-28T12:34:57Z</time></trkpt><trkpt lat="45.58620954325274" lon="10.719245673880378"><ele>184.0</ele><time>2026-03-28T12:34:59Z</time></trkpt><trkpt lat="45.58610243753828" lon="10.719268306276179"><ele>181.79999999999998</ele><time>2026-03-28T12:35:00Z</time></trkpt><trkpt lat="45.58598901290245" lon="10.719274652838894"><ele>179.6</ele><time>2026-03-28T12:35:01Z</time></trkpt><trkpt lat="45.585875648503745" lon="10.719272258750026"><ele>177.4</ele><time>2026-03-28T12:35:02Z</time></trkpt><trkpt lat="45.58578424412567" lon="10.719264338655302"><ele>175.2</ele><time>2026-03-28T12:35:03Z</time></trkpt><trkpt lat="45.58571011955445" lon="10.719216877645424"><ele>173.0</ele><time>2026-03-28T12:35:04Z</time></trkpt><trkpt lat="45.5856363845819" lon="10.719187227656427"><ele>173.0</ele><time>2026-03-28T12:35:05Z</time></trkpt><trkpt lat="45.58557554978793" lon="10.719131555801889"><ele>173.0</ele><time>2026-03-28T12:35:06Z</time></trkpt><trkpt lat="45.58549954935385" lon="10.719014796871413"><ele>173.0</ele><time>2026-03-28T12:35:08Z</time></trkpt><trkpt lat="45.585511435645856" lon="10.718906183929477"><ele>173.0</ele><time>2026-03-28T12:35:09Z</time></trkpt><trkpt lat="45.585483033594386" lon="10.718808332904059"><ele>173.0</ele><time>2026-03-28T12:35:10Z</time></trkpt><trkpt lat="45.5854250810177" lon="10.718750404855346"><ele>173.0</ele><time>2026-03-28T12:35:11Z</time></trkpt><trkpt lat="45.58536474876769" lon="10.718710535137308"><ele>169.6</ele><time>2026-03-28T12:35:12Z</time></trkpt><trkpt lat="45.585301446724515" lon="10.718692058832653"><ele>166.20000000000002</ele><time>2026-03-28T12:35:14Z</time></trkpt><trkpt lat="45.58516835577339" lon="10.718745658868704"><ele>162.8</ele><time>2026-03-28T12:35:16Z</time></trkpt><trkpt lat="45.58507442416645" lon="10.718777270451994"><ele>159.4</ele><time>2026-03-28T12:35:17Z</time></trkpt><trkpt lat="45.584984403215856" lon="10.718795681799964"><ele>156.0</ele><time>2026-03-28T12:35:18Z</time></trkpt><trkpt lat="45.58490615438618" lon="10.718786353633138"><ele>156.0</ele><time>2026-03-28T12:35:19Z</time></trkpt><trkpt lat="45.58483025027977" lon="10.718732079487037"><ele>156.0</ele><time>2026-03-28T12:35:20Z</time></trkpt><trkpt lat="45.584762367164664" lon="10.7186453749568"><ele>156.0</ele><time>2026-03-28T12:35:21Z</time></trkpt><trkpt lat="45.584693835888174" lon="10.718558610803125"><ele>156.0</ele><time>2026-03-28T12:35:22Z</time></trkpt><trkpt lat="45.58463173937865" lon="10.718472780532839"><ele>156.0</ele><time>2026-03-28T12:35:23Z</time></trkpt><trkpt lat="45.584583337432015" lon="10.718361562174598"><ele>156.0</ele><time>2026-03-28T12:35:24Z</time></trkpt><trkpt lat="45.58454716012368" lon="10.71825039176888"><ele>157.2</ele><time>2026-03-28T12:35:25Z</time></trkpt><trkpt lat="45.5845130327558" lon="10.718152972578984"><ele>158.39999999999998</ele><time>2026-03-28T12:35:26Z</time></trkpt><trkpt lat="45.58445290730337" lon="10.718029262119428"><ele>159.6</ele><time>2026-03-28T12:35:28Z</time></trkpt><trkpt lat="45.5843865675511" lon="10.71790131098032"><ele>160.79999999999998</ele><time>2026-03-28T12:35:31Z</time></trkpt><trkpt lat="45.58433420871469" lon="10.717808341592082"><ele>162.0</ele><time>2026-03-28T12:35:32Z</time></trkpt><trkpt lat="45.58427951869039" lon="10.717680882162371"><ele>156.0</ele><time>2026-03-28T12:35:33Z</time></trkpt><trkpt lat="45.584214331709724" lon="10.717531994322913"><ele>150.0</ele><time>2026-03-28T12:35:34Z</time></trkpt><trkpt lat="45.5841493599561" lon="10.717388555322524"><ele>144.0</ele><time>2026-03-28T12:35:35Z</time></trkpt><trkpt lat="45.58409221309979" lon="10.71725079425839"><ele>138.0</ele><time>2026-03-28T12:35:36Z</time></trkpt><trkpt lat="45.584037277051884" lon="10.717109316770703"><ele>138.0</ele><time>2026-03-28T12:35:37Z</time></trkpt><trkpt lat="45.5839932960255" lon="10.716969808143585"><ele>138.0</ele><time>2026-03-28T12:35:38Z</time></trkpt><trkpt lat="45.58395808511816" lon="10.716857516546538"><ele>138.0</ele><time>2026-03-28T12:35:39Z</time></trkpt><trkpt lat="45.58392414386103" lon="10.716762371515003"><ele>138.0</ele><time>2026-03-28T12:35:40Z</time></trkpt><trkpt lat="45.583888543796405" lon="10.716678333930478"><ele>138.0</ele><time>2026-03-28T12:35:41Z</time></trkpt><trkpt lat="45.58379582193026" lon="10.716569287267735"><ele>137.6</ele><time>2026-03-28T12:35:43Z</time></trkpt><trkpt lat="45.58372728124628" lon="10.716545752458742"><ele>137.20000000000002</ele><time>2026-03-28T12:35:44Z</time></trkpt><trkpt lat="45.58363230704051" lon="10.716548612745155"><ele>136.8</ele><time>2026-03-28T12:35:45Z</time></trkpt><trkpt lat="45.583526949452796" lon="10.716566084863295"><ele>136.4</ele><time>2026-03-28T12:35:46Z</time></trkpt><trkpt lat="45.58339491242799" lon="10.716581256685119"><ele>136.0</ele><time>2026-03-28T12:35:47Z</time></trkpt><trkpt lat="45.58323884811526" lon="10.716606102231252"><ele>130.75</ele><time>2026-03-28T12:35:48Z</time></trkpt><trkpt lat="45.583093456333685" lon="10.71662568391353"><ele>125.5</ele><time>2026-03-28T12:35:49Z</time></trkpt><trkpt lat="45.5829555277668" lon="10.716632742058302"><ele>120.25</ele><time>2026-03-28T12:35:50Z</time></trkpt><trkpt lat="45.58282165010692" lon="10.716618441454793"><ele>115.0</ele><time>2026-03-28T12:35:51Z</time></trkpt><trkpt lat="45.582686778443815" lon="10.716623431280095"><ele>113.2</ele><time>2026-03-28T12:35:52Z</time></trkpt><trkpt lat="45.58256360795044" lon="10.716617401371133"><ele>111.4</ele><time>2026-03-28T12:35:53Z</time></trkpt><trkpt lat="45.58245170765863" lon="10.716576351803722"><ele>109.6</ele><time>2026-03-28T12:35:54Z</time></trkpt><trkpt lat="45.582350749308034" lon="10.716552582753284"><ele>107.8</ele><time>2026-03-28T12:35:55Z</time></trkpt><trkpt lat="45.58225406474865" lon="10.716544207887752"><ele>106.0</ele><time>2026-03-28T12:35:56Z</time></trkpt><trkpt lat="45.582162748241856" lon="10.716512060796678"><ele>106.0</ele><time>2026-03-28T12:35:57Z</time></trkpt><trkpt lat="45.582080451619326" lon="10.716488728507642"><ele>106.0</ele><time>2026-03-28T12:35:58Z</time></trkpt><trkpt lat="45.58199969120487" lon="10.716504276013191"><ele>106.0</ele><time>2026-03-28T12:35:59Z</time></trkpt><trkpt lat="45.58190882066476" lon="10.716546546061661"><ele>106.0</ele><time>2026-03-28T12:36:00Z</time></trkpt><trkpt lat="45.5817968247007" lon="10.71656245817436"><ele>106.0</ele><time>2026-03-28T12:36:01Z</time></trkpt><trkpt lat="45.58167774224001" lon="10.716616418558504"><ele>105.0</ele><time>2026-03-28T12:36:02Z</time></trkpt><trkpt lat="45.58154837939999" lon="10.71664913519745"><ele>104.0</ele><time>2026-03-28T12:36:03Z</time></trkpt><trkpt lat="45.5814218515797" lon="10.716679875764141"><ele>103.0</ele><time>2026-03-28T12:36:04Z</time></trkpt><trkpt lat="45.58130533096028" lon="10.71665903127141"><ele>102.0</ele><time>2026-03-28T12:36:05Z</time></trkpt><trkpt lat="45.58119854555883" lon="10.71663183794794"><ele>100.6</ele><time>2026-03-28T12:36:06Z</time></trkpt><trkpt lat="45.58109054253596" lon="10.71659852023501"><ele>99.19999999999999</ele><time>2026-03-28T12:36:07Z</time></trkpt><trkpt lat="45.580991972662666" lon="10.716551748488008"><ele>97.8</ele><time>2026-03-28T12:36:08Z</time></trkpt><trkpt lat="45.58089043477454" lon="10.716545001878577"><ele>96.4</ele><time>2026-03-28T12:36:09Z</time></trkpt><trkpt lat="45.58079162829575" lon="10.716573265113075"><ele>95.0</ele><time>2026-03-28T12:36:10Z</time></trkpt><trkpt lat="45.580695462684524" lon="10.716620457895544"><ele>95.0</ele><time>2026-03-28T12:36:11Z</time></trkpt><trkpt lat="45.58060128175982" lon="10.716663513776503"><ele>95.0</ele><time>2026-03-28T12:36:12Z</time></trkpt><trkpt lat="45.58051166377629" lon="10.716685974661619"><ele>95.0</ele><time>2026-03-28T12:36:13Z</time></trkpt><trkpt lat="45.58043494813056" lon="10.716673651860697"><ele>95.0</ele><time>2026-03-28T12:36:14Z</time></trkpt><trkpt lat="45.580342070614925" lon="10.716643762180343"><ele>95.0</ele><time>2026-03-28T12:36:16Z</time></trkpt><trkpt lat="45.58030511625268" lon="10.71637943402381"><ele>94.5</ele><time>2026-03-28T12:36:19Z</time></trkpt><trkpt lat="45.580305216629" lon="10.716227912734997"><ele>94.0</ele><time>2026-03-28T12:36:20Z</time></trkpt><trkpt lat="45.58031058244837" lon="10.716066058452384"><ele>93.5</ele><time>2026-03-28T12:36:21Z</time></trkpt><trkpt lat="45.58031028895616" lon="10.715871964388324"><ele>93.0</ele><time>2026-03-28T12:36:22Z</time></trkpt><trkpt lat="45.580303627143344" lon="10.715663001631338"><ele>92.33333333333333</ele><time>2026-03-28T12:36:23Z</time></trkpt><trkpt lat="45.580288274936116" lon="10.71543762330873"><ele>91.66666666666666</ele><time>2026-03-28T12:36:24Z</time></trkpt><trkpt lat="45.58025479394571" lon="10.71521130882002"><ele>91.0</ele><time>2026-03-28T12:36:25Z</time></trkpt><trkpt lat="45.58022195187941" lon="10.715000848916993"><ele>90.66666666666666</ele><time>2026-03-28T12:36:26Z</time></trkpt><trkpt lat="45.58018715285408" lon="10.714766763115128"><ele>90.33333333333333</ele><time>2026-03-28T12:36:27Z</time></trkpt><trkpt lat="45.58014974416207" lon="10.714524216673603"><ele>90.0</ele><time>2026-03-28T12:36:28Z</time></trkpt><trkpt lat="45.58010772664143" lon="10.714273786759"><ele>90.66666666666667</ele><time>2026-03-28T12:36:29Z</time></trkpt><trkpt lat="45.58006228451184" lon="10.714030680333504"><ele>91.33333333333334</ele><time>2026-03-28T12:36:30Z</time></trkpt><trkpt lat="45.58001118991917" lon="10.713789781601806"><ele>92.0</ele><time>2026-03-28T12:36:31Z</time></trkpt><trkpt lat="45.579956756064334" lon="10.713542787050143"><ele>92.33333333333334</ele><time>2026-03-28T12:36:32Z</time></trkpt><trkpt lat="45.57991507786655" lon="10.713324922499298"><ele>92.66666666666667</ele><time>2026-03-28T12:36:33Z</time></trkpt><trkpt lat="45.57987894470318" lon="10.713110426481588"><ele>93.0</ele><time>2026-03-28T12:36:34Z</time></trkpt><trkpt lat="45.57984782446999" lon="10.712909432025143"><ele>93.75</ele><time>2026-03-28T12:36:35Z</time></trkpt><trkpt lat="45.57981217421818" lon="10.712710018237104"><ele>94.5</ele><time>2026-03-28T12:36:36Z</time></trkpt><trkpt lat="45.57976801905558" lon="10.712511086130508"><ele>95.25</ele><time>2026-03-28T12:36:37Z</time></trkpt><trkpt lat="45.579732688883134" lon="10.712323125548801"><ele>96.0</ele><time>2026-03-28T12:36:38Z</time></trkpt><trkpt lat="45.57969709500071" lon="10.71210715533234"><ele>97.0</ele><time>2026-03-28T12:36:39Z</time></trkpt><trkpt lat="45.57966429842033" lon="10.71189519170088"><ele>98.0</ele><time>2026-03-28T12:36:40Z</time></trkpt><trkpt lat="45.57962951774506" lon="10.711668325128414"><ele>99.0</ele><time>2026-03-28T12:36:41Z</time></trkpt><trkpt lat="45.57960059133775" lon="10.711462006777046"><ele>99.0</ele><time>2026-03-28T12:36:42Z</time></trkpt><trkpt lat="45.57958202285388" lon="10.711264530873796"><ele>99.0</ele><time>2026-03-28T12:36:43Z</time></trkpt><trkpt lat="45.57956204968869" lon="10.71105331715778"><ele>99.0</ele><time>2026-03-28T12:36:44Z</time></trkpt><trkpt lat="45.57953809939796" lon="10.710842710349455"><ele>99.0</ele><time>2026-03-28T12:36:45Z</time></trkpt><trkpt lat="45.579503240638076" lon="10.710632670805643"><ele>97.75</ele><time>2026-03-28T12:36:46Z</time></trkpt><trkpt lat="45.579458180959506" lon="10.7104391972512"><ele>96.5</ele><time>2026-03-28T12:36:47Z</time></trkpt><trkpt lat="45.57941074268886" lon="10.710263276011927"><ele>95.25</ele><time>2026-03-28T12:36:48Z</time></trkpt><trkpt lat="45.57936425784227" lon="10.710115173938304"><ele>94.0</ele><time>2026-03-28T12:36:49Z</time></trkpt><trkpt lat="45.57930760642508" lon="10.709985372427047"><ele>94.0</ele><time>2026-03-28T12:36:50Z</time></trkpt><trkpt lat="45.57924404198497" lon="10.709872730679653"><ele>94.0</ele><time>2026-03-28T12:36:51Z</time></trkpt><trkpt lat="45.57918603788142" lon="10.709783612736032"><ele>94.0</ele><time>2026-03-28T12:36:52Z</time></trkpt><trkpt lat="45.579141918743275" lon="10.709711265896798"><ele>94.0</ele><time>2026-03-28T12:36:53Z</time></trkpt><trkpt lat="45.57924614116348" lon="10.709633827029895"><ele>94.0</ele><time>2026-03-28T12:36:57Z</time></trkpt><trkpt lat="45.57931739029507" lon="10.709645428097613"><ele>94.0</ele><time>2026-03-28T12:36:58Z</time></trkpt><trkpt lat="45.579405701045026" lon="10.709680474787392"><ele>94.0</ele><time>2026-03-28T12:36:59Z</time></trkpt><trkpt lat="45.57951464533881" lon="10.709708166427184"><ele>94.0</ele><time>2026-03-28T12:37:00Z</time></trkpt><trkpt lat="45.57964666458575" lon="10.709733067208852"><ele>94.0</ele><time>2026-03-28T12:37:01Z</time></trkpt><trkpt lat="45.5797961332376" lon="10.7097735527843"><ele>94.0</ele><time>2026-03-28T12:37:02Z</time></trkpt><trkpt lat="45.57994490701625" lon="10.709781493214532"><ele>96.0</ele><time>2026-03-28T12:37:03Z</time></trkpt><trkpt lat="45.580099084109065" lon="10.709789374870809"><ele>98.0</ele><time>2026-03-28T12:37:04Z</time></trkpt><trkpt lat="45.580242681032" lon="10.709801468398489"><ele>100.0</ele><time>2026-03-28T12:37:05Z</time></trkpt><trkpt lat="45.58037943809052" lon="10.709816625388637"><ele>102.0</ele><time>2026-03-28T12:37:06Z</time></trkpt><trkpt lat="45.5805204490782" lon="10.709874441274138"><ele>103.75</ele><time>2026-03-28T12:37:07Z</time></trkpt><trkpt lat="45.580639617399534" lon="10.70997425529084"><ele>105.5</ele><time>2026-03-28T12:37:08Z</time></trkpt><trkpt lat="45.580773149838635" lon="10.710060210419739"><ele>107.25</ele><time>2026-03-28T12:37:09Z</time></trkpt><trkpt lat="45.58088742070106" lon="10.710141264462973"><ele>109.0</ele><time>2026-03-28T12:37:10Z</time></trkpt><trkpt lat="45.581006051127495" lon="10.710194883857369"><ele>109.0</ele><time>2026-03-28T12:37:11Z</time></trkpt><trkpt lat="45.58112918503686" lon="10.710222072840672"><ele>109.0</ele><time>2026-03-28T12:37:12Z</time></trkpt><trkpt lat="45.58125241500023" lon="10.710235864439422"><ele>109.0</ele><time>2026-03-28T12:37:13Z</time></trkpt><trkpt lat="45.5813861658815" lon="10.710253113606928"><ele>109.0</ele><time>2026-03-28T12:37:14Z</time></trkpt><trkpt lat="45.58152958022172" lon="10.710273254722951"><ele>112.33333333333334</ele><time>2026-03-28T12:37:15Z</time></trkpt><trkpt lat="45.5816708120865" lon="10.710305708724862"><ele>115.66666666666666</ele><time>2026-03-28T12:37:16Z</time></trkpt><trkpt lat="45.58182241890123" lon="10.710346928864658"><ele>119.0</ele><time>2026-03-28T12:37:17Z</time></trkpt><trkpt lat="45.58198065028476" lon="10.710390010045304"><ele>122.33333333333333</ele><time>2026-03-28T12:37:18Z</time></trkpt><trkpt lat="45.58215170976252" lon="10.710427796853871"><ele>125.66666666666666</ele><time>2026-03-28T12:37:19Z</time></trkpt><trkpt lat="45.58233286394609" lon="10.710449192853742"><ele>129.0</ele><time>2026-03-28T12:37:20Z</time></trkpt><trkpt lat="45.582530587970304" lon="10.710455531633013"><ele>129.0</ele><time>2026-03-28T12:37:21Z</time></trkpt><trkpt lat="45.582708362706704" lon="10.710449563911327"><ele>129.0</ele><time>2026-03-28T12:37:22Z</time></trkpt><trkpt lat="45.58290116974636" lon="10.710440310840726"><ele>129.0</ele><time>2026-03-28T12:37:23Z</time></trkpt><trkpt lat="45.58309586081809" lon="10.710404383796309"><ele>132.66666666666666</ele><time>2026-03-28T12:37:24Z</time></trkpt><trkpt lat="45.58329745727529" lon="10.710355021529729"><ele>136.33333333333331</ele><time>2026-03-28T12:37:25Z</time></trkpt><trkpt lat="45.583495952785206" lon="10.710308405076946"><ele>140.0</ele><time>2026-03-28T12:37:26Z</time></trkpt><trkpt lat="45.583686637476966" lon="10.710291112445342"><ele>143.33333333333331</ele><time>2026-03-28T12:37:27Z</time></trkpt><trkpt lat="45.58388271884136" lon="10.710305309140768"><ele>146.66666666666666</ele><time>2026-03-28T12:37:28Z</time></trkpt><trkpt lat="45.58408307684426" lon="10.710349508037366"><ele>150.0</ele><time>2026-03-28T12:37:29Z</time></trkpt><trkpt lat="45.584283128294246" lon="10.710417721317283"><ele>150.0</ele><time>2026-03-28T12:37:30Z</time></trkpt><trkpt lat="45.584483112940944" lon="10.710498169853649"><ele>150.0</ele><time>2026-03-28T12:37:31Z</time></trkpt><trkpt lat="45.58467417040681" lon="10.710567252128158"><ele>150.0</ele><time>2026-03-28T12:37:32Z</time></trkpt><trkpt lat="45.584858957363764" lon="10.71061586938823"><ele>154.66666666666666</ele><time>2026-03-28T12:37:33Z</time></trkpt><trkpt lat="45.585043169717466" lon="10.710644859218776"><ele>159.33333333333331</ele><time>2026-03-28T12:37:34Z</time></trkpt><trkpt lat="45.58521750030278" lon="10.710644028779964"><ele>164.0</ele><time>2026-03-28T12:37:35Z</time></trkpt><trkpt lat="45.585378603813695" lon="10.710607059788305"><ele>170.0</ele><time>2026-03-28T12:37:36Z</time></trkpt><trkpt lat="45.58554833128662" lon="10.710549992632787"><ele>176.0</ele><time>2026-03-28T12:37:37Z</time></trkpt><trkpt lat="45.58569153293214" lon="10.710468781032208"><ele>182.0</ele><time>2026-03-28T12:37:38Z</time></trkpt><trkpt lat="45.58582770050871" lon="10.710397846512075"><ele>182.0</ele><time>2026-03-28T12:37:39Z</time></trkpt><trkpt lat="45.58598140849256" lon="10.710379778781062"><ele>182.0</ele><time>2026-03-28T12:37:40Z</time></trkpt><trkpt lat="45.586147038947026" lon="10.710376467355635"><ele>182.0</ele><time>2026-03-28T12:37:41Z</time></trkpt><trkpt lat="45.58627482774651" lon="10.710393032697075"><ele>182.0</ele><time>2026-03-28T12:37:42Z</time></trkpt><trkpt lat="45.58639028595667" lon="10.71039807455496"><ele>187.25</ele><time>2026-03-28T12:37:43Z</time></trkpt><trkpt lat="45.58651859378288" lon="10.710428343748216"><ele>192.5</ele><time>2026-03-28T12:37:44Z</time></trkpt><trkpt lat="45.58664979604783" lon="10.710434547256842"><ele>197.75</ele><time>2026-03-28T12:37:45Z</time></trkpt><trkpt lat="45.58679273071845" lon="10.710369116002926"><ele>203.0</ele><time>2026-03-28T12:37:46Z</time></trkpt><trkpt lat="45.58693132950053" lon="10.710292867222973"><ele>203.4</ele><time>2026-03-28T12:37:47Z</time></trkpt><trkpt lat="45.587040363317335" lon="10.710226425460744"><ele>203.8</ele><time>2026-03-28T12:37:48Z</time></trkpt><trkpt lat="45.587134778753715" lon="10.71018250005444"><ele>204.2</ele><time>2026-03-28T12:37:49Z</time></trkpt><trkpt lat="45.58720223390897" lon="10.710157035494888"><ele>204.6</ele><time>2026-03-28T12:37:50Z</time></trkpt><trkpt lat="45.587278121210815" lon="10.710247674376339"><ele>205.0</ele><time>2026-03-28T12:37:52Z</time></trkpt><trkpt lat="45.587221451660824" lon="10.710425868923856"><ele>207.49999999999997</ele><time>2026-03-28T12:37:54Z</time></trkpt><trkpt lat="45.5871413098241" lon="10.710461565213869"><ele>210.0</ele><time>2026-03-28T12:37:55Z</time></trkpt><trkpt lat="45.58707181533379" lon="10.710563369399072"><ele>212.5</ele><time>2026-03-28T12:37:56Z</time></trkpt><trkpt lat="45.58701877785976" lon="10.710627722612713"><ele>215.0</ele><time>2026-03-28T12:37:57Z</time></trkpt><trkpt lat="45.58701243191323" lon="10.710720960695056"><ele>217.49999999999997</ele><time>2026-03-28T12:37:58Z</time></trkpt><trkpt lat="45.587109601093836" lon="10.710811564902594"><ele>220.0</ele><time>2026-03-28T12:38:00Z</time></trkpt><trkpt lat="45.587176873655785" lon="10.710785814578882"><ele>220.0</ele><time>2026-03-28T12:38:01Z</time></trkpt><trkpt lat="45.58726061669717" lon="10.710733402443687"><ele>220.0</ele><time>2026-03-28T12:38:02Z</time></trkpt><trkpt lat="45.587349975742256" lon="10.710647099522319"><ele>220.0</ele><time>2026-03-28T12:38:03Z</time></trkpt><trkpt lat="45.58745719432487" lon="10.710532632940671"><ele>220.0</ele><time>2026-03-28T12:38:04Z</time></trkpt><trkpt lat="45.58756377718441" lon="10.710425245371553"><ele>220.0</ele><time>2026-03-28T12:38:05Z</time></trkpt><trkpt lat="45.58767504264291" lon="10.710354841686705"><ele>220.0</ele><time>2026-03-28T12:38:06Z</time></trkpt><trkpt lat="45.58776518117822" lon="10.710280668801156"><ele>220.0</ele><time>2026-03-28T12:38:07Z</time></trkpt><trkpt lat="45.587853913884835" lon="10.710256331048381"><ele>220.0</ele><time>2026-03-28T12:38:08Z</time></trkpt><trkpt lat="45.58794598794831" lon="10.71028801264279"><ele>220.0</ele><time>2026-03-28T12:38:09Z</time></trkpt><trkpt lat="45.5880543342258" lon="10.710307117750096"><ele>223.0</ele><time>2026-03-28T12:38:10Z</time></trkpt><trkpt lat="45.58811776075423" lon="10.710341475234125"><ele>226.0</ele><time>2026-03-28T12:38:11Z</time></trkpt><trkpt lat="45.58821647122681" lon="10.710426404002556"><ele>229.0</ele><time>2026-03-28T12:38:13Z</time></trkpt><trkpt lat="45.588293648114934" lon="10.71046106228356"><ele>232.0</ele><time>2026-03-28T12:38:16Z</time></trkpt><trkpt lat="45.588219779282014" lon="10.710409770407495"><ele>235.0</ele><time>2026-03-28T12:38:20Z</time></trkpt><trkpt lat="45.5882334875253" lon="10.710583058162465"><ele>220.0</ele><time>2026-03-28T12:38:21Z</time></trkpt><trkpt lat="45.58866180039484" lon="10.70982449415844"><ele>220.0</ele><time>2026-03-28T12:38:22Z</time></trkpt><trkpt lat="45.58856203758769" lon="10.709627435078566"><ele>220.0</ele><time>2026-03-28T12:38:23Z</time></trkpt><trkpt lat="45.5878620559776" lon="10.710239354580246"><ele>220.0</ele><time>2026-03-28T12:38:24Z</time></trkpt><trkpt lat="45.58775794862062" lon="10.710288435423493"><ele>220.0</ele><time>2026-03-28T12:38:25Z</time></trkpt><trkpt lat="45.58767136876138" lon="10.71032218443573"><ele>220.0</ele><time>2026-03-28T12:38:26Z</time></trkpt><trkpt lat="45.58759193369267" lon="10.710403340222847"><ele>220.0</ele><time>2026-03-28T12:38:27Z</time></trkpt><trkpt lat="45.587506503968065" lon="10.710486129252951"><ele>220.0</ele><time>2026-03-28T12:38:28Z</time></trkpt><trkpt lat="45.58742419427018" lon="10.710563020344313"><ele>219.99999999999997</ele><time>2026-03-28T12:38:29Z</time></trkpt><trkpt lat="45.58734141533135" lon="10.710638869095632"><ele>220.0</ele><time>2026-03-28T12:38:30Z</time></trkpt><trkpt lat="45.587266477019725" lon="10.710691627958065"><ele>220.0</ele><time>2026-03-28T12:38:31Z</time></trkpt><trkpt lat="45.58720656278201" lon="10.710740840524123"><ele>220.0</ele><time>2026-03-28T12:38:32Z</time></trkpt><trkpt lat="45.58711013769023" lon="10.71076246297687"><ele>219.99999999999997</ele><time>2026-03-28T12:38:34Z</time></trkpt><trkpt lat="45.58704302866898" lon="10.710788386967193"><ele>220.0</ele><time>2026-03-28T12:38:35Z</time></trkpt><trkpt lat="45.58696340366088" lon="10.710854167945943"><ele>218.16666666666666</ele><time>2026-03-28T12:38:36Z</time></trkpt><trkpt lat="45.58687443778012" lon="10.710939996221024"><ele>216.33333333333331</ele><time>2026-03-28T12:38:37Z</time></trkpt><trkpt lat="45.58678317527899" lon="10.710985509393534"><ele>214.5</ele><time>2026-03-28T12:38:38Z</time></trkpt><trkpt lat="45.58670380482677" lon="10.711056784465802"><ele>212.66666666666669</ele><time>2026-03-28T12:38:39Z</time></trkpt><trkpt lat="45.586647958298485" lon="10.711126479258672"><ele>210.83333333333334</ele><time>2026-03-28T12:38:40Z</time></trkpt><trkpt lat="45.58661288231934" lon="10.711201884876536"><ele>209.0</ele><time>2026-03-28T12:38:41Z</time></trkpt><trkpt lat="45.58659600740392" lon="10.711320957134085"><ele>209.0</ele><time>2026-03-28T12:38:42Z</time></trkpt><trkpt lat="45.58664030310958" lon="10.711456074540058"><ele>209.0</ele><time>2026-03-28T12:38:43Z</time></trkpt><trkpt lat="45.58671100231136" lon="10.711555955124464"><ele>209.0</ele><time>2026-03-28T12:38:44Z</time></trkpt><trkpt lat="45.586766376312106" lon="10.71168396133729"><ele>209.0</ele><time>2026-03-28T12:38:45Z</time></trkpt><trkpt lat="45.58683817799947" lon="10.711807486805865"><ele>209.0</ele><time>2026-03-28T12:38:46Z</time></trkpt><trkpt lat="45.586915997076105" lon="10.711942383498668"><ele>208.0</ele><time>2026-03-28T12:38:47Z</time></trkpt><trkpt lat="45.586992636140266" lon="10.71207657865856"><ele>207.0</ele><time>2026-03-28T12:38:48Z</time></trkpt><trkpt lat="45.58706759915687" lon="10.712215138255969"><ele>206.0</ele><time>2026-03-28T12:38:49Z</time></trkpt><trkpt lat="45.58713643702916" lon="10.712352006001508"><ele>205.0</ele><time>2026-03-28T12:38:50Z</time></trkpt><trkpt lat="45.58719676676573" lon="10.712490896425614"><ele>211.0</ele><time>2026-03-28T12:38:51Z</time></trkpt><trkpt lat="45.58724480137317" lon="10.7126379545966"><ele>217.0</ele><time>2026-03-28T12:38:52Z</time></trkpt><trkpt lat="45.58729545390102" lon="10.712799925090497"><ele>223.0</ele><time>2026-03-28T12:38:53Z</time></trkpt><trkpt lat="45.587346646921354" lon="10.71296536286288"><ele>229.0</ele><time>2026-03-28T12:38:54Z</time></trkpt><trkpt lat="45.5874054339656" lon="10.713135139408363"><ele>229.0</ele><time>2026-03-28T12:38:55Z</time></trkpt><trkpt lat="45.587454526065976" lon="10.71331366013604"><ele>229.0</ele><time>2026-03-28T12:38:56Z</time></trkpt><trkpt lat="45.58749881264679" lon="10.713498447999278"><ele>229.0</ele><time>2026-03-28T12:38:57Z</time></trkpt><trkpt lat="45.587540961889005" lon="10.713687908399459"><ele>229.0</ele><time>2026-03-28T12:38:58Z</time></trkpt><trkpt lat="45.587563655545885" lon="10.713857888245231"><ele>229.2</ele><time>2026-03-28T12:38:59Z</time></trkpt><trkpt lat="45.5876078165772" lon="10.713992021061207"><ele>229.39999999999998</ele><time>2026-03-28T12:39:00Z</time></trkpt><trkpt lat="45.58764379642194" lon="10.714108499914277"><ele>229.6</ele><time>2026-03-28T12:39:01Z</time></trkpt><trkpt lat="45.58769965489179" lon="10.71421341585583"><ele>229.8</ele><time>2026-03-28T12:39:02Z</time></trkpt><trkpt lat="45.587767181758785" lon="10.714319294403015"><ele>230.0</ele><time>2026-03-28T12:39:03Z</time></trkpt><trkpt lat="45.58781488497407" lon="10.714467076090253"><ele>233.6</ele><time>2026-03-28T12:39:04Z</time></trkpt><trkpt lat="45.58785721919115" lon="10.714616458277957"><ele>237.2</ele><time>2026-03-28T12:39:05Z</time></trkpt><trkpt lat="45.58790993029146" lon="10.714736480105788"><ele>240.8</ele><time>2026-03-28T12:39:06Z</time></trkpt><trkpt lat="45.58797607106414" lon="10.714855899712154"><ele>244.4</ele><time>2026-03-28T12:39:07Z</time></trkpt><trkpt lat="45.588072779405614" lon="10.714974410005613"><ele>248.0</ele><time>2026-03-28T12:39:08Z</time></trkpt><trkpt lat="45.58819223625715" lon="10.71509567961157"><ele>247.25</ele><time>2026-03-28T12:39:09Z</time></trkpt><trkpt lat="45.58826705168437" lon="10.715242896200985"><ele>246.5</ele><time>2026-03-28T12:39:10Z</time></trkpt><trkpt lat="45.58830236790901" lon="10.715390505449314"><ele>245.75</ele><time>2026-03-28T12:39:11Z</time></trkpt><trkpt lat="45.588346514634026" lon="10.71556474069393"><ele>245.0</ele><time>2026-03-28T12:39:12Z</time></trkpt><trkpt lat="45.588415219632864" lon="10.715749617620624"><ele>245.0</ele><time>2026-03-28T12:39:13Z</time></trkpt><trkpt lat="45.588472179901565" lon="10.715927898427463"><ele>245.0</ele><time>2026-03-28T12:39:14Z</time></trkpt><trkpt lat="45.58850265730341" lon="10.716101222073691"><ele>245.0</ele><time>2026-03-28T12:39:15Z</time></trkpt><trkpt lat="45.58854969514524" lon="10.716228475830885"><ele>245.0</ele><time>2026-03-28T12:39:16Z</time></trkpt><trkpt lat="45.588576278899716" lon="10.71634613319332"><ele>245.0</ele><time>2026-03-28T12:39:17Z</time></trkpt><trkpt lat="45.58863173217582" lon="10.71645484986413"><ele>245.83333333333334</ele><time>2026-03-28T12:39:18Z</time></trkpt><trkpt lat="45.58869764341965" lon="10.716542045008358"><ele>246.66666666666669</ele><time>2026-03-28T12:39:19Z</time></trkpt><trkpt lat="45.5887550541917" lon="10.716593941947945"><ele>247.5</ele><time>2026-03-28T12:39:20Z</time></trkpt><trkpt lat="45.58880452506025" lon="10.716652079858626"><ele>248.33333333333331</ele><time>2026-03-28T12:39:22Z</time></trkpt><trkpt lat="45.588834253317266" lon="10.716773671412657"><ele>249.16666666666666</ele><time>2026-03-28T12:39:24Z</time></trkpt><trkpt lat="45.5888731405375" lon="10.716894849782046"><ele>250.0</ele><time>2026-03-28T12:39:25Z</time></trkpt><trkpt lat="45.58892588238186" lon="10.717013165557065"><ele>250.0</ele><time>2026-03-28T12:39:26Z</time></trkpt><trkpt lat="45.58896105797086" lon="10.717139050474138"><ele>250.0</ele><time>2026-03-28T12:39:27Z</time></trkpt><trkpt lat="45.5889976351513" lon="10.71728954922757"><ele>250.0</ele><time>2026-03-28T12:39:28Z</time></trkpt><trkpt lat="45.58904232978874" lon="10.717433109448692"><ele>250.0</ele><time>2026-03-28T12:39:29Z</time></trkpt><trkpt lat="45.58908579037912" lon="10.71755094647772"><ele>250.0</ele><time>2026-03-28T12:39:30Z</time></trkpt><trkpt lat="45.58913051526113" lon="10.717626255828469"><ele>249.99999999999997</ele><time>2026-03-28T12:39:31Z</time></trkpt><trkpt lat="45.5891891300816" lon="10.717672501154155"><ele>250.0</ele><time>2026-03-28T12:39:32Z</time></trkpt><trkpt lat="45.589259335912374" lon="10.717701572149306"><ele>250.0</ele><time>2026-03-28T12:39:33Z</time></trkpt><trkpt lat="45.58934314975243" lon="10.717726515893762"><ele>250.0</ele><time>2026-03-28T12:39:35Z</time></trkpt><trkpt lat="45.58942654225107" lon="10.717733601696787"><ele>249.99999999999997</ele><time>2026-03-28T12:39:39Z</time></trkpt><trkpt lat="45.58949179161655" lon="10.717726683594849"><ele>250.0</ele><time>2026-03-28T12:39:43Z</time></trkpt><trkpt lat="45.589591446270624" lon="10.717719321915531"><ele>252.4</ele><time>2026-03-28T12:39:45Z</time></trkpt><trkpt lat="45.589711351596726" lon="10.71766984904851"><ele>254.8</ele><time>2026-03-28T12:39:47Z</time></trkpt><trkpt lat="45.58978348409279" lon="10.717652804612726"><ele>257.2</ele><time>2026-03-28T12:39:48Z</time></trkpt><trkpt lat="45.589863396816845" lon="10.717619203215566"><ele>259.6</ele><time>2026-03-28T12:39:49Z</time></trkpt><trkpt lat="45.589955341988905" lon="10.71761143475442"><ele>262.0</ele><time>2026-03-28T12:39:50Z</time></trkpt><trkpt lat="45.59003604106786" lon="10.71759985573772"><ele>262.0</ele><time>2026-03-28T12:39:51Z</time></trkpt><trkpt lat="45.590110588368255" lon="10.717662034965125"><ele>262.0</ele><time>2026-03-28T12:39:52Z</time></trkpt><trkpt lat="45.59017324342395" lon="10.717741487340211"><ele>262.0</ele><time>2026-03-28T12:39:53Z</time></trkpt><trkpt lat="45.59023418849506" lon="10.717855273688103"><ele>262.0</ele><time>2026-03-28T12:39:54Z</time></trkpt><trkpt lat="45.59032126726353" lon="10.717985017476455"><ele>262.0</ele><time>2026-03-28T12:39:55Z</time></trkpt><trkpt lat="45.59039841743069" lon="10.718138907344096"><ele>262.2</ele><time>2026-03-28T12:39:56Z</time></trkpt><trkpt lat="45.59045556450984" lon="10.718300774709306"><ele>262.4</ele><time>2026-03-28T12:39:57Z</time></trkpt><trkpt lat="45.590506865082126" lon="10.718432785744811"><ele>262.6</ele><time>2026-03-28T12:39:58Z</time></trkpt><trkpt lat="45.590544136334614" lon="10.718531839762646"><ele>262.8</ele><time>2026-03-28T12:39:59Z</time></trkpt><trkpt lat="45.590596452635026" lon="10.718642132817651"><ele>263.0</ele><time>2026-03-28T12:40:01Z</time></trkpt><trkpt lat="45.59062556930741" lon="10.718740312681279"><ele>262.6</ele><time>2026-03-28T12:40:04Z</time></trkpt><trkpt lat="45.59071185831532" lon="10.718840907499008"><ele>262.20000000000005</ele><time>2026-03-28T12:40:13Z</time></trkpt><trkpt lat="45.59081004667997" lon="10.71897167762417"><ele>261.8</ele><time>2026-03-28T12:40:15Z</time></trkpt><trkpt lat="45.59088563672351" lon="10.719036911645434"><ele>261.40000000000003</ele><time>2026-03-28T12:40:16Z</time></trkpt><trkpt lat="45.590971046853554" lon="10.719096513185585"><ele>261.0</ele><time>2026-03-28T12:40:17Z</time></trkpt><trkpt lat="45.59106022350804" lon="10.71916704195428"><ele>261.0</ele><time>2026-03-28T12:40:18Z</time></trkpt><trkpt lat="45.59115177561084" lon="10.71927733510026"><ele>261.0</ele><time>2026-03-28T12:40:19Z</time></trkpt><trkpt lat="45.59123760636793" lon="10.71939314632561"><ele>261.0</ele><time>2026-03-28T12:40:20Z</time></trkpt><trkpt lat="45.59130932730921" lon="10.719488812273905"><ele>261.0</ele><time>2026-03-28T12:40:21Z</time></trkpt><trkpt lat="45.591387989453736" lon="10.719573544400252"><ele>261.0</ele><time>2026-03-28T12:40:22Z</time></trkpt><trkpt lat="45.591471812677625" lon="10.719635033060166"><ele>261.0</ele><time>2026-03-28T12:40:23Z</time></trkpt><trkpt lat="45.59155216129075" lon="10.71973309869584"><ele>261.0</ele><time>2026-03-28T12:40:24Z</time></trkpt><trkpt lat="45.59161656338735" lon="10.71981771707168"><ele>261.0</ele><time>2026-03-28T12:40:25Z</time></trkpt><trkpt lat="45.591673939128185" lon="10.719926351682943"><ele>261.0</ele><time>2026-03-28T12:40:26Z</time></trkpt><trkpt lat="45.59173802444318" lon="10.719979856760341"><ele>261.0</ele><time>2026-03-28T12:40:27Z</time></trkpt><trkpt lat="45.591789668191936" lon="10.720048581596439"><ele>261.0</ele><time>2026-03-28T12:40:28Z</time></trkpt><trkpt lat="45.59185986253419" lon="10.720141767580465"><ele>261.0</ele><time>2026-03-28T12:40:29Z</time></trkpt><trkpt lat="45.59192069916811" lon="10.720225738128308"><ele>261.0</ele><time>2026-03-28T12:40:30Z</time></trkpt><trkpt lat="45.59200899984557" lon="10.72033848999819"><ele>261.0</ele><time>2026-03-28T12:40:31Z</time></trkpt><trkpt lat="45.59209942032233" lon="10.720447399063557"><ele>261.0</ele><time>2026-03-28T12:40:32Z</time></trkpt><trkpt lat="45.59219792115824" lon="10.720554691136451"><ele>261.0</ele><time>2026-03-28T12:40:33Z</time></trkpt><trkpt lat="45.59228252822053" lon="10.720649442415716"><ele>261.40000000000003</ele><time>2026-03-28T12:40:34Z</time></trkpt><trkpt lat="45.59237211107663" lon="10.720733553023388"><ele>261.8</ele><time>2026-03-28T12:40:35Z</time></trkpt><trkpt lat="45.592465023831984" lon="10.720799677758537"><ele>262.20000000000005</ele><time>2026-03-28T12:40:36Z</time></trkpt><trkpt lat="45.5925761529442" lon="10.720859109649904"><ele>262.6</ele><time>2026-03-28T12:40:37Z</time></trkpt><trkpt lat="45.592680107166174" lon="10.720923222723535"><ele>263.0</ele><time>2026-03-28T12:40:38Z</time></trkpt><trkpt lat="45.592763455471186" lon="10.721028161292063"><ele>264.5</ele><time>2026-03-28T12:40:39Z</time></trkpt><trkpt lat="45.59284106665531" lon="10.7211269308527"><ele>266.0</ele><time>2026-03-28T12:40:40Z</time></trkpt><trkpt lat="45.59291207311406" lon="10.721255999334112"><ele>267.5</ele><time>2026-03-28T12:40:41Z</time></trkpt><trkpt lat="45.593001927437186" lon="10.721392327404388"><ele>269.0</ele><time>2026-03-28T12:40:42Z</time></trkpt><trkpt lat="45.59307816585638" lon="10.721554266444901"><ele>269.0</ele><time>2026-03-28T12:40:43Z</time></trkpt><trkpt lat="45.59315705896887" lon="10.721705966791024"><ele>269.0</ele><time>2026-03-28T12:40:44Z</time></trkpt><trkpt lat="45.5932307883881" lon="10.721852377006629"><ele>269.0</ele><time>2026-03-28T12:40:45Z</time></trkpt><trkpt lat="45.5932879038325" lon="10.721999012833004"><ele>269.0</ele><time>2026-03-28T12:40:46Z</time></trkpt><trkpt lat="45.59334483522325" lon="10.722117383740764"><ele>267.59999999999997</ele><time>2026-03-28T12:40:47Z</time></trkpt><trkpt lat="45.59340830011562" lon="10.722222306049957"><ele>266.2</ele><time>2026-03-28T12:40:48Z</time></trkpt><trkpt lat="45.59346130573617" lon="10.722343838871721"><ele>264.79999999999995</ele><time>2026-03-28T12:40:49Z</time></trkpt><trkpt lat="45.59350759322345" lon="10.72245975202715"><ele>263.4</ele><time>2026-03-28T12:40:50Z</time></trkpt><trkpt lat="45.59358080730441" lon="10.722560495092846"><ele>262.0</ele><time>2026-03-28T12:40:51Z</time></trkpt><trkpt lat="45.593648871858015" lon="10.722673269658586"><ele>261.0</ele><time>2026-03-28T12:40:52Z</time></trkpt><trkpt lat="45.593716855865225" lon="10.722798132106583"><ele>260.0</ele><time>2026-03-28T12:40:53Z</time></trkpt><trkpt lat="45.593786826189074" lon="10.722939569050922"><ele>259.0</ele><time>2026-03-28T12:40:54Z</time></trkpt><trkpt lat="45.59385051708922" lon="10.723081966369506"><ele>258.0</ele><time>2026-03-28T12:40:55Z</time></trkpt><trkpt lat="45.59392230644641" lon="10.723228241055219"><ele>258.0</ele><time>2026-03-28T12:40:56Z</time></trkpt><trkpt lat="45.593991139266045" lon="10.723348054587397"><ele>258.0</ele><time>2026-03-28T12:40:57Z</time></trkpt><trkpt lat="45.59406425445778" lon="10.723459086770271"><ele>258.0</ele><time>2026-03-28T12:40:58Z</time></trkpt><trkpt lat="45.594145579227046" lon="10.723558831105905"><ele>258.0</ele><time>2026-03-28T12:40:59Z</time></trkpt><trkpt lat="45.59423367789928" lon="10.723659296428192"><ele>258.0</ele><time>2026-03-28T12:41:00Z</time></trkpt><trkpt lat="45.5943139082829" lon="10.723736408022166"><ele>257.99999999999994</ele><time>2026-03-28T12:41:01Z</time></trkpt><trkpt lat="45.594390934988226" lon="10.72378821715892"><ele>258.0</ele><time>2026-03-28T12:41:02Z</time></trkpt><trkpt lat="45.59446142112598" lon="10.723808513800419"><ele>258.0</ele><time>2026-03-28T12:41:03Z</time></trkpt><trkpt lat="45.594526993333446" lon="10.723821765589438"><ele>258.0</ele><time>2026-03-28T12:41:04Z</time></trkpt><trkpt lat="45.594601238183564" lon="10.723862320060416"><ele>258.0</ele><time>2026-03-28T12:41:06Z</time></trkpt><trkpt lat="45.59458482492994" lon="10.723955382632711"><ele>257.99999999999994</ele><time>2026-03-28T12:41:08Z</time></trkpt><trkpt lat="45.59459292223573" lon="10.724060064543048"><ele>258.0</ele><time>2026-03-28T12:41:09Z</time></trkpt><trkpt lat="45.59460260398192" lon="10.724199968067664"><ele>258.25</ele><time>2026-03-28T12:41:10Z</time></trkpt><trkpt lat="45.594617948913125" lon="10.724362723556593"><ele>258.5</ele><time>2026-03-28T12:41:11Z</time></trkpt><trkpt lat="45.5946481606821" lon="10.7245611084355"><ele>258.75</ele><time>2026-03-28T12:41:12Z</time></trkpt><trkpt lat="45.59467540430304" lon="10.724764943885129"><ele>259.0</ele><time>2026-03-28T12:41:13Z</time></trkpt><trkpt lat="45.59470760349222" lon="10.724992863316766"><ele>258.0</ele><time>2026-03-28T12:41:14Z</time></trkpt><trkpt lat="45.594755922031766" lon="10.725208555945175"><ele>257.0</ele><time>2026-03-28T12:41:15Z</time></trkpt><trkpt lat="45.5947966235203" lon="10.725395290324432"><ele>256.0</ele><time>2026-03-28T12:41:16Z</time></trkpt><trkpt lat="45.59482434746134" lon="10.725554097321263"><ele>255.0</ele><time>2026-03-28T12:41:17Z</time></trkpt><trkpt lat="45.59484801966615" lon="10.725706131398315"><ele>254.4</ele><time>2026-03-28T12:41:18Z</time></trkpt><trkpt lat="45.594869752302735" lon="10.725852889474952"><ele>253.8</ele><time>2026-03-28T12:41:19Z</time></trkpt><trkpt lat="45.59489771255261" lon="10.726003513590124"><ele>253.2</ele><time>2026-03-28T12:41:20Z</time></trkpt><trkpt lat="45.594924464230445" lon="10.726155167686622"><ele>252.6</ele><time>2026-03-28T12:41:21Z</time></trkpt><trkpt lat="45.59495374263332" lon="10.72630896031337"><ele>252.0</ele><time>2026-03-28T12:41:22Z</time></trkpt><trkpt lat="45.59499581475961" lon="10.726461403472802"><ele>251.8</ele><time>2026-03-28T12:41:23Z</time></trkpt><trkpt lat="45.59503876755198" lon="10.726603550008353"><ele>251.6</ele><time>2026-03-28T12:41:24Z</time></trkpt><trkpt lat="45.5950745249678" lon="10.726751657145131"><ele>251.40000000000003</ele><time>2026-03-28T12:41:25Z</time></trkpt><trkpt lat="45.59510849935195" lon="10.726924886685058"><ele>251.20000000000002</ele><time>2026-03-28T12:41:26Z</time></trkpt><trkpt lat="45.595125025085615" lon="10.727073115017204"><ele>251.0</ele><time>2026-03-28T12:41:27Z</time></trkpt><trkpt lat="45.59514786637656" lon="10.727196142868694"><ele>251.00000000000003</ele><time>2026-03-28T12:41:28Z</time></trkpt><trkpt lat="45.59518093768616" lon="10.727307887291804"><ele>251.0</ele><time>2026-03-28T12:41:29Z</time></trkpt><trkpt lat="45.59522894931686" lon="10.727418442753743"><ele>251.0</ele><time>2026-03-28T12:41:30Z</time></trkpt><trkpt lat="45.59528378408852" lon="10.727516780784882"><ele>251.0</ele><time>2026-03-28T12:41:31Z</time></trkpt><trkpt lat="45.595345754293824" lon="10.72761554612179"><ele>251.00000000000003</ele><time>2026-03-28T12:41:32Z</time></trkpt><trkpt lat="45.59540402728643" lon="10.727711585151914"><ele>251.0</ele><time>2026-03-28T12:41:33Z</time></trkpt><trkpt lat="45.59545698361358" lon="10.7278276709257"><ele>251.33333333333334</ele><time>2026-03-28T12:41:34Z</time></trkpt><trkpt lat="45.59549636652717" lon="10.727932708938459"><ele>251.66666666666669</ele><time>2026-03-28T12:41:35Z</time></trkpt><trkpt lat="45.59552743928904" lon="10.728065141886152"><ele>252.0</ele><time>2026-03-28T12:41:36Z</time></trkpt><trkpt lat="45.59550415547543" lon="10.72819430881278"><ele>252.33333333333331</ele><time>2026-03-28T12:41:37Z</time></trkpt><trkpt lat="45.59546676956715" lon="10.728304764449927"><ele>252.66666666666666</ele><time>2026-03-28T12:41:38Z</time></trkpt><trkpt lat="45.595445194697625" lon="10.72842442608739"><ele>253.0</ele><time>2026-03-28T12:41:39Z</time></trkpt><trkpt lat="45.59542354357208" lon="10.728544510658855"><ele>253.5</ele><time>2026-03-28T12:41:40Z</time></trkpt><trkpt lat="45.595399691071215" lon="10.728676804814594"><ele>254.0</ele><time>2026-03-28T12:41:41Z</time></trkpt><trkpt lat="45.59551406264482" lon="10.728874306442297"><ele>254.5</ele><time>2026-03-28T12:41:42Z</time></trkpt><trkpt lat="45.59552170780039" lon="10.72903244911259"><ele>255.0</ele><time>2026-03-28T12:41:43Z</time></trkpt><trkpt lat="45.595519790702646" lon="10.729167392598358"><ele>255.0</ele><time>2026-03-28T12:41:44Z</time></trkpt><trkpt lat="45.59550055533756" lon="10.729329230581541"><ele>255.0</ele><time>2026-03-28T12:41:45Z</time></trkpt><trkpt lat="45.595477635536454" lon="10.72947774088242"><ele>255.0</ele><time>2026-03-28T12:41:46Z</time></trkpt><trkpt lat="45.59546491702782" lon="10.729624681588705"><ele>255.0</ele><time>2026-03-28T12:41:47Z</time></trkpt><trkpt lat="45.59545803359243" lon="10.729763792800698"><ele>255.0</ele><time>2026-03-28T12:41:48Z</time></trkpt><trkpt lat="45.59545683191592" lon="10.729877939543575"><ele>254.83333333333334</ele><time>2026-03-28T12:41:49Z</time></trkpt><trkpt lat="45.59546186200094" lon="10.729989864717277"><ele>254.66666666666669</ele><time>2026-03-28T12:41:50Z</time></trkpt><trkpt lat="45.595476770276406" lon="10.730080232627405"><ele>254.5</ele><time>2026-03-28T12:41:51Z</time></trkpt><trkpt lat="45.595478080604856" lon="10.730244331930184"><ele>254.33333333333334</ele><time>2026-03-28T12:41:53Z</time></trkpt><trkpt lat="45.595494334117845" lon="10.73037117474629"><ele>254.16666666666669</ele><time>2026-03-28T12:41:55Z</time></trkpt><trkpt lat="45.595531558066305" lon="10.730494992379578"><ele>254.0</ele><time>2026-03-28T12:41:57Z</time></trkpt><trkpt lat="45.595568902104525" lon="10.730585867538377"><ele>254.0</ele><time>2026-03-28T12:41:59Z</time></trkpt><trkpt lat="45.595706886256934" lon="10.73047729007043"><ele>253.99999999999997</ele><time>2026-03-28T12:42:01Z</time></trkpt><trkpt lat="45.59576066162503" lon="10.730419970656012"><ele>253.99999999999997</ele><time>2026-03-28T12:42:02Z</time></trkpt><trkpt lat="45.595841783801376" lon="10.730390928800533"><ele>254.0</ele><time>2026-03-28T12:42:03Z</time></trkpt><trkpt lat="45.595910442023566" lon="10.730352029971312"><ele>254.0</ele><time>2026-03-28T12:42:04Z</time></trkpt><trkpt lat="45.59602982735436" lon="10.730342704867445"><ele>254.0</ele><time>2026-03-28T12:42:06Z</time></trkpt><trkpt lat="45.59614672761061" lon="10.730318621925552"><ele>253.99999999999997</ele><time>2026-03-28T12:42:08Z</time></trkpt><trkpt lat="45.59627862903405" lon="10.730271968414524"><ele>253.99999999999997</ele><time>2026-03-28T12:42:10Z</time></trkpt><trkpt lat="45.59636622052594" lon="10.730242110508446"><ele>254.0</ele><time>2026-03-28T12:42:11Z</time></trkpt><trkpt lat="45.59644416341595" lon="10.730205127652294"><ele>254.0</ele><time>2026-03-28T12:42:12Z</time></trkpt><trkpt lat="45.596541188894285" lon="10.730160947944347"><ele>255.33333333333334</ele><time>2026-03-28T12:42:13Z</time></trkpt><trkpt lat="45.596641208124844" lon="10.730118600963594"><ele>256.6666666666667</ele><time>2026-03-28T12:42:14Z</time></trkpt><trkpt lat="45.596737052367104" lon="10.730072536458083"><ele>258.0</ele><time>2026-03-28T12:42:15Z</time></trkpt><trkpt lat="45.59682503377516" lon="10.73002774868541"><ele>259.3333333333333</ele><time>2026-03-28T12:42:16Z</time></trkpt><trkpt lat="45.596898133862844" lon="10.730005753519851"><ele>260.66666666666663</ele><time>2026-03-28T12:42:17Z</time></trkpt><trkpt lat="45.59696117043535" lon="10.730053273239285"><ele>262.0</ele><time>2026-03-28T12:42:18Z</time></trkpt><trkpt lat="45.5970561159095" lon="10.730066309215864"><ele>263.3333333333333</ele><time>2026-03-28T12:42:19Z</time></trkpt><trkpt lat="45.59715129476541" lon="10.730036097996233"><ele>264.66666666666663</ele><time>2026-03-28T12:42:21Z</time></trkpt><trkpt lat="45.59721291637057" lon="10.729999479721718"><ele>266.0</ele><time>2026-03-28T12:42:22Z</time></trkpt><trkpt lat="45.59729613114923" lon="10.729978195067975"><ele>267.3333333333333</ele><time>2026-03-28T12:42:23Z</time></trkpt><trkpt lat="45.597366708586165" lon="10.729942110104504"><ele>268.6666666666667</ele><time>2026-03-28T12:42:24Z</time></trkpt><trkpt lat="45.5974264720872" lon="10.729891116522397"><ele>270.0</ele><time>2026-03-28T12:42:25Z</time></trkpt><trkpt lat="45.59751998864829" lon="10.729841296802217"><ele>270.0</ele><time>2026-03-28T12:42:27Z</time></trkpt><trkpt lat="45.59756745586444" lon="10.72975372562801"><ele>270.0</ele><time>2026-03-28T12:42:28Z</time></trkpt><trkpt lat="45.597623736702225" lon="10.729712691063813"><ele>270.0</ele><time>2026-03-28T12:42:29Z</time></trkpt><trkpt lat="45.597731976295734" lon="10.729708956863668"><ele>270.0</ele><time>2026-03-28T12:42:31Z</time></trkpt><trkpt lat="45.59782006322678" lon="10.729698388402984"><ele>270.0</ele><time>2026-03-28T12:42:32Z</time></trkpt><trkpt lat="45.597918071629145" lon="10.729660563812851"><ele>270.0</ele><time>2026-03-28T12:42:33Z</time></trkpt><trkpt lat="45.59799911825102" lon="10.729650921218395"><ele>270.5</ele><time>2026-03-28T12:42:34Z</time></trkpt><trkpt lat="45.5980671849602" lon="10.72962115650393"><ele>271.0</ele><time>2026-03-28T12:42:35Z</time></trkpt><trkpt lat="45.59813147035705" lon="10.729570712979294"><ele>271.5</ele><time>2026-03-28T12:42:36Z</time></trkpt><trkpt lat="45.598187595137404" lon="10.729518056896906"><ele>272.0</ele><time>2026-03-28T12:42:37Z</time></trkpt><trkpt lat="45.598280077079295" lon="10.729426089901335"><ele>272.5</ele><time>2026-03-28T12:42:39Z</time></trkpt><trkpt lat="45.59833596317609" lon="10.729380689765382"><ele>273.0</ele><time>2026-03-28T12:42:40Z</time></trkpt><trkpt lat="45.59840655959929" lon="10.729325980882006"><ele>273.4</ele><time>2026-03-28T12:42:41Z</time></trkpt><trkpt lat="45.59846539607865" lon="10.729283451699885"><ele>273.8</ele><time>2026-03-28T12:42:42Z</time></trkpt><trkpt lat="45.598550650916486" lon="10.729199701188119"><ele>274.2</ele><time>2026-03-28T12:42:44Z</time></trkpt><trkpt lat="45.598607694406475" lon="10.729040369318827"><ele>274.6</ele><time>2026-03-28T12:42:46Z</time></trkpt><trkpt lat="45.59862253884193" lon="10.728919101064424"><ele>275.0</ele><time>2026-03-28T12:42:47Z</time></trkpt><trkpt lat="45.598621385533995" lon="10.728807164315922"><ele>275.0</ele><time>2026-03-28T12:42:48Z</time></trkpt><trkpt lat="45.59862813163954" lon="10.728670759878025"><ele>275.0</ele><time>2026-03-28T12:42:49Z</time></trkpt><trkpt lat="45.598639027686914" lon="10.728562039019907"><ele>275.0</ele><time>2026-03-28T12:42:50Z</time></trkpt><trkpt lat="45.598641942298585" lon="10.728469589151427"><ele>275.0</ele><time>2026-03-28T12:42:51Z</time></trkpt><trkpt lat="45.59865623119723" lon="10.728320089463521"><ele>275.0</ele><time>2026-03-28T12:42:53Z</time></trkpt><trkpt lat="45.59874214458554" lon="10.728212919051053"><ele>276.5</ele><time>2026-03-28T12:42:55Z</time></trkpt><trkpt lat="45.59880286460184" lon="10.728184473289605"><ele>278.0</ele><time>2026-03-28T12:42:56Z</time></trkpt><trkpt lat="45.598883397727064" lon="10.728119873892005"><ele>279.5</ele><time>2026-03-28T12:42:57Z</time></trkpt><trkpt lat="45.59896580751695" lon="10.728060425028408"><ele>281.0</ele><time>2026-03-28T12:42:58Z</time></trkpt><trkpt lat="45.599043920323695" lon="10.728000297897912"><ele>282.5</ele><time>2026-03-28T12:43:00Z</time></trkpt><trkpt lat="45.59911389224604" lon="10.727949526656522"><ele>284.0</ele><time>2026-03-28T12:43:02Z</time></trkpt><trkpt lat="45.599189270149544" lon="10.727919431798385"><ele>284.0</ele><time>2026-03-28T12:43:04Z</time></trkpt><trkpt lat="45.59926769669158" lon="10.727940665822146"><ele>284.0</ele><time>2026-03-28T12:43:06Z</time></trkpt><trkpt lat="45.59917097771623" lon="10.72792852687908"><ele>284.0</ele><time>2026-03-28T12:43:27Z</time></trkpt><trkpt lat="45.599088605734195" lon="10.72795646820525"><ele>284.0</ele><time>2026-03-28T12:43:30Z</time></trkpt><trkpt lat="45.59905166680435" lon="10.728039318661295"><ele>284.0</ele><time>2026-03-28T12:43:33Z</time></trkpt><trkpt lat="45.59904793811725" lon="10.72820074774503"><ele>284.0</ele><time>2026-03-28T12:43:35Z</time></trkpt><trkpt lat="45.599085619820464" lon="10.728348911895356"><ele>284.0</ele><time>2026-03-28T12:43:37Z</time></trkpt><trkpt lat="45.59914596631537" lon="10.72850216465966"><ele>284.0</ele><time>2026-03-28T12:43:39Z</time></trkpt><trkpt lat="45.59916131762261" lon="10.728603276319811"><ele>284.0</ele><time>2026-03-28T12:43:40Z</time></trkpt><trkpt lat="45.599197587558145" lon="10.728707980295573"><ele>284.0</ele><time>2026-03-28T12:43:41Z</time></trkpt><trkpt lat="45.59923071880705" lon="10.728801012874037"><ele>284.0</ele><time>2026-03-28T12:43:42Z</time></trkpt><trkpt lat="45.59926161928693" lon="10.728887781409972"><ele>284.0</ele><time>2026-03-28T12:43:43Z</time></trkpt><trkpt lat="45.599291900690275" lon="10.728973878165638"><ele>284.2</ele><time>2026-03-28T12:43:44Z</time></trkpt><trkpt lat="45.599320165651186" lon="10.729054575723989"><ele>284.4</ele><time>2026-03-28T12:43:45Z</time></trkpt><trkpt lat="45.59936375049221" lon="10.72919046747621"><ele>284.6</ele><time>2026-03-28T12:43:47Z</time></trkpt><trkpt lat="45.59941654078198" lon="10.729361407101013"><ele>284.8</ele><time>2026-03-28T12:43:49Z</time></trkpt><trkpt lat="45.599450808211294" lon="10.729472905951585"><ele>285.0</ele><time>2026-03-28T12:43:50Z</time></trkpt><trkpt lat="45.5994693352967" lon="10.729593705774327"><ele>285.1666666666667</ele><time>2026-03-28T12:43:51Z</time></trkpt><trkpt lat="45.599492152833605" lon="10.729695654141857"><ele>285.3333333333333</ele><time>2026-03-28T12:43:52Z</time></trkpt><trkpt lat="45.59955039600417" lon="10.729781471667977"><ele>285.5</ele><time>2026-03-28T12:43:54Z</time></trkpt><trkpt lat="45.59963547033765" lon="10.72978024719967"><ele>285.66666666666663</ele><time>2026-03-28T12:43:55Z</time></trkpt><trkpt lat="45.59972644203194" lon="10.729737766156367"><ele>285.8333333333333</ele><time>2026-03-28T12:43:56Z</time></trkpt><trkpt lat="45.59979981965076" lon="10.72975685542645"><ele>286.0</ele><time>2026-03-28T12:43:57Z</time></trkpt><trkpt lat="45.59986731062269" lon="10.729773241935854"><ele>287.2</ele><time>2026-03-28T12:43:59Z</time></trkpt><trkpt lat="45.59996318762039" lon="10.729739064001157"><ele>288.40000000000003</ele><time>2026-03-28T12:44:01Z</time></trkpt><trkpt lat="45.600035551419" lon="10.729651463135694"><ele>289.6</ele><time>2026-03-28T12:44:02Z</time></trkpt><trkpt lat="45.60014088653769" lon="10.729594332507972"><ele>290.8</ele><time>2026-03-28T12:44:03Z</time></trkpt><trkpt lat="45.60026516997284" lon="10.729516434248477"><ele>292.0</ele><time>2026-03-28T12:44:04Z</time></trkpt><trkpt lat="45.60040350054981" lon="10.729439624123703"><ele>293.66666666666663</ele><time>2026-03-28T12:44:05Z</time></trkpt><trkpt lat="45.600560983336884" lon="10.729352232630257"><ele>295.3333333333333</ele><time>2026-03-28T12:44:06Z</time></trkpt><trkpt lat="45.60072185115492" lon="10.729251631650895"><ele>297.0</ele><time>2026-03-28T12:44:07Z</time></trkpt><trkpt lat="45.60089073616514" lon="10.729154766208548"><ele>297.0</ele><time>2026-03-28T12:44:08Z</time></trkpt><trkpt lat="45.601053837008635" lon="10.729024186853238"><ele>297.0</ele><time>2026-03-28T12:44:09Z</time></trkpt><trkpt lat="45.60119700219414" lon="10.728895992618114"><ele>297.0</ele><time>2026-03-28T12:44:10Z</time></trkpt><trkpt lat="45.60130885556898" lon="10.72876780580881"><ele>298.4</ele><time>2026-03-28T12:44:11Z</time></trkpt><trkpt lat="45.601403322349505" lon="10.728634762490568"><ele>299.79999999999995</ele><time>2026-03-28T12:44:12Z</time></trkpt><trkpt lat="45.60147989490963" lon="10.728527400469432"><ele>301.2</ele><time>2026-03-28T12:44:13Z</time></trkpt><trkpt lat="45.60156247080887" lon="10.728455396843167"><ele>302.59999999999997</ele><time>2026-03-28T12:44:14Z</time></trkpt><trkpt lat="45.601674239864714" lon="10.72845254246195"><ele>304.0</ele><time>2026-03-28T12:44:15Z</time></trkpt><trkpt lat="45.60179501408098" lon="10.728421577050373"><ele>304.0</ele><time>2026-03-28T12:44:16Z</time></trkpt><trkpt lat="45.60193551050774" lon="10.728358300865766"><ele>304.0</ele><time>2026-03-28T12:44:17Z</time></trkpt><trkpt lat="45.60208793005403" lon="10.728304972708694"><ele>304.0</ele><time>2026-03-28T12:44:18Z</time></trkpt><trkpt lat="45.60224062777609" lon="10.728242644007143"><ele>306.0</ele><time>2026-03-28T12:44:19Z</time></trkpt><trkpt lat="45.60239530769671" lon="10.72817255673537"><ele>308.0</ele><time>2026-03-28T12:44:20Z</time></trkpt><trkpt lat="45.60254389891193" lon="10.728098423761566"><ele>310.0</ele><time>2026-03-28T12:44:21Z</time></trkpt><trkpt lat="45.60269459656411" lon="10.728016686752387"><ele>311.66666666666663</ele><time>2026-03-28T12:44:22Z</time></trkpt><trkpt lat="45.60283692663057" lon="10.72792927170629"><ele>313.3333333333333</ele><time>2026-03-28T12:44:23Z</time></trkpt><trkpt lat="45.60297683203384" lon="10.72783992016798"><ele>315.0</ele><time>2026-03-28T12:44:24Z</time></trkpt><trkpt lat="45.6031220980821" lon="10.727756629965798"><ele>313.0</ele><time>2026-03-28T12:44:25Z</time></trkpt><trkpt lat="45.60326464862736" lon="10.7276848489224"><ele>311.0</ele><time>2026-03-28T12:44:26Z</time></trkpt><trkpt lat="45.60340996971211" lon="10.72761455997648"><ele>309.0</ele><time>2026-03-28T12:44:27Z</time></trkpt><trkpt lat="45.603557017196856" lon="10.727554063072757"><ele>310.6666666666667</ele><time>2026-03-28T12:44:28Z</time></trkpt><trkpt lat="45.60371011208299" lon="10.727506244368291"><ele>312.33333333333337</ele><time>2026-03-28T12:44:29Z</time></trkpt><trkpt lat="45.60386294571761" lon="10.727463942215834"><ele>314.0</ele><time>2026-03-28T12:44:30Z</time></trkpt><trkpt lat="45.6040162781422" lon="10.727419305629178"><ele>314.0</ele><time>2026-03-28T12:44:31Z</time></trkpt><trkpt lat="45.60416437946962" lon="10.727380172868779"><ele>314.0</ele><time>2026-03-28T12:44:32Z</time></trkpt><trkpt lat="45.60429862438094" lon="10.727330433245406"><ele>314.0</ele><time>2026-03-28T12:44:33Z</time></trkpt><trkpt lat="45.60440987177423" lon="10.727284016817228"><ele>314.0</ele><time>2026-03-28T12:44:34Z</time></trkpt><trkpt lat="45.6045210009416" lon="10.72724542518475"><ele>314.0</ele><time>2026-03-28T12:44:35Z</time></trkpt><trkpt lat="45.604632555909056" lon="10.727230759356814"><ele>314.0</ele><time>2026-03-28T12:44:36Z</time></trkpt><trkpt lat="45.604752546589" lon="10.727237269675276"><ele>314.0</ele><time>2026-03-28T12:44:37Z</time></trkpt><trkpt lat="45.604878515115175" lon="10.727251614168814"><ele>314.0</ele><time>2026-03-28T12:44:38Z</time></trkpt><trkpt lat="45.60500950350107" lon="10.727265094709482"><ele>314.0</ele><time>2026-03-28T12:44:39Z</time></trkpt><trkpt lat="45.6051340360382" lon="10.727279422576009"><ele>314.0</ele><time>2026-03-28T12:44:40Z</time></trkpt><trkpt lat="45.60524543788584" lon="10.727292787018891"><ele>314.0</ele><time>2026-03-28T12:44:41Z</time></trkpt><trkpt lat="45.605350292193606" lon="10.727303649476365"><ele>314.0</ele><time>2026-03-28T12:44:42Z</time></trkpt><trkpt lat="45.60544535103112" lon="10.727311289315733"><ele>314.0</ele><time>2026-03-28T12:44:43Z</time></trkpt><trkpt lat="45.60554235327258" lon="10.727319417002622"><ele>313.8</ele><time>2026-03-28T12:44:44Z</time></trkpt><trkpt lat="45.605637316983945" lon="10.727327496526993"><ele>313.59999999999997</ele><time>2026-03-28T12:44:45Z</time></trkpt><trkpt lat="45.60574658089631" lon="10.72732750346023"><ele>313.4</ele><time>2026-03-28T12:44:46Z</time></trkpt><trkpt lat="45.605851191383366" lon="10.727309262001288"><ele>313.2</ele><time>2026-03-28T12:44:47Z</time></trkpt><trkpt lat="45.60594891942254" lon="10.72727703847575"><ele>313.0</ele><time>2026-03-28T12:44:48Z</time></trkpt><trkpt lat="45.60603050582954" lon="10.727239024080149"><ele>313.0</ele><time>2026-03-28T12:44:49Z</time></trkpt><trkpt lat="45.60610338859702" lon="10.727190813077412"><ele>313.0</ele><time>2026-03-28T12:44:50Z</time></trkpt><trkpt lat="45.60616459024946" lon="10.727145680725565"><ele>313.0</ele><time>2026-03-28T12:44:51Z</time></trkpt><trkpt lat="45.60623281972013" lon="10.727111963367385"><ele>313.0</ele><time>2026-03-28T12:44:52Z</time></trkpt><trkpt lat="45.606291850466135" lon="10.727061168241868"><ele>313.0</ele><time>2026-03-28T12:44:53Z</time></trkpt><trkpt lat="45.60635065748983" lon="10.727010718453874"><ele>313.0</ele><time>2026-03-28T12:44:54Z</time></trkpt><trkpt lat="45.60640198662301" lon="10.726948817072884"><ele>313.0</ele><time>2026-03-28T12:44:55Z</time></trkpt><trkpt lat="45.60647133644635" lon="10.726903156779578"><ele>313.5</ele><time>2026-03-28T12:44:56Z</time></trkpt><trkpt lat="45.606534555434976" lon="10.726885968711752"><ele>314.0</ele><time>2026-03-28T12:44:57Z</time></trkpt><trkpt lat="45.60660519216326" lon="10.72688331049114"><ele>314.5</ele><time>2026-03-28T12:44:59Z</time></trkpt><trkpt lat="45.60664635330036" lon="10.72696567604179"><ele>315.0</ele><time>2026-03-28T12:45:24Z</time></trkpt><trkpt lat="45.606610045782475" lon="10.7271342672376"><ele>315.5</ele><time>2026-03-28T12:45:27Z</time></trkpt><trkpt lat="45.606538499509334" lon="10.727262551832261"><ele>316.0</ele><time>2026-03-28T12:45:29Z</time></trkpt><trkpt lat="45.60651072133777" lon="10.727438015661136"><ele>316.0</ele><time>2026-03-28T12:45:31Z</time></trkpt><trkpt lat="45.606482628375495" lon="10.72753885953873"><ele>316.0</ele><time>2026-03-28T12:45:32Z</time></trkpt><trkpt lat="45.606478191854436" lon="10.727729904434353"><ele>316.0</ele><time>2026-03-28T12:45:34Z</time></trkpt><trkpt lat="45.606436889416656" lon="10.72786060364617"><ele>316.0</ele><time>2026-03-28T12:45:35Z</time></trkpt><trkpt lat="45.60638913168269" lon="10.727996228338695"><ele>316.0</ele><time>2026-03-28T12:45:36Z</time></trkpt><trkpt lat="45.606355326242365" lon="10.72811575856593"><ele>314.8</ele><time>2026-03-28T12:45:37Z</time></trkpt><trkpt lat="45.60633492914445" lon="10.728223062450331"><ele>313.6</ele><time>2026-03-28T12:45:38Z</time></trkpt><trkpt lat="45.6063384053083" lon="10.728329188580389"><ele>312.4</ele><time>2026-03-28T12:45:39Z</time></trkpt><trkpt lat="45.60637537004554" lon="10.728448823008755"><ele>311.2</ele><time>2026-03-28T12:45:40Z</time></trkpt><trkpt lat="45.60643110626076" lon="10.728592927623364"><ele>310.0</ele><time>2026-03-28T12:45:41Z</time></trkpt><trkpt lat="45.606498722213736" lon="10.728754061351202"><ele>309.6</ele><time>2026-03-28T12:45:42Z</time></trkpt><trkpt lat="45.60655441228678" lon="10.728895006281254"><ele>309.2</ele><time>2026-03-28T12:45:43Z</time></trkpt><trkpt lat="45.606606330773225" lon="10.729022699762147"><ele>308.8</ele><time>2026-03-28T12:45:44Z</time></trkpt><trkpt lat="45.606654544298095" lon="10.729143914081037"><ele>308.4</ele><time>2026-03-28T12:45:45Z</time></trkpt><trkpt lat="45.60670185923567" lon="10.729272933600994"><ele>308.0</ele><time>2026-03-28T12:45:46Z</time></trkpt><trkpt lat="45.60672946456489" lon="10.729422090298874"><ele>306.75</ele><time>2026-03-28T12:45:47Z</time></trkpt><trkpt lat="45.60674779626699" lon="10.729576925873959"><ele>305.5</ele><time>2026-03-28T12:45:48Z</time></trkpt><trkpt lat="45.60675515070493" lon="10.729746823880618"><ele>304.25</ele><time>2026-03-28T12:45:49Z</time></trkpt><trkpt lat="45.60673910113311" lon="10.729927262187678"><ele>303.0</ele><time>2026-03-28T12:45:50Z</time></trkpt><trkpt lat="45.60674031427059" lon="10.730119963011726"><ele>301.75</ele><time>2026-03-28T12:45:51Z</time></trkpt><trkpt lat="45.606743356487584" lon="10.730292870754113"><ele>300.5</ele><time>2026-03-28T12:45:52Z</time></trkpt><trkpt lat="45.606746470867556" lon="10.730469880034669"><ele>299.25</ele><time>2026-03-28T12:45:53Z</time></trkpt><trkpt lat="45.606749483570624" lon="10.730641110385054"><ele>298.0</ele><time>2026-03-28T12:45:54Z</time></trkpt><trkpt lat="45.60675257467283" lon="10.730814245788068"><ele>298.0</ele><time>2026-03-28T12:45:55Z</time></trkpt><trkpt lat="45.606755932376295" lon="10.73098839878807"><ele>298.0</ele><time>2026-03-28T12:45:56Z</time></trkpt><trkpt lat="45.60676572338039" lon="10.731138952707262"><ele>298.0</ele><time>2026-03-28T12:45:57Z</time></trkpt><trkpt lat="45.60677077559993" lon="10.731291847212827"><ele>298.0</ele><time>2026-03-28T12:45:58Z</time></trkpt><trkpt lat="45.60677853483546" lon="10.731448367487314"><ele>298.0</ele><time>2026-03-28T12:45:59Z</time></trkpt><trkpt lat="45.60678244135057" lon="10.731609257681903"><ele>297.25</ele><time>2026-03-28T12:46:00Z</time></trkpt><trkpt lat="45.60678280950458" lon="10.73177657174662"><ele>296.5</ele><time>2026-03-28T12:46:01Z</time></trkpt><trkpt lat="45.60677670680665" lon="10.731949837413474"><ele>295.75</ele><time>2026-03-28T12:46:02Z</time></trkpt><trkpt lat="45.60676334112472" lon="10.732122190478599"><ele>295.0</ele><time>2026-03-28T12:46:03Z</time></trkpt><trkpt lat="45.60672539630101" lon="10.732287635858603"><ele>295.0</ele><time>2026-03-28T12:46:04Z</time></trkpt><trkpt lat="45.60669970747074" lon="10.732451873158954"><ele>295.0</ele><time>2026-03-28T12:46:05Z</time></trkpt><trkpt lat="45.606645427551044" lon="10.732601770404996"><ele>295.0</ele><time>2026-03-28T12:46:06Z</time></trkpt><trkpt lat="45.60659142841319" lon="10.732728491339078"><ele>295.0</ele><time>2026-03-28T12:46:07Z</time></trkpt><trkpt lat="45.60651719243234" lon="10.73280875782449"><ele>295.0</ele><time>2026-03-28T12:46:08Z</time></trkpt><trkpt lat="45.60644644853961" lon="10.732906113566292"><ele>296.2</ele><time>2026-03-28T12:46:09Z</time></trkpt><trkpt lat="45.606429053674766" lon="10.733059922383427"><ele>297.4</ele><time>2026-03-28T12:46:10Z</time></trkpt><trkpt lat="45.60634396272403" lon="10.733136779482098"><ele>298.6</ele><time>2026-03-28T12:46:11Z</time></trkpt><trkpt lat="45.60626485439872" lon="10.733242064108353"><ele>299.8</ele><time>2026-03-28T12:46:12Z</time></trkpt><trkpt lat="45.606200401505035" lon="10.733397568820006"><ele>301.0</ele><time>2026-03-28T12:46:13Z</time></trkpt><trkpt lat="45.60612574724279" lon="10.73355333367378"><ele>300.2</ele><time>2026-03-28T12:46:14Z</time></trkpt><trkpt lat="45.606050889096" lon="10.733711916201484"><ele>299.40000000000003</ele><time>2026-03-28T12:46:15Z</time></trkpt><trkpt lat="45.60598203034946" lon="10.733839775937732"><ele>298.6</ele><time>2026-03-28T12:46:16Z</time></trkpt><trkpt lat="45.6059191151658" lon="10.733950149855813"><ele>297.8</ele><time>2026-03-28T12:46:17Z</time></trkpt><trkpt lat="45.6058650564754" lon="10.734043491623169"><ele>297.0</ele><time>2026-03-28T12:46:18Z</time></trkpt><trkpt lat="45.605812999587705" lon="10.734119098169309"><ele>297.0</ele><time>2026-03-28T12:46:19Z</time></trkpt><trkpt lat="45.60576062207409" lon="10.734176373078819"><ele>297.0</ele><time>2026-03-28T12:46:20Z</time></trkpt><trkpt lat="45.60569371426988" lon="10.734258794736784"><ele>297.0</ele><time>2026-03-28T12:46:22Z</time></trkpt><trkpt lat="45.60578379990839" lon="10.734406606083665"><ele>297.0</ele><time>2026-03-28T12:46:27Z</time></trkpt><trkpt lat="45.605876359179405" lon="10.734429095788215"><ele>297.0</ele><time>2026-03-28T12:46:29Z</time></trkpt><trkpt lat="45.60597143575651" lon="10.734503964238218"><ele>297.0</ele><time>2026-03-28T12:46:31Z</time></trkpt><trkpt lat="45.60605842055671" lon="10.734557392407517"><ele>297.0</ele><time>2026-03-28T12:46:33Z</time></trkpt><trkpt lat="45.60599436414337" lon="10.734544285906873"><ele>297.0</ele><time>2026-03-28T12:46:35Z</time></trkpt><trkpt lat="45.605953495452354" lon="10.734108922999239"><ele>297.0</ele><time>2026-03-28T12:46:41Z</time></trkpt><trkpt lat="45.60599159013215" lon="10.734036665411917"><ele>297.0</ele><time>2026-03-28T12:46:42Z</time></trkpt><trkpt lat="45.60604885982384" lon="10.73392803631497"><ele>297.0</ele><time>2026-03-28T12:46:43Z</time></trkpt><trkpt lat="45.60610035725707" lon="10.733829296865325"><ele>297.0</ele><time>2026-03-28T12:46:44Z</time></trkpt><trkpt lat="45.606182978501835" lon="10.733665060944759"><ele>297.0</ele><time>2026-03-28T12:46:46Z</time></trkpt><trkpt lat="45.6062890136027" lon="10.733510415119625"><ele>297.8</ele><time>2026-03-28T12:46:48Z</time></trkpt><trkpt lat="45.606361351474334" lon="10.73329412569902"><ele>298.6</ele><time>2026-03-28T12:46:49Z</time></trkpt><trkpt lat="45.606431327481296" lon="10.733235993803373"><ele>299.40000000000003</ele><time>2026-03-28T12:46:50Z</time></trkpt><trkpt lat="45.606469305821875" lon="10.733157222228009"><ele>300.2</ele><time>2026-03-28T12:46:51Z</time></trkpt><trkpt lat="45.606516106318466" lon="10.733065934585488"><ele>301.0</ele><time>2026-03-28T12:46:52Z</time></trkpt><trkpt lat="45.60730167405799" lon="10.73307396258137"><ele>304.0</ele><time>2026-03-28T12:47:01Z</time></trkpt><trkpt lat="45.60740421431134" lon="10.733155949016675"><ele>307.0</ele><time>2026-03-28T12:47:03Z</time></trkpt><trkpt lat="45.60746301034115" lon="10.733210646260734"><ele>310.0</ele><time>2026-03-28T12:47:04Z</time></trkpt><trkpt lat="45.60753994739086" lon="10.7332422126385"><ele>313.0</ele><time>2026-03-28T12:47:05Z</time></trkpt><trkpt lat="45.6076230484817" lon="10.73321562065119"><ele>316.0</ele><time>2026-03-28T12:47:06Z</time></trkpt><trkpt lat="45.60770184382239" lon="10.73319293391302"><ele>319.0</ele><time>2026-03-28T12:47:07Z</time></trkpt><trkpt lat="45.60781412327537" lon="10.733221185316097"><ele>321.0</ele><time>2026-03-28T12:47:09Z</time></trkpt><trkpt lat="45.60786107823954" lon="10.73338048844675"><ele>323.0</ele><time>2026-03-28T12:47:11Z</time></trkpt><trkpt lat="45.60789354913267" lon="10.733466022122796"><ele>325.0</ele><time>2026-03-28T12:47:12Z</time></trkpt><trkpt lat="45.60793018644277" lon="10.733553774198436"><ele>327.0</ele><time>2026-03-28T12:47:13Z</time></trkpt><trkpt lat="45.60795539403596" lon="10.733637483981797"><ele>329.0</ele><time>2026-03-28T12:47:14Z</time></trkpt><trkpt lat="45.60792319651793" lon="10.733761427074887"><ele>331.0</ele><time>2026-03-28T12:47:16Z</time></trkpt><trkpt lat="45.60779661372243" lon="10.733827422312014"><ele>332.8</ele><time>2026-03-28T12:47:18Z</time></trkpt><trkpt lat="45.607709056881475" lon="10.733869384181846"><ele>334.6</ele><time>2026-03-28T12:47:19Z</time></trkpt><trkpt lat="45.60759860165418" lon="10.733893831560508"><ele>336.4</ele><time>2026-03-28T12:47:20Z</time></trkpt><trkpt lat="45.607502456938946" lon="10.733908172466343"><ele>338.2</ele><time>2026-03-28T12:47:21Z</time></trkpt><trkpt lat="45.60740859439417" lon="10.733932070139067"><ele>340.0</ele><time>2026-03-28T12:47:22Z</time></trkpt><trkpt lat="45.60733510741608" lon="10.733943914201788"><ele>340.0</ele><time>2026-03-28T12:47:23Z</time></trkpt><trkpt lat="45.60726523808881" lon="10.733966149318935"><ele>340.0</ele><time>2026-03-28T12:47:24Z</time></trkpt><trkpt lat="45.607208547465085" lon="10.734016637172092"><ele>340.0</ele><time>2026-03-28T12:47:25Z</time></trkpt><trkpt lat="45.60716558626535" lon="10.734089390889608"><ele>340.0</ele><time>2026-03-28T12:47:26Z</time></trkpt><trkpt lat="45.60711232218015" lon="10.734161110032673"><ele>340.0</ele><time>2026-03-28T12:47:27Z</time></trkpt><trkpt lat="45.60714750528816" lon="10.734250344273953"><ele>340.0</ele><time>2026-03-28T12:47:31Z</time></trkpt><trkpt lat="45.60725808682824" lon="10.734248254833048"><ele>340.0</ele><time>2026-03-28T12:47:33Z</time></trkpt><trkpt lat="45.60733202356262" lon="10.734225484920263"><ele>340.0</ele><time>2026-03-28T12:47:34Z</time></trkpt><trkpt lat="45.607425820419415" lon="10.734209674996105"><ele>340.0</ele><time>2026-03-28T12:47:35Z</time></trkpt><trkpt lat="45.6075184830835" lon="10.734183979015922"><ele>340.0</ele><time>2026-03-28T12:47:36Z</time></trkpt><trkpt lat="45.60761452454524" lon="10.734157218024807"><ele>340.0</ele><time>2026-03-28T12:47:37Z</time></trkpt><trkpt lat="45.60772718754135" lon="10.734127730445085"><ele>341.4</ele><time>2026-03-28T12:47:38Z</time></trkpt><trkpt lat="45.60784204217729" lon="10.734085401873962"><ele>342.8</ele><time>2026-03-28T12:47:39Z</time></trkpt><trkpt lat="45.6079554957403" lon="10.73403633632971"><ele>344.20000000000005</ele><time>2026-03-28T12:47:40Z</time></trkpt><trkpt lat="45.60805881302098" lon="10.733999379129967"><ele>345.6</ele><time>2026-03-28T12:47:41Z</time></trkpt><trkpt lat="45.60815606033407" lon="10.733972880982286"><ele>347.0</ele><time>2026-03-28T12:47:42Z</time></trkpt><trkpt lat="45.60823397624936" lon="10.73396687207572"><ele>347.0</ele><time>2026-03-28T12:47:43Z</time></trkpt><trkpt lat="45.608333027487376" lon="10.733972288966326"><ele>347.0</ele><time>2026-03-28T12:47:44Z</time></trkpt><trkpt lat="45.60842077972297" lon="10.734004735026772"><ele>347.0</ele><time>2026-03-28T12:47:45Z</time></trkpt><trkpt lat="45.6084821452043" lon="10.734033624717654"><ele>347.0</ele><time>2026-03-28T12:47:46Z</time></trkpt><trkpt lat="45.60854727130799" lon="10.733998774340188"><ele>347.0</ele><time>2026-03-28T12:47:47Z</time></trkpt><trkpt lat="45.60861079257372" lon="10.733926013155017"><ele>347.0</ele><time>2026-03-28T12:47:48Z</time></trkpt><trkpt lat="45.60869734336186" lon="10.733784418427344"><ele>346.6666666666667</ele><time>2026-03-28T12:47:49Z</time></trkpt><trkpt lat="45.608795091413974" lon="10.73363371903034"><ele>346.3333333333333</ele><time>2026-03-28T12:47:50Z</time></trkpt><trkpt lat="45.60890744240012" lon="10.733472778243755"><ele>346.0</ele><time>2026-03-28T12:47:51Z</time></trkpt><trkpt lat="45.60901675312984" lon="10.733331114004052"><ele>346.0</ele><time>2026-03-28T12:47:52Z</time></trkpt><trkpt lat="45.6091176101049" lon="10.733201842878188"><ele>346.0</ele><time>2026-03-28T12:47:53Z</time></trkpt><trkpt lat="45.609213649847966" lon="10.733061518660435"><ele>346.0</ele><time>2026-03-28T12:47:54Z</time></trkpt><trkpt lat="45.60930474690962" lon="10.732945843240831"><ele>346.0</ele><time>2026-03-28T12:47:55Z</time></trkpt><trkpt lat="45.60939026207447" lon="10.732859821854614"><ele>346.0</ele><time>2026-03-28T12:47:56Z</time></trkpt><trkpt lat="45.60948111634279" lon="10.732761101427469"><ele>346.0</ele><time>2026-03-28T12:47:57Z</time></trkpt><trkpt lat="45.60957950977831" lon="10.732687311358017"><ele>346.0</ele><time>2026-03-28T12:47:58Z</time></trkpt><trkpt lat="45.609672230816884" lon="10.732621310318589"><ele>346.0</ele><time>2026-03-28T12:47:59Z</time></trkpt><trkpt lat="45.60976422105665" lon="10.732553161374234"><ele>346.0</ele><time>2026-03-28T12:48:00Z</time></trkpt><trkpt lat="45.60986431926818" lon="10.73251767494937"><ele>347.0</ele><time>2026-03-28T12:48:01Z</time></trkpt><trkpt lat="45.60998317272942" lon="10.732481566381812"><ele>348.0</ele><time>2026-03-28T12:48:02Z</time></trkpt><trkpt lat="45.610101422469704" lon="10.732453849058741"><ele>349.0</ele><time>2026-03-28T12:48:03Z</time></trkpt><trkpt lat="45.61020688175263" lon="10.73243724111315"><ele>350.0</ele><time>2026-03-28T12:48:04Z</time></trkpt><trkpt lat="45.61029859655689" lon="10.732432065600321"><ele>351.0</ele><time>2026-03-28T12:48:05Z</time></trkpt><trkpt lat="45.61038234046294" lon="10.732441823909241"><ele>354.0</ele><time>2026-03-28T12:48:06Z</time></trkpt><trkpt lat="45.61048341217326" lon="10.732576511491787"><ele>357.0</ele><time>2026-03-28T12:48:08Z</time></trkpt><trkpt lat="45.610563061890225" lon="10.732621916814129"><ele>360.0</ele><time>2026-03-28T12:48:09Z</time></trkpt><trkpt lat="45.61067536182953" lon="10.732651505515005"><ele>363.0</ele><time>2026-03-28T12:48:11Z</time></trkpt><trkpt lat="45.6107418729158" lon="10.732662766566223"><ele>366.0</ele><time>2026-03-28T12:48:12Z</time></trkpt><trkpt lat="45.61083089240106" lon="10.732693737961531"><ele>368.1666666666667</ele><time>2026-03-28T12:48:13Z</time></trkpt><trkpt lat="45.6109120145598" lon="10.732735103119959"><ele>370.3333333333333</ele><time>2026-03-28T12:48:14Z</time></trkpt><trkpt lat="45.61098780276186" lon="10.732770232966272"><ele>372.5</ele><time>2026-03-28T12:48:15Z</time></trkpt><trkpt lat="45.611060021889045" lon="10.732811843768694"><ele>374.66666666666663</ele><time>2026-03-28T12:48:16Z</time></trkpt><trkpt lat="45.61108196008641" lon="10.732929061852865"><ele>376.8333333333333</ele><time>2026-03-28T12:48:18Z</time></trkpt><trkpt lat="45.61106290397018" lon="10.733034777301263"><ele>379.0</ele><time>2026-03-28T12:48:20Z</time></trkpt><trkpt lat="45.6110611125747" lon="10.733202599708292"><ele>379.0</ele><time>2026-03-28T12:48:22Z</time></trkpt><trkpt lat="45.611062393895594" lon="10.733293286316894"><ele>379.0</ele><time>2026-03-28T12:48:23Z</time></trkpt><trkpt lat="45.61106483576112" lon="10.733409979371896"><ele>379.0</ele><time>2026-03-28T12:48:24Z</time></trkpt><trkpt lat="45.61107112397208" lon="10.733529588276332"><ele>379.0</ele><time>2026-03-28T12:48:25Z</time></trkpt><trkpt lat="45.61108259975398" lon="10.733643445241276"><ele>379.0</ele><time>2026-03-28T12:48:26Z</time></trkpt><trkpt lat="45.611090716877506" lon="10.733756010677856"><ele>379.0</ele><time>2026-03-28T12:48:27Z</time></trkpt><trkpt lat="45.61110111606644" lon="10.733881050205678"><ele>381.8333333333333</ele><time>2026-03-28T12:48:28Z</time></trkpt><trkpt lat="45.61110326017198" lon="10.73398594757854"><ele>384.66666666666663</ele><time>2026-03-28T12:48:29Z</time></trkpt><trkpt lat="45.61109004355728" lon="10.73407690174623"><ele>387.5</ele><time>2026-03-28T12:48:30Z</time></trkpt><trkpt lat="45.61107448308611" lon="10.734177172614515"><ele>390.3333333333333</ele><time>2026-03-28T12:48:31Z</time></trkpt><trkpt lat="45.611092264729095" lon="10.734341068179653"><ele>393.1666666666667</ele><time>2026-03-28T12:48:33Z</time></trkpt><trkpt lat="45.611149795829675" lon="10.734485140313003"><ele>396.0</ele><time>2026-03-28T12:48:35Z</time></trkpt><trkpt lat="45.61119201525477" lon="10.734563625541416"><ele>400.1666666666667</ele><time>2026-03-28T12:48:36Z</time></trkpt><trkpt lat="45.61130355134234" lon="10.73462307863894"><ele>404.33333333333337</ele><time>2026-03-28T12:48:38Z</time></trkpt><trkpt lat="45.61136990666312" lon="10.734621990188863"><ele>408.5</ele><time>2026-03-28T12:48:39Z</time></trkpt><trkpt lat="45.61144706104592" lon="10.734617513421988"><ele>412.6666666666667</ele><time>2026-03-28T12:48:40Z</time></trkpt><trkpt lat="45.61151532692337" lon="10.734637039367945"><ele>416.83333333333337</ele><time>2026-03-28T12:48:41Z</time></trkpt><trkpt lat="45.611582544609625" lon="10.734640812005813"><ele>421.0</ele><time>2026-03-28T12:48:42Z</time></trkpt><trkpt lat="45.61168239544757" lon="10.734666025821527"><ele>421.00000000000006</ele><time>2026-03-28T12:48:44Z</time></trkpt><trkpt lat="45.61174617188356" lon="10.734703928907091"><ele>421.0</ele><time>2026-03-28T12:48:45Z</time></trkpt><trkpt lat="45.61180045652693" lon="10.734752090233014"><ele>421.0</ele><time>2026-03-28T12:48:46Z</time></trkpt><trkpt lat="45.611846936083545" lon="10.73481979013372"><ele>421.0</ele><time>2026-03-28T12:48:47Z</time></trkpt><trkpt lat="45.61193569601939" lon="10.734916027663365"><ele>421.00000000000006</ele><time>2026-03-28T12:48:49Z</time></trkpt><trkpt lat="45.6120696916704" lon="10.734903802221675"><ele>421.0</ele><time>2026-03-28T12:48:52Z</time></trkpt><trkpt lat="45.61215136965835" lon="10.734838595079596"><ele>421.20000000000005</ele><time>2026-03-28T12:48:53Z</time></trkpt><trkpt lat="45.61223767850711" lon="10.734787646978283"><ele>421.40000000000003</ele><time>2026-03-28T12:48:54Z</time></trkpt><trkpt lat="45.61231488832063" lon="10.734747328543857"><ele>421.6</ele><time>2026-03-28T12:48:55Z</time></trkpt><trkpt lat="45.61240707499659" lon="10.734698024919945"><ele>421.8</ele><time>2026-03-28T12:48:57Z</time></trkpt><trkpt lat="45.61246953490413" lon="10.734748720918343"><ele>422.0</ele><time>2026-03-28T12:48:59Z</time></trkpt><trkpt lat="45.6125684841135" lon="10.734871571067519"><ele>421.99999999999994</ele><time>2026-03-28T12:49:01Z</time></trkpt><trkpt lat="45.61263394473161" lon="10.734902715992096"><ele>422.0</ele><time>2026-03-28T12:49:02Z</time></trkpt><trkpt lat="45.61272411389056" lon="10.734881325476975"><ele>422.0</ele><time>2026-03-28T12:49:03Z</time></trkpt><trkpt lat="45.612805051175755" lon="10.734909225532446"><ele>422.0</ele><time>2026-03-28T12:49:04Z</time></trkpt><trkpt lat="45.6128720965089" lon="10.734944174801335"><ele>421.99999999999994</ele><time>2026-03-28T12:49:05Z</time></trkpt><trkpt lat="45.61292972370587" lon="10.735004451612895"><ele>422.0</ele><time>2026-03-28T12:49:06Z</time></trkpt><trkpt lat="45.61298008169536" lon="10.735106576170152"><ele>426.8</ele><time>2026-03-28T12:49:07Z</time></trkpt><trkpt lat="45.61304268818008" lon="10.735225884361483"><ele>431.6</ele><time>2026-03-28T12:49:08Z</time></trkpt><trkpt lat="45.613102126531146" lon="10.735348832022224"><ele>436.40000000000003</ele><time>2026-03-28T12:49:09Z</time></trkpt><trkpt lat="45.613160813996195" lon="10.735443267796079"><ele>441.20000000000005</ele><time>2026-03-28T12:49:10Z</time></trkpt><trkpt lat="45.61322936150101" lon="10.735531781420246"><ele>446.0</ele><time>2026-03-28T12:49:11Z</time></trkpt><trkpt lat="45.6132933274349" lon="10.735630695874542"><ele>445.99999999999994</ele><time>2026-03-28T12:49:12Z</time></trkpt><trkpt lat="45.6133361534377" lon="10.735741495003548"><ele>446.0</ele><time>2026-03-28T12:49:13Z</time></trkpt><trkpt lat="45.6133921868775" lon="10.73583136197152"><ele>446.0</ele><time>2026-03-28T12:49:14Z</time></trkpt><trkpt lat="45.61344906768476" lon="10.735918507923015"><ele>446.0</ele><time>2026-03-28T12:49:15Z</time></trkpt><trkpt lat="45.61352751034844" lon="10.735991216618594"><ele>445.99999999999994</ele><time>2026-03-28T12:49:16Z</time></trkpt><trkpt lat="45.61360590599834" lon="10.736029399464872"><ele>446.0</ele><time>2026-03-28T12:49:17Z</time></trkpt><trkpt lat="45.61367830104927" lon="10.736076021634334"><ele>448.49999999999994</ele><time>2026-03-28T12:49:18Z</time></trkpt><trkpt lat="45.6137416060309" lon="10.736213465653172"><ele>451.0</ele><time>2026-03-28T12:49:20Z</time></trkpt><trkpt lat="45.61378181212332" lon="10.736298116021423"><ele>453.5</ele><time>2026-03-28T12:49:21Z</time></trkpt><trkpt lat="45.61384093922009" lon="10.736339309814293"><ele>456.0</ele><time>2026-03-28T12:49:22Z</time></trkpt><trkpt lat="45.613915702862116" lon="10.736365686932986"><ele>458.49999999999994</ele><time>2026-03-28T12:49:23Z</time></trkpt><trkpt lat="45.613991621230966" lon="10.736381501263539"><ele>461.0</ele><time>2026-03-28T12:49:24Z</time></trkpt><trkpt lat="45.61405535844115" lon="10.736400619981671"><ele>461.0</ele><time>2026-03-28T12:49:25Z</time></trkpt><trkpt lat="45.61413667293251" lon="10.73639217775322"><ele>461.0</ele><time>2026-03-28T12:49:27Z</time></trkpt><trkpt lat="45.614212620890896" lon="10.736449869407142"><ele>461.0</ele><time>2026-03-28T12:49:30Z</time></trkpt><trkpt lat="45.614224515289415" lon="10.736585875381879"><ele>461.0</ele><time>2026-03-28T12:49:32Z</time></trkpt><trkpt lat="45.61420296520039" lon="10.736716985611396"><ele>461.0</ele><time>2026-03-28T12:49:34Z</time></trkpt><trkpt lat="45.61427486493595" lon="10.736803173926818"><ele>461.0</ele><time>2026-03-28T12:49:41Z</time></trkpt><trkpt lat="45.614352347448495" lon="10.73677722553093"><ele>461.0</ele><time>2026-03-28T12:49:42Z</time></trkpt><trkpt lat="45.614463199829814" lon="10.736799754854308"><ele>461.0</ele><time>2026-03-28T12:49:44Z</time></trkpt><trkpt lat="45.61455495368416" lon="10.736779880087703"><ele>461.0</ele><time>2026-03-28T12:49:46Z</time></trkpt><trkpt lat="45.61463651115703" lon="10.736689211258396"><ele>461.0</ele><time>2026-03-28T12:49:48Z</time></trkpt><trkpt lat="45.61475001931007" lon="10.736581122397864"><ele>458.4</ele><time>2026-03-28T12:49:50Z</time></trkpt><trkpt lat="45.61480822640424" lon="10.736537220550797"><ele>455.8</ele><time>2026-03-28T12:49:51Z</time></trkpt><trkpt lat="45.61491964355037" lon="10.736444721854207"><ele>453.19999999999993</ele><time>2026-03-28T12:49:53Z</time></trkpt><trkpt lat="45.61501867175537" lon="10.736334133127615"><ele>450.59999999999997</ele><time>2026-03-28T12:49:55Z</time></trkpt><trkpt lat="45.6150817206284" lon="10.736275689514054"><ele>448.0</ele><time>2026-03-28T12:49:56Z</time></trkpt><trkpt lat="45.615134551866085" lon="10.736225197673656"><ele>448.0</ele><time>2026-03-28T12:49:57Z</time></trkpt><trkpt lat="45.61518772293011" lon="10.73617592673423"><ele>447.99999999999994</ele><time>2026-03-28T12:49:58Z</time></trkpt><trkpt lat="45.615268080105196" lon="10.736072678518049"><ele>447.99999999999994</ele><time>2026-03-28T12:50:00Z</time></trkpt><trkpt lat="45.61529850518373" lon="10.735942940102747"><ele>448.0</ele><time>2026-03-28T12:50:02Z</time></trkpt><trkpt lat="45.61533304170723" lon="10.735785776269623"><ele>448.0</ele><time>2026-03-28T12:50:04Z</time></trkpt><trkpt lat="45.615394680142266" lon="10.735741998877659"><ele>443.59999999999997</ele><time>2026-03-28T12:50:05Z</time></trkpt><trkpt lat="45.61547629449294" lon="10.735710640743456"><ele>439.19999999999993</ele><time>2026-03-28T12:50:06Z</time></trkpt><trkpt lat="45.615562425525326" lon="10.735700621912182"><ele>434.8</ele><time>2026-03-28T12:50:07Z</time></trkpt><trkpt lat="45.61563076646008" lon="10.735691999837444"><ele>430.4</ele><time>2026-03-28T12:50:08Z</time></trkpt><trkpt lat="45.61573660207335" lon="10.73558150439153"><ele>426.0</ele><time>2026-03-28T12:50:10Z</time></trkpt><trkpt lat="45.61579978342369" lon="10.735480513928268"><ele>426.0</ele><time>2026-03-28T12:50:11Z</time></trkpt><trkpt lat="45.61586665434848" lon="10.735388258515963"><ele>426.0</ele><time>2026-03-28T12:50:12Z</time></trkpt><trkpt lat="45.61593556186817" lon="10.735276043422074"><ele>426.0</ele><time>2026-03-28T12:50:13Z</time></trkpt><trkpt lat="45.616010058910774" lon="10.73514930972252"><ele>426.0</ele><time>2026-03-28T12:50:14Z</time></trkpt><trkpt lat="45.61609104533945" lon="10.735021306323555"><ele>426.0</ele><time>2026-03-28T12:50:15Z</time></trkpt><trkpt lat="45.61615915553347" lon="10.734914077818122"><ele>426.20000000000005</ele><time>2026-03-28T12:50:16Z</time></trkpt><trkpt lat="45.61623129759465" lon="10.734781043298321"><ele>426.40000000000003</ele><time>2026-03-28T12:50:17Z</time></trkpt><trkpt lat="45.616307335546026" lon="10.734662540436984"><ele>426.6</ele><time>2026-03-28T12:50:18Z</time></trkpt><trkpt lat="45.61638251445701" lon="10.734566533140542"><ele>426.8</ele><time>2026-03-28T12:50:19Z</time></trkpt><trkpt lat="45.61646819541399" lon="10.734484218871591"><ele>427.0</ele><time>2026-03-28T12:50:20Z</time></trkpt><trkpt lat="45.61653909968393" lon="10.734380501279421"><ele>428.25</ele><time>2026-03-28T12:50:21Z</time></trkpt><trkpt lat="45.6165880407969" lon="10.7342326493885"><ele>429.5</ele><time>2026-03-28T12:50:22Z</time></trkpt><trkpt lat="45.61663305104618" lon="10.734059157832869"><ele>430.75</ele><time>2026-03-28T12:50:23Z</time></trkpt><trkpt lat="45.61666676015789" lon="10.733911715134823"><ele>432.0</ele><time>2026-03-28T12:50:24Z</time></trkpt><trkpt lat="45.616692975100335" lon="10.73377390816922"><ele>432.0</ele><time>2026-03-28T12:50:25Z</time></trkpt><trkpt lat="45.616724836801865" lon="10.733656420151096"><ele>432.00000000000006</ele><time>2026-03-28T12:50:26Z</time></trkpt><trkpt lat="45.6167679814873" lon="10.733565443866143"><ele>432.00000000000006</ele><time>2026-03-28T12:50:27Z</time></trkpt><trkpt lat="45.61682281629086" lon="10.733411411210394"><ele>432.0</ele><time>2026-03-28T12:50:29Z</time></trkpt><trkpt lat="45.61687756510204" lon="10.733235435832153"><ele>432.0</ele><time>2026-03-28T12:50:31Z</time></trkpt><trkpt lat="45.61691115017536" lon="10.73313560774355"><ele>431.8333333333333</ele><time>2026-03-28T12:50:32Z</time></trkpt><trkpt lat="45.616932318817206" lon="10.73302985284515"><ele>431.66666666666663</ele><time>2026-03-28T12:50:33Z</time></trkpt><trkpt lat="45.61694986118531" lon="10.732931363921265"><ele>431.5</ele><time>2026-03-28T12:50:34Z</time></trkpt><trkpt lat="45.61696617512402" lon="10.73280711681788"><ele>431.3333333333333</ele><time>2026-03-28T12:50:35Z</time></trkpt><trkpt lat="45.61695654661633" lon="10.732677155299882"><ele>431.16666666666663</ele><time>2026-03-28T12:50:36Z</time></trkpt><trkpt lat="45.61695393305194" lon="10.732563057477744"><ele>431.0</ele><time>2026-03-28T12:50:37Z</time></trkpt><trkpt lat="45.61694460372324" lon="10.73245700781201"><ele>429.66666666666663</ele><time>2026-03-28T12:50:38Z</time></trkpt><trkpt lat="45.616930433314316" lon="10.732339848306687"><ele>428.3333333333333</ele><time>2026-03-28T12:50:39Z</time></trkpt><trkpt lat="45.616905450143996" lon="10.73215707095295"><ele>427.0</ele><time>2026-03-28T12:50:41Z</time></trkpt><trkpt lat="45.61688926757257" lon="10.732060022525108"><ele>425.66666666666663</ele><time>2026-03-28T12:50:42Z</time></trkpt><trkpt lat="45.61685797368848" lon="10.731965330559234"><ele>424.3333333333333</ele><time>2026-03-28T12:50:43Z</time></trkpt><trkpt lat="45.61682214859521" lon="10.731863376934578"><ele>423.0</ele><time>2026-03-28T12:50:44Z</time></trkpt><trkpt lat="45.61675984611398" lon="10.731743239336481"><ele>420.1666666666667</ele><time>2026-03-28T12:50:45Z</time></trkpt><trkpt lat="45.61671505631422" lon="10.73164422292556"><ele>417.33333333333337</ele><time>2026-03-28T12:50:46Z</time></trkpt><trkpt lat="45.61667233488999" lon="10.73155621666732"><ele>414.5</ele><time>2026-03-28T12:50:47Z</time></trkpt><trkpt lat="45.61663116625977" lon="10.731466443421134"><ele>411.6666666666667</ele><time>2026-03-28T12:50:48Z</time></trkpt><trkpt lat="45.6166111682097" lon="10.73137121942191"><ele>408.83333333333337</ele><time>2026-03-28T12:50:49Z</time></trkpt><trkpt lat="45.61655258136189" lon="10.731291083511278"><ele>406.0</ele><time>2026-03-28T12:50:50Z</time></trkpt><trkpt lat="45.61648372065955" lon="10.731217923858381"><ele>406.00000000000006</ele><time>2026-03-28T12:50:51Z</time></trkpt><trkpt lat="45.6164261894119" lon="10.731169960983534"><ele>406.0</ele><time>2026-03-28T12:50:52Z</time></trkpt><trkpt lat="45.61634781630426" lon="10.73107110825535"><ele>406.0</ele><time>2026-03-28T12:50:54Z</time></trkpt><trkpt lat="45.61633160829728" lon="10.730917235540385"><ele>406.0</ele><time>2026-03-28T12:50:56Z</time></trkpt><trkpt lat="45.61630358912908" lon="10.730823156989418"><ele>406.00000000000006</ele><time>2026-03-28T12:50:57Z</time></trkpt><trkpt lat="45.616284397475226" lon="10.73072985272842"><ele>406.0</ele><time>2026-03-28T12:50:58Z</time></trkpt><trkpt lat="45.61630107987368" lon="10.730519012462253"><ele>404.4</ele><time>2026-03-28T12:51:00Z</time></trkpt><trkpt lat="45.61631150340902" lon="10.730404455160818"><ele>402.8</ele><time>2026-03-28T12:51:01Z</time></trkpt><trkpt lat="45.61630087840881" lon="10.73030950656026"><ele>401.2</ele><time>2026-03-28T12:51:02Z</time></trkpt><trkpt lat="45.61629804771015" lon="10.730156763650582"><ele>399.59999999999997</ele><time>2026-03-28T12:51:04Z</time></trkpt><trkpt lat="45.6162634617921" lon="10.730016389646503"><ele>398.0</ele><time>2026-03-28T12:51:06Z</time></trkpt><trkpt lat="45.61619571868669" lon="10.729875678820436"><ele>394.16666666666663</ele><time>2026-03-28T12:51:08Z</time></trkpt><trkpt lat="45.61613106988477" lon="10.729748240497026"><ele>390.3333333333333</ele><time>2026-03-28T12:51:10Z</time></trkpt><trkpt lat="45.61604784981419" lon="10.72966228835333"><ele>386.5</ele><time>2026-03-28T12:51:12Z</time></trkpt><trkpt lat="45.615980756732675" lon="10.729628008402758"><ele>382.66666666666663</ele><time>2026-03-28T12:51:13Z</time></trkpt><trkpt lat="45.61590321255295" lon="10.729592049230373"><ele>378.8333333333333</ele><time>2026-03-28T12:51:14Z</time></trkpt><trkpt lat="45.61582484834113" lon="10.729562670637339"><ele>375.0</ele><time>2026-03-28T12:51:15Z</time></trkpt><trkpt lat="45.615752910449366" lon="10.729535582916375"><ele>375.0</ele><time>2026-03-28T12:51:16Z</time></trkpt><trkpt lat="45.6156739571869" lon="10.729522300669247"><ele>375.0</ele><time>2026-03-28T12:51:17Z</time></trkpt><trkpt lat="45.61559897508844" lon="10.729525737849196"><ele>375.0</ele><time>2026-03-28T12:51:18Z</time></trkpt><trkpt lat="45.61553460388608" lon="10.729520545285608"><ele>375.0</ele><time>2026-03-28T12:51:19Z</time></trkpt><trkpt lat="45.615433648240675" lon="10.7296054497927"><ele>375.0</ele><time>2026-03-28T12:51:21Z</time></trkpt><trkpt lat="45.61536239394113" lon="10.729713229602089"><ele>375.0</ele><time>2026-03-28T12:51:23Z</time></trkpt><trkpt lat="45.615340281221755" lon="10.729797712752749"><ele>375.0</ele><time>2026-03-28T12:51:24Z</time></trkpt><trkpt lat="45.61532833081982" lon="10.729894363876255"><ele>375.0</ele><time>2026-03-28T12:51:25Z</time></trkpt><trkpt lat="45.615319416597295" lon="10.730004297257011"><ele>375.0</ele><time>2026-03-28T12:51:26Z</time></trkpt><trkpt lat="45.61531783873729" lon="10.730113169264355"><ele>375.0</ele><time>2026-03-28T12:51:27Z</time></trkpt><trkpt lat="45.61531245650511" lon="10.730205735395655"><ele>375.0</ele><time>2026-03-28T12:51:28Z</time></trkpt><trkpt lat="45.615309792076" lon="10.730322608170413"><ele>375.0</ele><time>2026-03-28T12:51:29Z</time></trkpt><trkpt lat="45.61529957887944" lon="10.730482090188456"><ele>372.6</ele><time>2026-03-28T12:51:31Z</time></trkpt><trkpt lat="45.61526145838087" lon="10.730582017159348"><ele>370.2</ele><time>2026-03-28T12:51:33Z</time></trkpt><trkpt lat="45.615183515806905" lon="10.730577893018378"><ele>367.79999999999995</ele><time>2026-03-28T12:51:36Z</time></trkpt><trkpt lat="45.61514921110652" lon="10.730381914777798"><ele>365.4</ele><time>2026-03-28T12:51:38Z</time></trkpt><trkpt lat="45.61513547230531" lon="10.730253364125767"><ele>363.0</ele><time>2026-03-28T12:51:39Z</time></trkpt><trkpt lat="45.61511610536995" lon="10.730141269578944"><ele>361.59999999999997</ele><time>2026-03-28T12:51:40Z</time></trkpt><trkpt lat="45.61508372347142" lon="10.730047956692236"><ele>360.2</ele><time>2026-03-28T12:51:41Z</time></trkpt><trkpt lat="45.61503332043841" lon="10.72997429641032"><ele>358.8</ele><time>2026-03-28T12:51:42Z</time></trkpt><trkpt lat="45.61495703527814" lon="10.72992742859574"><ele>357.4</ele><time>2026-03-28T12:51:43Z</time></trkpt><trkpt lat="45.614846548146645" lon="10.72988221915743"><ele>356.0</ele><time>2026-03-28T12:51:44Z</time></trkpt><trkpt lat="45.61471948648058" lon="10.72980417505473"><ele>356.0</ele><time>2026-03-28T12:51:45Z</time></trkpt><trkpt lat="45.61458735142194" lon="10.729701083979075"><ele>356.0</ele><time>2026-03-28T12:51:46Z</time></trkpt><trkpt lat="45.61444446888564" lon="10.72958623861468"><ele>356.0</ele><time>2026-03-28T12:51:47Z</time></trkpt><trkpt lat="45.61431411861645" lon="10.72947740758776"><ele>353.25</ele><time>2026-03-28T12:51:48Z</time></trkpt><trkpt lat="45.61418932984474" lon="10.729370577595027"><ele>350.5</ele><time>2026-03-28T12:51:49Z</time></trkpt><trkpt lat="45.61406591298695" lon="10.729273075682002"><ele>347.75</ele><time>2026-03-28T12:51:50Z</time></trkpt><trkpt lat="45.61396311335083" lon="10.729169479493887"><ele>345.0</ele><time>2026-03-28T12:51:51Z</time></trkpt><trkpt lat="45.61386705538488" lon="10.729070488873804"><ele>345.0</ele><time>2026-03-28T12:51:52Z</time></trkpt><trkpt lat="45.61377143036002" lon="10.728996822504648"><ele>345.0</ele><time>2026-03-28T12:51:53Z</time></trkpt><trkpt lat="45.613700894906046" lon="10.728915006126785"><ele>345.0</ele><time>2026-03-28T12:51:54Z</time></trkpt><trkpt lat="45.61364289210624" lon="10.728854563338068"><ele>345.0</ele><time>2026-03-28T12:51:55Z</time></trkpt><trkpt lat="45.61353240969293" lon="10.728806243677285"><ele>345.0</ele><time>2026-03-28T12:51:57Z</time></trkpt><trkpt lat="45.61346167299537" lon="10.728780588818541"><ele>345.5</ele><time>2026-03-28T12:51:58Z</time></trkpt><trkpt lat="45.61339613415342" lon="10.728750105656877"><ele>346.0</ele><time>2026-03-28T12:51:59Z</time></trkpt><trkpt lat="45.61333015865707" lon="10.728754424233689"><ele>346.5</ele><time>2026-03-28T12:52:00Z</time></trkpt><trkpt lat="45.61325107354779" lon="10.72873994223903"><ele>347.0</ele><time>2026-03-28T12:52:02Z</time></trkpt><trkpt lat="45.613166686684494" lon="10.728685641658299"><ele>347.5</ele><time>2026-03-28T12:52:04Z</time></trkpt><trkpt lat="45.61309889850062" lon="10.728638148397565"><ele>348.0</ele><time>2026-03-28T12:52:06Z</time></trkpt><trkpt lat="45.613183692138584" lon="10.72868893452924"><ele>348.0</ele><time>2026-03-28T12:52:12Z</time></trkpt><trkpt lat="45.613333018968454" lon="10.728790805167103"><ele>348.0</ele><time>2026-03-28T12:52:13Z</time></trkpt><trkpt lat="45.613423883287744" lon="10.728804260995378"><ele>348.0</ele><time>2026-03-28T12:52:14Z</time></trkpt><trkpt lat="45.61349827773059" lon="10.728830561292705"><ele>348.0</ele><time>2026-03-28T12:52:15Z</time></trkpt><trkpt lat="45.61358302222064" lon="10.72887261854021"><ele>348.0</ele><time>2026-03-28T12:52:17Z</time></trkpt><trkpt lat="45.61366334231099" lon="10.72878244172828"><ele>347.4</ele><time>2026-03-28T12:52:19Z</time></trkpt><trkpt lat="45.61370253747655" lon="10.728653295707566"><ele>346.79999999999995</ele><time>2026-03-28T12:52:20Z</time></trkpt><trkpt lat="45.61375135530842" lon="10.728524837398714"><ele>346.2</ele><time>2026-03-28T12:52:21Z</time></trkpt><trkpt lat="45.61382141068231" lon="10.728423294606507"><ele>345.6</ele><time>2026-03-28T12:52:22Z</time></trkpt><trkpt lat="45.61388203655408" lon="10.728289762991961"><ele>345.0</ele><time>2026-03-28T12:52:23Z</time></trkpt><trkpt lat="45.61393151932661" lon="10.728156594808233"><ele>346.1666666666667</ele><time>2026-03-28T12:52:24Z</time></trkpt><trkpt lat="45.61393828183297" lon="10.728041511510407"><ele>347.3333333333333</ele><time>2026-03-28T12:52:25Z</time></trkpt><trkpt lat="45.61392801355956" lon="10.72795200597307"><ele>348.5</ele><time>2026-03-28T12:52:26Z</time></trkpt><trkpt lat="45.61390157214272" lon="10.72785811036602"><ele>349.66666666666663</ele><time>2026-03-28T12:52:27Z</time></trkpt><trkpt lat="45.613852255435035" lon="10.72775456335345"><ele>350.8333333333333</ele><time>2026-03-28T12:52:28Z</time></trkpt><trkpt lat="45.613784857109344" lon="10.727653893052146"><ele>352.0</ele><time>2026-03-28T12:52:29Z</time></trkpt><trkpt lat="45.61372065961352" lon="10.727578371103974"><ele>352.6</ele><time>2026-03-28T12:52:30Z</time></trkpt><trkpt lat="45.61364126842073" lon="10.727528325984046"><ele>353.20000000000005</ele><time>2026-03-28T12:52:31Z</time></trkpt><trkpt lat="45.61354097275572" lon="10.727498118657282"><ele>353.8</ele><time>2026-03-28T12:52:32Z</time></trkpt><trkpt lat="45.61341664758331" lon="10.72749604931369"><ele>354.4</ele><time>2026-03-28T12:52:33Z</time></trkpt><trkpt lat="45.61328363310812" lon="10.72752045912804"><ele>355.0</ele><time>2026-03-28T12:52:34Z</time></trkpt><trkpt lat="45.61316266027104" lon="10.727513888541703"><ele>355.0</ele><time>2026-03-28T12:52:35Z</time></trkpt><trkpt lat="45.61304751243623" lon="10.72749872710991"><ele>355.0</ele><time>2026-03-28T12:52:36Z</time></trkpt><trkpt lat="45.61295660824766" lon="10.727450627526363"><ele>355.0</ele><time>2026-03-28T12:52:37Z</time></trkpt><trkpt lat="45.61286766220037" lon="10.727378337938491"><ele>355.0</ele><time>2026-03-28T12:52:38Z</time></trkpt><trkpt lat="45.612778413549314" lon="10.727295692351493"><ele>355.0</ele><time>2026-03-28T12:52:39Z</time></trkpt><trkpt lat="45.61271402439436" lon="10.72720791439823"><ele>356.2</ele><time>2026-03-28T12:52:40Z</time></trkpt><trkpt lat="45.61267524720906" lon="10.727121604188989"><ele>357.4</ele><time>2026-03-28T12:52:41Z</time></trkpt><trkpt lat="45.61264092689565" lon="10.727010759345106"><ele>358.6</ele><time>2026-03-28T12:52:42Z</time></trkpt><trkpt lat="45.61257053770727" lon="10.726899398134858"><ele>359.8</ele><time>2026-03-28T12:52:43Z</time></trkpt><trkpt lat="45.61249213064101" lon="10.726756769367762"><ele>361.0</ele><time>2026-03-28T12:52:44Z</time></trkpt><trkpt lat="45.61239062556004" lon="10.72660361932486"><ele>362.4</ele><time>2026-03-28T12:52:45Z</time></trkpt><trkpt lat="45.61228250566058" lon="10.726459991892286"><ele>363.8</ele><time>2026-03-28T12:52:46Z</time></trkpt><trkpt lat="45.612206244067956" lon="10.726321750657808"><ele>365.2</ele><time>2026-03-28T12:52:47Z</time></trkpt><trkpt lat="45.61215067549947" lon="10.726217596370734"><ele>366.59999999999997</ele><time>2026-03-28T12:52:48Z</time></trkpt><trkpt lat="45.612105118627156" lon="10.726142629491285"><ele>368.0</ele><time>2026-03-28T12:52:49Z</time></trkpt><trkpt lat="45.612093254210095" lon="10.726046660535355"><ele>368.83333333333337</ele><time>2026-03-28T12:52:50Z</time></trkpt><trkpt lat="45.612099151325175" lon="10.725941913046745"><ele>369.6666666666667</ele><time>2026-03-28T12:52:51Z</time></trkpt><trkpt lat="45.612144526179705" lon="10.725859388711937"><ele>370.5</ele><time>2026-03-28T12:52:52Z</time></trkpt><trkpt lat="45.61220202521595" lon="10.725819988452752"><ele>371.3333333333333</ele><time>2026-03-28T12:52:53Z</time></trkpt><trkpt lat="45.612273749300556" lon="10.725765182904013"><ele>372.16666666666663</ele><time>2026-03-28T12:52:54Z</time></trkpt><trkpt lat="45.612354469099955" lon="10.725656971641259"><ele>373.0</ele><time>2026-03-28T12:52:55Z</time></trkpt><trkpt lat="45.61243501628694" lon="10.725543877357275"><ele>373.0</ele><time>2026-03-28T12:52:56Z</time></trkpt><trkpt lat="45.61250503441368" lon="10.725430266596533"><ele>373.0</ele><time>2026-03-28T12:52:57Z</time></trkpt><trkpt lat="45.61258594631467" lon="10.725374511335906"><ele>373.0</ele><time>2026-03-28T12:52:58Z</time></trkpt><trkpt lat="45.612654733862726" lon="10.725284369516094"><ele>373.0</ele><time>2026-03-28T12:52:59Z</time></trkpt><trkpt lat="45.61272568999131" lon="10.725212430289359"><ele>373.0</ele><time>2026-03-28T12:53:00Z</time></trkpt><trkpt lat="45.61277797512491" lon="10.725130823320352"><ele>372.16666666666663</ele><time>2026-03-28T12:53:01Z</time></trkpt><trkpt lat="45.612823033092155" lon="10.725043004864132"><ele>371.3333333333333</ele><time>2026-03-28T12:53:02Z</time></trkpt><trkpt lat="45.612856605676335" lon="10.724953404233629"><ele>370.5</ele><time>2026-03-28T12:53:03Z</time></trkpt><trkpt lat="45.6128677761286" lon="10.724791043184132"><ele>369.6666666666667</ele><time>2026-03-28T12:53:05Z</time></trkpt><trkpt lat="45.612816291206386" lon="10.724710482682065"><ele>368.83333333333337</ele><time>2026-03-28T12:53:06Z</time></trkpt><trkpt lat="45.61272899320742" lon="10.724681522681694"><ele>368.0</ele><time>2026-03-28T12:53:07Z</time></trkpt><trkpt lat="45.61264518325381" lon="10.724645348781923"><ele>368.0</ele><time>2026-03-28T12:53:08Z</time></trkpt><trkpt lat="45.612536487566686" lon="10.724638432152688"><ele>368.0</ele><time>2026-03-28T12:53:09Z</time></trkpt><trkpt lat="45.612410094419374" lon="10.724649772658601"><ele>368.0</ele><time>2026-03-28T12:53:10Z</time></trkpt><trkpt lat="45.612290879010025" lon="10.724641179964657"><ele>368.0</ele><time>2026-03-28T12:53:11Z</time></trkpt><trkpt lat="45.61219289316362" lon="10.724653909390987"><ele>368.0</ele><time>2026-03-28T12:53:12Z</time></trkpt><trkpt lat="45.612085383626656" lon="10.724689050041736"><ele>368.0</ele><time>2026-03-28T12:53:13Z</time></trkpt><trkpt lat="45.611968018389206" lon="10.724749410084305"><ele>368.0</ele><time>2026-03-28T12:53:14Z</time></trkpt><trkpt lat="45.61184174047224" lon="10.724815088435424"><ele>368.0</ele><time>2026-03-28T12:53:15Z</time></trkpt><trkpt lat="45.61171771796372" lon="10.724841829477983"><ele>365.59999999999997</ele><time>2026-03-28T12:53:16Z</time></trkpt><trkpt lat="45.61161268354371" lon="10.72491980140445"><ele>363.2</ele><time>2026-03-28T12:53:17Z</time></trkpt><trkpt lat="45.61151549791251" lon="10.724970181063735"><ele>360.8</ele><time>2026-03-28T12:53:18Z</time></trkpt><trkpt lat="45.61142536244248" lon="10.725005633115202"><ele>358.4</ele><time>2026-03-28T12:53:19Z</time></trkpt><trkpt lat="45.61135130283262" lon="10.725020887238445"><ele>356.0</ele><time>2026-03-28T12:53:20Z</time></trkpt><trkpt lat="45.61123557058894" lon="10.72505071988648"><ele>354.5</ele><time>2026-03-28T12:53:22Z</time></trkpt><trkpt lat="45.61114375384933" lon="10.72499781874647"><ele>353.0</ele><time>2026-03-28T12:53:23Z</time></trkpt><trkpt lat="45.611010956920644" lon="10.72512792708737"><ele>351.5</ele><time>2026-03-28T12:53:24Z</time></trkpt><trkpt lat="45.61086011181344" lon="10.725182012828926"><ele>350.0</ele><time>2026-03-28T12:53:25Z</time></trkpt><trkpt lat="45.610688886251296" lon="10.725204291880628"><ele>350.0</ele><time>2026-03-28T12:53:26Z</time></trkpt><trkpt lat="45.61050126273797" lon="10.725187571100092"><ele>350.0</ele><time>2026-03-28T12:53:27Z</time></trkpt><trkpt lat="45.610312927180814" lon="10.725145957782315"><ele>350.0</ele><time>2026-03-28T12:53:28Z</time></trkpt><trkpt lat="45.61014007616638" lon="10.725112925428173"><ele>347.6666666666667</ele><time>2026-03-28T12:53:29Z</time></trkpt><trkpt lat="45.60997694366457" lon="10.725089672611546"><ele>345.3333333333333</ele><time>2026-03-28T12:53:30Z</time></trkpt><trkpt lat="45.609810956902436" lon="10.72507346200162"><ele>343.0</ele><time>2026-03-28T12:53:31Z</time></trkpt><trkpt lat="45.609660261620284" lon="10.725084204905496"><ele>343.0</ele><time>2026-03-28T12:53:32Z</time></trkpt><trkpt lat="45.609510746317" lon="10.725111268835446"><ele>343.0</ele><time>2026-03-28T12:53:33Z</time></trkpt><trkpt lat="45.60935932249048" lon="10.725132521283037"><ele>343.0</ele><time>2026-03-28T12:53:34Z</time></trkpt><trkpt lat="45.60920962152928" lon="10.725152869095655"><ele>341.5</ele><time>2026-03-28T12:53:35Z</time></trkpt><trkpt lat="45.609066289897704" lon="10.72517601055861"><ele>340.0</ele><time>2026-03-28T12:53:36Z</time></trkpt><trkpt lat="45.60892600955337" lon="10.72519804208606"><ele>338.5</ele><time>2026-03-28T12:53:37Z</time></trkpt><trkpt lat="45.60879459289411" lon="10.725219159194154"><ele>337.0</ele><time>2026-03-28T12:53:38Z</time></trkpt><trkpt lat="45.60867455823629" lon="10.725238096927852"><ele>336.0</ele><time>2026-03-28T12:53:39Z</time></trkpt><trkpt lat="45.60857461601964" lon="10.725256220569776"><ele>335.0</ele><time>2026-03-28T12:53:40Z</time></trkpt><trkpt lat="45.60849203479143" lon="10.725292395811966"><ele>334.0</ele><time>2026-03-28T12:53:41Z</time></trkpt><trkpt lat="45.60842862532067" lon="10.725363365408102"><ele>333.0</ele><time>2026-03-28T12:53:42Z</time></trkpt><trkpt lat="45.60840129572214" lon="10.725461630775435"><ele>332.0</ele><time>2026-03-28T12:53:43Z</time></trkpt><trkpt lat="45.60840392928773" lon="10.725583713329828"><ele>331.0</ele><time>2026-03-28T12:53:44Z</time></trkpt><trkpt lat="45.60844997850638" lon="10.725693869311717"><ele>331.0</ele><time>2026-03-28T12:53:45Z</time></trkpt><trkpt lat="45.60852772513455" lon="10.725778530315845"><ele>331.0</ele><time>2026-03-28T12:53:46Z</time></trkpt><trkpt lat="45.60862144736565" lon="10.725805780515985"><ele>331.0</ele><time>2026-03-28T12:53:47Z</time></trkpt><trkpt lat="45.608715182536415" lon="10.725767558956022"><ele>331.0</ele><time>2026-03-28T12:53:48Z</time></trkpt><trkpt lat="45.60880099359054" lon="10.725678472801224"><ele>331.0</ele><time>2026-03-28T12:53:49Z</time></trkpt><trkpt lat="45.60887787841271" lon="10.725623683494165"><ele>331.5</ele><time>2026-03-28T12:53:50Z</time></trkpt><trkpt lat="45.608969739658086" lon="10.725565075891627"><ele>332.0</ele><time>2026-03-28T12:53:52Z</time></trkpt><trkpt lat="45.608994428011336" lon="10.725653623834338"><ele>332.5</ele><time>2026-03-28T12:53:53Z</time></trkpt><trkpt lat="45.608975836201395" lon="10.725748765751417"><ele>333.0</ele><time>2026-03-28T12:53:54Z</time></trkpt><trkpt lat="45.608916233120254" lon="10.725819176959664"><ele>333.5</ele><time>2026-03-28T12:53:55Z</time></trkpt><trkpt lat="45.60881458145088" lon="10.725855227087177"><ele>334.0</ele><time>2026-03-28T12:53:56Z</time></trkpt><trkpt lat="45.60868641993357" lon="10.725908413630776"><ele>333.0</ele><time>2026-03-28T12:53:57Z</time></trkpt><trkpt lat="45.60853921969936" lon="10.725984635150242"><ele>332.0</ele><time>2026-03-28T12:53:58Z</time></trkpt><trkpt lat="45.60838126931904" lon="10.726075869605264"><ele>331.0</ele><time>2026-03-28T12:53:59Z</time></trkpt><trkpt lat="45.60822571896276" lon="10.726168674147658"><ele>328.3333333333333</ele><time>2026-03-28T12:54:00Z</time></trkpt><trkpt lat="45.60806140935814" lon="10.726247426555476"><ele>325.6666666666667</ele><time>2026-03-28T12:54:01Z</time></trkpt><trkpt lat="45.607897002398154" lon="10.726288237187672"><ele>323.0</ele><time>2026-03-28T12:54:02Z</time></trkpt><trkpt lat="45.607743823426546" lon="10.726293806616283"><ele>322.0</ele><time>2026-03-28T12:54:03Z</time></trkpt><trkpt lat="45.60759430869898" lon="10.726289102529837"><ele>321.0</ele><time>2026-03-28T12:54:04Z</time></trkpt><trkpt lat="45.607451476359444" lon="10.726288968872046"><ele>320.0</ele><time>2026-03-28T12:54:05Z</time></trkpt><trkpt lat="45.607316660909085" lon="10.726293363860407"><ele>319.0</ele><time>2026-03-28T12:54:06Z</time></trkpt><trkpt lat="45.60720294879873" lon="10.726308564706079"><ele>319.0</ele><time>2026-03-28T12:54:07Z</time></trkpt><trkpt lat="45.60710276584335" lon="10.726330030585892"><ele>319.0</ele><time>2026-03-28T12:54:08Z</time></trkpt><trkpt lat="45.60701487072128" lon="10.726364075519953"><ele>319.0</ele><time>2026-03-28T12:54:09Z</time></trkpt><trkpt lat="45.60694315941511" lon="10.726407066454849"><ele>319.0</ele><time>2026-03-28T12:54:10Z</time></trkpt><trkpt lat="45.60688701033221" lon="10.726466370045754"><ele>319.0</ele><time>2026-03-28T12:54:11Z</time></trkpt><trkpt lat="45.606811426652136" lon="10.726565550912742"><ele>319.0</ele><time>2026-03-28T12:54:13Z</time></trkpt><trkpt lat="45.60673653386422" lon="10.726582221124367"><ele>318.59999999999997</ele><time>2026-03-28T12:54:16Z</time></trkpt><trkpt lat="45.60675279722318" lon="10.726491488308032"><ele>318.2</ele><time>2026-03-28T12:54:18Z</time></trkpt><trkpt lat="45.60674582636457" lon="10.726309280353018"><ele>317.79999999999995</ele><time>2026-03-28T12:54:20Z</time></trkpt><trkpt lat="45.606726490744634" lon="10.726186002744667"><ele>317.4</ele><time>2026-03-28T12:54:21Z</time></trkpt><trkpt lat="45.60673429761311" lon="10.72608308238503"><ele>317.0</ele><time>2026-03-28T12:54:22Z</time></trkpt><trkpt lat="45.606720226048516" lon="10.725942680617617"><ele>317.0</ele><time>2026-03-28T12:54:24Z</time></trkpt><trkpt lat="45.606714939533774" lon="10.725808012797822"><ele>317.0</ele><time>2026-03-28T12:54:27Z</time></trkpt><trkpt lat="45.60672391286477" lon="10.725907179845283"><ele>317.0</ele><time>2026-03-28T12:54:59Z</time></trkpt><trkpt lat="45.606717192639906" lon="10.72605519128254"><ele>317.0</ele><time>2026-03-28T12:55:01Z</time></trkpt><trkpt lat="45.60672569580097" lon="10.72614515012214"><ele>317.0</ele><time>2026-03-28T12:55:02Z</time></trkpt><trkpt lat="45.60673900658983" lon="10.726289717204516"><ele>317.0</ele><time>2026-03-28T12:55:04Z</time></trkpt><trkpt lat="45.60674424302021" lon="10.726394705444802"><ele>317.0</ele><time>2026-03-28T12:55:05Z</time></trkpt><trkpt lat="45.60674668394502" lon="10.72649341328423"><ele>317.0</ele><time>2026-03-28T12:55:06Z</time></trkpt><trkpt lat="45.6067618877322" lon="10.72658367981295"><ele>317.0</ele><time>2026-03-28T12:55:08Z</time></trkpt><trkpt lat="45.60678191620789" lon="10.726697574836676"><ele>317.0</ele><time>2026-03-28T12:55:12Z</time></trkpt><trkpt lat="45.606684619432066" lon="10.726755355213507"><ele>317.0</ele><time>2026-03-28T12:55:13Z</time></trkpt><trkpt lat="45.60651537382184" lon="10.726765634743206"><ele>317.0</ele><time>2026-03-28T12:55:25Z</time></trkpt><trkpt lat="45.606547573080995" lon="10.726537445378518"><ele>317.0</ele><time>2026-03-28T12:55:26Z</time></trkpt><trkpt lat="45.60653454392193" lon="10.726437575831659"><ele>317.0</ele><time>2026-03-28T12:55:27Z</time></trkpt><trkpt lat="45.606523278971736" lon="10.726331448810983"><ele>317.0</ele><time>2026-03-28T12:55:28Z</time></trkpt><trkpt lat="45.60651646268159" lon="10.726226505703837"><ele>317.0</ele><time>2026-03-28T12:55:29Z</time></trkpt><trkpt lat="45.60648858335693" lon="10.726098396899223"><ele>316.5</ele><time>2026-03-28T12:55:30Z</time></trkpt><trkpt lat="45.60646128843401" lon="10.725956911708806"><ele>316.0</ele><time>2026-03-28T12:55:31Z</time></trkpt><trkpt lat="45.60644211696628" lon="10.725794624327541"><ele>315.5</ele><time>2026-03-28T12:55:32Z</time></trkpt><trkpt lat="45.60643851373113" lon="10.725620315752503"><ele>315.0</ele><time>2026-03-28T12:55:33Z</time></trkpt><trkpt lat="45.60644699610094" lon="10.725462714779585"><ele>315.0</ele><time>2026-03-28T12:55:34Z</time></trkpt><trkpt lat="45.60646925056" lon="10.725278566331408"><ele>315.0</ele><time>2026-03-28T12:55:35Z</time></trkpt><trkpt lat="45.60650402759209" lon="10.725105675219456"><ele>315.0</ele><time>2026-03-28T12:55:36Z</time></trkpt><trkpt lat="45.60654782103669" lon="10.724960750345657"><ele>315.0</ele><time>2026-03-28T12:55:37Z</time></trkpt><trkpt lat="45.60658721361834" lon="10.724796691689674"><ele>313.75</ele><time>2026-03-28T12:55:38Z</time></trkpt><trkpt lat="45.606665659304134" lon="10.724623897226607"><ele>312.5</ele><time>2026-03-28T12:55:39Z</time></trkpt><trkpt lat="45.60674781922833" lon="10.724448448449373"><ele>311.25</ele><time>2026-03-28T12:55:40Z</time></trkpt><trkpt lat="45.60681909864501" lon="10.724295139706948"><ele>310.0</ele><time>2026-03-28T12:55:41Z</time></trkpt><trkpt lat="45.60688369009184" lon="10.724146086790379"><ele>308.6</ele><time>2026-03-28T12:55:42Z</time></trkpt><trkpt lat="45.60693557194115" lon="10.72400661947706"><ele>307.2</ele><time>2026-03-28T12:55:43Z</time></trkpt><trkpt lat="45.606954219391056" lon="10.72388200755735"><ele>305.8</ele><time>2026-03-28T12:55:44Z</time></trkpt><trkpt lat="45.60695927586943" lon="10.723769005483245"><ele>304.4</ele><time>2026-03-28T12:55:45Z</time></trkpt><trkpt lat="45.60690070027157" lon="10.72366160916661"><ele>303.0</ele><time>2026-03-28T12:55:46Z</time></trkpt><trkpt lat="45.60687576577768" lon="10.723558111669917"><ele>302.8333333333333</ele><time>2026-03-28T12:55:47Z</time></trkpt><trkpt lat="45.6068339726506" lon="10.723471976060114"><ele>302.6666666666667</ele><time>2026-03-28T12:55:48Z</time></trkpt><trkpt lat="45.606825294049536" lon="10.723358893639421"><ele>302.5</ele><time>2026-03-28T12:55:49Z</time></trkpt><trkpt lat="45.60680919654531" lon="10.723267955097338"><ele>302.33333333333337</ele><time>2026-03-28T12:55:50Z</time></trkpt><trkpt lat="45.60668968760943" lon="10.723198520905033"><ele>302.1666666666667</ele><time>2026-03-28T12:55:52Z</time></trkpt><trkpt lat="45.606611482731026" lon="10.723140705116808"><ele>302.0</ele><time>2026-03-28T12:55:54Z</time></trkpt><trkpt lat="45.60652441126422" lon="10.723130363227785"><ele>302.0</ele><time>2026-03-28T12:55:56Z</time></trkpt><trkpt lat="45.6065007580298" lon="10.72326791209429"><ele>302.0</ele><time>2026-03-28T12:55:58Z</time></trkpt><trkpt lat="45.60653580320916" lon="10.723351711675441"><ele>302.0</ele><time>2026-03-28T12:55:59Z</time></trkpt><trkpt lat="45.60658295049424" lon="10.723447862306923"><ele>302.0</ele><time>2026-03-28T12:56:00Z</time></trkpt><trkpt lat="45.606635432411075" lon="10.723530076526375"><ele>302.0</ele><time>2026-03-28T12:56:01Z</time></trkpt><trkpt lat="45.60674497017212" lon="10.723564466502635"><ele>302.0</ele><time>2026-03-28T12:56:03Z</time></trkpt><trkpt lat="45.606833830477655" lon="10.723447392893128"><ele>302.0</ele><time>2026-03-28T12:56:05Z</time></trkpt><trkpt lat="45.60683351621524" lon="10.723255137362777"><ele>302.0</ele><time>2026-03-28T12:56:07Z</time></trkpt><trkpt lat="45.606793061676925" lon="10.723176805444302"><ele>302.0</ele><time>2026-03-28T12:56:08Z</time></trkpt><trkpt lat="45.606816100377195" lon="10.72309266854647"><ele>302.0</ele><time>2026-03-28T12:56:09Z</time></trkpt><trkpt lat="45.60677225640543" lon="10.722919694782357"><ele>302.0</ele><time>2026-03-28T12:56:11Z</time></trkpt><trkpt lat="45.60670628936312" lon="10.722810564054363"><ele>303.6666666666667</ele><time>2026-03-28T12:56:12Z</time></trkpt><trkpt lat="45.60661883786466" lon="10.722729789146792"><ele>305.33333333333337</ele><time>2026-03-28T12:56:13Z</time></trkpt><trkpt lat="45.606521622672794" lon="10.722660229142612"><ele>307.0</ele><time>2026-03-28T12:56:14Z</time></trkpt><trkpt lat="45.60644788656713" lon="10.722614130771658"><ele>308.6666666666667</ele><time>2026-03-28T12:56:15Z</time></trkpt><trkpt lat="45.606390116550145" lon="10.722572111851749"><ele>310.3333333333333</ele><time>2026-03-28T12:56:16Z</time></trkpt><trkpt lat="45.60632534430392" lon="10.72253955662772"><ele>312.0</ele><time>2026-03-28T12:56:17Z</time></trkpt><trkpt lat="45.60623999683092" lon="10.722526791005976"><ele>312.75</ele><time>2026-03-28T12:56:18Z</time></trkpt><trkpt lat="45.60614522038581" lon="10.722502204359563"><ele>313.5</ele><time>2026-03-28T12:56:19Z</time></trkpt><trkpt lat="45.60603138103383" lon="10.722473678371179"><ele>314.25</ele><time>2026-03-28T12:56:20Z</time></trkpt><trkpt lat="45.605903196785825" lon="10.722443208539463"><ele>315.0</ele><time>2026-03-28T12:56:21Z</time></trkpt><trkpt lat="45.60577864727955" lon="10.722410287962898"><ele>315.0</ele><time>2026-03-28T12:56:22Z</time></trkpt><trkpt lat="45.605635627868594" lon="10.722378526498915"><ele>315.0</ele><time>2026-03-28T12:56:23Z</time></trkpt><trkpt lat="45.60550798203281" lon="10.722335888298344"><ele>315.0</ele><time>2026-03-28T12:56:24Z</time></trkpt><trkpt lat="45.6054127169303" lon="10.72230939863625"><ele>315.0</ele><time>2026-03-28T12:56:25Z</time></trkpt><trkpt lat="45.605356009618504" lon="10.722269610676344"><ele>315.0</ele><time>2026-03-28T12:56:26Z</time></trkpt><trkpt lat="45.60531773274806" lon="10.72219688177705"><ele>314.8</ele><time>2026-03-28T12:56:27Z</time></trkpt><trkpt lat="45.60530909361301" lon="10.722074968467927"><ele>314.6</ele><time>2026-03-28T12:56:28Z</time></trkpt><trkpt lat="45.60527399573918" lon="10.721944220383282"><ele>314.4</ele><time>2026-03-28T12:56:29Z</time></trkpt><trkpt lat="45.60526675990554" lon="10.72185255968729"><ele>314.2</ele><time>2026-03-28T12:56:30Z</time></trkpt><trkpt lat="45.60531625991317" lon="10.721710786039766"><ele>314.0</ele><time>2026-03-28T12:56:32Z</time></trkpt><trkpt lat="45.6053854960601" lon="10.721622901874882"><ele>316.79999999999995</ele><time>2026-03-28T12:56:33Z</time></trkpt><trkpt lat="45.60545209394265" lon="10.721525365193038"><ele>319.59999999999997</ele><time>2026-03-28T12:56:34Z</time></trkpt><trkpt lat="45.605528882296554" lon="10.721399864805635"><ele>322.4</ele><time>2026-03-28T12:56:35Z</time></trkpt><trkpt lat="45.60559988823528" lon="10.721317074333939"><ele>325.2</ele><time>2026-03-28T12:56:36Z</time></trkpt><trkpt lat="45.60568031668892" lon="10.721330546133874"><ele>328.0</ele><time>2026-03-28T12:56:37Z</time></trkpt><trkpt lat="45.605761527108896" lon="10.721301134232984"><ele>328.0</ele><time>2026-03-28T12:56:38Z</time></trkpt><trkpt lat="45.60585409194755" lon="10.721279603626465"><ele>328.0</ele><time>2026-03-28T12:56:39Z</time></trkpt><trkpt lat="45.60594217504724" lon="10.721228110234877"><ele>328.0</ele><time>2026-03-28T12:56:40Z</time></trkpt><trkpt lat="45.60602171693695" lon="10.721138927519315"><ele>328.0</ele><time>2026-03-28T12:56:41Z</time></trkpt><trkpt lat="45.60607797830436" lon="10.721023349332743"><ele>328.0</ele><time>2026-03-28T12:56:42Z</time></trkpt><trkpt lat="45.60611326721797" lon="10.72088980944244"><ele>328.25</ele><time>2026-03-28T12:56:43Z</time></trkpt><trkpt lat="45.60614093097686" lon="10.720717170979347"><ele>328.5</ele><time>2026-03-28T12:56:44Z</time></trkpt><trkpt lat="45.60617489791972" lon="10.720539185128867"><ele>328.75</ele><time>2026-03-28T12:56:45Z</time></trkpt><trkpt lat="45.606247554056075" lon="10.720413928566368"><ele>329.0</ele><time>2026-03-28T12:56:46Z</time></trkpt><trkpt lat="45.606314458442576" lon="10.720315859891707"><ele>331.6</ele><time>2026-03-28T12:56:47Z</time></trkpt><trkpt lat="45.60640034023471" lon="10.720224690619656"><ele>334.2</ele><time>2026-03-28T12:56:48Z</time></trkpt><trkpt lat="45.60650011041694" lon="10.72012892391205"><ele>336.8</ele><time>2026-03-28T12:56:49Z</time></trkpt><trkpt lat="45.606588781442824" lon="10.720029541241091"><ele>339.40000000000003</ele><time>2026-03-28T12:56:50Z</time></trkpt><trkpt lat="45.60667266567287" lon="10.71994723166959"><ele>342.0</ele><time>2026-03-28T12:56:51Z</time></trkpt><trkpt lat="45.60673647731227" lon="10.719865778036826"><ele>342.0</ele><time>2026-03-28T12:56:52Z</time></trkpt><trkpt lat="45.60676671109229" lon="10.719748739673502"><ele>342.0</ele><time>2026-03-28T12:56:54Z</time></trkpt><trkpt lat="45.606733124527686" lon="10.71955551826415"><ele>342.0</ele><time>2026-03-28T12:56:56Z</time></trkpt><trkpt lat="45.606719619149914" lon="10.71944411103449"><ele>342.0</ele><time>2026-03-28T12:56:57Z</time></trkpt><trkpt lat="45.60666242338124" lon="10.719376061410351"><ele>342.0</ele><time>2026-03-28T12:56:58Z</time></trkpt><trkpt lat="45.60663143566589" lon="10.719242049055977"><ele>343.0</ele><time>2026-03-28T12:57:00Z</time></trkpt><trkpt lat="45.60661969496123" lon="10.719137054147412"><ele>344.0</ele><time>2026-03-28T12:57:02Z</time></trkpt><trkpt lat="45.60661738527205" lon="10.719039992270577"><ele>345.0</ele><time>2026-03-28T12:57:04Z</time></trkpt><trkpt lat="45.606903902918916" lon="10.718936589350548"><ele>346.0</ele><time>2026-03-28T12:57:05Z</time></trkpt><trkpt lat="45.60698053003696" lon="10.718862464483863"><ele>348.66666666666663</ele><time>2026-03-28T12:57:06Z</time></trkpt><trkpt lat="45.607071976402096" lon="10.718794826068466"><ele>351.3333333333333</ele><time>2026-03-28T12:57:07Z</time></trkpt><trkpt lat="45.60714676405135" lon="10.718728999529267"><ele>354.0</ele><time>2026-03-28T12:57:08Z</time></trkpt><trkpt lat="45.60721896532123" lon="10.718665838673854"><ele>356.6666666666667</ele><time>2026-03-28T12:57:09Z</time></trkpt><trkpt lat="45.60727291560039" lon="10.718608196755998"><ele>359.33333333333337</ele><time>2026-03-28T12:57:10Z</time></trkpt><trkpt lat="45.60734351304059" lon="10.718534662141154"><ele>362.0</ele><time>2026-03-28T12:57:12Z</time></trkpt><trkpt lat="45.60740023241212" lon="10.718441367917805"><ele>362.1666666666667</ele><time>2026-03-28T12:57:14Z</time></trkpt><trkpt lat="45.60741999272899" lon="10.718347211302339"><ele>362.33333333333337</ele><time>2026-03-28T12:57:16Z</time></trkpt><trkpt lat="45.60742260946699" lon="10.718231633789099"><ele>362.5</ele><time>2026-03-28T12:57:18Z</time></trkpt><trkpt lat="45.6073949358196" lon="10.718121689580029"><ele>362.6666666666667</ele><time>2026-03-28T12:57:19Z</time></trkpt><trkpt lat="45.607364436721554" lon="10.717978182354823"><ele>362.8333333333333</ele><time>2026-03-28T12:57:20Z</time></trkpt><trkpt lat="45.60734128452875" lon="10.717836676573846"><ele>363.0</ele><time>2026-03-28T12:57:21Z</time></trkpt><trkpt lat="45.60731722076636" lon="10.717708262645326"><ele>362.59999999999997</ele><time>2026-03-28T12:57:22Z</time></trkpt><trkpt lat="45.60729561743245" lon="10.717615196573274"><ele>362.2</ele><time>2026-03-28T12:57:23Z</time></trkpt><trkpt lat="45.607266078488855" lon="10.717453260790714"><ele>361.8</ele><time>2026-03-28T12:57:25Z</time></trkpt><trkpt lat="45.607242639288565" lon="10.717333699023952"><ele>361.4</ele><time>2026-03-28T12:57:27Z</time></trkpt><trkpt lat="45.607246399001056" lon="10.717164276233397"><ele>361.0</ele><time>2026-03-28T12:57:29Z</time></trkpt><trkpt lat="45.607303544333796" lon="10.717096120131119"><ele>361.0</ele><time>2026-03-28T12:57:31Z</time></trkpt><trkpt lat="45.607367162105675" lon="10.717123516010954"><ele>361.0</ele><time>2026-03-28T12:57:34Z</time></trkpt><trkpt lat="45.607444996679796" lon="10.71713173105341"><ele>361.0</ele><time>2026-03-28T12:57:57Z</time></trkpt><trkpt lat="45.60752483435686" lon="10.717107922168516"><ele>361.0</ele><time>2026-03-28T12:58:00Z</time></trkpt><trkpt lat="45.6076509806416" lon="10.717110691494575"><ele>361.0</ele><time>2026-03-28T12:58:02Z</time></trkpt><trkpt lat="45.607726914151755" lon="10.717126436849972"><ele>361.0</ele><time>2026-03-28T12:58:03Z</time></trkpt><trkpt lat="45.60780735715143" lon="10.71711836973714"><ele>363.3333333333333</ele><time>2026-03-28T12:58:04Z</time></trkpt><trkpt lat="45.60788986492847" lon="10.71711280130874"><ele>365.66666666666663</ele><time>2026-03-28T12:58:05Z</time></trkpt><trkpt lat="45.60797863093034" lon="10.7171161281209"><ele>368.0</ele><time>2026-03-28T12:58:06Z</time></trkpt><trkpt lat="45.60804641284538" lon="10.717132626680673"><ele>370.3333333333333</ele><time>2026-03-28T12:58:07Z</time></trkpt><trkpt lat="45.608128823717976" lon="10.717143865686882"><ele>372.6666666666667</ele><time>2026-03-28T12:58:08Z</time></trkpt><trkpt lat="45.60820201884853" lon="10.71714707379807"><ele>375.0</ele><time>2026-03-28T12:58:09Z</time></trkpt><trkpt lat="45.608286503092216" lon="10.717150055346886"><ele>375.0</ele><time>2026-03-28T12:58:10Z</time></trkpt><trkpt lat="45.60836663802187" lon="10.717158497767956"><ele>375.0</ele><time>2026-03-28T12:58:11Z</time></trkpt><trkpt lat="45.60843781886509" lon="10.717167284190936"><ele>375.0</ele><time>2026-03-28T12:58:12Z</time></trkpt><trkpt lat="45.608503404969056" lon="10.71718882809721"><ele>375.0</ele><time>2026-03-28T12:58:13Z</time></trkpt><trkpt lat="45.60857254579511" lon="10.717166145621617"><ele>375.0</ele><time>2026-03-28T12:58:14Z</time></trkpt><trkpt lat="45.608688907566" lon="10.717106456133541"><ele>375.0</ele><time>2026-03-28T12:58:16Z</time></trkpt><trkpt lat="45.60877989290005" lon="10.717053776350825"><ele>376.0</ele><time>2026-03-28T12:58:17Z</time></trkpt><trkpt lat="45.608890279934066" lon="10.716978596176295"><ele>377.0</ele><time>2026-03-28T12:58:18Z</time></trkpt><trkpt lat="45.60898167462721" lon="10.716918598716363"><ele>378.0</ele><time>2026-03-28T12:58:19Z</time></trkpt><trkpt lat="45.609070982813485" lon="10.71686765475106"><ele>379.0</ele><time>2026-03-28T12:58:20Z</time></trkpt><trkpt lat="45.60916439990144" lon="10.716818439487657"><ele>380.0</ele><time>2026-03-28T12:58:21Z</time></trkpt><trkpt lat="45.609252318192105" lon="10.716791881683005"><ele>380.0</ele><time>2026-03-28T12:58:22Z</time></trkpt><trkpt lat="45.60932837481998" lon="10.716772891802131"><ele>380.0</ele><time>2026-03-28T12:58:23Z</time></trkpt><trkpt lat="45.609418258501" lon="10.716743283956765"><ele>380.0</ele><time>2026-03-28T12:58:24Z</time></trkpt><trkpt lat="45.609525063971354" lon="10.716695785223104"><ele>380.0</ele><time>2026-03-28T12:58:25Z</time></trkpt><trkpt lat="45.609640388137045" lon="10.716664340434622"><ele>380.0</ele><time>2026-03-28T12:58:26Z</time></trkpt><trkpt lat="45.60975941532144" lon="10.716640514974788"><ele>384.25</ele><time>2026-03-28T12:58:27Z</time></trkpt><trkpt lat="45.60988890650932" lon="10.716617193725966"><ele>388.5</ele><time>2026-03-28T12:58:28Z</time></trkpt><trkpt lat="45.61000848250262" lon="10.716589177552104"><ele>392.75</ele><time>2026-03-28T12:58:29Z</time></trkpt><trkpt lat="45.61010887115735" lon="10.71654363228226"><ele>397.0</ele><time>2026-03-28T12:58:30Z</time></trkpt><trkpt lat="45.61021581691756" lon="10.71649397229464"><ele>399.5</ele><time>2026-03-28T12:58:31Z</time></trkpt><trkpt lat="45.61032677947064" lon="10.716446694963379"><ele>402.0</ele><time>2026-03-28T12:58:32Z</time></trkpt><trkpt lat="45.61045072258567" lon="10.716392236576871"><ele>404.5</ele><time>2026-03-28T12:58:33Z</time></trkpt><trkpt lat="45.61057969271954" lon="10.71633371544993"><ele>407.0</ele><time>2026-03-28T12:58:34Z</time></trkpt><trkpt lat="45.610717327533045" lon="10.716292940373375"><ele>407.0</ele><time>2026-03-28T12:58:35Z</time></trkpt><trkpt lat="45.61085388631625" lon="10.716260969170929"><ele>407.0</ele><time>2026-03-28T12:58:36Z</time></trkpt><trkpt lat="45.61098231446645" lon="10.716222258342123"><ele>407.0</ele><time>2026-03-28T12:58:37Z</time></trkpt><trkpt lat="45.611119281093764" lon="10.71618615557157"><ele>407.0</ele><time>2026-03-28T12:58:38Z</time></trkpt><trkpt lat="45.61124481720533" lon="10.716147237971713"><ele>409.25</ele><time>2026-03-28T12:58:39Z</time></trkpt><trkpt lat="45.611376221919784" lon="10.716098809633774"><ele>411.5</ele><time>2026-03-28T12:58:40Z</time></trkpt><trkpt lat="45.61149917483397" lon="10.71604682622417"><ele>413.75</ele><time>2026-03-28T12:58:41Z</time></trkpt><trkpt lat="45.61160018732766" lon="10.715988646037912"><ele>416.0</ele><time>2026-03-28T12:58:42Z</time></trkpt><trkpt lat="45.61168636548554" lon="10.715935669236167"><ele>412.66666666666663</ele><time>2026-03-28T12:58:43Z</time></trkpt><trkpt lat="45.61176793154124" lon="10.715906906117983"><ele>409.3333333333333</ele><time>2026-03-28T12:58:44Z</time></trkpt><trkpt lat="45.61185312396807" lon="10.71588240582192"><ele>406.0</ele><time>2026-03-28T12:58:45Z</time></trkpt><trkpt lat="45.61192308528818" lon="10.715859024431206"><ele>402.66666666666663</ele><time>2026-03-28T12:58:46Z</time></trkpt><trkpt lat="45.61199575788202" lon="10.715826505726866"><ele>399.3333333333333</ele><time>2026-03-28T12:58:47Z</time></trkpt><trkpt lat="45.61206680468114" lon="10.715799943194927"><ele>396.0</ele><time>2026-03-28T12:58:48Z</time></trkpt><trkpt lat="45.61214406876211" lon="10.715805874123388"><ele>395.6</ele><time>2026-03-28T12:58:49Z</time></trkpt><trkpt lat="45.612226974596915" lon="10.715844003913174"><ele>395.20000000000005</ele><time>2026-03-28T12:58:50Z</time></trkpt><trkpt lat="45.61231244238823" lon="10.715908173178267"><ele>394.79999999999995</ele><time>2026-03-28T12:58:51Z</time></trkpt><trkpt lat="45.61240798500173" lon="10.715968877162274"><ele>394.4</ele><time>2026-03-28T12:58:52Z</time></trkpt><trkpt lat="45.61250149791146" lon="10.716012624065225"><ele>394.0</ele><time>2026-03-28T12:58:53Z</time></trkpt><trkpt lat="45.6125912230052" lon="10.716007002255102"><ele>394.0</ele><time>2026-03-28T12:58:54Z</time></trkpt><trkpt lat="45.61267057929814" lon="10.715963759261536"><ele>394.0</ele><time>2026-03-28T12:58:55Z</time></trkpt><trkpt lat="45.61275844111435" lon="10.715920698629914"><ele>394.0</ele><time>2026-03-28T12:58:56Z</time></trkpt><trkpt lat="45.61283817277666" lon="10.715909139368826"><ele>394.0</ele><time>2026-03-28T12:58:57Z</time></trkpt><trkpt lat="45.612935025504314" lon="10.715989893106922"><ele>394.0</ele><time>2026-03-28T12:58:59Z</time></trkpt><trkpt lat="45.613005415514905" lon="10.716093896461173"><ele>393.2</ele><time>2026-03-28T12:59:01Z</time></trkpt><trkpt lat="45.61307518409672" lon="10.716168935733497"><ele>392.4</ele><time>2026-03-28T12:59:03Z</time></trkpt><trkpt lat="45.61319754698524" lon="10.71618025617656"><ele>391.6</ele><time>2026-03-28T12:59:05Z</time></trkpt><trkpt lat="45.61326720996497" lon="10.716143176317663"><ele>390.8</ele><time>2026-03-28T12:59:06Z</time></trkpt><trkpt lat="45.61335348994152" lon="10.716098538112705"><ele>390.0</ele><time>2026-03-28T12:59:07Z</time></trkpt><trkpt lat="45.6134551612064" lon="10.716051284031941"><ele>390.0</ele><time>2026-03-28T12:59:08Z</time></trkpt><trkpt lat="45.613550108925175" lon="10.715994792794202"><ele>390.0</ele><time>2026-03-28T12:59:09Z</time></trkpt><trkpt lat="45.613642201630306" lon="10.71599329715845"><ele>390.0</ele><time>2026-03-28T12:59:10Z</time></trkpt><trkpt lat="45.613704873151875" lon="10.716025107610637"><ele>390.0</ele><time>2026-03-28T12:59:11Z</time></trkpt><trkpt lat="45.61378729903085" lon="10.716043254032266"><ele>390.0</ele><time>2026-03-28T12:59:12Z</time></trkpt><trkpt lat="45.61389263481848" lon="10.716059807028344"><ele>391.6666666666667</ele><time>2026-03-28T12:59:13Z</time></trkpt><trkpt lat="45.61398896183499" lon="10.71609605896875"><ele>393.33333333333337</ele><time>2026-03-28T12:59:14Z</time></trkpt><trkpt lat="45.61407502309657" lon="10.716139762562683"><ele>395.0</ele><time>2026-03-28T12:59:15Z</time></trkpt><trkpt lat="45.61414579412389" lon="10.716177795985052"><ele>396.6666666666667</ele><time>2026-03-28T12:59:16Z</time></trkpt><trkpt lat="45.614207824688656" lon="10.716201693309044"><ele>398.33333333333337</ele><time>2026-03-28T12:59:17Z</time></trkpt><trkpt lat="45.614289426249165" lon="10.716170075988412"><ele>400.0</ele><time>2026-03-28T12:59:19Z</time></trkpt><trkpt lat="45.61443788849971" lon="10.716105329510409"><ele>398.2</ele><time>2026-03-28T12:59:21Z</time></trkpt><trkpt lat="45.61453842011357" lon="10.716067654075076"><ele>396.4</ele><time>2026-03-28T12:59:22Z</time></trkpt><trkpt lat="45.61464535722736" lon="10.716033654408484"><ele>394.6</ele><time>2026-03-28T12:59:23Z</time></trkpt><trkpt lat="45.61473176540452" lon="10.715989318264409"><ele>392.8</ele><time>2026-03-28T12:59:24Z</time></trkpt><trkpt lat="45.614800842342945" lon="10.715931779643864"><ele>391.0</ele><time>2026-03-28T12:59:25Z</time></trkpt><trkpt lat="45.61486695460355" lon="10.71587653538107"><ele>391.0</ele><time>2026-03-28T12:59:26Z</time></trkpt><trkpt lat="45.61494861768727" lon="10.715779396706203"><ele>391.0</ele><time>2026-03-28T12:59:27Z</time></trkpt><trkpt lat="45.61503990756456" lon="10.715687942860246"><ele>391.0</ele><time>2026-03-28T12:59:28Z</time></trkpt><trkpt lat="45.615117417141526" lon="10.715603684571567"><ele>391.0</ele><time>2026-03-28T12:59:29Z</time></trkpt><trkpt lat="45.61519853443375" lon="10.715548962774294"><ele>391.0</ele><time>2026-03-28T12:59:30Z</time></trkpt><trkpt lat="45.61528822951402" lon="10.71551425541696"><ele>392.00000000000006</ele><time>2026-03-28T12:59:31Z</time></trkpt><trkpt lat="45.6153825102951" lon="10.715473733736886"><ele>393.0</ele><time>2026-03-28T12:59:32Z</time></trkpt><trkpt lat="45.615460663807326" lon="10.715415321665379"><ele>394.0</ele><time>2026-03-28T12:59:33Z</time></trkpt><trkpt lat="45.615532678861086" lon="10.715343979110806"><ele>395.0</ele><time>2026-03-28T12:59:34Z</time></trkpt><trkpt lat="45.61559570201028" lon="10.715266664591388"><ele>396.00000000000006</ele><time>2026-03-28T12:59:35Z</time></trkpt><trkpt lat="45.61565102498002" lon="10.715192581748056"><ele>397.0</ele><time>2026-03-28T12:59:36Z</time></trkpt><trkpt lat="45.615707497391135" lon="10.715119437624884"><ele>397.50000000000006</ele><time>2026-03-28T12:59:37Z</time></trkpt><trkpt lat="45.615757302949135" lon="10.714993571841376"><ele>398.0</ele><time>2026-03-28T12:59:39Z</time></trkpt><trkpt lat="45.615788263503056" lon="10.714846663620392"><ele>398.5</ele><time>2026-03-28T12:59:41Z</time></trkpt><trkpt lat="45.61583829829411" lon="10.714791405781856"><ele>399.0</ele><time>2026-03-28T12:59:53Z</time></trkpt><trkpt lat="45.61589561249783" lon="10.71472915707641"><ele>399.50000000000006</ele><time>2026-03-28T12:59:56Z</time></trkpt><trkpt lat="45.615958754336425" lon="10.714675070515074"><ele>400.0</ele><time>2026-03-28T12:59:59Z</time></trkpt><trkpt lat="45.6160180935917" lon="10.71463475090351"><ele>400.00000000000006</ele><time>2026-03-28T13:00:03Z</time></trkpt><trkpt lat="45.61608741880808" lon="10.714615039545563"><ele>400.0</ele><time>2026-03-28T13:02:17Z</time></trkpt><trkpt lat="45.61614370499719" lon="10.714569180334793"><ele>400.0</ele><time>2026-03-28T13:02:27Z</time></trkpt><trkpt lat="45.61621484943498" lon="10.714508290003858"><ele>400.0</ele><time>2026-03-28T13:02:30Z</time></trkpt><trkpt lat="45.616312758165535" lon="10.714470114913327"><ele>400.00000000000006</ele><time>2026-03-28T13:02:33Z</time></trkpt><trkpt lat="45.61637635143991" lon="10.714413071654912"><ele>400.0</ele><time>2026-03-28T13:02:35Z</time></trkpt><trkpt lat="45.61643974873765" lon="10.714377367222918"><ele>401.8</ele><time>2026-03-28T13:02:37Z</time></trkpt><trkpt lat="45.616513952822956" lon="10.71437851598406"><ele>403.6</ele><time>2026-03-28T13:02:39Z</time></trkpt><trkpt lat="45.616625206753795" lon="10.714367432843794"><ele>405.4</ele><time>2026-03-28T13:02:41Z</time></trkpt><trkpt lat="45.61672571691248" lon="10.714401385342448"><ele>407.2</ele><time>2026-03-28T13:02:43Z</time></trkpt><trkpt lat="45.616816763071895" lon="10.714443500817366"><ele>409.0</ele><time>2026-03-28T13:02:45Z</time></trkpt><trkpt lat="45.61688148111142" lon="10.714454323621805"><ele>409.50000000000006</ele><time>2026-03-28T13:02:47Z</time></trkpt><trkpt lat="45.616980816098234" lon="10.714485970162485"><ele>410.0</ele><time>2026-03-28T13:02:49Z</time></trkpt><trkpt lat="45.61704500092602" lon="10.714483341829098"><ele>410.5</ele><time>2026-03-28T13:02:50Z</time></trkpt><trkpt lat="45.61711114076095" lon="10.714469206580812"><ele>411.0</ele><time>2026-03-28T13:02:51Z</time></trkpt><trkpt lat="45.61719477490495" lon="10.714457189000633"><ele>411.50000000000006</ele><time>2026-03-28T13:02:52Z</time></trkpt><trkpt lat="45.617274734577975" lon="10.714443720950376"><ele>412.0</ele><time>2026-03-28T13:02:53Z</time></trkpt><trkpt lat="45.61738262686728" lon="10.714431860929155"><ele>414.6666666666667</ele><time>2026-03-28T13:02:54Z</time></trkpt><trkpt lat="45.61746860110323" lon="10.714422193296826"><ele>417.33333333333337</ele><time>2026-03-28T13:02:55Z</time></trkpt><trkpt lat="45.61756215573183" lon="10.714425522103083"><ele>420.0</ele><time>2026-03-28T13:02:56Z</time></trkpt><trkpt lat="45.61769344010506" lon="10.714440482640562"><ele>422.66666666666663</ele><time>2026-03-28T13:02:58Z</time></trkpt><trkpt lat="45.617757645916534" lon="10.71446774288037"><ele>425.3333333333333</ele><time>2026-03-28T13:02:59Z</time></trkpt><trkpt lat="45.617828025536156" lon="10.714476633051802"><ele>428.0</ele><time>2026-03-28T13:03:00Z</time></trkpt><trkpt lat="45.61789493921265" lon="10.714475322431584"><ele>428.59999999999997</ele><time>2026-03-28T13:03:01Z</time></trkpt><trkpt lat="45.61797156115736" lon="10.714442798096508"><ele>429.19999999999993</ele><time>2026-03-28T13:03:02Z</time></trkpt><trkpt lat="45.61805170676728" lon="10.71440153833521"><ele>429.8</ele><time>2026-03-28T13:03:03Z</time></trkpt><trkpt lat="45.61814163397925" lon="10.714330939676055"><ele>430.4</ele><time>2026-03-28T13:03:05Z</time></trkpt><trkpt lat="45.61813491965184" lon="10.71418910795709"><ele>431.0</ele><time>2026-03-28T13:03:07Z</time></trkpt><trkpt lat="45.61807232341491" lon="10.714039601354088"><ele>431.0</ele><time>2026-03-28T13:03:09Z</time></trkpt><trkpt lat="45.61807545687663" lon="10.7138939717317"><ele>431.0</ele><time>2026-03-28T13:03:11Z</time></trkpt><trkpt lat="45.61811710459015" lon="10.713762793110913"><ele>431.0</ele><time>2026-03-28T13:03:13Z</time></trkpt><trkpt lat="45.61812780698716" lon="10.71359812865282"><ele>431.0</ele><time>2026-03-28T13:03:15Z</time></trkpt><trkpt lat="45.61814456758454" lon="10.713441624789725"><ele>431.0</ele><time>2026-03-28T13:03:17Z</time></trkpt><trkpt lat="45.61817759667256" lon="10.713333237108356"><ele>431.20000000000005</ele><time>2026-03-28T13:03:19Z</time></trkpt><trkpt lat="45.61825205605322" lon="10.71324447106617"><ele>431.40000000000003</ele><time>2026-03-28T13:03:21Z</time></trkpt><trkpt lat="45.618334902971014" lon="10.713263288763343"><ele>431.6</ele><time>2026-03-28T13:03:22Z</time></trkpt><trkpt lat="45.61843513427053" lon="10.713233214561301"><ele>431.8</ele><time>2026-03-28T13:03:23Z</time></trkpt><trkpt lat="45.61855873615885" lon="10.713183211834568"><ele>432.0</ele><time>2026-03-28T13:03:24Z</time></trkpt><trkpt lat="45.618687769190196" lon="10.713147433578229"><ele>432.0</ele><time>2026-03-28T13:03:25Z</time></trkpt><trkpt lat="45.61880020414343" lon="10.713107822397296"><ele>432.0</ele><time>2026-03-28T13:03:26Z</time></trkpt><trkpt lat="45.618878478254906" lon="10.713080184122719"><ele>432.0</ele><time>2026-03-28T13:03:27Z</time></trkpt><trkpt lat="45.61895166177082" lon="10.713102308735516"><ele>432.0</ele><time>2026-03-28T13:03:29Z</time></trkpt><trkpt lat="45.61892568432341" lon="10.713234197015971"><ele>432.0</ele><time>2026-03-28T13:03:31Z</time></trkpt><trkpt lat="45.61885451124101" lon="10.713241507405156"><ele>432.0</ele><time>2026-03-28T13:03:32Z</time></trkpt><trkpt lat="45.61877000061327" lon="10.713242941069263"><ele>432.0</ele><time>2026-03-28T13:03:33Z</time></trkpt><trkpt lat="45.61867789267734" lon="10.7133018818003"><ele>432.00000000000006</ele><time>2026-03-28T13:03:34Z</time></trkpt><trkpt lat="45.618582803028055" lon="10.713353663111931"><ele>432.00000000000006</ele><time>2026-03-28T13:03:35Z</time></trkpt><trkpt lat="45.61850565318291" lon="10.713421325392373"><ele>432.0</ele><time>2026-03-28T13:03:36Z</time></trkpt><trkpt lat="45.61844595906615" lon="10.713520000472498"><ele>432.0</ele><time>2026-03-28T13:03:37Z</time></trkpt><trkpt lat="45.61840040562015" lon="10.713630394700445"><ele>431.8</ele><time>2026-03-28T13:03:38Z</time></trkpt><trkpt lat="45.61835951031758" lon="10.713760566070453"><ele>431.6</ele><time>2026-03-28T13:03:39Z</time></trkpt><trkpt lat="45.61833875051339" lon="10.713896114246491"><ele>431.40000000000003</ele><time>2026-03-28T13:03:40Z</time></trkpt><trkpt lat="45.61831927134772" lon="10.71404217267575"><ele>431.20000000000005</ele><time>2026-03-28T13:03:41Z</time></trkpt><trkpt lat="45.618288860148475" lon="10.714191873897496"><ele>431.0</ele><time>2026-03-28T13:03:42Z</time></trkpt><trkpt lat="45.618255024351875" lon="10.714371909019295"><ele>433.5</ele><time>2026-03-28T13:03:43Z</time></trkpt><trkpt lat="45.618221616721385" lon="10.714554711812626"><ele>436.0</ele><time>2026-03-28T13:03:44Z</time></trkpt><trkpt lat="45.61817809299458" lon="10.714754356988369"><ele>438.5</ele><time>2026-03-28T13:03:45Z</time></trkpt><trkpt lat="45.61813137237917" lon="10.714979330466184"><ele>441.0</ele><time>2026-03-28T13:03:46Z</time></trkpt><trkpt lat="45.61808602825012" lon="10.71519604105284"><ele>444.33333333333337</ele><time>2026-03-28T13:03:47Z</time></trkpt><trkpt lat="45.61803429657008" lon="10.715421242960531"><ele>447.6666666666667</ele><time>2026-03-28T13:03:48Z</time></trkpt><trkpt lat="45.61798885191374" lon="10.71565852835216"><ele>451.0</ele><time>2026-03-28T13:03:49Z</time></trkpt><trkpt lat="45.61794297793574" lon="10.715877477405146"><ele>451.0</ele><time>2026-03-28T13:03:50Z</time></trkpt><trkpt lat="45.61789975498598" lon="10.716063238659814"><ele>451.0</ele><time>2026-03-28T13:03:51Z</time></trkpt><trkpt lat="45.617861224445114" lon="10.716226148029358"><ele>451.0</ele><time>2026-03-28T13:03:52Z</time></trkpt><trkpt lat="45.61781084186877" lon="10.716370389044872"><ele>451.0</ele><time>2026-03-28T13:03:53Z</time></trkpt><trkpt lat="45.61776502551977" lon="10.716483287045442"><ele>452.4</ele><time>2026-03-28T13:03:54Z</time></trkpt><trkpt lat="45.617734275901235" lon="10.716564428521384"><ele>453.8</ele><time>2026-03-28T13:03:55Z</time></trkpt><trkpt lat="45.6177432025154" lon="10.716659899604283"><ele>455.19999999999993</ele><time>2026-03-28T13:03:57Z</time></trkpt><trkpt lat="45.61793029132458" lon="10.716572787679569"><ele>456.59999999999997</ele><time>2026-03-28T13:04:01Z</time></trkpt><trkpt lat="45.617989935354245" lon="10.716438107975426"><ele>458.0</ele><time>2026-03-28T13:04:02Z</time></trkpt><trkpt lat="45.618056747264255" lon="10.716299274843058"><ele>458.0</ele><time>2026-03-28T13:04:03Z</time></trkpt><trkpt lat="45.61813902671455" lon="10.716155577772957"><ele>458.0</ele><time>2026-03-28T13:04:04Z</time></trkpt><trkpt lat="45.618233110904455" lon="10.71599976914486"><ele>458.0</ele><time>2026-03-28T13:04:05Z</time></trkpt><trkpt lat="45.61833884598756" lon="10.715834556860656"><ele>458.0</ele><time>2026-03-28T13:04:06Z</time></trkpt><trkpt lat="45.61844765373677" lon="10.715680217401626"><ele>457.0</ele><time>2026-03-28T13:04:07Z</time></trkpt><trkpt lat="45.618564462426114" lon="10.715519037351964"><ele>456.0</ele><time>2026-03-28T13:04:08Z</time></trkpt><trkpt lat="45.61868388625883" lon="10.715348426144429"><ele>455.0</ele><time>2026-03-28T13:04:09Z</time></trkpt><trkpt lat="45.61879757499832" lon="10.715187616283242"><ele>455.0</ele><time>2026-03-28T13:04:10Z</time></trkpt><trkpt lat="45.61891338480561" lon="10.715058387842978"><ele>455.0</ele><time>2026-03-28T13:04:11Z</time></trkpt><trkpt lat="45.619047603706655" lon="10.714968593403897"><ele>455.0</ele><time>2026-03-28T13:04:12Z</time></trkpt><trkpt lat="45.61920257463439" lon="10.714946621668618"><ele>455.0</ele><time>2026-03-28T13:04:13Z</time></trkpt><trkpt lat="45.61936579257123" lon="10.714899181685483"><ele>455.0</ele><time>2026-03-28T13:04:14Z</time></trkpt><trkpt lat="45.619535603570476" lon="10.714888680552214"><ele>455.0</ele><time>2026-03-28T13:04:15Z</time></trkpt><trkpt lat="45.61970280405171" lon="10.714871082769646"><ele>457.66666666666663</ele><time>2026-03-28T13:04:16Z</time></trkpt><trkpt lat="45.619879675982354" lon="10.714849799263948"><ele>460.33333333333337</ele><time>2026-03-28T13:04:17Z</time></trkpt><trkpt lat="45.62005813474126" lon="10.714818874371508"><ele>463.0</ele><time>2026-03-28T13:04:18Z</time></trkpt><trkpt lat="45.62022956800453" lon="10.714793013490707"><ele>466.33333333333337</ele><time>2026-03-28T13:04:19Z</time></trkpt><trkpt lat="45.62040873368311" lon="10.714769040680789"><ele>469.66666666666663</ele><time>2026-03-28T13:04:20Z</time></trkpt><trkpt lat="45.6205944192653" lon="10.71474161919213"><ele>473.0</ele><time>2026-03-28T13:04:21Z</time></trkpt><trkpt lat="45.62077074542186" lon="10.714712949367716"><ele>473.0</ele><time>2026-03-28T13:04:22Z</time></trkpt><trkpt lat="45.62091962911639" lon="10.714695939040556"><ele>473.0</ele><time>2026-03-28T13:04:23Z</time></trkpt><trkpt lat="45.62104550427551" lon="10.714677175118123"><ele>473.0</ele><time>2026-03-28T13:04:24Z</time></trkpt><trkpt lat="45.62115463263309" lon="10.714657217990828"><ele>473.0</ele><time>2026-03-28T13:04:25Z</time></trkpt><trkpt lat="45.621235611951874" lon="10.714655847792862"><ele>473.0</ele><time>2026-03-28T13:04:26Z</time></trkpt><trkpt lat="45.62132646033684" lon="10.714790881672677"><ele>472.99999999999994</ele><time>2026-03-28T13:04:28Z</time></trkpt><trkpt lat="45.62131788729076" lon="10.714912361988407"><ele>472.99999999999994</ele><time>2026-03-28T13:04:29Z</time></trkpt><trkpt lat="45.62126234627875" lon="10.71500796433048"><ele>473.0</ele><time>2026-03-28T13:04:30Z</time></trkpt><trkpt lat="45.621162139050035" lon="10.715043448845972"><ele>473.0</ele><time>2026-03-28T13:04:31Z</time></trkpt><trkpt lat="45.6210581714679" lon="10.715101502046856"><ele>473.0</ele><time>2026-03-28T13:04:32Z</time></trkpt><trkpt lat="45.62091537332792" lon="10.715153995236266"><ele>473.0</ele><time>2026-03-28T13:04:33Z</time></trkpt><trkpt lat="45.62075726799236" lon="10.715245785328921"><ele>473.0</ele><time>2026-03-28T13:04:34Z</time></trkpt><trkpt lat="45.62060413557167" lon="10.715341897636172"><ele>474.66666666666663</ele><time>2026-03-28T13:04:35Z</time></trkpt><trkpt lat="45.62042498895419" lon="10.715439661465139"><ele>476.33333333333337</ele><time>2026-03-28T13:04:36Z</time></trkpt><trkpt lat="45.62023266102463" lon="10.715538802057148"><ele>478.0</ele><time>2026-03-28T13:04:37Z</time></trkpt><trkpt lat="45.6200413393175" lon="10.715634458816131"><ele>478.0</ele><time>2026-03-28T13:04:38Z</time></trkpt><trkpt lat="45.61984176082847" lon="10.715735006077113"><ele>478.0</ele><time>2026-03-28T13:04:39Z</time></trkpt><trkpt lat="45.619662936467826" lon="10.715833455459594"><ele>478.0</ele><time>2026-03-28T13:04:40Z</time></trkpt><trkpt lat="45.61950492428416" lon="10.715916797374055"><ele>478.59999999999997</ele><time>2026-03-28T13:04:41Z</time></trkpt><trkpt lat="45.619370475631236" lon="10.715989053293157"><ele>479.19999999999993</ele><time>2026-03-28T13:04:42Z</time></trkpt><trkpt lat="45.61926580332022" lon="10.716051127683228"><ele>479.8</ele><time>2026-03-28T13:04:43Z</time></trkpt><trkpt lat="45.61919761455292" lon="10.716116385822836"><ele>480.4</ele><time>2026-03-28T13:04:44Z</time></trkpt><trkpt lat="45.619179997684775" lon="10.716203696039566"><ele>481.0</ele><time>2026-03-28T13:04:45Z</time></trkpt><trkpt lat="45.61920617010653" lon="10.716287390583792"><ele>481.0</ele><time>2026-03-28T13:04:46Z</time></trkpt><trkpt lat="45.6192732154445" lon="10.7163557037294"><ele>481.0</ele><time>2026-03-28T13:04:47Z</time></trkpt><trkpt lat="45.61936733667395" lon="10.716389384181241"><ele>481.0</ele><time>2026-03-28T13:04:48Z</time></trkpt><trkpt lat="45.61948630931164" lon="10.716356067308302"><ele>481.0</ele><time>2026-03-28T13:04:49Z</time></trkpt><trkpt lat="45.619626572893786" lon="10.716308677429948"><ele>481.0</ele><time>2026-03-28T13:04:50Z</time></trkpt><trkpt lat="45.61979024898389" lon="10.716269954450645"><ele>485.0</ele><time>2026-03-28T13:04:51Z</time></trkpt><trkpt lat="45.6199584983888" lon="10.716238289666379"><ele>489.0</ele><time>2026-03-28T13:04:52Z</time></trkpt><trkpt lat="45.62014330522165" lon="10.716207307116232"><ele>493.0</ele><time>2026-03-28T13:04:53Z</time></trkpt><trkpt lat="45.620338027483534" lon="10.71616577133381"><ele>497.0</ele><time>2026-03-28T13:04:54Z</time></trkpt><trkpt lat="45.62053142263225" lon="10.716129145257707"><ele>501.0</ele><time>2026-03-28T13:04:55Z</time></trkpt><trkpt lat="45.620736272306026" lon="10.716094537519409"><ele>505.0</ele><time>2026-03-28T13:04:56Z</time></trkpt><trkpt lat="45.620951080422536" lon="10.716076215115965"><ele>510.0</ele><time>2026-03-28T13:04:57Z</time></trkpt><trkpt lat="45.62117681881373" lon="10.71607474745328"><ele>515.0</ele><time>2026-03-28T13:04:58Z</time></trkpt><trkpt lat="45.62140575856424" lon="10.716071307447011"><ele>510.0</ele><time>2026-03-28T13:04:59Z</time></trkpt><trkpt lat="45.62162534727757" lon="10.716049850265948"><ele>505.0</ele><time>2026-03-28T13:05:00Z</time></trkpt><trkpt lat="45.62184053947679" lon="10.71602727778687"><ele>500.0</ele><time>2026-03-28T13:05:01Z</time></trkpt><trkpt lat="45.62205973032386" lon="10.716014378159707"><ele>500.0</ele><time>2026-03-28T13:05:02Z</time></trkpt><trkpt lat="45.62227573081749" lon="10.716034326132927"><ele>500.0</ele><time>2026-03-28T13:05:03Z</time></trkpt><trkpt lat="45.62249198039834" lon="10.716079030200397"><ele>500.0</ele><time>2026-03-28T13:05:04Z</time></trkpt><trkpt lat="45.62271291368328" lon="10.716125811744458"><ele>511.5</ele><time>2026-03-28T13:05:05Z</time></trkpt><trkpt lat="45.622939076980956" lon="10.716168893141019"><ele>523.0</ele><time>2026-03-28T13:05:06Z</time></trkpt><trkpt lat="45.62316308901041" lon="10.716211011249804"><ele>523.0</ele><time>2026-03-28T13:05:07Z</time></trkpt><trkpt lat="45.62338729251932" lon="10.716244697222436"><ele>523.0</ele><time>2026-03-28T13:05:08Z</time></trkpt><trkpt lat="45.62360207567348" lon="10.71628117513808"><ele>523.0</ele><time>2026-03-28T13:05:09Z</time></trkpt><trkpt lat="45.62379928086495" lon="10.716319611847998"><ele>523.0</ele><time>2026-03-28T13:05:10Z</time></trkpt><trkpt lat="45.62398825998263" lon="10.716370111894467"><ele>523.0</ele><time>2026-03-28T13:05:11Z</time></trkpt><trkpt lat="45.624181784249295" lon="10.71643490061843"><ele>523.0</ele><time>2026-03-28T13:05:12Z</time></trkpt><trkpt lat="45.62437204975212" lon="10.7165194695058"><ele>521.3333333333334</ele><time>2026-03-28T13:05:13Z</time></trkpt><trkpt lat="45.62456023848806" lon="10.716613174294006"><ele>519.6666666666666</ele><time>2026-03-28T13:05:14Z</time></trkpt><trkpt lat="45.62475791229717" lon="10.716716168779381"><ele>518.0</ele><time>2026-03-28T13:05:15Z</time></trkpt><trkpt lat="45.624963719403695" lon="10.716814763385798"><ele>523.6666666666666</ele><time>2026-03-28T13:05:16Z</time></trkpt><trkpt lat="45.625167417166786" lon="10.716919037931145"><ele>529.3333333333334</ele><time>2026-03-28T13:05:17Z</time></trkpt><trkpt lat="45.62537376328719" lon="10.717025986315083"><ele>535.0</ele><time>2026-03-28T13:05:18Z</time></trkpt><trkpt lat="45.62558424597738" lon="10.717136240755597"><ele>535.0</ele><time>2026-03-28T13:05:19Z</time></trkpt><trkpt lat="45.62579619805721" lon="10.717240454941896"><ele>535.0</ele><time>2026-03-28T13:05:20Z</time></trkpt><trkpt lat="45.626014774467166" lon="10.717352934092883"><ele>532.5</ele><time>2026-03-28T13:05:21Z</time></trkpt><trkpt lat="45.62623125661425" lon="10.717471981793025"><ele>530.0</ele><time>2026-03-28T13:05:22Z</time></trkpt><trkpt lat="45.626438660163515" lon="10.717601065149148"><ele>541.0</ele><time>2026-03-28T13:05:23Z</time></trkpt><trkpt lat="45.62665440081072" lon="10.717740836653192"><ele>552.0</ele><time>2026-03-28T13:05:24Z</time></trkpt><trkpt lat="45.626868316280465" lon="10.717889927249834"><ele>548.3333333333334</ele><time>2026-03-28T13:05:25Z</time></trkpt><trkpt lat="45.62707117827386" lon="10.718051462262476"><ele>544.6666666666667</ele><time>2026-03-28T13:05:26Z</time></trkpt><trkpt lat="45.627257226644495" lon="10.7181981509622"><ele>541.0</ele><time>2026-03-28T13:05:27Z</time></trkpt><trkpt lat="45.627443666867606" lon="10.718342207894638"><ele>541.0</ele><time>2026-03-28T13:05:28Z</time></trkpt><trkpt lat="45.627612713270466" lon="10.718490172347801"><ele>541.0</ele><time>2026-03-28T13:05:29Z</time></trkpt><trkpt lat="45.627769882550695" lon="10.718681900381144"><ele>541.0</ele><time>2026-03-28T13:05:30Z</time></trkpt><trkpt lat="45.62791143451246" lon="10.718904718397917"><ele>543.0</ele><time>2026-03-28T13:05:31Z</time></trkpt><trkpt lat="45.628042695819886" lon="10.71911615042603"><ele>545.0</ele><time>2026-03-28T13:05:32Z</time></trkpt><trkpt lat="45.62815287422503" lon="10.719309876154387"><ele>547.0</ele><time>2026-03-28T13:05:33Z</time></trkpt><trkpt lat="45.62825405804476" lon="10.71946175081125"><ele>550.4</ele><time>2026-03-28T13:05:34Z</time></trkpt><trkpt lat="45.628342392636064" lon="10.719586451818042"><ele>553.8000000000001</ele><time>2026-03-28T13:05:35Z</time></trkpt><trkpt lat="45.628419319675345" lon="10.719689178035198"><ele>557.2</ele><time>2026-03-28T13:05:36Z</time></trkpt><trkpt lat="45.62847860679567" lon="10.719772450370495"><ele>560.6</ele><time>2026-03-28T13:05:37Z</time></trkpt><trkpt lat="45.628485121759304" lon="10.719927229427364"><ele>564.0</ele><time>2026-03-28T13:05:39Z</time></trkpt><trkpt lat="45.62842355274331" lon="10.719976483326047"><ele>564.0</ele><time>2026-03-28T13:05:40Z</time></trkpt><trkpt lat="45.62834015349985" lon="10.719958158380575"><ele>564.0</ele><time>2026-03-28T13:05:41Z</time></trkpt><trkpt lat="45.62826538920516" lon="10.719890054166454"><ele>564.0</ele><time>2026-03-28T13:05:42Z</time></trkpt><trkpt lat="45.628186662242115" lon="10.7197741626545"><ele>564.0</ele><time>2026-03-28T13:05:43Z</time></trkpt><trkpt lat="45.62809292941318" lon="10.71967036038339"><ele>564.0</ele><time>2026-03-28T13:05:44Z</time></trkpt><trkpt lat="45.62796970921141" lon="10.719560256281637"><ele>564.0</ele><time>2026-03-28T13:05:45Z</time></trkpt><trkpt lat="45.627870282233616" lon="10.719463444909259"><ele>564.0</ele><time>2026-03-28T13:05:46Z</time></trkpt><trkpt lat="45.62779063700735" lon="10.719386867121795"><ele>564.0</ele><time>2026-03-28T13:05:47Z</time></trkpt><trkpt lat="45.627723810015894" lon="10.719323705060837"><ele>564.0</ele><time>2026-03-28T13:05:48Z</time></trkpt><trkpt lat="45.62760982179716" lon="10.719362078025979"><ele>564.0</ele><time>2026-03-28T13:05:50Z</time></trkpt><trkpt lat="45.62759307661341" lon="10.71945966072355"><ele>564.0</ele><time>2026-03-28T13:05:51Z</time></trkpt><trkpt lat="45.6276238554488" lon="10.719565462147107"><ele>564.0</ele><time>2026-03-28T13:05:52Z</time></trkpt><trkpt lat="45.62770583965398" lon="10.71963360171514"><ele>564.0</ele><time>2026-03-28T13:05:53Z</time></trkpt><trkpt lat="45.62780902276506" lon="10.719688560616653"><ele>564.0</ele><time>2026-03-28T13:05:54Z</time></trkpt><trkpt lat="45.62792490958773" lon="10.719763053226261"><ele>564.0</ele><time>2026-03-28T13:05:55Z</time></trkpt><trkpt lat="45.628044484853085" lon="10.719874974870704"><ele>564.0</ele><time>2026-03-28T13:05:56Z</time></trkpt><trkpt lat="45.628156459297806" lon="10.720003198171986"><ele>564.0</ele><time>2026-03-28T13:05:57Z</time></trkpt><trkpt lat="45.628260317648966" lon="10.720116489648529"><ele>564.0</ele><time>2026-03-28T13:05:58Z</time></trkpt><trkpt lat="45.62837124872502" lon="10.720224554557142"><ele>564.0</ele><time>2026-03-28T13:05:59Z</time></trkpt><trkpt lat="45.62849931006544" lon="10.7203424663167"><ele>565.6666666666666</ele><time>2026-03-28T13:06:00Z</time></trkpt><trkpt lat="45.628638799721585" lon="10.720470001807806"><ele>567.3333333333333</ele><time>2026-03-28T13:06:01Z</time></trkpt><trkpt lat="45.62877367513893" lon="10.72059266001539"><ele>569.0</ele><time>2026-03-28T13:06:02Z</time></trkpt><trkpt lat="45.628908363042065" lon="10.720720545390883"><ele>569.0</ele><time>2026-03-28T13:06:03Z</time></trkpt><trkpt lat="45.629019839781904" lon="10.720832625195479"><ele>569.0</ele><time>2026-03-28T13:06:04Z</time></trkpt><trkpt lat="45.62912519151945" lon="10.720932333681736"><ele>569.0</ele><time>2026-03-28T13:06:05Z</time></trkpt><trkpt lat="45.629226084952165" lon="10.72102681825545"><ele>569.0</ele><time>2026-03-28T13:06:06Z</time></trkpt><trkpt lat="45.62933088342363" lon="10.721114090692916"><ele>570.25</ele><time>2026-03-28T13:06:07Z</time></trkpt><trkpt lat="45.629432890130985" lon="10.721214448415333"><ele>571.5</ele><time>2026-03-28T13:06:08Z</time></trkpt><trkpt lat="45.62952431434465" lon="10.72132077523392"><ele>572.75</ele><time>2026-03-28T13:06:09Z</time></trkpt><trkpt lat="45.629593256037836" lon="10.721435067293308"><ele>574.0</ele><time>2026-03-28T13:06:10Z</time></trkpt><trkpt lat="45.629646070598966" lon="10.721565234310857"><ele>574.0</ele><time>2026-03-28T13:06:11Z</time></trkpt><trkpt lat="45.629690671908044" lon="10.72167725540076"><ele>574.0</ele><time>2026-03-28T13:06:12Z</time></trkpt><trkpt lat="45.62975347869491" lon="10.721772702095446"><ele>574.0</ele><time>2026-03-28T13:06:13Z</time></trkpt><trkpt lat="45.62983756285489" lon="10.721840436617505"><ele>574.0</ele><time>2026-03-28T13:06:14Z</time></trkpt><trkpt lat="45.629929723275524" lon="10.721886173977506"><ele>574.0</ele><time>2026-03-28T13:06:15Z</time></trkpt><trkpt lat="45.630024521713224" lon="10.721925375120511"><ele>574.8333333333334</ele><time>2026-03-28T13:06:16Z</time></trkpt><trkpt lat="45.63011890396742" lon="10.721970595000654"><ele>575.6666666666667</ele><time>2026-03-28T13:06:17Z</time></trkpt><trkpt lat="45.63020909949605" lon="10.722029253440613"><ele>576.5</ele><time>2026-03-28T13:06:18Z</time></trkpt><trkpt lat="45.63028332090602" lon="10.722105534811341"><ele>577.3333333333334</ele><time>2026-03-28T13:06:19Z</time></trkpt><trkpt lat="45.63034733035557" lon="10.722177983743748"><ele>578.1666666666666</ele><time>2026-03-28T13:06:20Z</time></trkpt><trkpt lat="45.6303997293061" lon="10.722252315480759"><ele>579.0</ele><time>2026-03-28T13:06:21Z</time></trkpt><trkpt lat="45.630449443817845" lon="10.722342879697358"><ele>579.0</ele><time>2026-03-28T13:06:22Z</time></trkpt><trkpt lat="45.63048824857708" lon="10.722420991937332"><ele>579.0</ele><time>2026-03-28T13:06:23Z</time></trkpt><trkpt lat="45.63052646712494" lon="10.72250361447674"><ele>579.0</ele><time>2026-03-28T13:06:24Z</time></trkpt><trkpt lat="45.6305705793679" lon="10.722583732874744"><ele>579.0</ele><time>2026-03-28T13:06:25Z</time></trkpt><trkpt lat="45.63063914057548" lon="10.722653618156812"><ele>579.0</ele><time>2026-03-28T13:06:26Z</time></trkpt><trkpt lat="45.63072959338935" lon="10.722724933273446"><ele>579.0</ele><time>2026-03-28T13:06:27Z</time></trkpt><trkpt lat="45.630827584377194" lon="10.722758608840051"><ele>580.4</ele><time>2026-03-28T13:06:28Z</time></trkpt><trkpt lat="45.6309161021569" lon="10.722794338797161"><ele>581.8</ele><time>2026-03-28T13:06:29Z</time></trkpt><trkpt lat="45.63098217730285" lon="10.722884758446728"><ele>583.2</ele><time>2026-03-28T13:06:30Z</time></trkpt><trkpt lat="45.631026170585194" lon="10.723000849952994"><ele>584.6</ele><time>2026-03-28T13:06:31Z</time></trkpt><trkpt lat="45.6310508346082" lon="10.723125774846874"><ele>586.0</ele><time>2026-03-28T13:06:32Z</time></trkpt><trkpt lat="45.631073933656346" lon="10.723243037866082"><ele>586.0</ele><time>2026-03-28T13:06:33Z</time></trkpt><trkpt lat="45.63107481673084" lon="10.723338423825048"><ele>586.0</ele><time>2026-03-28T13:06:34Z</time></trkpt><trkpt lat="45.63107836239858" lon="10.723519023075811"><ele>586.0</ele><time>2026-03-28T13:06:36Z</time></trkpt><trkpt lat="45.631094550119585" lon="10.723644948368388"><ele>586.0</ele><time>2026-03-28T13:06:37Z</time></trkpt><trkpt lat="45.631124171355864" lon="10.723812420374992"><ele>586.0</ele><time>2026-03-28T13:06:38Z</time></trkpt><trkpt lat="45.63116188393343" lon="10.723999815571863"><ele>584.0</ele><time>2026-03-28T13:06:39Z</time></trkpt><trkpt lat="45.631199766833" lon="10.724197105831378"><ele>582.0</ele><time>2026-03-28T13:06:40Z</time></trkpt><trkpt lat="45.63124806199137" lon="10.72440006272496"><ele>580.0</ele><time>2026-03-28T13:06:41Z</time></trkpt><trkpt lat="45.63131249217111" lon="10.724592966608714"><ele>578.0</ele><time>2026-03-28T13:06:42Z</time></trkpt><trkpt lat="45.63137444339995" lon="10.724782682303244"><ele>578.0</ele><time>2026-03-28T13:06:43Z</time></trkpt><trkpt lat="45.631434754217935" lon="10.724980607612148"><ele>578.0</ele><time>2026-03-28T13:06:44Z</time></trkpt><trkpt lat="45.631477564071496" lon="10.72517541912363"><ele>578.0</ele><time>2026-03-28T13:06:45Z</time></trkpt><trkpt lat="45.631515308559976" lon="10.725360786466606"><ele>578.0</ele><time>2026-03-28T13:06:46Z</time></trkpt><trkpt lat="45.631553759984186" lon="10.725549358450653"><ele>579.5</ele><time>2026-03-28T13:06:47Z</time></trkpt><trkpt lat="45.631592738436396" lon="10.725734842034557"><ele>581.0</ele><time>2026-03-28T13:06:48Z</time></trkpt><trkpt lat="45.63163840839373" lon="10.725913099220655"><ele>582.5</ele><time>2026-03-28T13:06:49Z</time></trkpt><trkpt lat="45.631687056828795" lon="10.726078665383934"><ele>584.0</ele><time>2026-03-28T13:06:50Z</time></trkpt><trkpt lat="45.63173580556993" lon="10.726242619146966"><ele>584.0</ele><time>2026-03-28T13:06:51Z</time></trkpt><trkpt lat="45.63178646900529" lon="10.726392263194706"><ele>584.0</ele><time>2026-03-28T13:06:52Z</time></trkpt><trkpt lat="45.63185145042817" lon="10.726547892174786"><ele>584.0</ele><time>2026-03-28T13:06:53Z</time></trkpt><trkpt lat="45.631928600576906" lon="10.726709410634907"><ele>584.0</ele><time>2026-03-28T13:06:54Z</time></trkpt><trkpt lat="45.63201034313824" lon="10.726875987337591"><ele>584.6666666666666</ele><time>2026-03-28T13:06:55Z</time></trkpt><trkpt lat="45.632095767972174" lon="10.727048385984387"><ele>585.3333333333334</ele><time>2026-03-28T13:06:56Z</time></trkpt><trkpt lat="45.63218092247838" lon="10.727227457352297"><ele>586.0</ele><time>2026-03-28T13:06:57Z</time></trkpt><trkpt lat="45.632263641068214" lon="10.727407393345803"><ele>586.0</ele><time>2026-03-28T13:06:58Z</time></trkpt><trkpt lat="45.63234662360142" lon="10.727570672291126"><ele>586.0</ele><time>2026-03-28T13:06:59Z</time></trkpt><trkpt lat="45.632417131197116" lon="10.727711892357979"><ele>586.0</ele><time>2026-03-28T13:07:00Z</time></trkpt><trkpt lat="45.63247625562135" lon="10.727859094402778"><ele>586.0</ele><time>2026-03-28T13:07:01Z</time></trkpt><trkpt lat="45.632516285912104" lon="10.72798205113407"><ele>586.3333333333334</ele><time>2026-03-28T13:07:02Z</time></trkpt><trkpt lat="45.63253941258918" lon="10.728086319631611"><ele>586.6666666666667</ele><time>2026-03-28T13:07:03Z</time></trkpt><trkpt lat="45.63255257653662" lon="10.728181207552774"><ele>587.0</ele><time>2026-03-28T13:07:04Z</time></trkpt><trkpt lat="45.63255988855115" lon="10.728285166131608"><ele>587.3333333333334</ele><time>2026-03-28T13:07:05Z</time></trkpt><trkpt lat="45.63256494149712" lon="10.728380827407653"><ele>587.6666666666666</ele><time>2026-03-28T13:07:06Z</time></trkpt><trkpt lat="45.63257873652896" lon="10.72854296507107"><ele>588.0</ele><time>2026-03-28T13:07:08Z</time></trkpt><trkpt lat="45.6325710962405" lon="10.728669211490972"><ele>588.0</ele><time>2026-03-28T13:07:10Z</time></trkpt><trkpt lat="45.63257089608471" lon="10.728778263509222"><ele>588.0</ele><time>2026-03-28T13:07:12Z</time></trkpt><trkpt lat="45.63256750165512" lon="10.728876576212443"><ele>588.0</ele><time>2026-03-28T13:07:15Z</time></trkpt><trkpt lat="45.632613874477755" lon="10.728815095671314"><ele>588.0</ele><time>2026-03-28T13:07:21Z</time></trkpt><trkpt lat="45.63261400123184" lon="10.728636432222034"><ele>588.0</ele><time>2026-03-28T13:07:22Z</time></trkpt><trkpt lat="45.632604742418856" lon="10.728488147353564"><ele>588.0</ele><time>2026-03-28T13:07:23Z</time></trkpt><trkpt lat="45.63259104191426" lon="10.728320576349752"><ele>588.0</ele><time>2026-03-28T13:07:24Z</time></trkpt><trkpt lat="45.63257152666918" lon="10.728164136475987"><ele>588.0</ele><time>2026-03-28T13:07:25Z</time></trkpt><trkpt lat="45.63255017331251" lon="10.728039846966153"><ele>588.0</ele><time>2026-03-28T13:07:26Z</time></trkpt><trkpt lat="45.63254170663007" lon="10.727929480508127"><ele>588.0</ele><time>2026-03-28T13:07:28Z</time></trkpt><trkpt lat="45.63264246771793" lon="10.727845142259879"><ele>588.0</ele><time>2026-03-28T13:07:30Z</time></trkpt><trkpt lat="45.63272820646645" lon="10.727798911571215"><ele>587.8</ele><time>2026-03-28T13:07:31Z</time></trkpt><trkpt lat="45.6328201590257" lon="10.727743238242692"><ele>587.5999999999999</ele><time>2026-03-28T13:07:32Z</time></trkpt><trkpt lat="45.63292142139491" lon="10.727670773744217"><ele>587.4000000000001</ele><time>2026-03-28T13:07:33Z</time></trkpt><trkpt lat="45.6330082477183" lon="10.727612446269728"><ele>587.2</ele><time>2026-03-28T13:07:34Z</time></trkpt><trkpt lat="45.633083676610305" lon="10.72754959712175"><ele>587.0</ele><time>2026-03-28T13:07:35Z</time></trkpt><trkpt lat="45.63315239507" lon="10.727480189518626"><ele>587.0</ele><time>2026-03-28T13:07:36Z</time></trkpt><trkpt lat="45.63321065785518" lon="10.727427000551215"><ele>587.0</ele><time>2026-03-28T13:07:37Z</time></trkpt><trkpt lat="45.63334716547775" lon="10.727349187211901"><ele>587.0</ele><time>2026-03-28T13:07:39Z</time></trkpt><trkpt lat="45.633414915634795" lon="10.727292390824196"><ele>587.0</ele><time>2026-03-28T13:07:40Z</time></trkpt><trkpt lat="45.63353068449873" lon="10.727241750547105"><ele>587.0</ele><time>2026-03-28T13:07:42Z</time></trkpt><trkpt lat="45.633633442303605" lon="10.727299906697072"><ele>585.6666666666666</ele><time>2026-03-28T13:07:44Z</time></trkpt><trkpt lat="45.63368379255592" lon="10.727375204945925"><ele>584.3333333333333</ele><time>2026-03-28T13:07:45Z</time></trkpt><trkpt lat="45.6337438390764" lon="10.727466082469732"><ele>583.0</ele><time>2026-03-28T13:07:46Z</time></trkpt><trkpt lat="45.6337974811769" lon="10.727557807255888"><ele>581.6666666666666</ele><time>2026-03-28T13:07:47Z</time></trkpt><trkpt lat="45.633842313423905" lon="10.727645128119368"><ele>580.3333333333334</ele><time>2026-03-28T13:07:48Z</time></trkpt><trkpt lat="45.63390386387486" lon="10.727725509787133"><ele>579.0</ele><time>2026-03-28T13:07:49Z</time></trkpt><trkpt lat="45.63397007576071" lon="10.727797455518006"><ele>579.0</ele><time>2026-03-28T13:07:50Z</time></trkpt><trkpt lat="45.63405496400983" lon="10.727842553940361"><ele>579.0</ele><time>2026-03-28T13:07:51Z</time></trkpt><trkpt lat="45.63413592415489" lon="10.727848714307834"><ele>579.0</ele><time>2026-03-28T13:07:52Z</time></trkpt><trkpt lat="45.634227228684345" lon="10.727843629223361"><ele>579.0</ele><time>2026-03-28T13:07:53Z</time></trkpt><trkpt lat="45.63430831034494" lon="10.727815312938764"><ele>579.0</ele><time>2026-03-28T13:07:54Z</time></trkpt><trkpt lat="45.634383941037825" lon="10.727752393548247"><ele>579.0</ele><time>2026-03-28T13:07:55Z</time></trkpt><trkpt lat="45.63443851794181" lon="10.727663549880415"><ele>574.4</ele><time>2026-03-28T13:07:56Z</time></trkpt><trkpt lat="45.63447556446094" lon="10.727556676008952"><ele>569.8</ele><time>2026-03-28T13:07:57Z</time></trkpt><trkpt lat="45.63452323011734" lon="10.727433491667453"><ele>565.2</ele><time>2026-03-28T13:07:58Z</time></trkpt><trkpt lat="45.63458615276788" lon="10.727308810554518"><ele>560.6</ele><time>2026-03-28T13:07:59Z</time></trkpt><trkpt lat="45.634670879958456" lon="10.727236973460405"><ele>556.0</ele><time>2026-03-28T13:08:00Z</time></trkpt><trkpt lat="45.63473842096214" lon="10.727125765767788"><ele>556.0</ele><time>2026-03-28T13:08:01Z</time></trkpt><trkpt lat="45.63482632060523" lon="10.727032923500445"><ele>556.0</ele><time>2026-03-28T13:08:02Z</time></trkpt><trkpt lat="45.63490465051035" lon="10.726958047376465"><ele>556.0</ele><time>2026-03-28T13:08:03Z</time></trkpt><trkpt lat="45.63497236400251" lon="10.72691656968033"><ele>556.0</ele><time>2026-03-28T13:08:04Z</time></trkpt><trkpt lat="45.63508193055457" lon="10.726881178409469"><ele>556.0</ele><time>2026-03-28T13:08:06Z</time></trkpt><trkpt lat="45.635144481158335" lon="10.726853398713102"><ele>555.8333333333334</ele><time>2026-03-28T13:08:07Z</time></trkpt><trkpt lat="45.63518528324186" lon="10.726764457056841"><ele>555.6666666666667</ele><time>2026-03-28T13:08:08Z</time></trkpt><trkpt lat="45.63527165657839" lon="10.726743207344521"><ele>555.5</ele><time>2026-03-28T13:08:09Z</time></trkpt><trkpt lat="45.63534275759936" lon="10.726679013904588"><ele>555.3333333333334</ele><time>2026-03-28T13:08:10Z</time></trkpt><trkpt lat="45.63540810163573" lon="10.726609360598026"><ele>555.1666666666666</ele><time>2026-03-28T13:08:11Z</time></trkpt><trkpt lat="45.635479623735264" lon="10.72653345079521"><ele>555.0</ele><time>2026-03-28T13:08:12Z</time></trkpt><trkpt lat="45.635551513976324" lon="10.726473823101227"><ele>552.0</ele><time>2026-03-28T13:08:13Z</time></trkpt><trkpt lat="45.63561715604506" lon="10.726384331187083"><ele>549.0</ele><time>2026-03-28T13:08:14Z</time></trkpt><trkpt lat="45.63568261313355" lon="10.72629780524841"><ele>546.0</ele><time>2026-03-28T13:08:15Z</time></trkpt><trkpt lat="45.63574373732767" lon="10.726217916830503"><ele>543.0</ele><time>2026-03-28T13:08:16Z</time></trkpt><trkpt lat="45.63580875749588" lon="10.726131608156477"><ele>540.0</ele><time>2026-03-28T13:08:17Z</time></trkpt><trkpt lat="45.63585580009823" lon="10.726050813220608"><ele>537.0</ele><time>2026-03-28T13:08:18Z</time></trkpt><trkpt lat="45.63593764120264" lon="10.72593668144234"><ele>536.0</ele><time>2026-03-28T13:08:20Z</time></trkpt><trkpt lat="45.63591370961951" lon="10.725820764211342"><ele>535.0</ele><time>2026-03-28T13:08:21Z</time></trkpt><trkpt lat="45.63590296429627" lon="10.725717781009232"><ele>534.0</ele><time>2026-03-28T13:08:22Z</time></trkpt><trkpt lat="45.63588846258197" lon="10.72561300621117"><ele>533.0</ele><time>2026-03-28T13:08:23Z</time></trkpt><trkpt lat="45.635860891174545" lon="10.72550731045148"><ele>532.0</ele><time>2026-03-28T13:08:24Z</time></trkpt><trkpt lat="45.63584137640719" lon="10.725395178249318"><ele>531.0</ele><time>2026-03-28T13:08:25Z</time></trkpt><trkpt lat="45.63579683771623" lon="10.725291194011037"><ele>528.8</ele><time>2026-03-28T13:08:26Z</time></trkpt><trkpt lat="45.63574950729507" lon="10.72518224999392"><ele>526.6</ele><time>2026-03-28T13:08:27Z</time></trkpt><trkpt lat="45.63568398286172" lon="10.725058408626143"><ele>524.4</ele><time>2026-03-28T13:08:28Z</time></trkpt><trkpt lat="45.6356186919716" lon="10.724935599505773"><ele>522.2</ele><time>2026-03-28T13:08:29Z</time></trkpt><trkpt lat="45.635562826482975" lon="10.72484113820923"><ele>520.0</ele><time>2026-03-28T13:08:30Z</time></trkpt><trkpt lat="45.63551214029052" lon="10.724764399150462"><ele>520.0</ele><time>2026-03-28T13:08:31Z</time></trkpt><trkpt lat="45.63542849771525" lon="10.724712088713076"><ele>520.0</ele><time>2026-03-28T13:08:32Z</time></trkpt><trkpt lat="45.63537526659405" lon="10.724636372976743"><ele>520.0</ele><time>2026-03-28T13:08:33Z</time></trkpt><trkpt lat="45.63531639521149" lon="10.724574548638046"><ele>520.0</ele><time>2026-03-28T13:08:34Z</time></trkpt><trkpt lat="45.63525513278355" lon="10.724509663934466"><ele>520.0</ele><time>2026-03-28T13:08:35Z</time></trkpt><trkpt lat="45.63521206096872" lon="10.724414787001509"><ele>520.0</ele><time>2026-03-28T13:08:36Z</time></trkpt><trkpt lat="45.635147908533504" lon="10.724355941415599"><ele>518.6</ele><time>2026-03-28T13:08:37Z</time></trkpt><trkpt lat="45.635062094415744" lon="10.724279713215427"><ele>517.2</ele><time>2026-03-28T13:08:38Z</time></trkpt><trkpt lat="45.63497512819754" lon="10.724195288001068"><ele>515.8</ele><time>2026-03-28T13:08:39Z</time></trkpt><trkpt lat="45.63489854934103" lon="10.724118554293128"><ele>514.4</ele><time>2026-03-28T13:08:40Z</time></trkpt><trkpt lat="45.63484190921957" lon="10.724048787880804"><ele>513.0</ele><time>2026-03-28T13:08:41Z</time></trkpt><trkpt lat="45.63478973303023" lon="10.723898585029364"><ele>513.0</ele><time>2026-03-28T13:08:43Z</time></trkpt><trkpt lat="45.634761181494945" lon="10.723788384134957"><ele>513.0</ele><time>2026-03-28T13:08:44Z</time></trkpt><trkpt lat="45.63474442687329" lon="10.723655503431827"><ele>513.0</ele><time>2026-03-28T13:08:45Z</time></trkpt><trkpt lat="45.63470895796819" lon="10.723499760565298"><ele>513.0</ele><time>2026-03-28T13:08:46Z</time></trkpt><trkpt lat="45.634674276512435" lon="10.723366663740336"><ele>513.0</ele><time>2026-03-28T13:08:47Z</time></trkpt><trkpt lat="45.63464520411353" lon="10.723236192118865"><ele>510.3333333333333</ele><time>2026-03-28T13:08:48Z</time></trkpt><trkpt lat="45.6346201151769" lon="10.723105979981435"><ele>507.66666666666663</ele><time>2026-03-28T13:08:49Z</time></trkpt><trkpt lat="45.63459809800277" lon="10.722986988033474"><ele>505.0</ele><time>2026-03-28T13:08:50Z</time></trkpt><trkpt lat="45.63459278634609" lon="10.722892128983577"><ele>502.3333333333333</ele><time>2026-03-28T13:08:51Z</time></trkpt><trkpt lat="45.63460408874833" lon="10.722770869692871"><ele>499.66666666666663</ele><time>2026-03-28T13:08:52Z</time></trkpt><trkpt lat="45.63461096488657" lon="10.722606847196278"><ele>497.0</ele><time>2026-03-28T13:08:53Z</time></trkpt><trkpt lat="45.63461890231229" lon="10.722417865423338"><ele>495.20000000000005</ele><time>2026-03-28T13:08:54Z</time></trkpt><trkpt lat="45.63462774138241" lon="10.72223195216539"><ele>493.40000000000003</ele><time>2026-03-28T13:08:55Z</time></trkpt><trkpt lat="45.634631359415835" lon="10.722051883196897"><ele>491.59999999999997</ele><time>2026-03-28T13:08:56Z</time></trkpt><trkpt lat="45.63463049464836" lon="10.721903573155727"><ele>489.79999999999995</ele><time>2026-03-28T13:08:57Z</time></trkpt><trkpt lat="45.63463332497694" lon="10.721795185958861"><ele>488.0</ele><time>2026-03-28T13:08:58Z</time></trkpt><trkpt lat="45.634645097414094" lon="10.721659005808291"><ele>486.99999999999994</ele><time>2026-03-28T13:09:00Z</time></trkpt><trkpt lat="45.63471205796487" lon="10.721546502942028"><ele>486.0</ele><time>2026-03-28T13:09:03Z</time></trkpt><trkpt lat="45.63480260867947" lon="10.721488115624426"><ele>485.0</ele><time>2026-03-28T13:09:05Z</time></trkpt><trkpt lat="45.63485909150441" lon="10.721447021863145"><ele>484.0</ele><time>2026-03-28T13:09:08Z</time></trkpt><trkpt lat="45.63489830345047" lon="10.721327559300132"><ele>482.99999999999994</ele><time>2026-03-28T13:10:04Z</time></trkpt><trkpt lat="45.63482229005544" lon="10.721396942490648"><ele>482.0</ele><time>2026-03-28T13:10:26Z</time></trkpt><trkpt lat="45.634771953761" lon="10.721455866930594"><ele>482.0</ele><time>2026-03-28T13:10:27Z</time></trkpt><trkpt lat="45.634720545134" lon="10.721518549462111"><ele>482.0</ele><time>2026-03-28T13:10:28Z</time></trkpt><trkpt lat="45.63466020835535" lon="10.72158926573633"><ele>482.0</ele><time>2026-03-28T13:10:30Z</time></trkpt><trkpt lat="45.63468349544666" lon="10.721495174181259"><ele>482.0</ele><time>2026-03-28T13:10:37Z</time></trkpt><trkpt lat="45.634456479511556" lon="10.72135001385188"><ele>482.66666666666663</ele><time>2026-03-28T13:10:38Z</time></trkpt><trkpt lat="45.6344014868722" lon="10.721264271109254"><ele>483.3333333333333</ele><time>2026-03-28T13:10:39Z</time></trkpt><trkpt lat="45.63436406854392" lon="10.721170468151572"><ele>484.0</ele><time>2026-03-28T13:10:41Z</time></trkpt><trkpt lat="45.634365314675854" lon="10.721038015693443"><ele>484.66666666666663</ele><time>2026-03-28T13:10:43Z</time></trkpt><trkpt lat="45.634415743432285" lon="10.720942881208021"><ele>485.3333333333333</ele><time>2026-03-28T13:10:45Z</time></trkpt><trkpt lat="45.63443260610506" lon="10.720848937718701"><ele>486.0</ele><time>2026-03-28T13:10:46Z</time></trkpt><trkpt lat="45.63441336542791" lon="10.720686699872534"><ele>486.0</ele><time>2026-03-28T13:10:49Z</time></trkpt><trkpt lat="45.634387773497124" lon="10.720598462188693"><ele>486.0</ele><time>2026-03-28T13:10:51Z</time></trkpt><trkpt lat="45.63434810045425" lon="10.720474563682478"><ele>486.0</ele><time>2026-03-28T13:10:53Z</time></trkpt><trkpt lat="45.634297768729844" lon="10.720406636256374"><ele>486.0</ele><time>2026-03-28T13:10:55Z</time></trkpt><trkpt lat="45.63426313491979" lon="10.72031074301839"><ele>486.0</ele><time>2026-03-28T13:10:57Z</time></trkpt><trkpt lat="45.63423275104138" lon="10.720185678924855"><ele>486.0</ele><time>2026-03-28T13:10:59Z</time></trkpt><trkpt lat="45.63418294843133" lon="10.720094947397598"><ele>484.0</ele><time>2026-03-28T13:11:01Z</time></trkpt><trkpt lat="45.63415574772396" lon="10.720011179142514"><ele>482.0</ele><time>2026-03-28T13:11:03Z</time></trkpt><trkpt lat="45.63417002358708" lon="10.719894013150373"><ele>480.0</ele><time>2026-03-28T13:11:05Z</time></trkpt><trkpt lat="45.63417359618407" lon="10.7197774006151"><ele>478.0</ele><time>2026-03-28T13:11:07Z</time></trkpt><trkpt lat="45.634167511001316" lon="10.719686824942269"><ele>476.0</ele><time>2026-03-28T13:11:09Z</time></trkpt><trkpt lat="45.63412949840212" lon="10.719588142070977"><ele>474.0</ele><time>2026-03-28T13:11:18Z</time></trkpt><trkpt lat="45.63409425330079" lon="10.7195056166796"><ele>472.0</ele><time>2026-03-28T13:11:26Z</time></trkpt><trkpt lat="45.63403801050569" lon="10.71942871664533"><ele>469.57142857142856</ele><time>2026-03-28T13:11:33Z</time></trkpt><trkpt lat="45.63399763165721" lon="10.719358872363816"><ele>467.14285714285717</ele><time>2026-03-28T13:11:36Z</time></trkpt><trkpt lat="45.63397099107263" lon="10.719269073964568"><ele>464.7142857142857</ele><time>2026-03-28T13:11:42Z</time></trkpt><trkpt lat="45.633937401804594" lon="10.719182482262484"><ele>462.2857142857143</ele><time>2026-03-28T13:11:48Z</time></trkpt><trkpt lat="45.633918256451004" lon="10.719093818448506"><ele>459.8571428571429</ele><time>2026-03-28T13:11:58Z</time></trkpt><trkpt lat="45.63388747992762" lon="10.718959673990875"><ele>457.42857142857144</ele><time>2026-03-28T13:12:32Z</time></trkpt><trkpt lat="45.63385180995525" lon="10.718873784078246"><ele>455.0</ele><time>2026-03-28T13:13:12Z</time></trkpt><trkpt lat="45.633843534867374" lon="10.718782660361377"><ele>454.99999999999994</ele><time>2026-03-28T13:27:08Z</time></trkpt><trkpt lat="45.63382459983898" lon="10.718673233807097"><ele>455.0</ele><time>2026-03-28T13:27:12Z</time></trkpt><trkpt lat="45.633801920842814" lon="10.718557277590305"><ele>455.0</ele><time>2026-03-28T13:27:15Z</time></trkpt><trkpt lat="45.63379101716776" lon="10.718453727337621"><ele>455.0</ele><time>2026-03-28T13:27:18Z</time></trkpt><trkpt lat="45.63376373030032" lon="10.718360944336181"><ele>454.99999999999994</ele><time>2026-03-28T13:27:20Z</time></trkpt><trkpt lat="45.63371189417351" lon="10.718294826696752"><ele>455.0</ele><time>2026-03-28T13:27:23Z</time></trkpt><trkpt lat="45.63369332352437" lon="10.718167708479974"><ele>455.2</ele><time>2026-03-28T13:30:48Z</time></trkpt><trkpt lat="45.633651625072" lon="10.718082960792348"><ele>455.4</ele><time>2026-03-28T13:30:49Z</time></trkpt><trkpt lat="45.63359842859268" lon="10.717993001152546"><ele>455.6</ele><time>2026-03-28T13:30:50Z</time></trkpt><trkpt lat="45.63355619902974" lon="10.717921523967847"><ele>455.8</ele><time>2026-03-28T13:30:51Z</time></trkpt><trkpt lat="45.63349140403767" lon="10.717793084822594"><ele>456.0</ele><time>2026-03-28T13:30:53Z</time></trkpt><trkpt lat="45.633381254693575" lon="10.717682702453248"><ele>452.8</ele><time>2026-03-28T13:30:55Z</time></trkpt><trkpt lat="45.6333001695855" lon="10.71761503382521"><ele>449.6</ele><time>2026-03-28T13:30:56Z</time></trkpt><trkpt lat="45.63321226509187" lon="10.717516535766391"><ele>446.4</ele><time>2026-03-28T13:30:57Z</time></trkpt><trkpt lat="45.63313751883248" lon="10.717415630539694"><ele>443.2</ele><time>2026-03-28T13:30:58Z</time></trkpt><trkpt lat="45.633062365512096" lon="10.717328549406234"><ele>440.0</ele><time>2026-03-28T13:30:59Z</time></trkpt><trkpt lat="45.632983191269325" lon="10.717255831055926"><ele>440.0</ele><time>2026-03-28T13:31:00Z</time></trkpt><trkpt lat="45.63288819953238" lon="10.71718595654732"><ele>440.0</ele><time>2026-03-28T13:31:01Z</time></trkpt><trkpt lat="45.63280519283578" lon="10.717112449874572"><ele>440.0</ele><time>2026-03-28T13:31:02Z</time></trkpt><trkpt lat="45.63272298935732" lon="10.717035322638205"><ele>440.0</ele><time>2026-03-28T13:31:03Z</time></trkpt><trkpt lat="45.632648941629135" lon="10.716959145346436"><ele>440.0</ele><time>2026-03-28T13:31:04Z</time></trkpt><trkpt lat="45.632578343615" lon="10.716906651226243"><ele>438.99999999999994</ele><time>2026-03-28T13:31:05Z</time></trkpt><trkpt lat="45.632512971209195" lon="10.716880143081774"><ele>438.0</ele><time>2026-03-28T13:31:06Z</time></trkpt><trkpt lat="45.63243702141918" lon="10.716846345606493"><ele>437.0</ele><time>2026-03-28T13:31:07Z</time></trkpt><trkpt lat="45.63236335401482" lon="10.71681821994443"><ele>436.0</ele><time>2026-03-28T13:31:08Z</time></trkpt><trkpt lat="45.632287183982136" lon="10.716806213395628"><ele>434.99999999999994</ele><time>2026-03-28T13:31:09Z</time></trkpt><trkpt lat="45.63220592908814" lon="10.716806919424975"><ele>434.0</ele><time>2026-03-28T13:31:10Z</time></trkpt><trkpt lat="45.63207969047231" lon="10.716754029076823"><ele>433.99999999999994</ele><time>2026-03-28T13:31:12Z</time></trkpt><trkpt lat="45.632010056870655" lon="10.716724630304942"><ele>434.0</ele><time>2026-03-28T13:31:13Z</time></trkpt><trkpt lat="45.6319482744837" lon="10.716666344400593"><ele>434.0</ele><time>2026-03-28T13:31:14Z</time></trkpt><trkpt lat="45.63186306508689" lon="10.716610907948315"><ele>434.0</ele><time>2026-03-28T13:31:15Z</time></trkpt><trkpt lat="45.63180443917799" lon="10.716569311539029"><ele>433.99999999999994</ele><time>2026-03-28T13:31:16Z</time></trkpt><trkpt lat="45.63170387263878" lon="10.716510028278265"><ele>434.0</ele><time>2026-03-28T13:31:18Z</time></trkpt><trkpt lat="45.631640639938574" lon="10.716561300748968"><ele>435.99999999999994</ele><time>2026-03-28T13:31:21Z</time></trkpt><trkpt lat="45.631572489040444" lon="10.716590113080192"><ele>438.0</ele><time>2026-03-28T13:31:23Z</time></trkpt><trkpt lat="45.631484487431116" lon="10.71659322374142"><ele>440.0</ele><time>2026-03-28T13:31:25Z</time></trkpt><trkpt lat="45.63142757949714" lon="10.716550280842577"><ele>442.0</ele><time>2026-03-28T13:31:54Z</time></trkpt><trkpt lat="45.63136231326144" lon="10.716573348082795"><ele>443.99999999999994</ele><time>2026-03-28T13:32:48Z</time></trkpt><trkpt lat="45.63128659910727" lon="10.71654025251762"><ele>446.0</ele><time>2026-03-28T13:32:53Z</time></trkpt><trkpt lat="45.63124319442323" lon="10.716417036518939"><ele>445.99999999999994</ele><time>2026-03-28T13:32:55Z</time></trkpt><trkpt lat="45.63118394090257" lon="10.716335583714303"><ele>446.0</ele><time>2026-03-28T13:32:57Z</time></trkpt><trkpt lat="45.63112887294751" lon="10.716288058166057"><ele>446.0</ele><time>2026-03-28T13:32:59Z</time></trkpt><trkpt lat="45.631062231477934" lon="10.716210824421605"><ele>446.0</ele><time>2026-03-28T13:33:01Z</time></trkpt><trkpt lat="45.63100718188452" lon="10.716111854747751"><ele>445.99999999999994</ele><time>2026-03-28T13:33:03Z</time></trkpt><trkpt lat="45.63092962608325" lon="10.716035844191127"><ele>446.0</ele><time>2026-03-28T13:33:05Z</time></trkpt><trkpt lat="45.630855811625814" lon="10.715928228918326"><ele>444.6</ele><time>2026-03-28T13:33:07Z</time></trkpt><trkpt lat="45.63076280015123" lon="10.715832769249477"><ele>443.20000000000005</ele><time>2026-03-28T13:33:09Z</time></trkpt><trkpt lat="45.63065677250441" lon="10.715724854652848"><ele>441.79999999999995</ele><time>2026-03-28T13:33:11Z</time></trkpt><trkpt lat="45.63058161226852" lon="10.71568266838008"><ele>440.4</ele><time>2026-03-28T13:33:12Z</time></trkpt><trkpt lat="45.630506711972274" lon="10.715646169868934"><ele>439.0</ele><time>2026-03-28T13:33:13Z</time></trkpt><trkpt lat="45.63044153905086" lon="10.715608728051473"><ele>439.00000000000006</ele><time>2026-03-28T13:33:14Z</time></trkpt><trkpt lat="45.63038782769309" lon="10.715548560748664"><ele>439.0</ele><time>2026-03-28T13:33:15Z</time></trkpt><trkpt lat="45.63032526551715" lon="10.715490695097591"><ele>439.0</ele><time>2026-03-28T13:33:16Z</time></trkpt><trkpt lat="45.63026369235028" lon="10.71541864047987"><ele>439.0</ele><time>2026-03-28T13:33:17Z</time></trkpt><trkpt lat="45.63020042273481" lon="10.715345759439122"><ele>439.00000000000006</ele><time>2026-03-28T13:33:18Z</time></trkpt><trkpt lat="45.63013865318835" lon="10.715286334753165"><ele>439.0</ele><time>2026-03-28T13:33:19Z</time></trkpt><trkpt lat="45.63006912459044" lon="10.715232012613118"><ele>437.33333333333337</ele><time>2026-03-28T13:33:20Z</time></trkpt><trkpt lat="45.62998110616592" lon="10.715173711679606"><ele>435.6666666666667</ele><time>2026-03-28T13:33:21Z</time></trkpt><trkpt lat="45.629908771679055" lon="10.715110153494802"><ele>434.0</ele><time>2026-03-28T13:33:22Z</time></trkpt><trkpt lat="45.629843604847665" lon="10.715033758707964"><ele>432.33333333333337</ele><time>2026-03-28T13:33:23Z</time></trkpt><trkpt lat="45.62977459660875" lon="10.714976120529288"><ele>430.6666666666667</ele><time>2026-03-28T13:33:24Z</time></trkpt><trkpt lat="45.62968984459046" lon="10.714935771354206"><ele>429.0</ele><time>2026-03-28T13:33:25Z</time></trkpt><trkpt lat="45.62960875771729" lon="10.714902476491098"><ele>429.0</ele><time>2026-03-28T13:33:26Z</time></trkpt><trkpt lat="45.62952094112035" lon="10.714877925778003"><ele>429.0</ele><time>2026-03-28T13:33:27Z</time></trkpt><trkpt lat="45.629435222537595" lon="10.71486472250003"><ele>429.0</ele><time>2026-03-28T13:33:28Z</time></trkpt><trkpt lat="45.62934583527782" lon="10.714864751394853"><ele>429.0</ele><time>2026-03-28T13:33:29Z</time></trkpt><trkpt lat="45.62926044226447" lon="10.714856569630891"><ele>429.0</ele><time>2026-03-28T13:33:30Z</time></trkpt><trkpt lat="45.62918366540693" lon="10.71485741747775"><ele>429.0</ele><time>2026-03-28T13:33:31Z</time></trkpt><trkpt lat="45.629120793712524" lon="10.714835489901587"><ele>431.0</ele><time>2026-03-28T13:33:32Z</time></trkpt><trkpt lat="45.62904925186505" lon="10.714778786652158"><ele>433.0</ele><time>2026-03-28T13:33:33Z</time></trkpt><trkpt lat="45.62898019793614" lon="10.714689095590552"><ele>435.0</ele><time>2026-03-28T13:33:34Z</time></trkpt><trkpt lat="45.62889786640929" lon="10.714582304157808"><ele>437.0</ele><time>2026-03-28T13:33:35Z</time></trkpt><trkpt lat="45.628818648042696" lon="10.714491000983337"><ele>439.0</ele><time>2026-03-28T13:33:36Z</time></trkpt><trkpt lat="45.62875304385415" lon="10.71444040845207"><ele>439.00000000000006</ele><time>2026-03-28T13:33:37Z</time></trkpt><trkpt lat="45.628692706300605" lon="10.714405609272072"><ele>439.0</ele><time>2026-03-28T13:33:38Z</time></trkpt><trkpt lat="45.628584287292426" lon="10.714393789879784"><ele>439.0</ele><time>2026-03-28T13:33:40Z</time></trkpt><trkpt lat="45.62851710212132" lon="10.71436834292601"><ele>439.0</ele><time>2026-03-28T13:33:41Z</time></trkpt><trkpt lat="45.62843017462504" lon="10.714327299044536"><ele>439.00000000000006</ele><time>2026-03-28T13:33:42Z</time></trkpt><trkpt lat="45.62834911312675" lon="10.714281360114239"><ele>439.0</ele><time>2026-03-28T13:33:43Z</time></trkpt><trkpt lat="45.628274326958916" lon="10.714238449098016"><ele>437.2</ele><time>2026-03-28T13:33:44Z</time></trkpt><trkpt lat="45.62818375504312" lon="10.714208990441552"><ele>435.4</ele><time>2026-03-28T13:33:45Z</time></trkpt><trkpt lat="45.628094642072334" lon="10.714186313667444"><ele>433.6</ele><time>2026-03-28T13:33:46Z</time></trkpt><trkpt lat="45.628006672991965" lon="10.714137838145488"><ele>431.8</ele><time>2026-03-28T13:33:47Z</time></trkpt><trkpt lat="45.6279405382743" lon="10.71406762364229"><ele>430.0</ele><time>2026-03-28T13:33:48Z</time></trkpt><trkpt lat="45.62786064794529" lon="10.71397819404757"><ele>431.8</ele><time>2026-03-28T13:33:49Z</time></trkpt><trkpt lat="45.62775765335146" lon="10.713906177416717"><ele>433.6</ele><time>2026-03-28T13:33:51Z</time></trkpt><trkpt lat="45.62763219263141" lon="10.713914077587766"><ele>435.4</ele><time>2026-03-28T13:33:53Z</time></trkpt><trkpt lat="45.627534749668236" lon="10.713919486220883"><ele>437.2</ele><time>2026-03-28T13:33:54Z</time></trkpt><trkpt lat="45.62743248491978" lon="10.713913588713938"><ele>439.0</ele><time>2026-03-28T13:33:55Z</time></trkpt><trkpt lat="45.62734662411578" lon="10.71389537729173"><ele>439.00000000000006</ele><time>2026-03-28T13:33:56Z</time></trkpt><trkpt lat="45.6272704096915" lon="10.713878717831335"><ele>439.0</ele><time>2026-03-28T13:33:57Z</time></trkpt><trkpt lat="45.627211098734385" lon="10.713847627257028"><ele>439.0</ele><time>2026-03-28T13:33:58Z</time></trkpt><trkpt lat="45.62716507062181" lon="10.713785274238337"><ele>439.0</ele><time>2026-03-28T13:33:59Z</time></trkpt><trkpt lat="45.627099427717305" lon="10.71370117489921"><ele>439.00000000000006</ele><time>2026-03-28T13:34:01Z</time></trkpt><trkpt lat="45.62701850107809" lon="10.713614047156927"><ele>439.0</ele><time>2026-03-28T13:34:03Z</time></trkpt><trkpt lat="45.626932027924994" lon="10.71352685674358"><ele>437.0</ele><time>2026-03-28T13:34:05Z</time></trkpt><trkpt lat="45.62686526211812" lon="10.71344002006186"><ele>435.0</ele><time>2026-03-28T13:34:07Z</time></trkpt><trkpt lat="45.62677860995541" lon="10.713319125410827"><ele>433.0</ele><time>2026-03-28T13:34:09Z</time></trkpt><trkpt lat="45.626676735742556" lon="10.713239367679744"><ele>431.0</ele><time>2026-03-28T13:34:11Z</time></trkpt><trkpt lat="45.62662580422062" lon="10.713170122530807"><ele>429.0</ele><time>2026-03-28T13:34:12Z</time></trkpt><trkpt lat="45.62654847277583" lon="10.713046969672575"><ele>429.0</ele><time>2026-03-28T13:34:14Z</time></trkpt><trkpt lat="45.626451038820306" lon="10.71291110427475"><ele>429.0</ele><time>2026-03-28T13:34:16Z</time></trkpt><trkpt lat="45.626405535304" lon="10.71283961396869"><ele>429.0</ele><time>2026-03-28T13:34:17Z</time></trkpt><trkpt lat="45.626327665373985" lon="10.712714509772958"><ele>429.0</ele><time>2026-03-28T13:34:19Z</time></trkpt><trkpt lat="45.62624185526558" lon="10.712633487993154"><ele>429.0</ele><time>2026-03-28T13:34:21Z</time></trkpt><trkpt lat="45.626170586586476" lon="10.712612890405984"><ele>427.0</ele><time>2026-03-28T13:34:22Z</time></trkpt><trkpt lat="45.62616438583771" lon="10.712390780589297"><ele>425.0</ele><time>2026-03-28T13:34:23Z</time></trkpt><trkpt lat="45.6260915369173" lon="10.71234299510498"><ele>423.0</ele><time>2026-03-28T13:34:24Z</time></trkpt><trkpt lat="45.626031588837094" lon="10.712303671969954"><ele>421.0</ele><time>2026-03-28T13:34:25Z</time></trkpt><trkpt lat="45.62596027647527" lon="10.71225689439176"><ele>419.0</ele><time>2026-03-28T13:34:26Z</time></trkpt><trkpt lat="45.62589848050474" lon="10.712222068951723"><ele>417.0</ele><time>2026-03-28T13:34:27Z</time></trkpt><trkpt lat="45.625809319060146" lon="10.712209578398102"><ele>417.0</ele><time>2026-03-28T13:34:28Z</time></trkpt><trkpt lat="45.625743046851916" lon="10.712219153190123"><ele>417.0</ele><time>2026-03-28T13:34:29Z</time></trkpt><trkpt lat="45.62568088029898" lon="10.712253502921572"><ele>417.0</ele><time>2026-03-28T13:34:30Z</time></trkpt><trkpt lat="45.625544211205856" lon="10.712386394929576"><ele>417.0</ele><time>2026-03-28T13:34:44Z</time></trkpt><trkpt lat="45.62546749540302" lon="10.71249902684885"><ele>417.0</ele><time>2026-03-28T13:34:46Z</time></trkpt><trkpt lat="45.625413533725336" lon="10.712578231272092"><ele>417.0</ele><time>2026-03-28T13:34:48Z</time></trkpt><trkpt lat="45.625336341130556" lon="10.712407853365882"><ele>417.0</ele><time>2026-03-28T13:34:50Z</time></trkpt><trkpt lat="45.625268770841814" lon="10.71232520219128"><ele>417.0</ele><time>2026-03-28T13:34:51Z</time></trkpt><trkpt lat="45.62517594245464" lon="10.71226835318411"><ele>417.0</ele><time>2026-03-28T13:34:52Z</time></trkpt><trkpt lat="45.625050001019204" lon="10.712220529221325"><ele>417.6</ele><time>2026-03-28T13:34:53Z</time></trkpt><trkpt lat="45.62494097717908" lon="10.712168124055456"><ele>418.20000000000005</ele><time>2026-03-28T13:34:54Z</time></trkpt><trkpt lat="45.62486057540126" lon="10.712107169230224"><ele>418.8</ele><time>2026-03-28T13:34:55Z</time></trkpt><trkpt lat="45.62478864360217" lon="10.712017890171104"><ele>419.4</ele><time>2026-03-28T13:34:56Z</time></trkpt><trkpt lat="45.624763989583904" lon="10.711875252402463"><ele>420.0</ele><time>2026-03-28T13:34:57Z</time></trkpt><trkpt lat="45.6246828753561" lon="10.711789790199575"><ele>417.0</ele><time>2026-03-28T13:34:58Z</time></trkpt><trkpt lat="45.62461034856636" lon="10.711687287990314"><ele>414.0</ele><time>2026-03-28T13:34:59Z</time></trkpt><trkpt lat="45.62451196199734" lon="10.711620768004138"><ele>411.0</ele><time>2026-03-28T13:35:00Z</time></trkpt><trkpt lat="45.624406542415834" lon="10.71150306636901"><ele>408.0</ele><time>2026-03-28T13:35:01Z</time></trkpt><trkpt lat="45.62426507214799" lon="10.711411168725673"><ele>408.0</ele><time>2026-03-28T13:35:02Z</time></trkpt><trkpt lat="45.624105898109335" lon="10.711310753292597"><ele>408.0</ele><time>2026-03-28T13:35:03Z</time></trkpt><trkpt lat="45.623954415474415" lon="10.711199277687536"><ele>408.0</ele><time>2026-03-28T13:35:04Z</time></trkpt><trkpt lat="45.62380448278438" lon="10.711141045130946"><ele>406.0</ele><time>2026-03-28T13:35:05Z</time></trkpt><trkpt lat="45.623682831399165" lon="10.711055250405835"><ele>404.0</ele><time>2026-03-28T13:35:06Z</time></trkpt><trkpt lat="45.62356138469697" lon="10.71100757699758"><ele>402.0</ele><time>2026-03-28T13:35:07Z</time></trkpt><trkpt lat="45.62344233828441" lon="10.710994549572975"><ele>400.0</ele><time>2026-03-28T13:35:08Z</time></trkpt><trkpt lat="45.62334972258419" lon="10.710996491751837"><ele>400.00000000000006</ele><time>2026-03-28T13:35:09Z</time></trkpt><trkpt lat="45.62326498445462" lon="10.71099306647085"><ele>400.0</ele><time>2026-03-28T13:35:10Z</time></trkpt><trkpt lat="45.623196595374786" lon="10.710984031645404"><ele>400.0</ele><time>2026-03-28T13:35:11Z</time></trkpt><trkpt lat="45.62313951685353" lon="10.710940768880652"><ele>400.0</ele><time>2026-03-28T13:35:12Z</time></trkpt><trkpt lat="45.623085578798374" lon="10.710848943293446"><ele>400.00000000000006</ele><time>2026-03-28T13:35:13Z</time></trkpt><trkpt lat="45.62301047609302" lon="10.710761494895367"><ele>400.0</ele><time>2026-03-28T13:35:14Z</time></trkpt><trkpt lat="45.62293784680667" lon="10.710706804979973"><ele>400.0</ele><time>2026-03-28T13:35:15Z</time></trkpt><trkpt lat="45.62284767967493" lon="10.710701109783859"><ele>400.0</ele><time>2026-03-28T13:35:16Z</time></trkpt><trkpt lat="45.622728548932116" lon="10.710736216102754"><ele>400.0</ele><time>2026-03-28T13:35:17Z</time></trkpt><trkpt lat="45.62258222619365" lon="10.710718078332786"><ele>400.0</ele><time>2026-03-28T13:35:18Z</time></trkpt><trkpt lat="45.62242093309023" lon="10.710685421446929"><ele>400.0</ele><time>2026-03-28T13:35:19Z</time></trkpt><trkpt lat="45.62226258069953" lon="10.710635347104791"><ele>400.0</ele><time>2026-03-28T13:35:20Z</time></trkpt><trkpt lat="45.62212541184418" lon="10.710566744571137"><ele>400.0</ele><time>2026-03-28T13:35:21Z</time></trkpt><trkpt lat="45.62200740444064" lon="10.71044360068509"><ele>400.25</ele><time>2026-03-28T13:35:22Z</time></trkpt><trkpt lat="45.62186547074971" lon="10.71036872652428"><ele>400.5</ele><time>2026-03-28T13:35:23Z</time></trkpt><trkpt lat="45.62172449317921" lon="10.710307750554492"><ele>400.75</ele><time>2026-03-28T13:35:24Z</time></trkpt><trkpt lat="45.621592489914114" lon="10.710255138906225"><ele>401.0</ele><time>2026-03-28T13:35:25Z</time></trkpt><trkpt lat="45.62147087800889" lon="10.71019467320627"><ele>399.25</ele><time>2026-03-28T13:35:26Z</time></trkpt><trkpt lat="45.621351244768995" lon="10.710128887412498"><ele>397.5</ele><time>2026-03-28T13:35:27Z</time></trkpt><trkpt lat="45.621231214255054" lon="10.710052283190567"><ele>395.75</ele><time>2026-03-28T13:35:28Z</time></trkpt><trkpt lat="45.621116418168" lon="10.70996331863583"><ele>394.0</ele><time>2026-03-28T13:35:29Z</time></trkpt><trkpt lat="45.62100646963206" lon="10.709872601963182"><ele>394.0</ele><time>2026-03-28T13:35:30Z</time></trkpt><trkpt lat="45.620893027391446" lon="10.709778593279767"><ele>394.0</ele><time>2026-03-28T13:35:31Z</time></trkpt><trkpt lat="45.62077299182807" lon="10.70966862019756"><ele>394.0</ele><time>2026-03-28T13:35:32Z</time></trkpt><trkpt lat="45.62065245980722" lon="10.709563995431134"><ele>394.0</ele><time>2026-03-28T13:35:33Z</time></trkpt><trkpt lat="45.620550426506945" lon="10.709429602843588"><ele>391.5</ele><time>2026-03-28T13:35:34Z</time></trkpt><trkpt lat="45.62044767157637" lon="10.709328402844672"><ele>389.0</ele><time>2026-03-28T13:35:35Z</time></trkpt><trkpt lat="45.62034596845776" lon="10.709266542110955"><ele>386.5</ele><time>2026-03-28T13:35:36Z</time></trkpt><trkpt lat="45.620236164565114" lon="10.709263039852523"><ele>384.0</ele><time>2026-03-28T13:35:37Z</time></trkpt><trkpt lat="45.62012239971525" lon="10.709271026507741"><ele>384.0</ele><time>2026-03-28T13:35:38Z</time></trkpt><trkpt lat="45.62000579847451" lon="10.709302105366604"><ele>384.0</ele><time>2026-03-28T13:35:39Z</time></trkpt><trkpt lat="45.6198813380553" lon="10.7093069356478"><ele>384.0</ele><time>2026-03-28T13:35:40Z</time></trkpt><trkpt lat="45.61975142097168" lon="10.70932815850264"><ele>384.0</ele><time>2026-03-28T13:35:41Z</time></trkpt><trkpt lat="45.61961982699285" lon="10.709346492091704"><ele>384.0</ele><time>2026-03-28T13:35:42Z</time></trkpt><trkpt lat="45.619487076891865" lon="10.709361589162784"><ele>384.0</ele><time>2026-03-28T13:35:43Z</time></trkpt><trkpt lat="45.61935473050835" lon="10.709370124596946"><ele>384.0</ele><time>2026-03-28T13:35:44Z</time></trkpt><trkpt lat="45.61923337496141" lon="10.709373156546205"><ele>384.0</ele><time>2026-03-28T13:35:45Z</time></trkpt><trkpt lat="45.619121444593475" lon="10.70937597240205"><ele>383.4</ele><time>2026-03-28T13:35:46Z</time></trkpt><trkpt lat="45.61903800032623" lon="10.709378071626924"><ele>382.79999999999995</ele><time>2026-03-28T13:35:47Z</time></trkpt><trkpt lat="45.618956153964206" lon="10.709406715669424"><ele>382.20000000000005</ele><time>2026-03-28T13:35:49Z</time></trkpt><trkpt lat="45.61887700973918" lon="10.70922089973095"><ele>381.6</ele><time>2026-03-28T13:35:52Z</time></trkpt><trkpt lat="45.618822040747354" lon="10.709100712829956"><ele>381.0</ele><time>2026-03-28T13:35:53Z</time></trkpt><trkpt lat="45.61875985967182" lon="10.708967054682299"><ele>381.0</ele><time>2026-03-28T13:35:54Z</time></trkpt><trkpt lat="45.6186849238146" lon="10.708805796936637"><ele>381.0</ele><time>2026-03-28T13:35:55Z</time></trkpt><trkpt lat="45.61860185810614" lon="10.708648208035568"><ele>381.0</ele><time>2026-03-28T13:35:56Z</time></trkpt><trkpt lat="45.618525482417695" lon="10.708452069039705"><ele>381.0</ele><time>2026-03-28T13:35:57Z</time></trkpt><trkpt lat="45.6184551128467" lon="10.708252248286751"><ele>381.0</ele><time>2026-03-28T13:35:58Z</time></trkpt><trkpt lat="45.61842595990929" lon="10.708068438143382"><ele>381.0</ele><time>2026-03-28T13:35:59Z</time></trkpt><trkpt lat="45.61840550097047" lon="10.707875892557404"><ele>381.0</ele><time>2026-03-28T13:36:00Z</time></trkpt><trkpt lat="45.61839601751653" lon="10.707691732244829"><ele>381.0</ele><time>2026-03-28T13:36:01Z</time></trkpt><trkpt lat="45.618390054013574" lon="10.707541533064306"><ele>379.8</ele><time>2026-03-28T13:36:02Z</time></trkpt><trkpt lat="45.61838954875148" lon="10.707433220310566"><ele>378.6</ele><time>2026-03-28T13:36:03Z</time></trkpt><trkpt lat="45.61839994029287" lon="10.707326607919802"><ele>377.4</ele><time>2026-03-28T13:36:05Z</time></trkpt><trkpt lat="45.61845787258364" lon="10.707363979340625"><ele>376.2</ele><time>2026-03-28T13:36:07Z</time></trkpt><trkpt lat="45.61849036391903" lon="10.707552559906185"><ele>375.0</ele><time>2026-03-28T13:36:09Z</time></trkpt><trkpt lat="45.61849920262036" lon="10.707705265983206"><ele>376.5</ele><time>2026-03-28T13:36:10Z</time></trkpt><trkpt lat="45.61855055673502" lon="10.707878732340156"><ele>378.0</ele><time>2026-03-28T13:36:11Z</time></trkpt><trkpt lat="45.61863480514642" lon="10.70808020159825"><ele>379.5</ele><time>2026-03-28T13:36:12Z</time></trkpt><trkpt lat="45.618734959637784" lon="10.708241605749878"><ele>381.0</ele><time>2026-03-28T13:36:13Z</time></trkpt><trkpt lat="45.6188580091161" lon="10.708372224401488"><ele>377.0</ele><time>2026-03-28T13:36:14Z</time></trkpt><trkpt lat="45.61899425856284" lon="10.708465426695383"><ele>373.0</ele><time>2026-03-28T13:36:15Z</time></trkpt><trkpt lat="45.61915512050258" lon="10.708517431768456"><ele>369.0</ele><time>2026-03-28T13:36:16Z</time></trkpt><trkpt lat="45.61929619336851" lon="10.708560316236376"><ele>368.75</ele><time>2026-03-28T13:36:17Z</time></trkpt><trkpt lat="45.619431282763934" lon="10.708578670511361"><ele>368.5</ele><time>2026-03-28T13:36:18Z</time></trkpt><trkpt lat="45.61956064971181" lon="10.708558198221153"><ele>368.25</ele><time>2026-03-28T13:36:19Z</time></trkpt><trkpt lat="45.61970426758635" lon="10.708496316795339"><ele>368.0</ele><time>2026-03-28T13:36:20Z</time></trkpt><trkpt lat="45.61985905207255" lon="10.708425204821951"><ele>368.0</ele><time>2026-03-28T13:36:21Z</time></trkpt><trkpt lat="45.62003195648552" lon="10.708335767059893"><ele>368.0</ele><time>2026-03-28T13:36:22Z</time></trkpt><trkpt lat="45.62018219756591" lon="10.708289294149433"><ele>368.0</ele><time>2026-03-28T13:36:23Z</time></trkpt><trkpt lat="45.62030183586871" lon="10.70825356477588"><ele>367.2</ele><time>2026-03-28T13:36:24Z</time></trkpt><trkpt lat="45.62040544331279" lon="10.708248534874805"><ele>366.4</ele><time>2026-03-28T13:36:25Z</time></trkpt><trkpt lat="45.62049602121943" lon="10.708302350995272"><ele>365.59999999999997</ele><time>2026-03-28T13:36:26Z</time></trkpt><trkpt lat="45.620565445561496" lon="10.70832359419718"><ele>364.79999999999995</ele><time>2026-03-28T13:36:27Z</time></trkpt><trkpt lat="45.62064407080226" lon="10.708320319713774"><ele>364.0</ele><time>2026-03-28T13:36:29Z</time></trkpt><trkpt lat="45.62063251906534" lon="10.708179969178861"><ele>364.0</ele><time>2026-03-28T13:36:30Z</time></trkpt><trkpt lat="45.62048781569717" lon="10.708070745486422"><ele>364.0</ele><time>2026-03-28T13:36:32Z</time></trkpt><trkpt lat="45.62036662206412" lon="10.70805069785024"><ele>364.0</ele><time>2026-03-28T13:36:33Z</time></trkpt><trkpt lat="45.620240062121766" lon="10.708012966753921"><ele>364.0</ele><time>2026-03-28T13:36:34Z</time></trkpt><trkpt lat="45.620121734235624" lon="10.707977703023431"><ele>365.0</ele><time>2026-03-28T13:36:35Z</time></trkpt><trkpt lat="45.62000513951185" lon="10.707941877095223"><ele>366.0</ele><time>2026-03-28T13:36:36Z</time></trkpt><trkpt lat="45.61989373824416" lon="10.707902768035"><ele>367.0</ele><time>2026-03-28T13:36:37Z</time></trkpt><trkpt lat="45.61977906387364" lon="10.70787319867438"><ele>368.0</ele><time>2026-03-28T13:36:38Z</time></trkpt><trkpt lat="45.61967471856159" lon="10.707838234628808"><ele>368.0</ele><time>2026-03-28T13:36:39Z</time></trkpt><trkpt lat="45.61958279784855" lon="10.707783354663906"><ele>368.0</ele><time>2026-03-28T13:36:40Z</time></trkpt><trkpt lat="45.6194943641271" lon="10.707754494453438"><ele>368.0</ele><time>2026-03-28T13:36:41Z</time></trkpt><trkpt lat="45.61942835663292" lon="10.707665416890684"><ele>368.0</ele><time>2026-03-28T13:36:42Z</time></trkpt><trkpt lat="45.61939144926204" lon="10.707561866807309"><ele>368.0</ele><time>2026-03-28T13:36:43Z</time></trkpt><trkpt lat="45.61940603198337" lon="10.707422672039286"><ele>365.59999999999997</ele><time>2026-03-28T13:36:44Z</time></trkpt><trkpt lat="45.619414881672796" lon="10.70728139505131"><ele>363.2</ele><time>2026-03-28T13:36:45Z</time></trkpt><trkpt lat="45.61939959289061" lon="10.70713530049224"><ele>360.8</ele><time>2026-03-28T13:36:46Z</time></trkpt><trkpt lat="45.61938658308996" lon="10.706985789805785"><ele>358.4</ele><time>2026-03-28T13:36:47Z</time></trkpt><trkpt lat="45.61935528061647" lon="10.706852939028074"><ele>356.0</ele><time>2026-03-28T13:36:48Z</time></trkpt><trkpt lat="45.61930905861437" lon="10.706728246104797"><ele>354.6</ele><time>2026-03-28T13:36:49Z</time></trkpt><trkpt lat="45.61925263324718" lon="10.706604459813796"><ele>353.20000000000005</ele><time>2026-03-28T13:36:50Z</time></trkpt><trkpt lat="45.619188416015945" lon="10.706491067234689"><ele>351.79999999999995</ele><time>2026-03-28T13:36:51Z</time></trkpt><trkpt lat="45.6191211451392" lon="10.70639725033875"><ele>350.4</ele><time>2026-03-28T13:36:52Z</time></trkpt><trkpt lat="45.619040280319865" lon="10.706273335827335"><ele>349.0</ele><time>2026-03-28T13:36:53Z</time></trkpt><trkpt lat="45.618917132276444" lon="10.706139378435472"><ele>348.0</ele><time>2026-03-28T13:36:54Z</time></trkpt><trkpt lat="45.61877472660521" lon="10.705983118071208"><ele>347.0</ele><time>2026-03-28T13:36:55Z</time></trkpt><trkpt lat="45.618624799276496" lon="10.705818604239667"><ele>346.0</ele><time>2026-03-28T13:36:56Z</time></trkpt><trkpt lat="45.618455791099684" lon="10.705639075285827"><ele>346.0</ele><time>2026-03-28T13:36:57Z</time></trkpt><trkpt lat="45.61828168159631" lon="10.705455255248065"><ele>346.0</ele><time>2026-03-28T13:36:58Z</time></trkpt><trkpt lat="45.618116299281276" lon="10.70528013029416"><ele>346.0</ele><time>2026-03-28T13:36:59Z</time></trkpt><trkpt lat="45.61797268849253" lon="10.705121748714955"><ele>343.75</ele><time>2026-03-28T13:37:00Z</time></trkpt><trkpt lat="45.61785298877656" lon="10.704996787226749"><ele>341.5</ele><time>2026-03-28T13:37:01Z</time></trkpt><trkpt lat="45.617754865375574" lon="10.70489914061317"><ele>339.25</ele><time>2026-03-28T13:37:02Z</time></trkpt><trkpt lat="45.617653557002086" lon="10.704829689183683"><ele>337.0</ele><time>2026-03-28T13:37:03Z</time></trkpt><trkpt lat="45.617584596568555" lon="10.704749743307394"><ele>337.0</ele><time>2026-03-28T13:37:04Z</time></trkpt><trkpt lat="45.61750202089072" lon="10.704721723498276"><ele>337.0</ele><time>2026-03-28T13:37:05Z</time></trkpt><trkpt lat="45.61739433882134" lon="10.704744222004615"><ele>337.0</ele><time>2026-03-28T13:37:06Z</time></trkpt><trkpt lat="45.61726120977709" lon="10.70474837452127"><ele>337.0</ele><time>2026-03-28T13:37:07Z</time></trkpt><trkpt lat="45.617109398570776" lon="10.704765132070873"><ele>336.3333333333333</ele><time>2026-03-28T13:37:08Z</time></trkpt><trkpt lat="45.6169448287028" lon="10.704783300028488"><ele>335.6666666666667</ele><time>2026-03-28T13:37:09Z</time></trkpt><trkpt lat="45.616773153008744" lon="10.704801348142256"><ele>335.0</ele><time>2026-03-28T13:37:10Z</time></trkpt><trkpt lat="45.61662132012833" lon="10.704816581239427"><ele>335.0</ele><time>2026-03-28T13:37:11Z</time></trkpt><trkpt lat="45.61648967138096" lon="10.704828054279792"><ele>335.0</ele><time>2026-03-28T13:37:12Z</time></trkpt><trkpt lat="45.61638807346962" lon="10.70482222116757"><ele>335.0</ele><time>2026-03-28T13:37:13Z</time></trkpt><trkpt lat="45.61629694796869" lon="10.704787567363228"><ele>335.0</ele><time>2026-03-28T13:37:14Z</time></trkpt><trkpt lat="45.61620935882146" lon="10.70469005465127"><ele>335.0</ele><time>2026-03-28T13:37:15Z</time></trkpt><trkpt lat="45.61611051790764" lon="10.704562974829427"><ele>335.6666666666667</ele><time>2026-03-28T13:37:16Z</time></trkpt><trkpt lat="45.615993021578205" lon="10.704430635557026"><ele>336.3333333333333</ele><time>2026-03-28T13:37:17Z</time></trkpt><trkpt lat="45.615864498433396" lon="10.70429020239821"><ele>337.0</ele><time>2026-03-28T13:37:18Z</time></trkpt><trkpt lat="45.61572635177809" lon="10.704139253863596"><ele>332.66666666666663</ele><time>2026-03-28T13:37:19Z</time></trkpt><trkpt lat="45.61557428785165" lon="10.703974762809068"><ele>328.3333333333333</ele><time>2026-03-28T13:37:20Z</time></trkpt><trkpt lat="45.61541474857816" lon="10.70380438679104"><ele>324.0</ele><time>2026-03-28T13:37:21Z</time></trkpt><trkpt lat="45.61524874429335" lon="10.703628925729916"><ele>321.6666666666667</ele><time>2026-03-28T13:37:22Z</time></trkpt><trkpt lat="45.61508283841251" lon="10.703453568821104"><ele>319.33333333333337</ele><time>2026-03-28T13:37:23Z</time></trkpt><trkpt lat="45.61493035192482" lon="10.703292555905508"><ele>317.0</ele><time>2026-03-28T13:37:24Z</time></trkpt><trkpt lat="45.61481337599161" lon="10.70316905319632"><ele>317.0</ele><time>2026-03-28T13:37:25Z</time></trkpt><trkpt lat="45.614706751485194" lon="10.703063894281529"><ele>317.0</ele><time>2026-03-28T13:37:26Z</time></trkpt><trkpt lat="45.61460503347959" lon="10.702973973292897"><ele>317.0</ele><time>2026-03-28T13:37:27Z</time></trkpt><trkpt lat="45.614473467159215" lon="10.702933205361285"><ele>317.0</ele><time>2026-03-28T13:37:28Z</time></trkpt><trkpt lat="45.61432569173248" lon="10.702873169711111"><ele>315.6666666666667</ele><time>2026-03-28T13:37:29Z</time></trkpt><trkpt lat="45.61416207052744" lon="10.702808593134172"><ele>314.3333333333333</ele><time>2026-03-28T13:37:30Z</time></trkpt><trkpt lat="45.61399761609338" lon="10.70274349463873"><ele>313.0</ele><time>2026-03-28T13:37:31Z</time></trkpt><trkpt lat="45.61385979651829" lon="10.70268849987701"><ele>312.0</ele><time>2026-03-28T13:37:32Z</time></trkpt><trkpt lat="45.613755999894565" lon="10.702647744083958"><ele>311.0</ele><time>2026-03-28T13:37:33Z</time></trkpt><trkpt lat="45.61364741698696" lon="10.702606350309404"><ele>310.0</ele><time>2026-03-28T13:37:34Z</time></trkpt><trkpt lat="45.61352366866093" lon="10.702561191671581"><ele>309.0</ele><time>2026-03-28T13:37:35Z</time></trkpt><trkpt lat="45.61337997165118" lon="10.702510420381223"><ele>309.0</ele><time>2026-03-28T13:37:36Z</time></trkpt><trkpt lat="45.61322704161261" lon="10.702460625156045"><ele>309.0</ele><time>2026-03-28T13:37:37Z</time></trkpt><trkpt lat="45.61307353279654" lon="10.702411730480007"><ele>309.0</ele><time>2026-03-28T13:37:38Z</time></trkpt><trkpt lat="45.61292534117448" lon="10.702387783819526"><ele>309.0</ele><time>2026-03-28T13:37:39Z</time></trkpt><trkpt lat="45.612806344642586" lon="10.702324435077141"><ele>309.0</ele><time>2026-03-28T13:37:40Z</time></trkpt><trkpt lat="45.61268401227982" lon="10.70228258422779"><ele>309.0</ele><time>2026-03-28T13:37:41Z</time></trkpt><trkpt lat="45.61257126928506" lon="10.70224369066549"><ele>309.0</ele><time>2026-03-28T13:37:42Z</time></trkpt><trkpt lat="45.612466256721014" lon="10.702216346515543"><ele>309.0</ele><time>2026-03-28T13:37:43Z</time></trkpt><trkpt lat="45.61236129954061" lon="10.702176794439074"><ele>309.0</ele><time>2026-03-28T13:37:44Z</time></trkpt><trkpt lat="45.61226484473513" lon="10.702117987538056"><ele>309.0</ele><time>2026-03-28T13:37:45Z</time></trkpt><trkpt lat="45.612162322752695" lon="10.702105157670497"><ele>309.0</ele><time>2026-03-28T13:37:46Z</time></trkpt><trkpt lat="45.612075285737056" lon="10.702054978363467"><ele>309.0</ele><time>2026-03-28T13:37:47Z</time></trkpt><trkpt lat="45.611989440022164" lon="10.702057646031744"><ele>309.0</ele><time>2026-03-28T13:37:48Z</time></trkpt><trkpt lat="45.611908365430835" lon="10.70205474200244"><ele>309.0</ele><time>2026-03-28T13:37:49Z</time></trkpt><trkpt lat="45.61183628475714" lon="10.702060376087019"><ele>309.0</ele><time>2026-03-28T13:37:50Z</time></trkpt><trkpt lat="45.61172640258505" lon="10.702126083003956"><ele>309.0</ele><time>2026-03-28T13:37:52Z</time></trkpt><trkpt lat="45.61162773306469" lon="10.702190616043174"><ele>309.0</ele><time>2026-03-28T13:37:54Z</time></trkpt><trkpt lat="45.61157007729968" lon="10.702141374237723"><ele>309.0</ele><time>2026-03-28T13:37:55Z</time></trkpt><trkpt lat="45.61152105383142" lon="10.70208485898081"><ele>309.0</ele><time>2026-03-28T13:37:56Z</time></trkpt><trkpt lat="45.61149842816534" lon="10.70199479380763"><ele>309.0</ele><time>2026-03-28T13:37:57Z</time></trkpt><trkpt lat="45.61138605204869" lon="10.701921429510774"><ele>309.0</ele><time>2026-03-28T13:37:59Z</time></trkpt><trkpt lat="45.61130273764086" lon="10.70189902043953"><ele>309.0</ele><time>2026-03-28T13:38:00Z</time></trkpt><trkpt lat="45.61119352089042" lon="10.701926583251009"><ele>309.0</ele><time>2026-03-28T13:38:01Z</time></trkpt><trkpt lat="45.61105734742856" lon="10.701933083665097"><ele>308.59999999999997</ele><time>2026-03-28T13:38:02Z</time></trkpt><trkpt lat="45.610917243936406" lon="10.701951958418423"><ele>308.2</ele><time>2026-03-28T13:38:03Z</time></trkpt><trkpt lat="45.61080396684348" lon="10.701941196192042"><ele>307.79999999999995</ele><time>2026-03-28T13:38:04Z</time></trkpt><trkpt lat="45.61072222178742" lon="10.701922242440782"><ele>307.4</ele><time>2026-03-28T13:38:05Z</time></trkpt><trkpt lat="45.61061463344937" lon="10.701880293832962"><ele>307.0</ele><time>2026-03-28T13:38:06Z</time></trkpt><trkpt lat="45.61050058103715" lon="10.701814492191147"><ele>306.3333333333333</ele><time>2026-03-28T13:38:07Z</time></trkpt><trkpt lat="45.61034836156476" lon="10.701720218117416"><ele>305.6666666666667</ele><time>2026-03-28T13:38:08Z</time></trkpt><trkpt lat="45.61018598466577" lon="10.701617654673512"><ele>305.0</ele><time>2026-03-28T13:38:09Z</time></trkpt><trkpt lat="45.610010149081496" lon="10.70150759937798"><ele>305.0</ele><time>2026-03-28T13:38:10Z</time></trkpt><trkpt lat="45.6098561662858" lon="10.701398686019388"><ele>305.0</ele><time>2026-03-28T13:38:11Z</time></trkpt><trkpt lat="45.6097220491388" lon="10.701296497646569"><ele>305.0</ele><time>2026-03-28T13:38:12Z</time></trkpt><trkpt lat="45.60958197682499" lon="10.701214855933868"><ele>305.33333333333337</ele><time>2026-03-28T13:38:13Z</time></trkpt><trkpt lat="45.60940536496855" lon="10.70118237721983"><ele>305.6666666666667</ele><time>2026-03-28T13:38:14Z</time></trkpt><trkpt lat="45.60922100783689" lon="10.701104075867073"><ele>306.0</ele><time>2026-03-28T13:38:15Z</time></trkpt><trkpt lat="45.6090544101683" lon="10.70105313944589"><ele>304.75</ele><time>2026-03-28T13:38:16Z</time></trkpt><trkpt lat="45.608903611479256" lon="10.7010179233898"><ele>303.5</ele><time>2026-03-28T13:38:17Z</time></trkpt><trkpt lat="45.608761568269244" lon="10.700987686729645"><ele>302.25</ele><time>2026-03-28T13:38:18Z</time></trkpt><trkpt lat="45.60863124435971" lon="10.700955378298676"><ele>301.0</ele><time>2026-03-28T13:38:19Z</time></trkpt><trkpt lat="45.60851848416872" lon="10.700920337332075"><ele>301.0</ele><time>2026-03-28T13:38:20Z</time></trkpt><trkpt lat="45.60840933342932" lon="10.700874841824291"><ele>301.0</ele><time>2026-03-28T13:38:21Z</time></trkpt><trkpt lat="45.60829729444999" lon="10.700821680334036"><ele>301.0</ele><time>2026-03-28T13:38:22Z</time></trkpt><trkpt lat="45.60819106086754" lon="10.700769144889836"><ele>301.0</ele><time>2026-03-28T13:38:23Z</time></trkpt><trkpt lat="45.608086736762395" lon="10.700718604771815"><ele>301.0</ele><time>2026-03-28T13:38:24Z</time></trkpt><trkpt lat="45.607959044161255" lon="10.700664779377293"><ele>301.0</ele><time>2026-03-28T13:38:25Z</time></trkpt><trkpt lat="45.60780157900968" lon="10.700610668999158"><ele>301.0</ele><time>2026-03-28T13:38:26Z</time></trkpt><trkpt lat="45.60764222037747" lon="10.70056270570841"><ele>301.75</ele><time>2026-03-28T13:38:27Z</time></trkpt><trkpt lat="45.60749789882983" lon="10.7005328077206"><ele>302.5</ele><time>2026-03-28T13:38:28Z</time></trkpt><trkpt lat="45.60736103498079" lon="10.700553761912637"><ele>303.25</ele><time>2026-03-28T13:38:29Z</time></trkpt><trkpt lat="45.6072384996412" lon="10.700558860509055"><ele>304.0</ele><time>2026-03-28T13:38:30Z</time></trkpt><trkpt lat="45.60711880160698" lon="10.700546740061899"><ele>304.0</ele><time>2026-03-28T13:38:31Z</time></trkpt><trkpt lat="45.607016945487835" lon="10.700541702746905"><ele>304.0</ele><time>2026-03-28T13:38:32Z</time></trkpt><trkpt lat="45.60694024360081" lon="10.700533941911583"><ele>304.0</ele><time>2026-03-28T13:38:33Z</time></trkpt><trkpt lat="45.60687070968929" lon="10.700513747321041"><ele>304.0</ele><time>2026-03-28T13:38:34Z</time></trkpt><trkpt lat="45.606775862260086" lon="10.700457917705737"><ele>304.0</ele><time>2026-03-28T13:38:36Z</time></trkpt><trkpt lat="45.60677295682505" lon="10.700291258441274"><ele>301.8</ele><time>2026-03-28T13:38:38Z</time></trkpt><trkpt lat="45.60678872725973" lon="10.700187669147772"><ele>299.59999999999997</ele><time>2026-03-28T13:38:39Z</time></trkpt><trkpt lat="45.6069093672724" lon="10.700155363241745"><ele>297.4</ele><time>2026-03-28T13:38:40Z</time></trkpt><trkpt lat="45.607004790349556" lon="10.70015646561771"><ele>295.2</ele><time>2026-03-28T13:38:41Z</time></trkpt><trkpt lat="45.60713461339186" lon="10.700146033160975"><ele>293.0</ele><time>2026-03-28T13:38:42Z</time></trkpt><trkpt lat="45.6072596549343" lon="10.700137837919234"><ele>292.5</ele><time>2026-03-28T13:38:43Z</time></trkpt><trkpt lat="45.60736779788574" lon="10.70011818345006"><ele>292.0</ele><time>2026-03-28T13:38:44Z</time></trkpt><trkpt lat="45.60747290848164" lon="10.700099740623843"><ele>291.5</ele><time>2026-03-28T13:38:45Z</time></trkpt><trkpt lat="45.607585849397815" lon="10.70005910583696"><ele>291.0</ele><time>2026-03-28T13:38:46Z</time></trkpt><trkpt lat="45.60771103858111" lon="10.699998801482947"><ele>290.0</ele><time>2026-03-28T13:38:47Z</time></trkpt><trkpt lat="45.60782721413092" lon="10.699949708705628"><ele>289.0</ele><time>2026-03-28T13:38:48Z</time></trkpt><trkpt lat="45.60792899160946" lon="10.699931970265416"><ele>288.0</ele><time>2026-03-28T13:38:49Z</time></trkpt><trkpt lat="45.608017960475934" lon="10.699933589322535"><ele>287.0</ele><time>2026-03-28T13:38:50Z</time></trkpt><trkpt lat="45.608124044334225" lon="10.699980912259173"><ele>286.0</ele><time>2026-03-28T13:38:51Z</time></trkpt><trkpt lat="45.608248018487274" lon="10.700037325206958"><ele>286.0</ele><time>2026-03-28T13:38:52Z</time></trkpt><trkpt lat="45.60836034952513" lon="10.700092079921275"><ele>286.0</ele><time>2026-03-28T13:38:53Z</time></trkpt><trkpt lat="45.60845937517" lon="10.700129577939183"><ele>286.0</ele><time>2026-03-28T13:38:54Z</time></trkpt><trkpt lat="45.60854158134244" lon="10.700145925807098"><ele>286.0</ele><time>2026-03-28T13:38:55Z</time></trkpt><trkpt lat="45.60862832793451" lon="10.7001498243908"><ele>286.0</ele><time>2026-03-28T13:38:56Z</time></trkpt><trkpt lat="45.608698122733756" lon="10.700164183216305"><ele>283.6</ele><time>2026-03-28T13:38:57Z</time></trkpt><trkpt lat="45.60877457931727" lon="10.700163980935638"><ele>281.20000000000005</ele><time>2026-03-28T13:38:58Z</time></trkpt><trkpt lat="45.60884472619646" lon="10.700167577828488"><ele>278.79999999999995</ele><time>2026-03-28T13:38:59Z</time></trkpt><trkpt lat="45.60895932743669" lon="10.700179092925563"><ele>276.4</ele><time>2026-03-28T13:39:01Z</time></trkpt><trkpt lat="45.60906994149272" lon="10.700198714109705"><ele>274.0</ele><time>2026-03-28T13:39:03Z</time></trkpt><trkpt lat="45.609166221489964" lon="10.700200667589653"><ele>274.0</ele><time>2026-03-28T13:39:05Z</time></trkpt><trkpt lat="45.60922788383304" lon="10.700112319754979"><ele>274.0</ele><time>2026-03-28T13:39:07Z</time></trkpt><trkpt lat="45.609165596171266" lon="10.699984523120861"><ele>274.0</ele><time>2026-03-28T13:39:09Z</time></trkpt><trkpt lat="45.60909314670386" lon="10.699960222152153"><ele>274.0</ele><time>2026-03-28T13:39:10Z</time></trkpt><trkpt lat="45.60900547511362" lon="10.699955263749473"><ele>274.0</ele><time>2026-03-28T13:39:11Z</time></trkpt><trkpt lat="45.60890562280664" lon="10.699939555196202"><ele>274.0</ele><time>2026-03-28T13:39:12Z</time></trkpt><trkpt lat="45.6088017902886" lon="10.699877790971753"><ele>274.0</ele><time>2026-03-28T13:39:13Z</time></trkpt><trkpt lat="45.608715633552166" lon="10.699862737466262"><ele>274.0</ele><time>2026-03-28T13:39:14Z</time></trkpt><trkpt lat="45.60865221926267" lon="10.699834976144423"><ele>274.0</ele><time>2026-03-28T13:39:15Z</time></trkpt><trkpt lat="45.6085907192589" lon="10.699798449618195"><ele>274.0</ele><time>2026-03-28T13:39:16Z</time></trkpt><trkpt lat="45.60852347730413" lon="10.69975710911485"><ele>274.0</ele><time>2026-03-28T13:39:17Z</time></trkpt><trkpt lat="45.60845319080513" lon="10.699721362312975"><ele>273.0</ele><time>2026-03-28T13:39:18Z</time></trkpt><trkpt lat="45.60836855424829" lon="10.699685758877948"><ele>272.0</ele><time>2026-03-28T13:39:19Z</time></trkpt><trkpt lat="45.60828485115678" lon="10.699633159936848"><ele>271.0</ele><time>2026-03-28T13:39:20Z</time></trkpt><trkpt lat="45.60821298484523" lon="10.699576241835329"><ele>270.0</ele><time>2026-03-28T13:39:21Z</time></trkpt><trkpt lat="45.60815080608506" lon="10.699510800377167"><ele>269.0</ele><time>2026-03-28T13:39:22Z</time></trkpt><trkpt lat="45.60808272507505" lon="10.699447806626514"><ele>268.0</ele><time>2026-03-28T13:39:23Z</time></trkpt><trkpt lat="45.6079970924465" lon="10.699402564383782"><ele>268.0</ele><time>2026-03-28T13:39:24Z</time></trkpt><trkpt lat="45.60789745429317" lon="10.699389142599646"><ele>268.0</ele><time>2026-03-28T13:39:25Z</time></trkpt><trkpt lat="45.60780977358944" lon="10.699366649713149"><ele>268.0</ele><time>2026-03-28T13:39:26Z</time></trkpt><trkpt lat="45.60772875969699" lon="10.699357034303544"><ele>268.0</ele><time>2026-03-28T13:39:27Z</time></trkpt><trkpt lat="45.607635728866725" lon="10.699312437386249"><ele>268.0</ele><time>2026-03-28T13:39:28Z</time></trkpt><trkpt lat="45.60754243712508" lon="10.699231424556187"><ele>268.6</ele><time>2026-03-28T13:39:29Z</time></trkpt><trkpt lat="45.60745344353178" lon="10.699161700821131"><ele>269.20000000000005</ele><time>2026-03-28T13:39:30Z</time></trkpt><trkpt lat="45.607383738912915" lon="10.699068306825058"><ele>269.8</ele><time>2026-03-28T13:39:31Z</time></trkpt><trkpt lat="45.607324267048234" lon="10.698969653194942"><ele>270.40000000000003</ele><time>2026-03-28T13:39:32Z</time></trkpt><trkpt lat="45.607273384593384" lon="10.698845170000398"><ele>271.0</ele><time>2026-03-28T13:39:33Z</time></trkpt><trkpt lat="45.60725173017408" lon="10.698682164685497"><ele>270.0</ele><time>2026-03-28T13:39:34Z</time></trkpt><trkpt lat="45.607192777070985" lon="10.698527767117493"><ele>269.0</ele><time>2026-03-28T13:39:35Z</time></trkpt><trkpt lat="45.60714463219716" lon="10.698381535214978"><ele>268.0</ele><time>2026-03-28T13:39:36Z</time></trkpt><trkpt lat="45.60705419098579" lon="10.698225340232776"><ele>267.0</ele><time>2026-03-28T13:39:37Z</time></trkpt><trkpt lat="45.60694261483776" lon="10.698064014322117"><ele>267.0</ele><time>2026-03-28T13:39:38Z</time></trkpt><trkpt lat="45.606819084276054" lon="10.697896839309005"><ele>267.0</ele><time>2026-03-28T13:39:39Z</time></trkpt><trkpt lat="45.60671969943133" lon="10.697735771700264"><ele>267.0</ele><time>2026-03-28T13:39:40Z</time></trkpt><trkpt lat="45.606646184855556" lon="10.697579731847789"><ele>265.0</ele><time>2026-03-28T13:39:41Z</time></trkpt><trkpt lat="45.60656215361945" lon="10.697486778723874"><ele>263.0</ele><time>2026-03-28T13:39:42Z</time></trkpt><trkpt lat="45.60650336629555" lon="10.697393060250823"><ele>261.0</ele><time>2026-03-28T13:39:43Z</time></trkpt><trkpt lat="45.606460607472854" lon="10.697290278916812"><ele>259.0</ele><time>2026-03-28T13:39:44Z</time></trkpt><trkpt lat="45.60644210867598" lon="10.69718681447612"><ele>257.0</ele><time>2026-03-28T13:39:45Z</time></trkpt><trkpt lat="45.60645034283635" lon="10.697043022609515"><ele>255.2</ele><time>2026-03-28T13:39:46Z</time></trkpt><trkpt lat="45.6064719462868" lon="10.69689103196671"><ele>253.39999999999998</ele><time>2026-03-28T13:39:47Z</time></trkpt><trkpt lat="45.60647932952569" lon="10.696750290777786"><ele>251.60000000000002</ele><time>2026-03-28T13:39:48Z</time></trkpt><trkpt lat="45.60648018363211" lon="10.696618206782007"><ele>249.8</ele><time>2026-03-28T13:39:49Z</time></trkpt><trkpt lat="45.606483034067566" lon="10.696505551525554"><ele>248.0</ele><time>2026-03-28T13:39:50Z</time></trkpt><trkpt lat="45.60647129482196" lon="10.696401690125413"><ele>248.0</ele><time>2026-03-28T13:39:51Z</time></trkpt><trkpt lat="45.60643491628312" lon="10.696293352284275"><ele>248.0</ele><time>2026-03-28T13:39:52Z</time></trkpt><trkpt lat="45.60634862545425" lon="10.696188614731426"><ele>248.0</ele><time>2026-03-28T13:39:53Z</time></trkpt><trkpt lat="45.60622470261937" lon="10.696078714834526"><ele>248.0</ele><time>2026-03-28T13:39:54Z</time></trkpt><trkpt lat="45.606073137647854" lon="10.695965605757383"><ele>247.75</ele><time>2026-03-28T13:39:55Z</time></trkpt><trkpt lat="45.605942871706546" lon="10.695854740027496"><ele>247.5</ele><time>2026-03-28T13:39:56Z</time></trkpt><trkpt lat="45.6058541330851" lon="10.695712749516451"><ele>247.25</ele><time>2026-03-28T13:39:57Z</time></trkpt><trkpt lat="45.60577151090509" lon="10.695594505462756"><ele>247.0</ele><time>2026-03-28T13:39:58Z</time></trkpt><trkpt lat="45.60569489342182" lon="10.695486619266418"><ele>246.99999999999997</ele><time>2026-03-28T13:39:59Z</time></trkpt><trkpt lat="45.60563429340459" lon="10.695410834473318"><ele>247.0</ele><time>2026-03-28T13:40:00Z</time></trkpt><trkpt lat="45.60558227905444" lon="10.695347883525516"><ele>247.0</ele><time>2026-03-28T13:40:02Z</time></trkpt><trkpt lat="45.60553166207306" lon="10.6952628364727"><ele>247.0</ele><time>2026-03-28T13:40:07Z</time></trkpt><trkpt lat="45.60558099728516" lon="10.695190813870108"><ele>246.99999999999997</ele><time>2026-03-28T13:40:09Z</time></trkpt><trkpt lat="45.60564955426156" lon="10.69520634585848"><ele>247.0</ele><time>2026-03-28T13:40:10Z</time></trkpt><trkpt lat="45.60573189563695" lon="10.695266723562627"><ele>247.0</ele><time>2026-03-28T13:40:11Z</time></trkpt><trkpt lat="45.605833304745204" lon="10.69537117020786"><ele>247.0</ele><time>2026-03-28T13:40:12Z</time></trkpt><trkpt lat="45.60596663547026" lon="10.695469615088232"><ele>247.0</ele><time>2026-03-28T13:40:13Z</time></trkpt><trkpt lat="45.60612116625011" lon="10.69555300821727"><ele>247.0</ele><time>2026-03-28T13:40:14Z</time></trkpt><trkpt lat="45.60628591967242" lon="10.695677000581997"><ele>242.33333333333331</ele><time>2026-03-28T13:40:15Z</time></trkpt><trkpt lat="45.606451105502586" lon="10.695784234374937"><ele>237.66666666666669</ele><time>2026-03-28T13:40:16Z</time></trkpt><trkpt lat="45.60660879485271" lon="10.695859574057495"><ele>233.0</ele><time>2026-03-28T13:40:17Z</time></trkpt><trkpt lat="45.60675292269252" lon="10.695912579796673"><ele>233.0</ele><time>2026-03-28T13:40:18Z</time></trkpt><trkpt lat="45.606869386870976" lon="10.695973599626779"><ele>233.0</ele><time>2026-03-28T13:40:19Z</time></trkpt><trkpt lat="45.606961548121916" lon="10.696091578423419"><ele>233.0</ele><time>2026-03-28T13:40:20Z</time></trkpt><trkpt lat="45.60705722960233" lon="10.696173210486457"><ele>233.0</ele><time>2026-03-28T13:40:21Z</time></trkpt><trkpt lat="45.607116289611696" lon="10.696246539992991"><ele>233.0</ele><time>2026-03-28T13:40:22Z</time></trkpt><trkpt lat="45.607172688330564" lon="10.696292666358621"><ele>233.0</ele><time>2026-03-28T13:40:23Z</time></trkpt><trkpt lat="45.6072504257053" lon="10.696201167195746"><ele>233.0</ele><time>2026-03-28T13:40:25Z</time></trkpt><trkpt lat="45.607229527389066" lon="10.69611048022067"><ele>233.0</ele><time>2026-03-28T13:40:26Z</time></trkpt><trkpt lat="45.607169488003514" lon="10.69601753629209"><ele>233.0</ele><time>2026-03-28T13:40:27Z</time></trkpt><trkpt lat="45.60707948496534" lon="10.695907479821201"><ele>233.0</ele><time>2026-03-28T13:40:28Z</time></trkpt><trkpt lat="45.60697172670894" lon="10.695760996389732"><ele>233.0</ele><time>2026-03-28T13:40:29Z</time></trkpt><trkpt lat="45.60684682280668" lon="10.69560312271392"><ele>233.0</ele><time>2026-03-28T13:40:30Z</time></trkpt><trkpt lat="45.60669562849945" lon="10.695460191304907"><ele>233.0</ele><time>2026-03-28T13:40:31Z</time></trkpt><trkpt lat="45.60654561334575" lon="10.695301164900092"><ele>231.66666666666669</ele><time>2026-03-28T13:40:32Z</time></trkpt><trkpt lat="45.60639487444545" lon="10.695158068444938"><ele>230.33333333333331</ele><time>2026-03-28T13:40:33Z</time></trkpt><trkpt lat="45.60625568090265" lon="10.695018658159723"><ele>229.0</ele><time>2026-03-28T13:40:34Z</time></trkpt><trkpt lat="45.6061385479463" lon="10.694894827935972"><ele>229.0</ele><time>2026-03-28T13:40:35Z</time></trkpt><trkpt lat="45.60602614513536" lon="10.694760220407778"><ele>229.0</ele><time>2026-03-28T13:40:36Z</time></trkpt><trkpt lat="45.605916253491266" lon="10.694618145514179"><ele>229.0</ele><time>2026-03-28T13:40:37Z</time></trkpt><trkpt lat="45.605806162482374" lon="10.694442508373562"><ele>222.66666666666666</ele><time>2026-03-28T13:40:38Z</time></trkpt><trkpt lat="45.60567888076428" lon="10.69426874692933"><ele>216.33333333333331</ele><time>2026-03-28T13:40:39Z</time></trkpt><trkpt lat="45.60553044693303" lon="10.694109477420206"><ele>210.0</ele><time>2026-03-28T13:40:40Z</time></trkpt><trkpt lat="45.60539113149817" lon="10.693927970487405"><ele>208.66666666666669</ele><time>2026-03-28T13:40:41Z</time></trkpt><trkpt lat="45.60524267582257" lon="10.693795860883574"><ele>207.33333333333334</ele><time>2026-03-28T13:40:42Z</time></trkpt><trkpt lat="45.60510713967126" lon="10.693660314051103"><ele>206.0</ele><time>2026-03-28T13:40:43Z</time></trkpt><trkpt lat="45.604964381253524" lon="10.693504953611052"><ele>206.0</ele><time>2026-03-28T13:40:44Z</time></trkpt><trkpt lat="45.60481225653415" lon="10.693374982642817"><ele>206.0</ele><time>2026-03-28T13:40:45Z</time></trkpt><trkpt lat="45.60464884188098" lon="10.693239323308818"><ele>206.0</ele><time>2026-03-28T13:40:46Z</time></trkpt><trkpt lat="45.60449485076885" lon="10.693131720036556"><ele>204.0</ele><time>2026-03-28T13:40:47Z</time></trkpt><trkpt lat="45.60435913419321" lon="10.692973264093947"><ele>202.0</ele><time>2026-03-28T13:40:48Z</time></trkpt><trkpt lat="45.60422371376403" lon="10.692834392443787"><ele>200.0</ele><time>2026-03-28T13:40:49Z</time></trkpt><trkpt lat="45.60409839586684" lon="10.692694823570653"><ele>200.0</ele><time>2026-03-28T13:40:50Z</time></trkpt><trkpt lat="45.60398030040728" lon="10.692572168924034"><ele>200.0</ele><time>2026-03-28T13:40:51Z</time></trkpt><trkpt lat="45.60388625522685" lon="10.692449435008319"><ele>200.0</ele><time>2026-03-28T13:40:52Z</time></trkpt><trkpt lat="45.60377738003144" lon="10.69234560151796"><ele>200.0</ele><time>2026-03-28T13:40:53Z</time></trkpt><trkpt lat="45.60365047283401" lon="10.69225558090675"><ele>198.75</ele><time>2026-03-28T13:40:54Z</time></trkpt><trkpt lat="45.6035209665294" lon="10.692166085859183"><ele>197.5</ele><time>2026-03-28T13:40:55Z</time></trkpt><trkpt lat="45.60339418564066" lon="10.692082558780704"><ele>196.25</ele><time>2026-03-28T13:40:56Z</time></trkpt><trkpt lat="45.60328995580222" lon="10.691990641285312"><ele>195.0</ele><time>2026-03-28T13:40:57Z</time></trkpt><trkpt lat="45.60317941240864" lon="10.691906857990926"><ele>195.0</ele><time>2026-03-28T13:40:58Z</time></trkpt><trkpt lat="45.60305546473897" lon="10.691829195457823"><ele>195.0</ele><time>2026-03-28T13:40:59Z</time></trkpt><trkpt lat="45.60291816339678" lon="10.691735203708442"><ele>195.0</ele><time>2026-03-28T13:41:00Z</time></trkpt><trkpt lat="45.60279848713283" lon="10.691624253399096"><ele>195.0</ele><time>2026-03-28T13:41:01Z</time></trkpt><trkpt lat="45.6026863904141" lon="10.691501804310377"><ele>197.25</ele><time>2026-03-28T13:41:02Z</time></trkpt><trkpt lat="45.60259832157222" lon="10.691345223660937"><ele>199.5</ele><time>2026-03-28T13:41:03Z</time></trkpt><trkpt lat="45.60249771265518" lon="10.691219353908691"><ele>201.75</ele><time>2026-03-28T13:41:04Z</time></trkpt><trkpt lat="45.60238350200808" lon="10.691131666111398"><ele>204.0</ele><time>2026-03-28T13:41:05Z</time></trkpt><trkpt lat="45.60225941993815" lon="10.691054501450326"><ele>198.66666666666666</ele><time>2026-03-28T13:41:06Z</time></trkpt><trkpt lat="45.60211317553223" lon="10.690956283742755"><ele>193.33333333333331</ele><time>2026-03-28T13:41:07Z</time></trkpt><trkpt lat="45.60195201269825" lon="10.69087873287873"><ele>188.0</ele><time>2026-03-28T13:41:08Z</time></trkpt><trkpt lat="45.601773058843065" lon="10.690791966383658"><ele>188.0</ele><time>2026-03-28T13:41:09Z</time></trkpt><trkpt lat="45.60161327979986" lon="10.690719544556899"><ele>188.0</ele><time>2026-03-28T13:41:10Z</time></trkpt><trkpt lat="45.60145465743389" lon="10.690650822232243"><ele>188.0</ele><time>2026-03-28T13:41:11Z</time></trkpt><trkpt lat="45.601307110913886" lon="10.690586655448692"><ele>188.0</ele><time>2026-03-28T13:41:12Z</time></trkpt><trkpt lat="45.601179907929335" lon="10.690522407250398"><ele>188.0</ele><time>2026-03-28T13:41:13Z</time></trkpt><trkpt lat="45.601071862541886" lon="10.690442686801623"><ele>188.0</ele><time>2026-03-28T13:41:14Z</time></trkpt><trkpt lat="45.60097099962659" lon="10.690378060083278"><ele>188.0</ele><time>2026-03-28T13:41:15Z</time></trkpt><trkpt lat="45.6008883974106" lon="10.690349559715989"><ele>189.8</ele><time>2026-03-28T13:41:16Z</time></trkpt><trkpt lat="45.600818278365935" lon="10.690321845237857"><ele>191.60000000000002</ele><time>2026-03-28T13:41:17Z</time></trkpt><trkpt lat="45.60072948138258" lon="10.690282542956737"><ele>193.39999999999998</ele><time>2026-03-28T13:41:19Z</time></trkpt><trkpt lat="45.60080010684286" lon="10.690166837096209"><ele>195.2</ele><time>2026-03-28T13:41:22Z</time></trkpt><trkpt lat="45.600896151070955" lon="10.690205219868211"><ele>197.0</ele><time>2026-03-28T13:41:23Z</time></trkpt><trkpt lat="45.601027748590596" lon="10.690215947195274"><ele>186.0</ele><time>2026-03-28T13:41:24Z</time></trkpt><trkpt lat="45.60118247894405" lon="10.690234629705104"><ele>175.0</ele><time>2026-03-28T13:41:25Z</time></trkpt><trkpt lat="45.601354365722905" lon="10.690234261514346"><ele>164.0</ele><time>2026-03-28T13:41:26Z</time></trkpt><trkpt lat="45.60153488288626" lon="10.69023567457222"><ele>164.0</ele><time>2026-03-28T13:41:27Z</time></trkpt><trkpt lat="45.60173161946602" lon="10.690244208512167"><ele>164.0</ele><time>2026-03-28T13:41:28Z</time></trkpt><trkpt lat="45.601918072967166" lon="10.690256523426614"><ele>164.0</ele><time>2026-03-28T13:41:29Z</time></trkpt><trkpt lat="45.60209378915965" lon="10.690274009891796"><ele>169.66666666666666</ele><time>2026-03-28T13:41:30Z</time></trkpt><trkpt lat="45.60225092904681" lon="10.690270222237295"><ele>175.33333333333334</ele><time>2026-03-28T13:41:31Z</time></trkpt><trkpt lat="45.6024157620068" lon="10.69028247726236"><ele>181.0</ele><time>2026-03-28T13:41:32Z</time></trkpt><trkpt lat="45.60256313800112" lon="10.690303405231333"><ele>181.0</ele><time>2026-03-28T13:41:33Z</time></trkpt><trkpt lat="45.602718505049566" lon="10.69032859467663"><ele>181.0</ele><time>2026-03-28T13:41:34Z</time></trkpt><trkpt lat="45.60289772744047" lon="10.690332336406318"><ele>181.0</ele><time>2026-03-28T13:41:35Z</time></trkpt><trkpt lat="45.60309993888056" lon="10.69031716416711"><ele>178.0</ele><time>2026-03-28T13:41:36Z</time></trkpt><trkpt lat="45.60329901797202" lon="10.69030051873911"><ele>175.0</ele><time>2026-03-28T13:41:37Z</time></trkpt><trkpt lat="45.603494338011195" lon="10.690294030323885"><ele>172.0</ele><time>2026-03-28T13:41:38Z</time></trkpt><trkpt lat="45.60367153424681" lon="10.690294404113944"><ele>169.66666666666669</ele><time>2026-03-28T13:41:39Z</time></trkpt><trkpt lat="45.60385077646219" lon="10.690294810686954"><ele>167.33333333333334</ele><time>2026-03-28T13:41:40Z</time></trkpt><trkpt lat="45.60400987028256" lon="10.69029415275277"><ele>165.0</ele><time>2026-03-28T13:41:41Z</time></trkpt><trkpt lat="45.60416847194928" lon="10.690290078161787"><ele>165.0</ele><time>2026-03-28T13:41:42Z</time></trkpt><trkpt lat="45.60430579645403" lon="10.690294644419405"><ele>165.0</ele><time>2026-03-28T13:41:43Z</time></trkpt><trkpt lat="45.60443852932824" lon="10.690325308332103"><ele>165.0</ele><time>2026-03-28T13:41:44Z</time></trkpt><trkpt lat="45.6045764045311" lon="10.69038349249552"><ele>165.0</ele><time>2026-03-28T13:41:45Z</time></trkpt><trkpt lat="45.604723431083244" lon="10.690451091581721"><ele>162.0</ele><time>2026-03-28T13:41:46Z</time></trkpt><trkpt lat="45.60486805833599" lon="10.690499127311401"><ele>159.0</ele><time>2026-03-28T13:41:47Z</time></trkpt><trkpt lat="45.60500520648113" lon="10.690525411170894"><ele>156.0</ele><time>2026-03-28T13:41:48Z</time></trkpt><trkpt lat="45.605146894507094" lon="10.690536696875377"><ele>153.0</ele><time>2026-03-28T13:41:49Z</time></trkpt><trkpt lat="45.605275011045734" lon="10.690551889883068"><ele>149.0</ele><time>2026-03-28T13:41:50Z</time></trkpt><trkpt lat="45.60539481307328" lon="10.690603729527693"><ele>145.0</ele><time>2026-03-28T13:41:51Z</time></trkpt><trkpt lat="45.605513492893685" lon="10.69067853603046"><ele>141.0</ele><time>2026-03-28T13:41:52Z</time></trkpt><trkpt lat="45.60561495853649" lon="10.690762824727878"><ele>137.0</ele><time>2026-03-28T13:41:53Z</time></trkpt><trkpt lat="45.60570379739375" lon="10.690858336735733"><ele>137.0</ele><time>2026-03-28T13:41:54Z</time></trkpt><trkpt lat="45.60577690972301" lon="10.690934478903339"><ele>137.0</ele><time>2026-03-28T13:41:55Z</time></trkpt><trkpt lat="45.605834338540824" lon="10.690994076618043"><ele>137.0</ele><time>2026-03-28T13:41:56Z</time></trkpt><trkpt lat="45.605926685417614" lon="10.691036514582116"><ele>137.0</ele><time>2026-03-28T13:41:58Z</time></trkpt><trkpt lat="45.605958326314315" lon="10.690940762773955"><ele>137.0</ele><time>2026-03-28T13:41:59Z</time></trkpt><trkpt lat="45.60593871328003" lon="10.690850939587376"><ele>137.0</ele><time>2026-03-28T13:42:00Z</time></trkpt><trkpt lat="45.60587895414521" lon="10.690775946303564"><ele>137.0</ele><time>2026-03-28T13:42:01Z</time></trkpt><trkpt lat="45.60580774352703" lon="10.690691539177289"><ele>137.0</ele><time>2026-03-28T13:42:02Z</time></trkpt><trkpt lat="45.605716043335086" lon="10.690582654457165"><ele>137.0</ele><time>2026-03-28T13:42:03Z</time></trkpt><trkpt lat="45.605607892524894" lon="10.690455630511497"><ele>137.0</ele><time>2026-03-28T13:42:04Z</time></trkpt><trkpt lat="45.60549502726613" lon="10.690323069141877"><ele>136.0</ele><time>2026-03-28T13:42:05Z</time></trkpt><trkpt lat="45.60536796685931" lon="10.690208909463463"><ele>135.0</ele><time>2026-03-28T13:42:06Z</time></trkpt><trkpt lat="45.60522629378026" lon="10.690067031720972"><ele>134.0</ele><time>2026-03-28T13:42:07Z</time></trkpt><trkpt lat="45.60508100563595" lon="10.68990429781579"><ele>134.0</ele><time>2026-03-28T13:42:08Z</time></trkpt><trkpt lat="45.60491904317618" lon="10.689786282312479"><ele>134.0</ele><time>2026-03-28T13:42:09Z</time></trkpt><trkpt lat="45.60479083447783" lon="10.689665118319613"><ele>134.0</ele><time>2026-03-28T13:42:10Z</time></trkpt><trkpt lat="45.604671667023254" lon="10.68956629590942"><ele>134.0</ele><time>2026-03-28T13:42:11Z</time></trkpt><trkpt lat="45.60457057742766" lon="10.689489747792742"><ele>134.0</ele><time>2026-03-28T13:42:12Z</time></trkpt><trkpt lat="45.60449899746336" lon="10.689417298853073"><ele>134.0</ele><time>2026-03-28T13:42:13Z</time></trkpt><trkpt lat="45.60442995773346" lon="10.689380620294898"><ele>134.0</ele><time>2026-03-28T13:42:14Z</time></trkpt><trkpt lat="45.604348494462556" lon="10.689273960654132"><ele>134.0</ele><time>2026-03-28T13:42:16Z</time></trkpt><trkpt lat="45.60438131833191" lon="10.68917104719354"><ele>132.25</ele><time>2026-03-28T13:42:18Z</time></trkpt><trkpt lat="45.60445176441502" lon="10.689155182187221"><ele>130.5</ele><time>2026-03-28T13:42:19Z</time></trkpt><trkpt lat="45.604543154825016" lon="10.689217614250708"><ele>128.75</ele><time>2026-03-28T13:42:20Z</time></trkpt><trkpt lat="45.604674397699796" lon="10.689246036761896"><ele>127.0</ele><time>2026-03-28T13:42:21Z</time></trkpt><trkpt lat="45.60481552571308" lon="10.689293742672973"><ele>125.5</ele><time>2026-03-28T13:42:22Z</time></trkpt><trkpt lat="45.604961215645275" lon="10.689319536134064"><ele>124.0</ele><time>2026-03-28T13:42:23Z</time></trkpt><trkpt lat="45.605097726425385" lon="10.689334792918896"><ele>122.5</ele><time>2026-03-28T13:42:24Z</time></trkpt><trkpt lat="45.60521937939599" lon="10.689395266300235"><ele>121.0</ele><time>2026-03-28T13:42:25Z</time></trkpt><trkpt lat="45.60535521434286" lon="10.689478621913404"><ele>121.0</ele><time>2026-03-28T13:42:26Z</time></trkpt><trkpt lat="45.60551395248214" lon="10.689562553718485"><ele>121.0</ele><time>2026-03-28T13:42:27Z</time></trkpt><trkpt lat="45.605683502635614" lon="10.68961976089432"><ele>121.0</ele><time>2026-03-28T13:42:28Z</time></trkpt><trkpt lat="45.60585054468796" lon="10.689715287967717"><ele>121.0</ele><time>2026-03-28T13:42:29Z</time></trkpt><trkpt lat="45.605983941130894" lon="10.689801636152566"><ele>121.0</ele><time>2026-03-28T13:42:30Z</time></trkpt><trkpt lat="45.60609624895237" lon="10.689922275277027"><ele>121.0</ele><time>2026-03-28T13:42:31Z</time></trkpt><trkpt lat="45.606206218914174" lon="10.690054185691949"><ele>121.0</ele><time>2026-03-28T13:42:32Z</time></trkpt><trkpt lat="45.60633408970118" lon="10.690190996668088"><ele>121.25</ele><time>2026-03-28T13:42:33Z</time></trkpt><trkpt lat="45.606442514693335" lon="10.690319703344631"><ele>121.5</ele><time>2026-03-28T13:42:34Z</time></trkpt><trkpt lat="45.60655219282675" lon="10.69042502662924"><ele>121.75</ele><time>2026-03-28T13:42:35Z</time></trkpt><trkpt lat="45.60666551469622" lon="10.690499603548991"><ele>122.0</ele><time>2026-03-28T13:42:36Z</time></trkpt><trkpt lat="45.6067760272976" lon="10.690574034502577"><ele>122.0</ele><time>2026-03-28T13:42:37Z</time></trkpt><trkpt lat="45.606909736727175" lon="10.690656157646078"><ele>122.0</ele><time>2026-03-28T13:42:38Z</time></trkpt><trkpt lat="45.607063149871045" lon="10.690738024443942"><ele>122.0</ele><time>2026-03-28T13:42:39Z</time></trkpt><trkpt lat="45.607238769578984" lon="10.690807141343754"><ele>116.0</ele><time>2026-03-28T13:42:40Z</time></trkpt><trkpt lat="45.60741906602041" lon="10.690872740959401"><ele>110.0</ele><time>2026-03-28T13:42:41Z</time></trkpt><trkpt lat="45.60758227278715" lon="10.690938725068392"><ele>104.0</ele><time>2026-03-28T13:42:42Z</time></trkpt><trkpt lat="45.60773881282585" lon="10.691018302879387"><ele>105.25</ele><time>2026-03-28T13:42:43Z</time></trkpt><trkpt lat="45.60787022390929" lon="10.69109934771642"><ele>106.5</ele><time>2026-03-28T13:42:44Z</time></trkpt><trkpt lat="45.60799821184468" lon="10.691171521177251"><ele>107.75</ele><time>2026-03-28T13:42:45Z</time></trkpt><trkpt lat="45.60812732087652" lon="10.691211921289842"><ele>109.0</ele><time>2026-03-28T13:42:46Z</time></trkpt><trkpt lat="45.60828292479483" lon="10.691219867174613"><ele>109.0</ele><time>2026-03-28T13:42:47Z</time></trkpt><trkpt lat="45.60845665199037" lon="10.691212213090672"><ele>109.0</ele><time>2026-03-28T13:42:48Z</time></trkpt><trkpt lat="45.60864671143146" lon="10.691202215559116"><ele>109.0</ele><time>2026-03-28T13:42:49Z</time></trkpt><trkpt lat="45.6088276352543" lon="10.691187006042952"><ele>105.66666666666667</ele><time>2026-03-28T13:42:50Z</time></trkpt><trkpt lat="45.60899279263884" lon="10.691183577709413"><ele>102.33333333333334</ele><time>2026-03-28T13:42:51Z</time></trkpt><trkpt lat="45.60915116627007" lon="10.691178328794807"><ele>99.0</ele><time>2026-03-28T13:42:52Z</time></trkpt><trkpt lat="45.609292871470736" lon="10.691190667892522"><ele>99.0</ele><time>2026-03-28T13:42:53Z</time></trkpt><trkpt lat="45.609415704635346" lon="10.691209179184959"><ele>99.0</ele><time>2026-03-28T13:42:54Z</time></trkpt><trkpt lat="45.609524835641984" lon="10.691206572306431"><ele>99.0</ele><time>2026-03-28T13:42:55Z</time></trkpt><trkpt lat="45.60963215203602" lon="10.691192149705024"><ele>99.0</ele><time>2026-03-28T13:42:56Z</time></trkpt><trkpt lat="45.60972892366379" lon="10.691134451943535"><ele>99.0</ele><time>2026-03-28T13:42:57Z</time></trkpt><trkpt lat="45.60979828382183" lon="10.691044383686608"><ele>96.5</ele><time>2026-03-28T13:42:58Z</time></trkpt><trkpt lat="45.609836027472646" lon="10.690918754035014"><ele>94.0</ele><time>2026-03-28T13:42:59Z</time></trkpt><trkpt lat="45.60984952409294" lon="10.690747934302035"><ele>91.5</ele><time>2026-03-28T13:43:00Z</time></trkpt><trkpt lat="45.60986274892193" lon="10.690548389421474"><ele>89.0</ele><time>2026-03-28T13:43:01Z</time></trkpt><trkpt lat="45.60986036882443" lon="10.690319293054063"><ele>87.5</ele><time>2026-03-28T13:43:02Z</time></trkpt><trkpt lat="45.609844202743325" lon="10.690105369627043"><ele>86.0</ele><time>2026-03-28T13:43:03Z</time></trkpt><trkpt lat="45.60982576102458" lon="10.689910745407065"><ele>84.5</ele><time>2026-03-28T13:43:04Z</time></trkpt><trkpt lat="45.609813686965744" lon="10.689745247337141"><ele>83.0</ele><time>2026-03-28T13:43:05Z</time></trkpt><trkpt lat="45.60982914491937" lon="10.689608942596907"><ele>83.0</ele><time>2026-03-28T13:43:06Z</time></trkpt><trkpt lat="45.60983562617334" lon="10.689477016777966"><ele>83.0</ele><time>2026-03-28T13:43:07Z</time></trkpt><trkpt lat="45.60983375874766" lon="10.689341003990414"><ele>83.0</ele><time>2026-03-28T13:43:08Z</time></trkpt><trkpt lat="45.60986185287885" lon="10.689213848857067"><ele>83.0</ele><time>2026-03-28T13:43:09Z</time></trkpt><trkpt lat="45.609888558947354" lon="10.68909100884927"><ele>83.0</ele><time>2026-03-28T13:43:10Z</time></trkpt><trkpt lat="45.6099115071844" lon="10.688975005174065"><ele>82.0</ele><time>2026-03-28T13:43:11Z</time></trkpt><trkpt lat="45.609926485832446" lon="10.688858319689684"><ele>81.0</ele><time>2026-03-28T13:43:12Z</time></trkpt><trkpt lat="45.60995569443916" lon="10.688761453102172"><ele>80.0</ele><time>2026-03-28T13:43:13Z</time></trkpt><trkpt lat="45.60997612388571" lon="10.688605468799617"><ele>79.0</ele><time>2026-03-28T13:43:15Z</time></trkpt><trkpt lat="45.60997625673858" lon="10.688490264309927"><ele>78.0</ele><time>2026-03-28T13:43:17Z</time></trkpt><trkpt lat="45.609982817112716" lon="10.688392060194282"><ele>77.0</ele><time>2026-03-28T13:43:19Z</time></trkpt><trkpt lat="45.6098431186932" lon="10.688391031911253"><ele>76.2</ele><time>2026-03-28T13:43:22Z</time></trkpt><trkpt lat="45.60977441131871" lon="10.688416454578388"><ele>75.4</ele><time>2026-03-28T13:43:23Z</time></trkpt><trkpt lat="45.60970763905038" lon="10.68844313723248"><ele>74.6</ele><time>2026-03-28T13:43:24Z</time></trkpt><trkpt lat="45.60962459651199" lon="10.688481954082516"><ele>73.8</ele><time>2026-03-28T13:43:26Z</time></trkpt><trkpt lat="45.60955414193354" lon="10.688500170237818"><ele>73.0</ele><time>2026-03-28T13:43:28Z</time></trkpt><trkpt lat="45.609387703052064" lon="10.688322107267824"><ele>73.0</ele><time>2026-03-28T13:43:30Z</time></trkpt><trkpt lat="45.60931549404875" lon="10.688262093852217"><ele>73.0</ele><time>2026-03-28T13:43:31Z</time></trkpt><trkpt lat="45.609205861995584" lon="10.68819333919045"><ele>73.0</ele><time>2026-03-28T13:43:33Z</time></trkpt><trkpt lat="45.609107882956245" lon="10.688108051294238"><ele>73.0</ele><time>2026-03-28T13:43:35Z</time></trkpt><trkpt lat="45.609003655325175" lon="10.68803052780071"><ele>73.0</ele><time>2026-03-28T13:43:37Z</time></trkpt><trkpt lat="45.60891197290492" lon="10.687968488376555"><ele>73.0</ele><time>2026-03-28T13:43:39Z</time></trkpt><trkpt lat="45.60885444637494" lon="10.687916150413024"><ele>73.0</ele><time>2026-03-28T13:43:41Z</time></trkpt><trkpt lat="45.608782233343405" lon="10.687878055494426"><ele>73.0</ele><time>2026-03-28T13:43:43Z</time></trkpt><trkpt lat="45.60869730484255" lon="10.687854275099701"><ele>73.0</ele><time>2026-03-28T13:43:45Z</time></trkpt><trkpt lat="45.60860454538707" lon="10.687794906882123"><ele>73.0</ele><time>2026-03-28T13:43:47Z</time></trkpt><trkpt lat="45.60848463134949" lon="10.687768092870527"><ele>73.0</ele><time>2026-03-28T13:43:49Z</time></trkpt><trkpt lat="45.60836590380781" lon="10.687725394559006"><ele>73.0</ele><time>2026-03-28T13:43:51Z</time></trkpt><trkpt lat="45.608262549121555" lon="10.687667539290874"><ele>73.0</ele><time>2026-03-28T13:43:53Z</time></trkpt><trkpt lat="45.60814740473375" lon="10.687627375251468"><ele>73.0</ele><time>2026-03-28T13:43:55Z</time></trkpt><trkpt lat="45.608083672503795" lon="10.687603228979967"><ele>73.0</ele><time>2026-03-28T13:43:56Z</time></trkpt><trkpt lat="45.607966838128476" lon="10.687555025716863"><ele>73.0</ele><time>2026-03-28T13:43:58Z</time></trkpt><trkpt lat="45.60784710584814" lon="10.687493127150281"><ele>73.0</ele><time>2026-03-28T13:44:00Z</time></trkpt><trkpt lat="45.60777566193867" lon="10.687449630248365"><ele>73.0</ele><time>2026-03-28T13:44:01Z</time></trkpt><trkpt lat="45.607697560405136" lon="10.687394362349231"><ele>73.0</ele><time>2026-03-28T13:44:02Z</time></trkpt><trkpt lat="45.60761556996311" lon="10.68734560161238"><ele>73.0</ele><time>2026-03-28T13:44:03Z</time></trkpt><trkpt lat="45.60754140289879" lon="10.687304188531728"><ele>73.33333333333333</ele><time>2026-03-28T13:44:04Z</time></trkpt><trkpt lat="45.607477270588184" lon="10.687292725452354"><ele>73.66666666666666</ele><time>2026-03-28T13:44:05Z</time></trkpt><trkpt lat="45.60736978959759" lon="10.687238131083042"><ele>74.0</ele><time>2026-03-28T13:44:07Z</time></trkpt><trkpt lat="45.607250850117644" lon="10.687193361070406"><ele>74.33333333333333</ele><time>2026-03-28T13:44:09Z</time></trkpt><trkpt lat="45.60719149258989" lon="10.6871530718924"><ele>74.66666666666667</ele><time>2026-03-28T13:44:10Z</time></trkpt><trkpt lat="45.60711836755471" lon="10.687145041081276"><ele>75.0</ele><time>2026-03-28T13:44:11Z</time></trkpt><trkpt lat="45.607042529835816" lon="10.687161385804588"><ele>75.16666666666667</ele><time>2026-03-28T13:44:12Z</time></trkpt><trkpt lat="45.60695781085812" lon="10.68715908861473"><ele>75.33333333333333</ele><time>2026-03-28T13:44:13Z</time></trkpt><trkpt lat="45.60688297703262" lon="10.687153779171156"><ele>75.5</ele><time>2026-03-28T13:44:14Z</time></trkpt><trkpt lat="45.60680740012413" lon="10.687148338053769"><ele>75.66666666666666</ele><time>2026-03-28T13:44:15Z</time></trkpt><trkpt lat="45.60673634455756" lon="10.687143497844799"><ele>75.83333333333333</ele><time>2026-03-28T13:44:16Z</time></trkpt><trkpt lat="45.60661989121489" lon="10.687135565201904"><ele>76.0</ele><time>2026-03-28T13:44:18Z</time></trkpt><trkpt lat="45.606507411214984" lon="10.687124687336825"><ele>76.0</ele><time>2026-03-28T13:44:20Z</time></trkpt><trkpt lat="45.606424958996655" lon="10.687158091973167"><ele>76.0</ele><time>2026-03-28T13:44:21Z</time></trkpt><trkpt lat="45.60633297676862" lon="10.687129165384826"><ele>76.0</ele><time>2026-03-28T13:44:22Z</time></trkpt><trkpt lat="45.60623648616384" lon="10.68710157617321"><ele>76.0</ele><time>2026-03-28T13:44:23Z</time></trkpt><trkpt lat="45.606157764831764" lon="10.687096101377868"><ele>76.0</ele><time>2026-03-28T13:44:24Z</time></trkpt><trkpt lat="45.60610117675091" lon="10.687053156059347"><ele>76.0</ele><time>2026-03-28T13:44:25Z</time></trkpt><trkpt lat="45.60600995415889" lon="10.687045849398483"><ele>75.39999999999999</ele><time>2026-03-28T13:44:27Z</time></trkpt><trkpt lat="45.60597126848807" lon="10.686894396133376"><ele>74.8</ele><time>2026-03-28T13:44:30Z</time></trkpt><trkpt lat="45.60596044150414" lon="10.686726270725094"><ele>74.19999999999999</ele><time>2026-03-28T13:44:32Z</time></trkpt><trkpt lat="45.60595341766287" lon="10.686616959832932"><ele>73.6</ele><time>2026-03-28T13:44:34Z</time></trkpt><trkpt lat="45.60594786607065" lon="10.686524687766179"><ele>73.0</ele><time>2026-03-28T13:44:36Z</time></trkpt><trkpt lat="45.60593735987601" lon="10.68641412778855"><ele>73.0</ele><time>2026-03-28T13:44:38Z</time></trkpt><trkpt lat="45.60594160744742" lon="10.686316419569048"><ele>73.0</ele><time>2026-03-28T13:44:40Z</time></trkpt><trkpt lat="45.605929456571964" lon="10.686214241989148"><ele>73.0</ele><time>2026-03-28T13:44:45Z</time></trkpt><trkpt lat="45.60591685327322" lon="10.686120135861959"><ele>73.0</ele><time>2026-03-28T13:44:50Z</time></trkpt><trkpt lat="45.60590592582882" lon="10.686030067504866"><ele>73.0</ele><time>2026-03-28T13:44:56Z</time></trkpt><trkpt lat="45.605754726585026" lon="10.686012909759043"><ele>73.0</ele><time>2026-03-28T13:44:57Z</time></trkpt><trkpt lat="45.60564121636103" lon="10.68602286626574"><ele>72.16666666666666</ele><time>2026-03-28T13:44:58Z</time></trkpt><trkpt lat="45.605560435611835" lon="10.686015718544757"><ele>71.33333333333333</ele><time>2026-03-28T13:44:59Z</time></trkpt><trkpt lat="45.605456849447464" lon="10.686028376065625"><ele>70.5</ele><time>2026-03-28T13:45:00Z</time></trkpt><trkpt lat="45.605379865734406" lon="10.686028634889658"><ele>69.66666666666667</ele><time>2026-03-28T13:45:01Z</time></trkpt><trkpt lat="45.60530783978547" lon="10.685940068712027"><ele>68.83333333333334</ele><time>2026-03-28T13:45:03Z</time></trkpt><trkpt lat="45.605318546811894" lon="10.68584496717486"><ele>68.0</ele><time>2026-03-28T13:45:04Z</time></trkpt><trkpt lat="45.605436995206844" lon="10.685793316165334"><ele>68.0</ele><time>2026-03-28T13:45:06Z</time></trkpt><trkpt lat="45.60553383477597" lon="10.685744718344294"><ele>68.0</ele><time>2026-03-28T13:45:07Z</time></trkpt><trkpt lat="45.6056313993377" lon="10.685676438662128"><ele>68.0</ele><time>2026-03-28T13:45:08Z</time></trkpt><trkpt lat="45.60570283986706" lon="10.685642966762629"><ele>68.0</ele><time>2026-03-28T13:45:09Z</time></trkpt><trkpt lat="45.60580902095623" lon="10.685599389073875"><ele>68.0</ele><time>2026-03-28T13:45:11Z</time></trkpt><trkpt lat="45.60587880545495" lon="10.685568336421245"><ele>68.0</ele><time>2026-03-28T13:45:13Z</time></trkpt></trkseg></trk></gpx>